<?xml version="1.0" encoding="UTF-8" standalone="no" ?>
<gpx xmlns="http://www.topografix.com/GPX/1/1" xmlns:xsi="http://www.w3.org/2001/XMLSchema-instance" xsi:schemaLocation="http://www.topografix.com/GPX/1/1 http://www.topografix.com/GPX/1/1/gpx.xsd" version="1.1" creator="VisuGPX - https://www.visugpx.com">
  <metadata>
    <name>Pornichet 12/05/2022</name>
    <desc><![CDATA[Sortie jeudi 12 mai 2022]]></desc>
  </metadata>
  <trk>
    <name><![CDATA[Pornichet Cyclisme]]></name>
    <trkseg>
      <trkpt lat="47.26372" lon="-2.31489">
        <ele>9.6</ele>
        <time>2022-05-12T06:49:06.000Z</time>
      </trkpt>
      <trkpt lat="47.2638" lon="-2.31512">
        <ele>9.7</ele>
        <time>2022-05-12T06:49:10.000Z</time>
      </trkpt>
      <trkpt lat="47.26381" lon="-2.31518">
        <ele>9.7</ele>
        <time>2022-05-12T06:49:11.000Z</time>
      </trkpt>
      <trkpt lat="47.26382" lon="-2.31524">
        <ele>9.7</ele>
        <time>2022-05-12T06:49:12.000Z</time>
      </trkpt>
      <trkpt lat="47.26388" lon="-2.31565">
        <ele>9</ele>
        <time>2022-05-12T06:49:20.000Z</time>
      </trkpt>
      <trkpt lat="47.26391" lon="-2.31595">
        <ele>9.1</ele>
        <time>2022-05-12T06:49:26.000Z</time>
      </trkpt>
      <trkpt lat="47.26381" lon="-2.31603">
        <ele>8.7</ele>
        <time>2022-05-12T06:49:30.000Z</time>
      </trkpt>
      <trkpt lat="47.26357" lon="-2.31617">
        <ele>7.8</ele>
        <time>2022-05-12T06:49:36.000Z</time>
      </trkpt>
      <trkpt lat="47.26347" lon="-2.31623">
        <ele>-0.40000000596046</ele>
        <time>2022-05-12T06:49:38.000Z</time>
      </trkpt>
      <trkpt lat="47.26342" lon="-2.31626">
        <ele>-0.80000001192093</ele>
        <time>2022-05-12T06:49:39.000Z</time>
      </trkpt>
      <trkpt lat="47.26337" lon="-2.31629">
        <ele>-1.3999999761581</ele>
        <time>2022-05-12T06:49:40.000Z</time>
      </trkpt>
      <trkpt lat="47.26332" lon="-2.31632">
        <ele>-1.7999999523163</ele>
        <time>2022-05-12T06:49:41.000Z</time>
      </trkpt>
      <trkpt lat="47.26327" lon="-2.31634">
        <ele>-2.2000000476837</ele>
        <time>2022-05-12T06:49:42.000Z</time>
      </trkpt>
      <trkpt lat="47.26322" lon="-2.31636">
        <ele>-2.2000000476837</ele>
        <time>2022-05-12T06:49:43.000Z</time>
      </trkpt>
      <trkpt lat="47.263" lon="-2.3165">
        <ele>-2.5999999046326</ele>
        <time>2022-05-12T06:49:48.000Z</time>
      </trkpt>
      <trkpt lat="47.26296" lon="-2.31655">
        <ele>-3</ele>
        <time>2022-05-12T06:49:49.000Z</time>
      </trkpt>
      <trkpt lat="47.26295" lon="-2.3166">
        <ele>-3.4000000953674</ele>
        <time>2022-05-12T06:49:50.000Z</time>
      </trkpt>
      <trkpt lat="47.26294" lon="-2.31665">
        <ele>-4</ele>
        <time>2022-05-12T06:49:51.000Z</time>
      </trkpt>
      <trkpt lat="47.26294" lon="-2.3167">
        <ele>-4.4000000953674</ele>
        <time>2022-05-12T06:49:52.000Z</time>
      </trkpt>
      <trkpt lat="47.26293" lon="-2.31676">
        <ele>-4.4000000953674</ele>
        <time>2022-05-12T06:49:53.000Z</time>
      </trkpt>
      <trkpt lat="47.26294" lon="-2.31695">
        <ele>-4.4000000953674</ele>
        <time>2022-05-12T06:49:56.000Z</time>
      </trkpt>
      <trkpt lat="47.26294" lon="-2.31739">
        <ele>-4.4000000953674</ele>
        <time>2022-05-12T06:50:03.000Z</time>
      </trkpt>
      <trkpt lat="47.26291" lon="-2.31781">
        <ele>-4.4000000953674</ele>
        <time>2022-05-12T06:50:09.000Z</time>
      </trkpt>
      <trkpt lat="47.26291" lon="-2.31812">
        <ele>-4.4000000953674</ele>
        <time>2022-05-12T06:50:14.000Z</time>
      </trkpt>
      <trkpt lat="47.26283" lon="-2.31823">
        <ele>-4.4000000953674</ele>
        <time>2022-05-12T06:50:17.000Z</time>
      </trkpt>
      <trkpt lat="47.26277" lon="-2.31831">
        <ele>-4.4000000953674</ele>
        <time>2022-05-12T06:50:19.000Z</time>
      </trkpt>
      <trkpt lat="47.26273" lon="-2.31835">
        <ele>-4.4000000953674</ele>
        <time>2022-05-12T06:50:20.000Z</time>
      </trkpt>
      <trkpt lat="47.26266" lon="-2.31847">
        <ele>-4.4000000953674</ele>
        <time>2022-05-12T06:50:22.000Z</time>
      </trkpt>
      <trkpt lat="47.26257" lon="-2.31865">
        <ele>-4.4000000953674</ele>
        <time>2022-05-12T06:50:28.000Z</time>
      </trkpt>
      <trkpt lat="47.26248" lon="-2.31884">
        <ele>-4.4000000953674</ele>
        <time>2022-05-12T06:50:34.000Z</time>
      </trkpt>
      <trkpt lat="47.26241" lon="-2.31894">
        <ele>-4.4000000953674</ele>
        <time>2022-05-12T06:50:38.000Z</time>
      </trkpt>
      <trkpt lat="47.26226" lon="-2.31907">
        <ele>-4.4000000953674</ele>
        <time>2022-05-12T06:50:44.000Z</time>
      </trkpt>
      <trkpt lat="47.26214" lon="-2.31919">
        <ele>-4.4000000953674</ele>
        <time>2022-05-12T06:50:48.000Z</time>
      </trkpt>
      <trkpt lat="47.26211" lon="-2.31921">
        <ele>-4.4000000953674</ele>
        <time>2022-05-12T06:50:49.000Z</time>
      </trkpt>
      <trkpt lat="47.26205" lon="-2.31936">
        <ele>-4.4000000953674</ele>
        <time>2022-05-12T06:50:53.000Z</time>
      </trkpt>
      <trkpt lat="47.26202" lon="-2.3194">
        <ele>-4.4000000953674</ele>
        <time>2022-05-12T06:50:54.000Z</time>
      </trkpt>
      <trkpt lat="47.26196" lon="-2.31943">
        <ele>-4.4000000953674</ele>
        <time>2022-05-12T06:50:57.000Z</time>
      </trkpt>
      <trkpt lat="47.26191" lon="-2.31943">
        <ele>-4.4000000953674</ele>
        <time>2022-05-12T06:50:59.000Z</time>
      </trkpt>
      <trkpt lat="47.26176" lon="-2.31944">
        <ele>-4.4000000953674</ele>
        <time>2022-05-12T06:51:03.000Z</time>
      </trkpt>
      <trkpt lat="47.26164" lon="-2.31952">
        <ele>-4.4000000953674</ele>
        <time>2022-05-12T06:51:06.000Z</time>
      </trkpt>
      <trkpt lat="47.26162" lon="-2.31956">
        <ele>-4.4000000953674</ele>
        <time>2022-05-12T06:51:07.000Z</time>
      </trkpt>
      <trkpt lat="47.26154" lon="-2.3198">
        <ele>-4.4000000953674</ele>
        <time>2022-05-12T06:51:11.000Z</time>
      </trkpt>
      <trkpt lat="47.26143" lon="-2.32013">
        <ele>-4.4000000953674</ele>
        <time>2022-05-12T06:51:17.000Z</time>
      </trkpt>
      <trkpt lat="47.26134" lon="-2.3205">
        <ele>-4.4000000953674</ele>
        <time>2022-05-12T06:51:24.000Z</time>
      </trkpt>
      <trkpt lat="47.26125" lon="-2.32078">
        <ele>-4.4000000953674</ele>
        <time>2022-05-12T06:51:30.000Z</time>
      </trkpt>
      <trkpt lat="47.26111" lon="-2.3211">
        <ele>-4.4000000953674</ele>
        <time>2022-05-12T06:51:36.000Z</time>
      </trkpt>
      <trkpt lat="47.26099" lon="-2.32138">
        <ele>-4.4000000953674</ele>
        <time>2022-05-12T06:51:41.000Z</time>
      </trkpt>
      <trkpt lat="47.26093" lon="-2.32148">
        <ele>-4.4000000953674</ele>
        <time>2022-05-12T06:51:43.000Z</time>
      </trkpt>
      <trkpt lat="47.26072" lon="-2.32176">
        <ele>-4.4000000953674</ele>
        <time>2022-05-12T06:51:49.000Z</time>
      </trkpt>
      <trkpt lat="47.26068" lon="-2.32181">
        <ele>-4.4000000953674</ele>
        <time>2022-05-12T06:51:50.000Z</time>
      </trkpt>
      <trkpt lat="47.26049" lon="-2.32202">
        <ele>-4.4000000953674</ele>
        <time>2022-05-12T06:51:55.000Z</time>
      </trkpt>
      <trkpt lat="47.26045" lon="-2.32207">
        <ele>-4.4000000953674</ele>
        <time>2022-05-12T06:51:56.000Z</time>
      </trkpt>
      <trkpt lat="47.26035" lon="-2.3222">
        <ele>-4.4000000953674</ele>
        <time>2022-05-12T06:51:59.000Z</time>
      </trkpt>
      <trkpt lat="47.26027" lon="-2.32228">
        <ele>-4.4000000953674</ele>
        <time>2022-05-12T06:52:01.000Z</time>
      </trkpt>
      <trkpt lat="47.26" lon="-2.32262">
        <ele>-4.4000000953674</ele>
        <time>2022-05-12T06:52:08.000Z</time>
      </trkpt>
      <trkpt lat="47.25968" lon="-2.32307">
        <ele>-4.4000000953674</ele>
        <time>2022-05-12T06:52:16.000Z</time>
      </trkpt>
      <trkpt lat="47.25935" lon="-2.32356">
        <ele>-4.4000000953674</ele>
        <time>2022-05-12T06:52:25.000Z</time>
      </trkpt>
      <trkpt lat="47.25931" lon="-2.32361">
        <ele>-4.4000000953674</ele>
        <time>2022-05-12T06:52:26.000Z</time>
      </trkpt>
      <trkpt lat="47.25913" lon="-2.32386">
        <ele>-4.4000000953674</ele>
        <time>2022-05-12T06:52:31.000Z</time>
      </trkpt>
      <trkpt lat="47.25903" lon="-2.32403">
        <ele>-4.4000000953674</ele>
        <time>2022-05-12T06:52:35.000Z</time>
      </trkpt>
      <trkpt lat="47.25907" lon="-2.32416">
        <ele>-4.4000000953674</ele>
        <time>2022-05-12T06:52:38.000Z</time>
      </trkpt>
      <trkpt lat="47.25913" lon="-2.32423">
        <ele>-4.4000000953674</ele>
        <time>2022-05-12T06:52:40.000Z</time>
      </trkpt>
      <trkpt lat="47.25917" lon="-2.32428">
        <ele>-4.4000000953674</ele>
        <time>2022-05-12T06:52:41.000Z</time>
      </trkpt>
      <trkpt lat="47.25919" lon="-2.32434">
        <ele>-4.4000000953674</ele>
        <time>2022-05-12T06:52:42.000Z</time>
      </trkpt>
      <trkpt lat="47.25926" lon="-2.32454">
        <ele>-4.4000000953674</ele>
        <time>2022-05-12T06:52:45.000Z</time>
      </trkpt>
      <trkpt lat="47.2593" lon="-2.32466">
        <ele>-4.4000000953674</ele>
        <time>2022-05-12T06:52:47.000Z</time>
      </trkpt>
      <trkpt lat="47.25943" lon="-2.32511">
        <ele>-4.4000000953674</ele>
        <time>2022-05-12T06:52:54.000Z</time>
      </trkpt>
      <trkpt lat="47.25954" lon="-2.32549">
        <ele>-4.4000000953674</ele>
        <time>2022-05-12T06:53:00.000Z</time>
      </trkpt>
      <trkpt lat="47.25955" lon="-2.32555">
        <ele>-4.4000000953674</ele>
        <time>2022-05-12T06:53:01.000Z</time>
      </trkpt>
      <trkpt lat="47.25961" lon="-2.32591">
        <ele>-4.4000000953674</ele>
        <time>2022-05-12T06:53:05.000Z</time>
      </trkpt>
      <trkpt lat="47.25961" lon="-2.32608">
        <ele>-4.4000000953674</ele>
        <time>2022-05-12T06:53:07.000Z</time>
      </trkpt>
      <trkpt lat="47.25966" lon="-2.32634">
        <ele>-4.4000000953674</ele>
        <time>2022-05-12T06:53:10.000Z</time>
      </trkpt>
      <trkpt lat="47.25975" lon="-2.3264">
        <ele>-4.4000000953674</ele>
        <time>2022-05-12T06:53:13.000Z</time>
      </trkpt>
      <trkpt lat="47.25978" lon="-2.32643">
        <ele>-4.4000000953674</ele>
        <time>2022-05-12T06:53:14.000Z</time>
      </trkpt>
      <trkpt lat="47.25982" lon="-2.32644">
        <ele>-4.4000000953674</ele>
        <time>2022-05-12T06:53:15.000Z</time>
      </trkpt>
      <trkpt lat="47.25998" lon="-2.32645">
        <ele>-4.4000000953674</ele>
        <time>2022-05-12T06:53:19.000Z</time>
      </trkpt>
      <trkpt lat="47.26037" lon="-2.32644">
        <ele>-4.4000000953674</ele>
        <time>2022-05-12T06:53:28.000Z</time>
      </trkpt>
      <trkpt lat="47.26042" lon="-2.32644">
        <ele>-4.4000000953674</ele>
        <time>2022-05-12T06:53:29.000Z</time>
      </trkpt>
      <trkpt lat="47.26065" lon="-2.32639">
        <ele>-4.4000000953674</ele>
        <time>2022-05-12T06:53:34.000Z</time>
      </trkpt>
      <trkpt lat="47.2611" lon="-2.32636">
        <ele>-4.4000000953674</ele>
        <time>2022-05-12T06:53:44.000Z</time>
      </trkpt>
      <trkpt lat="47.26127" lon="-2.32636">
        <ele>-4.4000000953674</ele>
        <time>2022-05-12T06:53:48.000Z</time>
      </trkpt>
      <trkpt lat="47.2614" lon="-2.32641">
        <ele>-4.4000000953674</ele>
        <time>2022-05-12T06:53:51.000Z</time>
      </trkpt>
      <trkpt lat="47.26144" lon="-2.32643">
        <ele>-4.4000000953674</ele>
        <time>2022-05-12T06:53:52.000Z</time>
      </trkpt>
      <trkpt lat="47.26174" lon="-2.32659">
        <ele>-4.4000000953674</ele>
        <time>2022-05-12T06:53:59.000Z</time>
      </trkpt>
      <trkpt lat="47.26206" lon="-2.32689">
        <ele>-4.4000000953674</ele>
        <time>2022-05-12T06:54:07.000Z</time>
      </trkpt>
      <trkpt lat="47.26233" lon="-2.32724">
        <ele>-4.4000000953674</ele>
        <time>2022-05-12T06:54:14.000Z</time>
      </trkpt>
      <trkpt lat="47.26263" lon="-2.3277">
        <ele>-4.4000000953674</ele>
        <time>2022-05-12T06:54:22.000Z</time>
      </trkpt>
      <trkpt lat="47.2627" lon="-2.32783">
        <ele>-4.4000000953674</ele>
        <time>2022-05-12T06:54:24.000Z</time>
      </trkpt>
      <trkpt lat="47.26276" lon="-2.32797">
        <ele>-4.8000001907349</ele>
        <time>2022-05-12T06:54:26.000Z</time>
      </trkpt>
      <trkpt lat="47.26279" lon="-2.32804">
        <ele>-5.1999998092651</ele>
        <time>2022-05-12T06:54:27.000Z</time>
      </trkpt>
      <trkpt lat="47.26281" lon="-2.32812">
        <ele>-5.5999999046326</ele>
        <time>2022-05-12T06:54:28.000Z</time>
      </trkpt>
      <trkpt lat="47.26284" lon="-2.32819">
        <ele>-6</ele>
        <time>2022-05-12T06:54:29.000Z</time>
      </trkpt>
      <trkpt lat="47.26286" lon="-2.32827">
        <ele>-6.4000000953674</ele>
        <time>2022-05-12T06:54:30.000Z</time>
      </trkpt>
      <trkpt lat="47.26288" lon="-2.32834">
        <ele>-6.4000000953674</ele>
        <time>2022-05-12T06:54:31.000Z</time>
      </trkpt>
      <trkpt lat="47.26293" lon="-2.32855">
        <ele>-6.4000000953674</ele>
        <time>2022-05-12T06:54:34.000Z</time>
      </trkpt>
      <trkpt lat="47.26305" lon="-2.32866">
        <ele>-6.4000000953674</ele>
        <time>2022-05-12T06:54:37.000Z</time>
      </trkpt>
      <trkpt lat="47.26319" lon="-2.32882">
        <ele>-6.4000000953674</ele>
        <time>2022-05-12T06:54:41.000Z</time>
      </trkpt>
      <trkpt lat="47.26324" lon="-2.32896">
        <ele>-6.4000000953674</ele>
        <time>2022-05-12T06:54:43.000Z</time>
      </trkpt>
      <trkpt lat="47.26331" lon="-2.32915">
        <ele>-6.4000000953674</ele>
        <time>2022-05-12T06:54:46.000Z</time>
      </trkpt>
      <trkpt lat="47.26348" lon="-2.32968">
        <ele>-6.4000000953674</ele>
        <time>2022-05-12T06:54:54.000Z</time>
      </trkpt>
      <trkpt lat="47.26352" lon="-2.32974">
        <ele>-6.4000000953674</ele>
        <time>2022-05-12T06:54:55.000Z</time>
      </trkpt>
      <trkpt lat="47.26362" lon="-2.32989">
        <ele>-6.4000000953674</ele>
        <time>2022-05-12T06:54:58.000Z</time>
      </trkpt>
      <trkpt lat="47.26366" lon="-2.3301">
        <ele>-6.4000000953674</ele>
        <time>2022-05-12T06:55:01.000Z</time>
      </trkpt>
      <trkpt lat="47.26366" lon="-2.33025">
        <ele>-6.4000000953674</ele>
        <time>2022-05-12T06:55:03.000Z</time>
      </trkpt>
      <trkpt lat="47.26368" lon="-2.33061">
        <ele>-6.4000000953674</ele>
        <time>2022-05-12T06:55:08.000Z</time>
      </trkpt>
      <trkpt lat="47.26369" lon="-2.33129">
        <ele>-6.4000000953674</ele>
        <time>2022-05-12T06:55:17.000Z</time>
      </trkpt>
      <trkpt lat="47.26372" lon="-2.33212">
        <ele>-6.4000000953674</ele>
        <time>2022-05-12T06:55:28.000Z</time>
      </trkpt>
      <trkpt lat="47.26375" lon="-2.33242">
        <ele>-6.4000000953674</ele>
        <time>2022-05-12T06:55:32.000Z</time>
      </trkpt>
      <trkpt lat="47.26381" lon="-2.33261">
        <ele>-6.4000000953674</ele>
        <time>2022-05-12T06:55:35.000Z</time>
      </trkpt>
      <trkpt lat="47.26394" lon="-2.33271">
        <ele>-6.4000000953674</ele>
        <time>2022-05-12T06:55:38.000Z</time>
      </trkpt>
      <trkpt lat="47.26403" lon="-2.33273">
        <ele>-6.4000000953674</ele>
        <time>2022-05-12T06:55:40.000Z</time>
      </trkpt>
      <trkpt lat="47.26418" lon="-2.33275">
        <ele>-6.4000000953674</ele>
        <time>2022-05-12T06:55:43.000Z</time>
      </trkpt>
      <trkpt lat="47.26462" lon="-2.33277">
        <ele>-6.4000000953674</ele>
        <time>2022-05-12T06:55:52.000Z</time>
      </trkpt>
      <trkpt lat="47.2647" lon="-2.33278">
        <ele>-6.4000000953674</ele>
        <time>2022-05-12T06:55:54.000Z</time>
      </trkpt>
      <trkpt lat="47.26486" lon="-2.33279">
        <ele>-6.4000000953674</ele>
        <time>2022-05-12T06:55:58.000Z</time>
      </trkpt>
      <trkpt lat="47.26499" lon="-2.33281">
        <ele>-6.4000000953674</ele>
        <time>2022-05-12T06:56:01.000Z</time>
      </trkpt>
      <trkpt lat="47.26506" lon="-2.33286">
        <ele>-6.4000000953674</ele>
        <time>2022-05-12T06:56:03.000Z</time>
      </trkpt>
      <trkpt lat="47.26519" lon="-2.33302">
        <ele>-6.4000000953674</ele>
        <time>2022-05-12T06:56:07.000Z</time>
      </trkpt>
      <trkpt lat="47.26524" lon="-2.33313">
        <ele>-6.4000000953674</ele>
        <time>2022-05-12T06:56:09.000Z</time>
      </trkpt>
      <trkpt lat="47.26526" lon="-2.3334">
        <ele>-6.4000000953674</ele>
        <time>2022-05-12T06:56:13.000Z</time>
      </trkpt>
      <trkpt lat="47.26527" lon="-2.33347">
        <ele>-6.4000000953674</ele>
        <time>2022-05-12T06:56:14.000Z</time>
      </trkpt>
      <trkpt lat="47.26533" lon="-2.33376">
        <ele>-6.4000000953674</ele>
        <time>2022-05-12T06:56:18.000Z</time>
      </trkpt>
      <trkpt lat="47.26535" lon="-2.33383">
        <ele>-6.4000000953674</ele>
        <time>2022-05-12T06:56:19.000Z</time>
      </trkpt>
      <trkpt lat="47.26543" lon="-2.33417">
        <ele>-6.4000000953674</ele>
        <time>2022-05-12T06:56:24.000Z</time>
      </trkpt>
      <trkpt lat="47.26552" lon="-2.33467">
        <ele>-6.4000000953674</ele>
        <time>2022-05-12T06:56:31.000Z</time>
      </trkpt>
      <trkpt lat="47.26561" lon="-2.33522">
        <ele>-6.4000000953674</ele>
        <time>2022-05-12T06:56:39.000Z</time>
      </trkpt>
      <trkpt lat="47.26568" lon="-2.33579">
        <ele>-6.4000000953674</ele>
        <time>2022-05-12T06:56:47.000Z</time>
      </trkpt>
      <trkpt lat="47.26575" lon="-2.33638">
        <ele>-6.4000000953674</ele>
        <time>2022-05-12T06:56:56.000Z</time>
      </trkpt>
      <trkpt lat="47.26582" lon="-2.3367">
        <ele>-6</ele>
        <time>2022-05-12T06:57:02.000Z</time>
      </trkpt>
      <trkpt lat="47.26585" lon="-2.33674">
        <ele>-5.5999999046326</ele>
        <time>2022-05-12T06:57:03.000Z</time>
      </trkpt>
      <trkpt lat="47.26588" lon="-2.33679">
        <ele>-5.1999998092651</ele>
        <time>2022-05-12T06:57:04.000Z</time>
      </trkpt>
      <trkpt lat="47.26591" lon="-2.33683">
        <ele>-4.8000001907349</ele>
        <time>2022-05-12T06:57:05.000Z</time>
      </trkpt>
      <trkpt lat="47.26593" lon="-2.33688">
        <ele>-4.4000000953674</ele>
        <time>2022-05-12T06:57:06.000Z</time>
      </trkpt>
      <trkpt lat="47.26597" lon="-2.33692">
        <ele>-4.4000000953674</ele>
        <time>2022-05-12T06:57:07.000Z</time>
      </trkpt>
      <trkpt lat="47.2661" lon="-2.33709">
        <ele>-4.4000000953674</ele>
        <time>2022-05-12T06:57:11.000Z</time>
      </trkpt>
      <trkpt lat="47.26615" lon="-2.33719">
        <ele>-4.4000000953674</ele>
        <time>2022-05-12T06:57:13.000Z</time>
      </trkpt>
      <trkpt lat="47.2662" lon="-2.3373">
        <ele>-4.4000000953674</ele>
        <time>2022-05-12T06:57:15.000Z</time>
      </trkpt>
      <trkpt lat="47.26628" lon="-2.33743">
        <ele>-4.4000000953674</ele>
        <time>2022-05-12T06:57:18.000Z</time>
      </trkpt>
      <trkpt lat="47.26634" lon="-2.33751">
        <ele>-4.4000000953674</ele>
        <time>2022-05-12T06:57:22.000Z</time>
      </trkpt>
      <trkpt lat="47.26636" lon="-2.33755">
        <ele>-4.4000000953674</ele>
        <time>2022-05-12T06:57:23.000Z</time>
      </trkpt>
      <trkpt lat="47.26646" lon="-2.33773">
        <ele>-4.4000000953674</ele>
        <time>2022-05-12T06:57:28.000Z</time>
      </trkpt>
      <trkpt lat="47.26662" lon="-2.33796">
        <ele>-4.4000000953674</ele>
        <time>2022-05-12T06:57:34.000Z</time>
      </trkpt>
      <trkpt lat="47.26665" lon="-2.338">
        <ele>-4.4000000953674</ele>
        <time>2022-05-12T06:57:35.000Z</time>
      </trkpt>
      <trkpt lat="47.26677" lon="-2.33819">
        <ele>-4.4000000953674</ele>
        <time>2022-05-12T06:57:39.000Z</time>
      </trkpt>
      <trkpt lat="47.26702" lon="-2.33853">
        <ele>-4.4000000953674</ele>
        <time>2022-05-12T06:57:47.000Z</time>
      </trkpt>
      <trkpt lat="47.26713" lon="-2.33875">
        <ele>-4.4000000953674</ele>
        <time>2022-05-12T06:57:52.000Z</time>
      </trkpt>
      <trkpt lat="47.26716" lon="-2.33879">
        <ele>-4.4000000953674</ele>
        <time>2022-05-12T06:57:53.000Z</time>
      </trkpt>
      <trkpt lat="47.26732" lon="-2.33905">
        <ele>-4</ele>
        <time>2022-05-12T06:57:58.000Z</time>
      </trkpt>
      <trkpt lat="47.26736" lon="-2.3391">
        <ele>-3.5999999046326</ele>
        <time>2022-05-12T06:57:59.000Z</time>
      </trkpt>
      <trkpt lat="47.26739" lon="-2.33915">
        <ele>-3.2000000476837</ele>
        <time>2022-05-12T06:58:00.000Z</time>
      </trkpt>
      <trkpt lat="47.26743" lon="-2.3392">
        <ele>-2.7999999523163</ele>
        <time>2022-05-12T06:58:01.000Z</time>
      </trkpt>
      <trkpt lat="47.26746" lon="-2.33925">
        <ele>-2.4000000953674</ele>
        <time>2022-05-12T06:58:02.000Z</time>
      </trkpt>
      <trkpt lat="47.26756" lon="-2.33942">
        <ele>-2.4000000953674</ele>
        <time>2022-05-12T06:58:05.000Z</time>
      </trkpt>
      <trkpt lat="47.26763" lon="-2.33954">
        <ele>-2.4000000953674</ele>
        <time>2022-05-12T06:58:07.000Z</time>
      </trkpt>
      <trkpt lat="47.26766" lon="-2.33958">
        <ele>-2.4000000953674</ele>
        <time>2022-05-12T06:58:08.000Z</time>
      </trkpt>
      <trkpt lat="47.2678" lon="-2.33979">
        <ele>-2.4000000953674</ele>
        <time>2022-05-12T06:58:12.000Z</time>
      </trkpt>
      <trkpt lat="47.26803" lon="-2.34017">
        <ele>-2.4000000953674</ele>
        <time>2022-05-12T06:58:19.000Z</time>
      </trkpt>
      <trkpt lat="47.26827" lon="-2.34053">
        <ele>-2.4000000953674</ele>
        <time>2022-05-12T06:58:26.000Z</time>
      </trkpt>
      <trkpt lat="47.26832" lon="-2.34064">
        <ele>-2.4000000953674</ele>
        <time>2022-05-12T06:58:28.000Z</time>
      </trkpt>
      <trkpt lat="47.26842" lon="-2.34081">
        <ele>-2.4000000953674</ele>
        <time>2022-05-12T06:58:31.000Z</time>
      </trkpt>
      <trkpt lat="47.26852" lon="-2.34096">
        <ele>-2.4000000953674</ele>
        <time>2022-05-12T06:58:34.000Z</time>
      </trkpt>
      <trkpt lat="47.26875" lon="-2.34135">
        <ele>-2.4000000953674</ele>
        <time>2022-05-12T06:58:41.000Z</time>
      </trkpt>
      <trkpt lat="47.26879" lon="-2.3414">
        <ele>-2.4000000953674</ele>
        <time>2022-05-12T06:58:42.000Z</time>
      </trkpt>
      <trkpt lat="47.26893" lon="-2.3416">
        <ele>-2.4000000953674</ele>
        <time>2022-05-12T06:58:46.000Z</time>
      </trkpt>
      <trkpt lat="47.26914" lon="-2.34193">
        <ele>-2.4000000953674</ele>
        <time>2022-05-12T06:58:52.000Z</time>
      </trkpt>
      <trkpt lat="47.26939" lon="-2.34231">
        <ele>-2.4000000953674</ele>
        <time>2022-05-12T06:58:59.000Z</time>
      </trkpt>
      <trkpt lat="47.2697" lon="-2.34281">
        <ele>-2.4000000953674</ele>
        <time>2022-05-12T06:59:08.000Z</time>
      </trkpt>
      <trkpt lat="47.26989" lon="-2.34311">
        <ele>-2.4000000953674</ele>
        <time>2022-05-12T06:59:14.000Z</time>
      </trkpt>
      <trkpt lat="47.26992" lon="-2.34315">
        <ele>-2.4000000953674</ele>
        <time>2022-05-12T06:59:15.000Z</time>
      </trkpt>
      <trkpt lat="47.27002" lon="-2.34319">
        <ele>-2.4000000953674</ele>
        <time>2022-05-12T06:59:18.000Z</time>
      </trkpt>
      <trkpt lat="47.27007" lon="-2.3432">
        <ele>-2.4000000953674</ele>
        <time>2022-05-12T06:59:20.000Z</time>
      </trkpt>
      <trkpt lat="47.27014" lon="-2.34323">
        <ele>-2.4000000953674</ele>
        <time>2022-05-12T06:59:23.000Z</time>
      </trkpt>
      <trkpt lat="47.27016" lon="-2.34323">
        <ele>-2.4000000953674</ele>
        <time>2022-05-12T06:59:27.000Z</time>
      </trkpt>
      <trkpt lat="47.27017" lon="-2.34323">
        <ele>-2.4000000953674</ele>
        <time>2022-05-12T07:00:01.000Z</time>
      </trkpt>
      <trkpt lat="47.27021" lon="-2.34323">
        <ele>-2.4000000953674</ele>
        <time>2022-05-12T07:00:04.000Z</time>
      </trkpt>
      <trkpt lat="47.27034" lon="-2.34324">
        <ele>-2.4000000953674</ele>
        <time>2022-05-12T07:00:10.000Z</time>
      </trkpt>
      <trkpt lat="47.27033" lon="-2.34324">
        <ele>-2.4000000953674</ele>
        <time>2022-05-12T07:00:11.000Z</time>
      </trkpt>
      <trkpt lat="47.27034" lon="-2.34328">
        <ele>-2.4000000953674</ele>
        <time>2022-05-12T07:00:19.000Z</time>
      </trkpt>
      <trkpt lat="47.27036" lon="-2.34333">
        <ele>-2.4000000953674</ele>
        <time>2022-05-12T07:00:20.000Z</time>
      </trkpt>
      <trkpt lat="47.27043" lon="-2.34362">
        <ele>-2.4000000953674</ele>
        <time>2022-05-12T07:00:24.000Z</time>
      </trkpt>
      <trkpt lat="47.27054" lon="-2.34408">
        <ele>-2.4000000953674</ele>
        <time>2022-05-12T07:00:30.000Z</time>
      </trkpt>
      <trkpt lat="47.27057" lon="-2.34416">
        <ele>-2.4000000953674</ele>
        <time>2022-05-12T07:00:31.000Z</time>
      </trkpt>
      <trkpt lat="47.27069" lon="-2.3447">
        <ele>-2.4000000953674</ele>
        <time>2022-05-12T07:00:38.000Z</time>
      </trkpt>
      <trkpt lat="47.27084" lon="-2.3453">
        <ele>-2.4000000953674</ele>
        <time>2022-05-12T07:00:46.000Z</time>
      </trkpt>
      <trkpt lat="47.27099" lon="-2.3459">
        <ele>-2.4000000953674</ele>
        <time>2022-05-12T07:00:54.000Z</time>
      </trkpt>
      <trkpt lat="47.27115" lon="-2.34655">
        <ele>-2.4000000953674</ele>
        <time>2022-05-12T07:01:02.000Z</time>
      </trkpt>
      <trkpt lat="47.27132" lon="-2.34729">
        <ele>-2.4000000953674</ele>
        <time>2022-05-12T07:01:11.000Z</time>
      </trkpt>
      <trkpt lat="47.2714" lon="-2.34775">
        <ele>-2.4000000953674</ele>
        <time>2022-05-12T07:01:17.000Z</time>
      </trkpt>
      <trkpt lat="47.27143" lon="-2.34791">
        <ele>-2.4000000953674</ele>
        <time>2022-05-12T07:01:19.000Z</time>
      </trkpt>
      <trkpt lat="47.27148" lon="-2.34815">
        <ele>-2.4000000953674</ele>
        <time>2022-05-12T07:01:22.000Z</time>
      </trkpt>
      <trkpt lat="47.27159" lon="-2.34861">
        <ele>-2.4000000953674</ele>
        <time>2022-05-12T07:01:28.000Z</time>
      </trkpt>
      <trkpt lat="47.2717" lon="-2.34898">
        <ele>-2.4000000953674</ele>
        <time>2022-05-12T07:01:33.000Z</time>
      </trkpt>
      <trkpt lat="47.27176" lon="-2.34913">
        <ele>-2.4000000953674</ele>
        <time>2022-05-12T07:01:35.000Z</time>
      </trkpt>
      <trkpt lat="47.272" lon="-2.34986">
        <ele>-2.4000000953674</ele>
        <time>2022-05-12T07:01:45.000Z</time>
      </trkpt>
      <trkpt lat="47.27211" lon="-2.35019">
        <ele>-1.7999999523163</ele>
        <time>2022-05-12T07:01:50.000Z</time>
      </trkpt>
      <trkpt lat="47.27214" lon="-2.35026">
        <ele>-1.3999999761581</ele>
        <time>2022-05-12T07:01:51.000Z</time>
      </trkpt>
      <trkpt lat="47.27216" lon="-2.35033">
        <ele>-1</ele>
        <time>2022-05-12T07:01:52.000Z</time>
      </trkpt>
      <trkpt lat="47.27219" lon="-2.3504">
        <ele>-0.60000002384186</ele>
        <time>2022-05-12T07:01:53.000Z</time>
      </trkpt>
      <trkpt lat="47.27222" lon="-2.35047">
        <ele>-0.20000000298023</ele>
        <time>2022-05-12T07:01:54.000Z</time>
      </trkpt>
      <trkpt lat="47.27235" lon="-2.35084">
        <ele>-0.20000000298023</ele>
        <time>2022-05-12T07:01:59.000Z</time>
      </trkpt>
      <trkpt lat="47.2726" lon="-2.35126">
        <ele>-0.20000000298023</ele>
        <time>2022-05-12T07:02:05.000Z</time>
      </trkpt>
      <trkpt lat="47.27271" lon="-2.35123">
        <ele>-0.20000000298023</ele>
        <time>2022-05-12T07:02:10.000Z</time>
      </trkpt>
      <trkpt lat="47.2729" lon="-2.35111">
        <ele>-0.20000000298023</ele>
        <time>2022-05-12T07:02:16.000Z</time>
      </trkpt>
      <trkpt lat="47.27297" lon="-2.35112">
        <ele>-0.20000000298023</ele>
        <time>2022-05-12T07:02:20.000Z</time>
      </trkpt>
      <trkpt lat="47.273" lon="-2.35109">
        <ele>-0.20000000298023</ele>
        <time>2022-05-12T07:02:22.000Z</time>
      </trkpt>
      <trkpt lat="47.27305" lon="-2.35104">
        <ele>-0.20000000298023</ele>
        <time>2022-05-12T07:02:24.000Z</time>
      </trkpt>
      <trkpt lat="47.27315" lon="-2.35096">
        <ele>0.20000000298023</ele>
        <time>2022-05-12T07:02:28.000Z</time>
      </trkpt>
      <trkpt lat="47.27318" lon="-2.35095">
        <ele>0.60000002384186</ele>
        <time>2022-05-12T07:02:29.000Z</time>
      </trkpt>
      <trkpt lat="47.27322" lon="-2.35094">
        <ele>1</ele>
        <time>2022-05-12T07:02:30.000Z</time>
      </trkpt>
      <trkpt lat="47.27325" lon="-2.35092">
        <ele>1.3999999761581</ele>
        <time>2022-05-12T07:02:31.000Z</time>
      </trkpt>
      <trkpt lat="47.27329" lon="-2.35091">
        <ele>1.7999999523163</ele>
        <time>2022-05-12T07:02:32.000Z</time>
      </trkpt>
      <trkpt lat="47.27336" lon="-2.35086">
        <ele>1.7999999523163</ele>
        <time>2022-05-12T07:02:34.000Z</time>
      </trkpt>
      <trkpt lat="47.27344" lon="-2.35083">
        <ele>2.2000000476837</ele>
        <time>2022-05-12T07:02:36.000Z</time>
      </trkpt>
      <trkpt lat="47.27348" lon="-2.3508">
        <ele>2.5999999046326</ele>
        <time>2022-05-12T07:02:37.000Z</time>
      </trkpt>
      <trkpt lat="47.27351" lon="-2.35078">
        <ele>3</ele>
        <time>2022-05-12T07:02:38.000Z</time>
      </trkpt>
      <trkpt lat="47.27355" lon="-2.35076">
        <ele>3.4000000953674</ele>
        <time>2022-05-12T07:02:39.000Z</time>
      </trkpt>
      <trkpt lat="47.27358" lon="-2.35074">
        <ele>3.7999999523163</ele>
        <time>2022-05-12T07:02:40.000Z</time>
      </trkpt>
      <trkpt lat="47.27374" lon="-2.35067">
        <ele>3.7999999523163</ele>
        <time>2022-05-12T07:02:45.000Z</time>
      </trkpt>
      <trkpt lat="47.27382" lon="-2.35063">
        <ele>4.8000001907349</ele>
        <time>2022-05-12T07:02:48.000Z</time>
      </trkpt>
      <trkpt lat="47.27386" lon="-2.35061">
        <ele>5.1999998092651</ele>
        <time>2022-05-12T07:02:49.000Z</time>
      </trkpt>
      <trkpt lat="47.27389" lon="-2.3506">
        <ele>5.5999999046326</ele>
        <time>2022-05-12T07:02:50.000Z</time>
      </trkpt>
      <trkpt lat="47.27392" lon="-2.35057">
        <ele>6</ele>
        <time>2022-05-12T07:02:51.000Z</time>
      </trkpt>
      <trkpt lat="47.27397" lon="-2.35059">
        <ele>6</ele>
        <time>2022-05-12T07:02:53.000Z</time>
      </trkpt>
      <trkpt lat="47.27398" lon="-2.35063">
        <ele>6</ele>
        <time>2022-05-12T07:02:54.000Z</time>
      </trkpt>
      <trkpt lat="47.27403" lon="-2.35077">
        <ele>6</ele>
        <time>2022-05-12T07:02:57.000Z</time>
      </trkpt>
      <trkpt lat="47.27406" lon="-2.35087">
        <ele>6</ele>
        <time>2022-05-12T07:02:59.000Z</time>
      </trkpt>
      <trkpt lat="47.27416" lon="-2.35124">
        <ele>6</ele>
        <time>2022-05-12T07:03:06.000Z</time>
      </trkpt>
      <trkpt lat="47.2743" lon="-2.35166">
        <ele>6</ele>
        <time>2022-05-12T07:03:14.000Z</time>
      </trkpt>
      <trkpt lat="47.2744" lon="-2.35165">
        <ele>6</ele>
        <time>2022-05-12T07:03:17.000Z</time>
      </trkpt>
      <trkpt lat="47.2745" lon="-2.35159">
        <ele>6</ele>
        <time>2022-05-12T07:03:20.000Z</time>
      </trkpt>
      <trkpt lat="47.2746" lon="-2.35155">
        <ele>6</ele>
        <time>2022-05-12T07:03:23.000Z</time>
      </trkpt>
      <trkpt lat="47.27467" lon="-2.35152">
        <ele>6.4000000953674</ele>
        <time>2022-05-12T07:03:25.000Z</time>
      </trkpt>
      <trkpt lat="47.27471" lon="-2.3515">
        <ele>6.8000001907349</ele>
        <time>2022-05-12T07:03:26.000Z</time>
      </trkpt>
      <trkpt lat="47.27475" lon="-2.35148">
        <ele>7.1999998092651</ele>
        <time>2022-05-12T07:03:27.000Z</time>
      </trkpt>
      <trkpt lat="47.27478" lon="-2.35147">
        <ele>7.5999999046326</ele>
        <time>2022-05-12T07:03:28.000Z</time>
      </trkpt>
      <trkpt lat="47.27481" lon="-2.35145">
        <ele>8</ele>
        <time>2022-05-12T07:03:29.000Z</time>
      </trkpt>
      <trkpt lat="47.27484" lon="-2.35144">
        <ele>8</ele>
        <time>2022-05-12T07:03:30.000Z</time>
      </trkpt>
      <trkpt lat="47.27499" lon="-2.35132">
        <ele>8</ele>
        <time>2022-05-12T07:03:35.000Z</time>
      </trkpt>
      <trkpt lat="47.27501" lon="-2.35128">
        <ele>8</ele>
        <time>2022-05-12T07:03:36.000Z</time>
      </trkpt>
      <trkpt lat="47.27511" lon="-2.35128">
        <ele>8.3999996185303</ele>
        <time>2022-05-12T07:03:39.000Z</time>
      </trkpt>
      <trkpt lat="47.27515" lon="-2.3513">
        <ele>8.8000001907349</ele>
        <time>2022-05-12T07:03:40.000Z</time>
      </trkpt>
      <trkpt lat="47.27519" lon="-2.35132">
        <ele>9.1999998092651</ele>
        <time>2022-05-12T07:03:41.000Z</time>
      </trkpt>
      <trkpt lat="47.27523" lon="-2.35133">
        <ele>9.6000003814697</ele>
        <time>2022-05-12T07:03:42.000Z</time>
      </trkpt>
      <trkpt lat="47.27528" lon="-2.35134">
        <ele>10.199999809265</ele>
        <time>2022-05-12T07:03:43.000Z</time>
      </trkpt>
      <trkpt lat="47.27532" lon="-2.35136">
        <ele>10.199999809265</ele>
        <time>2022-05-12T07:03:44.000Z</time>
      </trkpt>
      <trkpt lat="47.2754" lon="-2.35137">
        <ele>10.199999809265</ele>
        <time>2022-05-12T07:03:46.000Z</time>
      </trkpt>
      <trkpt lat="47.27557" lon="-2.35135">
        <ele>10.199999809265</ele>
        <time>2022-05-12T07:03:50.000Z</time>
      </trkpt>
      <trkpt lat="47.27581" lon="-2.35131">
        <ele>10.199999809265</ele>
        <time>2022-05-12T07:03:56.000Z</time>
      </trkpt>
      <trkpt lat="47.27601" lon="-2.3513">
        <ele>10.199999809265</ele>
        <time>2022-05-12T07:04:00.000Z</time>
      </trkpt>
      <trkpt lat="47.27605" lon="-2.35135">
        <ele>10.199999809265</ele>
        <time>2022-05-12T07:04:01.000Z</time>
      </trkpt>
      <trkpt lat="47.27611" lon="-2.35154">
        <ele>10.199999809265</ele>
        <time>2022-05-12T07:04:04.000Z</time>
      </trkpt>
      <trkpt lat="47.27622" lon="-2.35173">
        <ele>10.199999809265</ele>
        <time>2022-05-12T07:04:08.000Z</time>
      </trkpt>
      <trkpt lat="47.27637" lon="-2.35171">
        <ele>10.199999809265</ele>
        <time>2022-05-12T07:04:11.000Z</time>
      </trkpt>
      <trkpt lat="47.27643" lon="-2.3517">
        <ele>10.199999809265</ele>
        <time>2022-05-12T07:04:12.000Z</time>
      </trkpt>
      <trkpt lat="47.27659" lon="-2.35168">
        <ele>9.8000001907349</ele>
        <time>2022-05-12T07:04:15.000Z</time>
      </trkpt>
      <trkpt lat="47.27664" lon="-2.35169">
        <ele>9.1999998092651</ele>
        <time>2022-05-12T07:04:16.000Z</time>
      </trkpt>
      <trkpt lat="47.27669" lon="-2.35171">
        <ele>8.8000001907349</ele>
        <time>2022-05-12T07:04:17.000Z</time>
      </trkpt>
      <trkpt lat="47.27672" lon="-2.35177">
        <ele>8.3999996185303</ele>
        <time>2022-05-12T07:04:18.000Z</time>
      </trkpt>
      <trkpt lat="47.27675" lon="-2.35184">
        <ele>8</ele>
        <time>2022-05-12T07:04:19.000Z</time>
      </trkpt>
      <trkpt lat="47.27676" lon="-2.352">
        <ele>8</ele>
        <time>2022-05-12T07:04:21.000Z</time>
      </trkpt>
      <trkpt lat="47.27677" lon="-2.35207">
        <ele>8</ele>
        <time>2022-05-12T07:04:22.000Z</time>
      </trkpt>
      <trkpt lat="47.27679" lon="-2.35217">
        <ele>7.5999999046326</ele>
        <time>2022-05-12T07:04:24.000Z</time>
      </trkpt>
      <trkpt lat="47.27682" lon="-2.35219">
        <ele>7.1999998092651</ele>
        <time>2022-05-12T07:04:25.000Z</time>
      </trkpt>
      <trkpt lat="47.27686" lon="-2.35219">
        <ele>6.8000001907349</ele>
        <time>2022-05-12T07:04:26.000Z</time>
      </trkpt>
      <trkpt lat="47.2769" lon="-2.35218">
        <ele>6</ele>
        <time>2022-05-12T07:04:27.000Z</time>
      </trkpt>
      <trkpt lat="47.27695" lon="-2.35217">
        <ele>6</ele>
        <time>2022-05-12T07:04:28.000Z</time>
      </trkpt>
      <trkpt lat="47.27721" lon="-2.35206">
        <ele>6</ele>
        <time>2022-05-12T07:04:33.000Z</time>
      </trkpt>
      <trkpt lat="47.27753" lon="-2.352">
        <ele>5.5999999046326</ele>
        <time>2022-05-12T07:04:39.000Z</time>
      </trkpt>
      <trkpt lat="47.27758" lon="-2.35199">
        <ele>5.1999998092651</ele>
        <time>2022-05-12T07:04:40.000Z</time>
      </trkpt>
      <trkpt lat="47.27763" lon="-2.35199">
        <ele>4.8000001907349</ele>
        <time>2022-05-12T07:04:41.000Z</time>
      </trkpt>
      <trkpt lat="47.27767" lon="-2.35199">
        <ele>4.4000000953674</ele>
        <time>2022-05-12T07:04:42.000Z</time>
      </trkpt>
      <trkpt lat="47.27771" lon="-2.35201">
        <ele>4</ele>
        <time>2022-05-12T07:04:43.000Z</time>
      </trkpt>
      <trkpt lat="47.27772" lon="-2.35206">
        <ele>4</ele>
        <time>2022-05-12T07:04:44.000Z</time>
      </trkpt>
      <trkpt lat="47.27778" lon="-2.35223">
        <ele>4</ele>
        <time>2022-05-12T07:04:47.000Z</time>
      </trkpt>
      <trkpt lat="47.27779" lon="-2.3523">
        <ele>4</ele>
        <time>2022-05-12T07:04:48.000Z</time>
      </trkpt>
      <trkpt lat="47.27787" lon="-2.35275">
        <ele>4</ele>
        <time>2022-05-12T07:04:54.000Z</time>
      </trkpt>
      <trkpt lat="47.27799" lon="-2.35328">
        <ele>4</ele>
        <time>2022-05-12T07:05:01.000Z</time>
      </trkpt>
      <trkpt lat="47.27805" lon="-2.3535">
        <ele>4</ele>
        <time>2022-05-12T07:05:04.000Z</time>
      </trkpt>
      <trkpt lat="47.27813" lon="-2.3536">
        <ele>4</ele>
        <time>2022-05-12T07:05:06.000Z</time>
      </trkpt>
      <trkpt lat="47.27826" lon="-2.35362">
        <ele>4</ele>
        <time>2022-05-12T07:05:09.000Z</time>
      </trkpt>
      <trkpt lat="47.27831" lon="-2.35361">
        <ele>4</ele>
        <time>2022-05-12T07:05:10.000Z</time>
      </trkpt>
      <trkpt lat="47.2785" lon="-2.35359">
        <ele>4</ele>
        <time>2022-05-12T07:05:14.000Z</time>
      </trkpt>
      <trkpt lat="47.27868" lon="-2.3536">
        <ele>4</ele>
        <time>2022-05-12T07:05:18.000Z</time>
      </trkpt>
      <trkpt lat="47.27876" lon="-2.35364">
        <ele>4</ele>
        <time>2022-05-12T07:05:20.000Z</time>
      </trkpt>
      <trkpt lat="47.2789" lon="-2.35381">
        <ele>4</ele>
        <time>2022-05-12T07:05:24.000Z</time>
      </trkpt>
      <trkpt lat="47.27911" lon="-2.35411">
        <ele>4</ele>
        <time>2022-05-12T07:05:30.000Z</time>
      </trkpt>
      <trkpt lat="47.27939" lon="-2.35446">
        <ele>4</ele>
        <time>2022-05-12T07:05:37.000Z</time>
      </trkpt>
      <trkpt lat="47.27962" lon="-2.35463">
        <ele>4</ele>
        <time>2022-05-12T07:05:42.000Z</time>
      </trkpt>
      <trkpt lat="47.27967" lon="-2.35465">
        <ele>4</ele>
        <time>2022-05-12T07:05:43.000Z</time>
      </trkpt>
      <trkpt lat="47.27978" lon="-2.3548">
        <ele>4</ele>
        <time>2022-05-12T07:05:46.000Z</time>
      </trkpt>
      <trkpt lat="47.27982" lon="-2.35486">
        <ele>4</ele>
        <time>2022-05-12T07:05:47.000Z</time>
      </trkpt>
      <trkpt lat="47.27987" lon="-2.355">
        <ele>4</ele>
        <time>2022-05-12T07:05:49.000Z</time>
      </trkpt>
      <trkpt lat="47.27995" lon="-2.35516">
        <ele>4</ele>
        <time>2022-05-12T07:05:52.000Z</time>
      </trkpt>
      <trkpt lat="47.28004" lon="-2.35542">
        <ele>4</ele>
        <time>2022-05-12T07:05:58.000Z</time>
      </trkpt>
      <trkpt lat="47.28011" lon="-2.35557">
        <ele>4</ele>
        <time>2022-05-12T07:06:03.000Z</time>
      </trkpt>
      <trkpt lat="47.28013" lon="-2.35561">
        <ele>4.4000000953674</ele>
        <time>2022-05-12T07:06:04.000Z</time>
      </trkpt>
      <trkpt lat="47.28015" lon="-2.35563">
        <ele>5.1999998092651</ele>
        <time>2022-05-12T07:06:05.000Z</time>
      </trkpt>
      <trkpt lat="47.28018" lon="-2.35563">
        <ele>5.5999999046326</ele>
        <time>2022-05-12T07:06:06.000Z</time>
      </trkpt>
      <trkpt lat="47.28021" lon="-2.35563">
        <ele>6</ele>
        <time>2022-05-12T07:06:07.000Z</time>
      </trkpt>
      <trkpt lat="47.28036" lon="-2.35572">
        <ele>6</ele>
        <time>2022-05-12T07:06:12.000Z</time>
      </trkpt>
      <trkpt lat="47.28052" lon="-2.35582">
        <ele>6</ele>
        <time>2022-05-12T07:06:18.000Z</time>
      </trkpt>
      <trkpt lat="47.28067" lon="-2.35589">
        <ele>6.4000000953674</ele>
        <time>2022-05-12T07:06:24.000Z</time>
      </trkpt>
      <trkpt lat="47.28069" lon="-2.35592">
        <ele>6.8000001907349</ele>
        <time>2022-05-12T07:06:25.000Z</time>
      </trkpt>
      <trkpt lat="47.28071" lon="-2.35596">
        <ele>7.1999998092651</ele>
        <time>2022-05-12T07:06:26.000Z</time>
      </trkpt>
      <trkpt lat="47.28074" lon="-2.35599">
        <ele>7.5999999046326</ele>
        <time>2022-05-12T07:06:27.000Z</time>
      </trkpt>
      <trkpt lat="47.28075" lon="-2.35602">
        <ele>8</ele>
        <time>2022-05-12T07:06:28.000Z</time>
      </trkpt>
      <trkpt lat="47.28081" lon="-2.35609">
        <ele>8</ele>
        <time>2022-05-12T07:06:31.000Z</time>
      </trkpt>
      <trkpt lat="47.28083" lon="-2.35611">
        <ele>8</ele>
        <time>2022-05-12T07:06:35.000Z</time>
      </trkpt>
      <trkpt lat="47.2808" lon="-2.35609">
        <ele>8</ele>
        <time>2022-05-12T07:12:17.000Z</time>
      </trkpt>
      <trkpt lat="47.28076" lon="-2.35616">
        <ele>8</ele>
        <time>2022-05-12T07:12:21.000Z</time>
      </trkpt>
      <trkpt lat="47.28076" lon="-2.35619">
        <ele>8</ele>
        <time>2022-05-12T07:12:22.000Z</time>
      </trkpt>
      <trkpt lat="47.28077" lon="-2.35633">
        <ele>8</ele>
        <time>2022-05-12T07:12:27.000Z</time>
      </trkpt>
      <trkpt lat="47.28078" lon="-2.35647">
        <ele>8</ele>
        <time>2022-05-12T07:12:32.000Z</time>
      </trkpt>
      <trkpt lat="47.28079" lon="-2.35652">
        <ele>8</ele>
        <time>2022-05-12T07:12:34.000Z</time>
      </trkpt>
      <trkpt lat="47.28081" lon="-2.35658">
        <ele>8.3999996185303</ele>
        <time>2022-05-12T07:12:36.000Z</time>
      </trkpt>
      <trkpt lat="47.28082" lon="-2.35661">
        <ele>9</ele>
        <time>2022-05-12T07:12:37.000Z</time>
      </trkpt>
      <trkpt lat="47.28083" lon="-2.35664">
        <ele>9.3999996185303</ele>
        <time>2022-05-12T07:12:38.000Z</time>
      </trkpt>
      <trkpt lat="47.28083" lon="-2.35666">
        <ele>9.8000001907349</ele>
        <time>2022-05-12T07:12:39.000Z</time>
      </trkpt>
      <trkpt lat="47.28083" lon="-2.35666">
        <ele>10.199999809265</ele>
        <time>2022-05-12T07:12:40.000Z</time>
      </trkpt>
      <trkpt lat="47.28088" lon="-2.35674">
        <ele>10.199999809265</ele>
        <time>2022-05-12T07:16:10.000Z</time>
      </trkpt>
      <trkpt lat="47.28089" lon="-2.35683">
        <ele>10.199999809265</ele>
        <time>2022-05-12T07:16:13.000Z</time>
      </trkpt>
      <trkpt lat="47.28092" lon="-2.35695">
        <ele>10.60000038147</ele>
        <time>2022-05-12T07:16:18.000Z</time>
      </trkpt>
      <trkpt lat="47.28092" lon="-2.35699">
        <ele>11</ele>
        <time>2022-05-12T07:16:19.000Z</time>
      </trkpt>
      <trkpt lat="47.28093" lon="-2.35702">
        <ele>11.60000038147</ele>
        <time>2022-05-12T07:16:20.000Z</time>
      </trkpt>
      <trkpt lat="47.28093" lon="-2.35706">
        <ele>12</ele>
        <time>2022-05-12T07:16:21.000Z</time>
      </trkpt>
      <trkpt lat="47.28093" lon="-2.35711">
        <ele>12.39999961853</ele>
        <time>2022-05-12T07:16:22.000Z</time>
      </trkpt>
      <trkpt lat="47.28091" lon="-2.3572">
        <ele>12.39999961853</ele>
        <time>2022-05-12T07:16:24.000Z</time>
      </trkpt>
      <trkpt lat="47.28086" lon="-2.35748">
        <ele>12.39999961853</ele>
        <time>2022-05-12T07:16:29.000Z</time>
      </trkpt>
      <trkpt lat="47.28081" lon="-2.35776">
        <ele>12.39999961853</ele>
        <time>2022-05-12T07:16:33.000Z</time>
      </trkpt>
      <trkpt lat="47.28078" lon="-2.35783">
        <ele>12.39999961853</ele>
        <time>2022-05-12T07:16:34.000Z</time>
      </trkpt>
      <trkpt lat="47.28077" lon="-2.3579">
        <ele>11.800000190735</ele>
        <time>2022-05-12T07:16:35.000Z</time>
      </trkpt>
      <trkpt lat="47.28076" lon="-2.35796">
        <ele>11.39999961853</ele>
        <time>2022-05-12T07:16:36.000Z</time>
      </trkpt>
      <trkpt lat="47.28075" lon="-2.35802">
        <ele>11</ele>
        <time>2022-05-12T07:16:37.000Z</time>
      </trkpt>
      <trkpt lat="47.28076" lon="-2.35807">
        <ele>10.60000038147</ele>
        <time>2022-05-12T07:16:38.000Z</time>
      </trkpt>
      <trkpt lat="47.28077" lon="-2.35811">
        <ele>10.199999809265</ele>
        <time>2022-05-12T07:16:39.000Z</time>
      </trkpt>
      <trkpt lat="47.2808" lon="-2.35819">
        <ele>9.6000003814697</ele>
        <time>2022-05-12T07:16:41.000Z</time>
      </trkpt>
      <trkpt lat="47.28082" lon="-2.35821">
        <ele>9.1999998092651</ele>
        <time>2022-05-12T07:16:42.000Z</time>
      </trkpt>
      <trkpt lat="47.28083" lon="-2.35822">
        <ele>8.8000001907349</ele>
        <time>2022-05-12T07:16:43.000Z</time>
      </trkpt>
      <trkpt lat="47.28084" lon="-2.35823">
        <ele>8.3999996185303</ele>
        <time>2022-05-12T07:16:44.000Z</time>
      </trkpt>
      <trkpt lat="47.28082" lon="-2.35819">
        <ele>8</ele>
        <time>2022-05-12T07:16:50.000Z</time>
      </trkpt>
      <trkpt lat="47.28082" lon="-2.35812">
        <ele>8</ele>
        <time>2022-05-12T07:16:53.000Z</time>
      </trkpt>
      <trkpt lat="47.28083" lon="-2.35805">
        <ele>8</ele>
        <time>2022-05-12T07:16:55.000Z</time>
      </trkpt>
      <trkpt lat="47.28089" lon="-2.3579">
        <ele>8</ele>
        <time>2022-05-12T07:16:59.000Z</time>
      </trkpt>
      <trkpt lat="47.28101" lon="-2.35763">
        <ele>8</ele>
        <time>2022-05-12T07:17:05.000Z</time>
      </trkpt>
      <trkpt lat="47.28112" lon="-2.35752">
        <ele>8</ele>
        <time>2022-05-12T07:17:10.000Z</time>
      </trkpt>
      <trkpt lat="47.28127" lon="-2.35746">
        <ele>8</ele>
        <time>2022-05-12T07:17:17.000Z</time>
      </trkpt>
      <trkpt lat="47.28133" lon="-2.35747">
        <ele>8</ele>
        <time>2022-05-12T07:17:19.000Z</time>
      </trkpt>
      <trkpt lat="47.28138" lon="-2.35751">
        <ele>8</ele>
        <time>2022-05-12T07:17:21.000Z</time>
      </trkpt>
      <trkpt lat="47.28148" lon="-2.3576">
        <ele>8</ele>
        <time>2022-05-12T07:17:26.000Z</time>
      </trkpt>
      <trkpt lat="47.28157" lon="-2.35772">
        <ele>8</ele>
        <time>2022-05-12T07:17:33.000Z</time>
      </trkpt>
      <trkpt lat="47.28158" lon="-2.35776">
        <ele>8.3999996185303</ele>
        <time>2022-05-12T07:17:35.000Z</time>
      </trkpt>
      <trkpt lat="47.2816" lon="-2.35778">
        <ele>8.8000001907349</ele>
        <time>2022-05-12T07:17:36.000Z</time>
      </trkpt>
      <trkpt lat="47.28161" lon="-2.3578">
        <ele>9.1999998092651</ele>
        <time>2022-05-12T07:17:37.000Z</time>
      </trkpt>
      <trkpt lat="47.28163" lon="-2.35781">
        <ele>9.6000003814697</ele>
        <time>2022-05-12T07:17:38.000Z</time>
      </trkpt>
      <trkpt lat="47.28164" lon="-2.35783">
        <ele>10.199999809265</ele>
        <time>2022-05-12T07:17:39.000Z</time>
      </trkpt>
      <trkpt lat="47.28171" lon="-2.35802">
        <ele>10.199999809265</ele>
        <time>2022-05-12T07:17:44.000Z</time>
      </trkpt>
      <trkpt lat="47.28179" lon="-2.35827">
        <ele>10.199999809265</ele>
        <time>2022-05-12T07:17:50.000Z</time>
      </trkpt>
      <trkpt lat="47.28187" lon="-2.35858">
        <ele>10.199999809265</ele>
        <time>2022-05-12T07:17:57.000Z</time>
      </trkpt>
      <trkpt lat="47.28191" lon="-2.35869">
        <ele>10.199999809265</ele>
        <time>2022-05-12T07:18:00.000Z</time>
      </trkpt>
      <trkpt lat="47.28196" lon="-2.35876">
        <ele>10.199999809265</ele>
        <time>2022-05-12T07:18:02.000Z</time>
      </trkpt>
      <trkpt lat="47.28203" lon="-2.3588">
        <ele>10.199999809265</ele>
        <time>2022-05-12T07:18:05.000Z</time>
      </trkpt>
      <trkpt lat="47.28207" lon="-2.35883">
        <ele>10.199999809265</ele>
        <time>2022-05-12T07:18:07.000Z</time>
      </trkpt>
      <trkpt lat="47.28217" lon="-2.35889">
        <ele>10.199999809265</ele>
        <time>2022-05-12T07:18:12.000Z</time>
      </trkpt>
      <trkpt lat="47.2823" lon="-2.3589">
        <ele>10.199999809265</ele>
        <time>2022-05-12T07:18:18.000Z</time>
      </trkpt>
      <trkpt lat="47.28234" lon="-2.35892">
        <ele>10.199999809265</ele>
        <time>2022-05-12T07:18:20.000Z</time>
      </trkpt>
      <trkpt lat="47.28238" lon="-2.35899">
        <ele>10.199999809265</ele>
        <time>2022-05-12T07:18:23.000Z</time>
      </trkpt>
      <trkpt lat="47.28254" lon="-2.35922">
        <ele>10.199999809265</ele>
        <time>2022-05-12T07:18:28.000Z</time>
      </trkpt>
      <trkpt lat="47.28256" lon="-2.35927">
        <ele>10.199999809265</ele>
        <time>2022-05-12T07:18:29.000Z</time>
      </trkpt>
      <trkpt lat="47.28272" lon="-2.35956">
        <ele>10.199999809265</ele>
        <time>2022-05-12T07:18:34.000Z</time>
      </trkpt>
      <trkpt lat="47.28283" lon="-2.35972">
        <ele>10.199999809265</ele>
        <time>2022-05-12T07:18:37.000Z</time>
      </trkpt>
      <trkpt lat="47.2829" lon="-2.35977">
        <ele>10.199999809265</ele>
        <time>2022-05-12T07:18:39.000Z</time>
      </trkpt>
      <trkpt lat="47.28299" lon="-2.35973">
        <ele>10.199999809265</ele>
        <time>2022-05-12T07:18:43.000Z</time>
      </trkpt>
      <trkpt lat="47.28305" lon="-2.35963">
        <ele>10.199999809265</ele>
        <time>2022-05-12T07:18:46.000Z</time>
      </trkpt>
      <trkpt lat="47.28306" lon="-2.35958">
        <ele>10.199999809265</ele>
        <time>2022-05-12T07:18:47.000Z</time>
      </trkpt>
      <trkpt lat="47.2832" lon="-2.35933">
        <ele>10.199999809265</ele>
        <time>2022-05-12T07:18:54.000Z</time>
      </trkpt>
      <trkpt lat="47.28334" lon="-2.3592">
        <ele>10.199999809265</ele>
        <time>2022-05-12T07:19:00.000Z</time>
      </trkpt>
      <trkpt lat="47.28346" lon="-2.35914">
        <ele>10.60000038147</ele>
        <time>2022-05-12T07:19:04.000Z</time>
      </trkpt>
      <trkpt lat="47.28349" lon="-2.35913">
        <ele>11</ele>
        <time>2022-05-12T07:19:05.000Z</time>
      </trkpt>
      <trkpt lat="47.28351" lon="-2.35914">
        <ele>11.39999961853</ele>
        <time>2022-05-12T07:19:06.000Z</time>
      </trkpt>
      <trkpt lat="47.28353" lon="-2.35916">
        <ele>11.800000190735</ele>
        <time>2022-05-12T07:19:07.000Z</time>
      </trkpt>
      <trkpt lat="47.28354" lon="-2.35919">
        <ele>12.199999809265</ele>
        <time>2022-05-12T07:19:08.000Z</time>
      </trkpt>
      <trkpt lat="47.28357" lon="-2.35925">
        <ele>12.199999809265</ele>
        <time>2022-05-12T07:19:10.000Z</time>
      </trkpt>
      <trkpt lat="47.28366" lon="-2.35946">
        <ele>12.199999809265</ele>
        <time>2022-05-12T07:19:16.000Z</time>
      </trkpt>
      <trkpt lat="47.28367" lon="-2.35949">
        <ele>12.199999809265</ele>
        <time>2022-05-12T07:19:17.000Z</time>
      </trkpt>
      <trkpt lat="47.28368" lon="-2.3596">
        <ele>12.199999809265</ele>
        <time>2022-05-12T07:19:20.000Z</time>
      </trkpt>
      <trkpt lat="47.28368" lon="-2.35966">
        <ele>12.60000038147</ele>
        <time>2022-05-12T07:19:22.000Z</time>
      </trkpt>
      <trkpt lat="47.28369" lon="-2.35968">
        <ele>13</ele>
        <time>2022-05-12T07:19:23.000Z</time>
      </trkpt>
      <trkpt lat="47.28369" lon="-2.35973">
        <ele>13.39999961853</ele>
        <time>2022-05-12T07:19:24.000Z</time>
      </trkpt>
      <trkpt lat="47.28368" lon="-2.35976">
        <ele>13.800000190735</ele>
        <time>2022-05-12T07:19:25.000Z</time>
      </trkpt>
      <trkpt lat="47.28368" lon="-2.35979">
        <ele>14.199999809265</ele>
        <time>2022-05-12T07:19:26.000Z</time>
      </trkpt>
      <trkpt lat="47.28367" lon="-2.35989">
        <ele>14.60000038147</ele>
        <time>2022-05-12T07:19:30.000Z</time>
      </trkpt>
      <trkpt lat="47.28367" lon="-2.35989">
        <ele>15</ele>
        <time>2022-05-12T07:19:31.000Z</time>
      </trkpt>
      <trkpt lat="47.28366" lon="-2.35991">
        <ele>15.39999961853</ele>
        <time>2022-05-12T07:19:32.000Z</time>
      </trkpt>
      <trkpt lat="47.28366" lon="-2.35993">
        <ele>15.800000190735</ele>
        <time>2022-05-12T07:19:33.000Z</time>
      </trkpt>
      <trkpt lat="47.28366" lon="-2.35995">
        <ele>16.39999961853</ele>
        <time>2022-05-12T07:19:34.000Z</time>
      </trkpt>
      <trkpt lat="47.28367" lon="-2.36001">
        <ele>16.799999237061</ele>
        <time>2022-05-12T07:19:37.000Z</time>
      </trkpt>
      <trkpt lat="47.28368" lon="-2.36002">
        <ele>17.200000762939</ele>
        <time>2022-05-12T07:19:38.000Z</time>
      </trkpt>
      <trkpt lat="47.28369" lon="-2.36003">
        <ele>17.60000038147</ele>
        <time>2022-05-12T07:19:39.000Z</time>
      </trkpt>
      <trkpt lat="47.2839" lon="-2.36021">
        <ele>22.799999237061</ele>
        <time>2022-05-12T07:20:24.000Z</time>
      </trkpt>
      <trkpt lat="47.28397" lon="-2.36019">
        <ele>22.799999237061</ele>
        <time>2022-05-12T07:20:27.000Z</time>
      </trkpt>
      <trkpt lat="47.28409" lon="-2.3601">
        <ele>22.799999237061</ele>
        <time>2022-05-12T07:20:34.000Z</time>
      </trkpt>
      <trkpt lat="47.28411" lon="-2.36008">
        <ele>23.200000762939</ele>
        <time>2022-05-12T07:20:35.000Z</time>
      </trkpt>
      <trkpt lat="47.28413" lon="-2.36005">
        <ele>23.60000038147</ele>
        <time>2022-05-12T07:20:36.000Z</time>
      </trkpt>
      <trkpt lat="47.28416" lon="-2.36003">
        <ele>24</ele>
        <time>2022-05-12T07:20:37.000Z</time>
      </trkpt>
      <trkpt lat="47.28418" lon="-2.36001">
        <ele>24.39999961853</ele>
        <time>2022-05-12T07:20:38.000Z</time>
      </trkpt>
      <trkpt lat="47.28421" lon="-2.35998">
        <ele>24.799999237061</ele>
        <time>2022-05-12T07:20:39.000Z</time>
      </trkpt>
      <trkpt lat="47.28432" lon="-2.3599">
        <ele>24.799999237061</ele>
        <time>2022-05-12T07:20:44.000Z</time>
      </trkpt>
      <trkpt lat="47.28437" lon="-2.3599">
        <ele>24.799999237061</ele>
        <time>2022-05-12T07:20:46.000Z</time>
      </trkpt>
      <trkpt lat="47.28443" lon="-2.35993">
        <ele>24.799999237061</ele>
        <time>2022-05-12T07:20:48.000Z</time>
      </trkpt>
      <trkpt lat="47.28447" lon="-2.35999">
        <ele>24.799999237061</ele>
        <time>2022-05-12T07:20:50.000Z</time>
      </trkpt>
      <trkpt lat="47.28453" lon="-2.36009">
        <ele>24.799999237061</ele>
        <time>2022-05-12T07:20:54.000Z</time>
      </trkpt>
      <trkpt lat="47.28468" lon="-2.36025">
        <ele>24.799999237061</ele>
        <time>2022-05-12T07:20:59.000Z</time>
      </trkpt>
      <trkpt lat="47.28479" lon="-2.36028">
        <ele>24.799999237061</ele>
        <time>2022-05-12T07:21:03.000Z</time>
      </trkpt>
      <trkpt lat="47.28492" lon="-2.3604">
        <ele>24.799999237061</ele>
        <time>2022-05-12T07:21:08.000Z</time>
      </trkpt>
      <trkpt lat="47.28506" lon="-2.36059">
        <ele>24.799999237061</ele>
        <time>2022-05-12T07:21:13.000Z</time>
      </trkpt>
      <trkpt lat="47.28519" lon="-2.36077">
        <ele>24.799999237061</ele>
        <time>2022-05-12T07:21:18.000Z</time>
      </trkpt>
      <trkpt lat="47.2853" lon="-2.36105">
        <ele>24.799999237061</ele>
        <time>2022-05-12T07:21:23.000Z</time>
      </trkpt>
      <trkpt lat="47.28535" lon="-2.36127">
        <ele>24.799999237061</ele>
        <time>2022-05-12T07:21:26.000Z</time>
      </trkpt>
      <trkpt lat="47.28542" lon="-2.36148">
        <ele>24.799999237061</ele>
        <time>2022-05-12T07:21:29.000Z</time>
      </trkpt>
      <trkpt lat="47.28551" lon="-2.36156">
        <ele>24.799999237061</ele>
        <time>2022-05-12T07:21:32.000Z</time>
      </trkpt>
      <trkpt lat="47.28557" lon="-2.36152">
        <ele>24.799999237061</ele>
        <time>2022-05-12T07:21:36.000Z</time>
      </trkpt>
      <trkpt lat="47.28558" lon="-2.36151">
        <ele>24.799999237061</ele>
        <time>2022-05-12T07:21:37.000Z</time>
      </trkpt>
      <trkpt lat="47.28562" lon="-2.36147">
        <ele>25.200000762939</ele>
        <time>2022-05-12T07:21:40.000Z</time>
      </trkpt>
      <trkpt lat="47.28564" lon="-2.36146">
        <ele>25.60000038147</ele>
        <time>2022-05-12T07:21:41.000Z</time>
      </trkpt>
      <trkpt lat="47.28565" lon="-2.36146">
        <ele>26</ele>
        <time>2022-05-12T07:21:42.000Z</time>
      </trkpt>
      <trkpt lat="47.28566" lon="-2.36145">
        <ele>26.39999961853</ele>
        <time>2022-05-12T07:21:43.000Z</time>
      </trkpt>
      <trkpt lat="47.28567" lon="-2.36145">
        <ele>26.799999237061</ele>
        <time>2022-05-12T07:21:44.000Z</time>
      </trkpt>
      <trkpt lat="47.28572" lon="-2.36145">
        <ele>27.39999961853</ele>
        <time>2022-05-12T07:21:48.000Z</time>
      </trkpt>
      <trkpt lat="47.28573" lon="-2.36145">
        <ele>27.799999237061</ele>
        <time>2022-05-12T07:21:49.000Z</time>
      </trkpt>
      <trkpt lat="47.28573" lon="-2.36145">
        <ele>28.200000762939</ele>
        <time>2022-05-12T07:21:50.000Z</time>
      </trkpt>
      <trkpt lat="47.28573" lon="-2.36146">
        <ele>29</ele>
        <time>2022-05-12T07:22:28.000Z</time>
      </trkpt>
      <trkpt lat="47.28578" lon="-2.36149">
        <ele>29</ele>
        <time>2022-05-12T07:22:30.000Z</time>
      </trkpt>
      <trkpt lat="47.28593" lon="-2.36148">
        <ele>29</ele>
        <time>2022-05-12T07:22:36.000Z</time>
      </trkpt>
      <trkpt lat="47.28607" lon="-2.3614">
        <ele>29</ele>
        <time>2022-05-12T07:22:41.000Z</time>
      </trkpt>
      <trkpt lat="47.28619" lon="-2.36136">
        <ele>29</ele>
        <time>2022-05-12T07:22:44.000Z</time>
      </trkpt>
      <trkpt lat="47.28623" lon="-2.36137">
        <ele>29</ele>
        <time>2022-05-12T07:22:45.000Z</time>
      </trkpt>
      <trkpt lat="47.28631" lon="-2.36146">
        <ele>29</ele>
        <time>2022-05-12T07:22:48.000Z</time>
      </trkpt>
      <trkpt lat="47.28634" lon="-2.3615">
        <ele>29</ele>
        <time>2022-05-12T07:22:49.000Z</time>
      </trkpt>
      <trkpt lat="47.28646" lon="-2.36168">
        <ele>28.39999961853</ele>
        <time>2022-05-12T07:22:53.000Z</time>
      </trkpt>
      <trkpt lat="47.28649" lon="-2.36172">
        <ele>28</ele>
        <time>2022-05-12T07:22:54.000Z</time>
      </trkpt>
      <trkpt lat="47.28653" lon="-2.36177">
        <ele>27.39999961853</ele>
        <time>2022-05-12T07:22:55.000Z</time>
      </trkpt>
      <trkpt lat="47.28656" lon="-2.36182">
        <ele>27</ele>
        <time>2022-05-12T07:22:56.000Z</time>
      </trkpt>
      <trkpt lat="47.28659" lon="-2.36188">
        <ele>26.60000038147</ele>
        <time>2022-05-12T07:22:57.000Z</time>
      </trkpt>
      <trkpt lat="47.28664" lon="-2.36204">
        <ele>26.60000038147</ele>
        <time>2022-05-12T07:23:00.000Z</time>
      </trkpt>
      <trkpt lat="47.28666" lon="-2.36214">
        <ele>26.200000762939</ele>
        <time>2022-05-12T07:23:02.000Z</time>
      </trkpt>
      <trkpt lat="47.28666" lon="-2.36219">
        <ele>25.60000038147</ele>
        <time>2022-05-12T07:23:03.000Z</time>
      </trkpt>
      <trkpt lat="47.28666" lon="-2.36224">
        <ele>25.200000762939</ele>
        <time>2022-05-12T07:23:04.000Z</time>
      </trkpt>
      <trkpt lat="47.28667" lon="-2.3623">
        <ele>24.799999237061</ele>
        <time>2022-05-12T07:23:05.000Z</time>
      </trkpt>
      <trkpt lat="47.28668" lon="-2.36236">
        <ele>24.39999961853</ele>
        <time>2022-05-12T07:23:06.000Z</time>
      </trkpt>
      <trkpt lat="47.2867" lon="-2.36263">
        <ele>24.39999961853</ele>
        <time>2022-05-12T07:23:11.000Z</time>
      </trkpt>
      <trkpt lat="47.28672" lon="-2.36267">
        <ele>24.39999961853</ele>
        <time>2022-05-12T07:23:12.000Z</time>
      </trkpt>
      <trkpt lat="47.28676" lon="-2.3627">
        <ele>24</ele>
        <time>2022-05-12T07:23:13.000Z</time>
      </trkpt>
      <trkpt lat="47.28678" lon="-2.36272">
        <ele>23.60000038147</ele>
        <time>2022-05-12T07:23:14.000Z</time>
      </trkpt>
      <trkpt lat="47.28681" lon="-2.36273">
        <ele>23.200000762939</ele>
        <time>2022-05-12T07:23:15.000Z</time>
      </trkpt>
      <trkpt lat="47.28684" lon="-2.36274">
        <ele>22.799999237061</ele>
        <time>2022-05-12T07:23:16.000Z</time>
      </trkpt>
      <trkpt lat="47.28686" lon="-2.36275">
        <ele>22.39999961853</ele>
        <time>2022-05-12T07:23:17.000Z</time>
      </trkpt>
      <trkpt lat="47.28688" lon="-2.36275">
        <ele>22.39999961853</ele>
        <time>2022-05-12T07:23:18.000Z</time>
      </trkpt>
      <trkpt lat="47.28697" lon="-2.36274">
        <ele>22</ele>
        <time>2022-05-12T07:23:23.000Z</time>
      </trkpt>
      <trkpt lat="47.28698" lon="-2.36277">
        <ele>21.200000762939</ele>
        <time>2022-05-12T07:23:24.000Z</time>
      </trkpt>
      <trkpt lat="47.28699" lon="-2.36279">
        <ele>20.799999237061</ele>
        <time>2022-05-12T07:23:25.000Z</time>
      </trkpt>
      <trkpt lat="47.287" lon="-2.36282">
        <ele>20.200000762939</ele>
        <time>2022-05-12T07:23:26.000Z</time>
      </trkpt>
      <trkpt lat="47.287" lon="-2.36284">
        <ele>20.200000762939</ele>
        <time>2022-05-12T07:23:27.000Z</time>
      </trkpt>
      <trkpt lat="47.28701" lon="-2.36289">
        <ele>20.200000762939</ele>
        <time>2022-05-12T07:23:29.000Z</time>
      </trkpt>
      <trkpt lat="47.28701" lon="-2.36292">
        <ele>20.200000762939</ele>
        <time>2022-05-12T07:23:30.000Z</time>
      </trkpt>
      <trkpt lat="47.28701" lon="-2.36311">
        <ele>20.799999237061</ele>
        <time>2022-05-12T07:23:36.000Z</time>
      </trkpt>
      <trkpt lat="47.28701" lon="-2.36314">
        <ele>21.200000762939</ele>
        <time>2022-05-12T07:23:37.000Z</time>
      </trkpt>
      <trkpt lat="47.28702" lon="-2.36317">
        <ele>21.60000038147</ele>
        <time>2022-05-12T07:23:38.000Z</time>
      </trkpt>
      <trkpt lat="47.28702" lon="-2.36321">
        <ele>22</ele>
        <time>2022-05-12T07:23:39.000Z</time>
      </trkpt>
      <trkpt lat="47.28702" lon="-2.36324">
        <ele>22.39999961853</ele>
        <time>2022-05-12T07:23:40.000Z</time>
      </trkpt>
      <trkpt lat="47.28703" lon="-2.36338">
        <ele>22.799999237061</ele>
        <time>2022-05-12T07:23:44.000Z</time>
      </trkpt>
      <trkpt lat="47.28702" lon="-2.36342">
        <ele>23.200000762939</ele>
        <time>2022-05-12T07:23:45.000Z</time>
      </trkpt>
      <trkpt lat="47.28702" lon="-2.36346">
        <ele>23.60000038147</ele>
        <time>2022-05-12T07:23:46.000Z</time>
      </trkpt>
      <trkpt lat="47.28702" lon="-2.3635">
        <ele>24.200000762939</ele>
        <time>2022-05-12T07:23:47.000Z</time>
      </trkpt>
      <trkpt lat="47.28701" lon="-2.36354">
        <ele>24.60000038147</ele>
        <time>2022-05-12T07:23:48.000Z</time>
      </trkpt>
      <trkpt lat="47.28699" lon="-2.36362">
        <ele>24.60000038147</ele>
        <time>2022-05-12T07:23:50.000Z</time>
      </trkpt>
      <trkpt lat="47.28697" lon="-2.36383">
        <ele>25</ele>
        <time>2022-05-12T07:23:54.000Z</time>
      </trkpt>
      <trkpt lat="47.28697" lon="-2.36388">
        <ele>25.39999961853</ele>
        <time>2022-05-12T07:23:55.000Z</time>
      </trkpt>
      <trkpt lat="47.28697" lon="-2.36394">
        <ele>25.799999237061</ele>
        <time>2022-05-12T07:23:56.000Z</time>
      </trkpt>
      <trkpt lat="47.28698" lon="-2.36399">
        <ele>26.200000762939</ele>
        <time>2022-05-12T07:23:57.000Z</time>
      </trkpt>
      <trkpt lat="47.28698" lon="-2.36404">
        <ele>26.60000038147</ele>
        <time>2022-05-12T07:23:58.000Z</time>
      </trkpt>
      <trkpt lat="47.28699" lon="-2.36428">
        <ele>26.60000038147</ele>
        <time>2022-05-12T07:24:03.000Z</time>
      </trkpt>
      <trkpt lat="47.287" lon="-2.36457">
        <ele>26.60000038147</ele>
        <time>2022-05-12T07:24:09.000Z</time>
      </trkpt>
      <trkpt lat="47.28703" lon="-2.36491">
        <ele>26.60000038147</ele>
        <time>2022-05-12T07:24:16.000Z</time>
      </trkpt>
      <trkpt lat="47.28705" lon="-2.36514">
        <ele>26.60000038147</ele>
        <time>2022-05-12T07:24:19.000Z</time>
      </trkpt>
      <trkpt lat="47.28705" lon="-2.36524">
        <ele>26.60000038147</ele>
        <time>2022-05-12T07:24:20.000Z</time>
      </trkpt>
      <trkpt lat="47.28705" lon="-2.36542">
        <ele>26</ele>
        <time>2022-05-12T07:24:22.000Z</time>
      </trkpt>
      <trkpt lat="47.28705" lon="-2.3655">
        <ele>25.60000038147</ele>
        <time>2022-05-12T07:24:23.000Z</time>
      </trkpt>
      <trkpt lat="47.28704" lon="-2.36556">
        <ele>25.200000762939</ele>
        <time>2022-05-12T07:24:24.000Z</time>
      </trkpt>
      <trkpt lat="47.28703" lon="-2.36563">
        <ele>24.60000038147</ele>
        <time>2022-05-12T07:24:25.000Z</time>
      </trkpt>
      <trkpt lat="47.28701" lon="-2.36571">
        <ele>24</ele>
        <time>2022-05-12T07:24:26.000Z</time>
      </trkpt>
      <trkpt lat="47.28697" lon="-2.36579">
        <ele>23.39999961853</ele>
        <time>2022-05-12T07:24:27.000Z</time>
      </trkpt>
      <trkpt lat="47.28693" lon="-2.36586">
        <ele>22.60000038147</ele>
        <time>2022-05-12T07:24:28.000Z</time>
      </trkpt>
      <trkpt lat="47.28689" lon="-2.36592">
        <ele>21.799999237061</ele>
        <time>2022-05-12T07:24:29.000Z</time>
      </trkpt>
      <trkpt lat="47.2868" lon="-2.36596">
        <ele>21</ele>
        <time>2022-05-12T07:24:30.000Z</time>
      </trkpt>
      <trkpt lat="47.28672" lon="-2.36599">
        <ele>20.39999961853</ele>
        <time>2022-05-12T07:24:31.000Z</time>
      </trkpt>
      <trkpt lat="47.28664" lon="-2.36601">
        <ele>19.60000038147</ele>
        <time>2022-05-12T07:24:32.000Z</time>
      </trkpt>
      <trkpt lat="47.28651" lon="-2.36607">
        <ele>19.60000038147</ele>
        <time>2022-05-12T07:24:34.000Z</time>
      </trkpt>
      <trkpt lat="47.28638" lon="-2.36614">
        <ele>19.60000038147</ele>
        <time>2022-05-12T07:24:36.000Z</time>
      </trkpt>
      <trkpt lat="47.28632" lon="-2.36617">
        <ele>19.200000762939</ele>
        <time>2022-05-12T07:24:37.000Z</time>
      </trkpt>
      <trkpt lat="47.28625" lon="-2.3662">
        <ele>18.39999961853</ele>
        <time>2022-05-12T07:24:38.000Z</time>
      </trkpt>
      <trkpt lat="47.28619" lon="-2.36623">
        <ele>18</ele>
        <time>2022-05-12T07:24:39.000Z</time>
      </trkpt>
      <trkpt lat="47.28615" lon="-2.36625">
        <ele>17.39999961853</ele>
        <time>2022-05-12T07:24:40.000Z</time>
      </trkpt>
      <trkpt lat="47.2861" lon="-2.36628">
        <ele>16.799999237061</ele>
        <time>2022-05-12T07:24:41.000Z</time>
      </trkpt>
      <trkpt lat="47.28606" lon="-2.3663">
        <ele>16.200000762939</ele>
        <time>2022-05-12T07:24:42.000Z</time>
      </trkpt>
      <trkpt lat="47.28603" lon="-2.36632">
        <ele>15.60000038147</ele>
        <time>2022-05-12T07:24:43.000Z</time>
      </trkpt>
      <trkpt lat="47.28601" lon="-2.36633">
        <ele>14.800000190735</ele>
        <time>2022-05-12T07:24:44.000Z</time>
      </trkpt>
      <trkpt lat="47.28599" lon="-2.36635">
        <ele>14.199999809265</ele>
        <time>2022-05-12T07:24:45.000Z</time>
      </trkpt>
      <trkpt lat="47.28598" lon="-2.36637">
        <ele>13.39999961853</ele>
        <time>2022-05-12T07:24:46.000Z</time>
      </trkpt>
      <trkpt lat="47.28597" lon="-2.36639">
        <ele>12.800000190735</ele>
        <time>2022-05-12T07:24:47.000Z</time>
      </trkpt>
      <trkpt lat="47.28595" lon="-2.3664">
        <ele>12.39999961853</ele>
        <time>2022-05-12T07:24:49.000Z</time>
      </trkpt>
      <trkpt lat="47.28593" lon="-2.36641">
        <ele>12</ele>
        <time>2022-05-12T07:24:50.000Z</time>
      </trkpt>
      <trkpt lat="47.28592" lon="-2.36642">
        <ele>11.60000038147</ele>
        <time>2022-05-12T07:24:51.000Z</time>
      </trkpt>
      <trkpt lat="47.2859" lon="-2.36645">
        <ele>11.199999809265</ele>
        <time>2022-05-12T07:24:52.000Z</time>
      </trkpt>
      <trkpt lat="47.28588" lon="-2.3665">
        <ele>10.60000038147</ele>
        <time>2022-05-12T07:24:53.000Z</time>
      </trkpt>
      <trkpt lat="47.28584" lon="-2.36655">
        <ele>10.60000038147</ele>
        <time>2022-05-12T07:24:54.000Z</time>
      </trkpt>
      <trkpt lat="47.28565" lon="-2.3666">
        <ele>10.199999809265</ele>
        <time>2022-05-12T07:24:57.000Z</time>
      </trkpt>
      <trkpt lat="47.28558" lon="-2.36661">
        <ele>9.8000001907349</ele>
        <time>2022-05-12T07:24:58.000Z</time>
      </trkpt>
      <trkpt lat="47.28552" lon="-2.36661">
        <ele>9.3999996185303</ele>
        <time>2022-05-12T07:24:59.000Z</time>
      </trkpt>
      <trkpt lat="47.28546" lon="-2.36661">
        <ele>9</ele>
        <time>2022-05-12T07:25:00.000Z</time>
      </trkpt>
      <trkpt lat="47.28541" lon="-2.3666">
        <ele>8.6000003814697</ele>
        <time>2022-05-12T07:25:01.000Z</time>
      </trkpt>
      <trkpt lat="47.28532" lon="-2.36661">
        <ele>8.6000003814697</ele>
        <time>2022-05-12T07:25:03.000Z</time>
      </trkpt>
      <trkpt lat="47.28523" lon="-2.36664">
        <ele>8.6000003814697</ele>
        <time>2022-05-12T07:25:05.000Z</time>
      </trkpt>
      <trkpt lat="47.28518" lon="-2.36673">
        <ele>8.6000003814697</ele>
        <time>2022-05-12T07:25:07.000Z</time>
      </trkpt>
      <trkpt lat="47.28519" lon="-2.36693">
        <ele>8.6000003814697</ele>
        <time>2022-05-12T07:25:10.000Z</time>
      </trkpt>
      <trkpt lat="47.28525" lon="-2.36708">
        <ele>8.1999998092651</ele>
        <time>2022-05-12T07:25:12.000Z</time>
      </trkpt>
      <trkpt lat="47.28528" lon="-2.36716">
        <ele>7.8000001907349</ele>
        <time>2022-05-12T07:25:13.000Z</time>
      </trkpt>
      <trkpt lat="47.28532" lon="-2.36724">
        <ele>7.4000000953674</ele>
        <time>2022-05-12T07:25:14.000Z</time>
      </trkpt>
      <trkpt lat="47.28536" lon="-2.36732">
        <ele>7</ele>
        <time>2022-05-12T07:25:15.000Z</time>
      </trkpt>
      <trkpt lat="47.2854" lon="-2.3674">
        <ele>6.5999999046326</ele>
        <time>2022-05-12T07:25:16.000Z</time>
      </trkpt>
      <trkpt lat="47.28544" lon="-2.36748">
        <ele>6.5999999046326</ele>
        <time>2022-05-12T07:25:17.000Z</time>
      </trkpt>
      <trkpt lat="47.28549" lon="-2.36756">
        <ele>6.1999998092651</ele>
        <time>2022-05-12T07:25:18.000Z</time>
      </trkpt>
      <trkpt lat="47.28555" lon="-2.36764">
        <ele>5.8000001907349</ele>
        <time>2022-05-12T07:25:19.000Z</time>
      </trkpt>
      <trkpt lat="47.28559" lon="-2.36771">
        <ele>5.4000000953674</ele>
        <time>2022-05-12T07:25:20.000Z</time>
      </trkpt>
      <trkpt lat="47.28564" lon="-2.36779">
        <ele>5</ele>
        <time>2022-05-12T07:25:21.000Z</time>
      </trkpt>
      <trkpt lat="47.28568" lon="-2.36786">
        <ele>4.5999999046326</ele>
        <time>2022-05-12T07:25:22.000Z</time>
      </trkpt>
      <trkpt lat="47.28572" lon="-2.36794">
        <ele>4.1999998092651</ele>
        <time>2022-05-12T07:25:23.000Z</time>
      </trkpt>
      <trkpt lat="47.28576" lon="-2.36802">
        <ele>3.7999999523163</ele>
        <time>2022-05-12T07:25:24.000Z</time>
      </trkpt>
      <trkpt lat="47.2858" lon="-2.3681">
        <ele>3.4000000953674</ele>
        <time>2022-05-12T07:25:25.000Z</time>
      </trkpt>
      <trkpt lat="47.28584" lon="-2.36818">
        <ele>3</ele>
        <time>2022-05-12T07:25:26.000Z</time>
      </trkpt>
      <trkpt lat="47.28589" lon="-2.36826">
        <ele>2.5999999046326</ele>
        <time>2022-05-12T07:25:27.000Z</time>
      </trkpt>
      <trkpt lat="47.28596" lon="-2.36839">
        <ele>2.5999999046326</ele>
        <time>2022-05-12T07:25:29.000Z</time>
      </trkpt>
      <trkpt lat="47.286" lon="-2.36843">
        <ele>2.5999999046326</ele>
        <time>2022-05-12T07:25:30.000Z</time>
      </trkpt>
      <trkpt lat="47.28615" lon="-2.36838">
        <ele>2.5999999046326</ele>
        <time>2022-05-12T07:25:33.000Z</time>
      </trkpt>
      <trkpt lat="47.28619" lon="-2.36834">
        <ele>2.5999999046326</ele>
        <time>2022-05-12T07:25:34.000Z</time>
      </trkpt>
      <trkpt lat="47.28628" lon="-2.36826">
        <ele>2.5999999046326</ele>
        <time>2022-05-12T07:25:36.000Z</time>
      </trkpt>
      <trkpt lat="47.28639" lon="-2.36811">
        <ele>2.5999999046326</ele>
        <time>2022-05-12T07:25:39.000Z</time>
      </trkpt>
      <trkpt lat="47.28657" lon="-2.36791">
        <ele>2.5999999046326</ele>
        <time>2022-05-12T07:25:45.000Z</time>
      </trkpt>
      <trkpt lat="47.28659" lon="-2.36791">
        <ele>2.5999999046326</ele>
        <time>2022-05-12T07:25:46.000Z</time>
      </trkpt>
      <trkpt lat="47.28665" lon="-2.36796">
        <ele>2.5999999046326</ele>
        <time>2022-05-12T07:25:48.000Z</time>
      </trkpt>
      <trkpt lat="47.28675" lon="-2.36817">
        <ele>2.5999999046326</ele>
        <time>2022-05-12T07:25:53.000Z</time>
      </trkpt>
      <trkpt lat="47.28677" lon="-2.36821">
        <ele>2.5999999046326</ele>
        <time>2022-05-12T07:25:54.000Z</time>
      </trkpt>
      <trkpt lat="47.28679" lon="-2.36828">
        <ele>2.5999999046326</ele>
        <time>2022-05-12T07:25:55.000Z</time>
      </trkpt>
      <trkpt lat="47.28685" lon="-2.36842">
        <ele>2.5999999046326</ele>
        <time>2022-05-12T07:25:57.000Z</time>
      </trkpt>
      <trkpt lat="47.28688" lon="-2.36848">
        <ele>2.5999999046326</ele>
        <time>2022-05-12T07:25:58.000Z</time>
      </trkpt>
      <trkpt lat="47.28701" lon="-2.36873">
        <ele>2.5999999046326</ele>
        <time>2022-05-12T07:26:02.000Z</time>
      </trkpt>
      <trkpt lat="47.28704" lon="-2.36878">
        <ele>2.5999999046326</ele>
        <time>2022-05-12T07:26:03.000Z</time>
      </trkpt>
      <trkpt lat="47.28712" lon="-2.36895">
        <ele>2.2000000476837</ele>
        <time>2022-05-12T07:26:06.000Z</time>
      </trkpt>
      <trkpt lat="47.28716" lon="-2.369">
        <ele>1.6000000238419</ele>
        <time>2022-05-12T07:26:07.000Z</time>
      </trkpt>
      <trkpt lat="47.2872" lon="-2.36904">
        <ele>1.2000000476837</ele>
        <time>2022-05-12T07:26:08.000Z</time>
      </trkpt>
      <trkpt lat="47.28725" lon="-2.3691">
        <ele>0.80000001192093</ele>
        <time>2022-05-12T07:26:09.000Z</time>
      </trkpt>
      <trkpt lat="47.28729" lon="-2.36916">
        <ele>0.20000000298023</ele>
        <time>2022-05-12T07:26:10.000Z</time>
      </trkpt>
      <trkpt lat="47.28733" lon="-2.36921">
        <ele>-0.20000000298023</ele>
        <time>2022-05-12T07:26:11.000Z</time>
      </trkpt>
      <trkpt lat="47.28737" lon="-2.36925">
        <ele>-0.80000001192093</ele>
        <time>2022-05-12T07:26:12.000Z</time>
      </trkpt>
      <trkpt lat="47.2874" lon="-2.3693">
        <ele>-1.2000000476837</ele>
        <time>2022-05-12T07:26:13.000Z</time>
      </trkpt>
      <trkpt lat="47.28742" lon="-2.36934">
        <ele>-1.7999999523163</ele>
        <time>2022-05-12T07:26:14.000Z</time>
      </trkpt>
      <trkpt lat="47.2875" lon="-2.36949">
        <ele>-1</ele>
        <time>2022-05-12T07:26:18.000Z</time>
      </trkpt>
      <trkpt lat="47.2875" lon="-2.36952">
        <ele>-0.40000000596046</ele>
        <time>2022-05-12T07:26:19.000Z</time>
      </trkpt>
      <trkpt lat="47.28751" lon="-2.36955">
        <ele>19.3</ele>
        <time>2022-05-12T07:26:20.000Z</time>
      </trkpt>
      <trkpt lat="47.28751" lon="-2.36957">
        <ele>0.40000000596046</ele>
        <time>2022-05-12T07:26:21.000Z</time>
      </trkpt>
      <trkpt lat="47.28751" lon="-2.36959">
        <ele>0.80000001192093</ele>
        <time>2022-05-12T07:26:22.000Z</time>
      </trkpt>
      <trkpt lat="47.28752" lon="-2.36962">
        <ele>1.2000000476837</ele>
        <time>2022-05-12T07:26:23.000Z</time>
      </trkpt>
      <trkpt lat="47.28752" lon="-2.36965">
        <ele>1.7999999523163</ele>
        <time>2022-05-12T07:26:24.000Z</time>
      </trkpt>
      <trkpt lat="47.28753" lon="-2.36968">
        <ele>2.2000000476837</ele>
        <time>2022-05-12T07:26:25.000Z</time>
      </trkpt>
      <trkpt lat="47.28754" lon="-2.36972">
        <ele>2.5999999046326</ele>
        <time>2022-05-12T07:26:26.000Z</time>
      </trkpt>
      <trkpt lat="47.28758" lon="-2.36979">
        <ele>2.5999999046326</ele>
        <time>2022-05-12T07:26:28.000Z</time>
      </trkpt>
      <trkpt lat="47.2877" lon="-2.36997">
        <ele>2.5999999046326</ele>
        <time>2022-05-12T07:26:34.000Z</time>
      </trkpt>
      <trkpt lat="47.28779" lon="-2.37021">
        <ele>2.5999999046326</ele>
        <time>2022-05-12T07:26:38.000Z</time>
      </trkpt>
      <trkpt lat="47.28787" lon="-2.37051">
        <ele>2.2000000476837</ele>
        <time>2022-05-12T07:26:42.000Z</time>
      </trkpt>
      <trkpt lat="47.28789" lon="-2.37059">
        <ele>1.7999999523163</ele>
        <time>2022-05-12T07:26:43.000Z</time>
      </trkpt>
      <trkpt lat="47.2879" lon="-2.37068">
        <ele>1.3999999761581</ele>
        <time>2022-05-12T07:26:44.000Z</time>
      </trkpt>
      <trkpt lat="47.28792" lon="-2.37079">
        <ele>1</ele>
        <time>2022-05-12T07:26:45.000Z</time>
      </trkpt>
      <trkpt lat="47.28793" lon="-2.37087">
        <ele>0.40000000596046</ele>
        <time>2022-05-12T07:26:46.000Z</time>
      </trkpt>
      <trkpt lat="47.28795" lon="-2.37094">
        <ele>14.8</ele>
        <time>2022-05-12T07:26:47.000Z</time>
      </trkpt>
      <trkpt lat="47.28797" lon="-2.371">
        <ele>-0.60000002384186</ele>
        <time>2022-05-12T07:26:48.000Z</time>
      </trkpt>
      <trkpt lat="47.28799" lon="-2.37104">
        <ele>-1.2000000476837</ele>
        <time>2022-05-12T07:26:49.000Z</time>
      </trkpt>
      <trkpt lat="47.28802" lon="-2.37107">
        <ele>-1.6000000238419</ele>
        <time>2022-05-12T07:26:50.000Z</time>
      </trkpt>
      <trkpt lat="47.28806" lon="-2.3711">
        <ele>-1.6000000238419</ele>
        <time>2022-05-12T07:26:51.000Z</time>
      </trkpt>
      <trkpt lat="47.28809" lon="-2.37111">
        <ele>-2.2000000476837</ele>
        <time>2022-05-12T07:26:52.000Z</time>
      </trkpt>
      <trkpt lat="47.28812" lon="-2.3711">
        <ele>-2.5999999046326</ele>
        <time>2022-05-12T07:26:53.000Z</time>
      </trkpt>
      <trkpt lat="47.28815" lon="-2.37108">
        <ele>-3</ele>
        <time>2022-05-12T07:26:54.000Z</time>
      </trkpt>
      <trkpt lat="47.28818" lon="-2.37106">
        <ele>-3.7999999523163</ele>
        <time>2022-05-12T07:26:55.000Z</time>
      </trkpt>
      <trkpt lat="47.28821" lon="-2.37107">
        <ele>-4.4000000953674</ele>
        <time>2022-05-12T07:26:56.000Z</time>
      </trkpt>
      <trkpt lat="47.28824" lon="-2.3711">
        <ele>-5</ele>
        <time>2022-05-12T07:26:57.000Z</time>
      </trkpt>
      <trkpt lat="47.28826" lon="-2.37112">
        <ele>-5.5999999046326</ele>
        <time>2022-05-12T07:26:58.000Z</time>
      </trkpt>
      <trkpt lat="47.28825" lon="-2.37116">
        <ele>-6</ele>
        <time>2022-05-12T07:26:59.000Z</time>
      </trkpt>
      <trkpt lat="47.28825" lon="-2.3712">
        <ele>-6.5999999046326</ele>
        <time>2022-05-12T07:27:00.000Z</time>
      </trkpt>
      <trkpt lat="47.28824" lon="-2.37125">
        <ele>-7.1999998092651</ele>
        <time>2022-05-12T07:27:01.000Z</time>
      </trkpt>
      <trkpt lat="47.28825" lon="-2.37129">
        <ele>-7.8000001907349</ele>
        <time>2022-05-12T07:27:02.000Z</time>
      </trkpt>
      <trkpt lat="47.28826" lon="-2.37133">
        <ele>-8.1999998092651</ele>
        <time>2022-05-12T07:27:03.000Z</time>
      </trkpt>
      <trkpt lat="47.28827" lon="-2.37143">
        <ele>-8.1999998092651</ele>
        <time>2022-05-12T07:27:05.000Z</time>
      </trkpt>
      <trkpt lat="47.28831" lon="-2.37165">
        <ele>-8.1999998092651</ele>
        <time>2022-05-12T07:27:10.000Z</time>
      </trkpt>
      <trkpt lat="47.28834" lon="-2.37183">
        <ele>-8.1999998092651</ele>
        <time>2022-05-12T07:27:15.000Z</time>
      </trkpt>
      <trkpt lat="47.28838" lon="-2.37209">
        <ele>-8.1999998092651</ele>
        <time>2022-05-12T07:27:22.000Z</time>
      </trkpt>
      <trkpt lat="47.28843" lon="-2.37229">
        <ele>-8.1999998092651</ele>
        <time>2022-05-12T07:27:28.000Z</time>
      </trkpt>
      <trkpt lat="47.28852" lon="-2.37238">
        <ele>-8.1999998092651</ele>
        <time>2022-05-12T07:27:32.000Z</time>
      </trkpt>
      <trkpt lat="47.28866" lon="-2.37234">
        <ele>-8.1999998092651</ele>
        <time>2022-05-12T07:27:36.000Z</time>
      </trkpt>
      <trkpt lat="47.28884" lon="-2.37225">
        <ele>-8.1999998092651</ele>
        <time>2022-05-12T07:27:41.000Z</time>
      </trkpt>
      <trkpt lat="47.28893" lon="-2.3722">
        <ele>-8.1999998092651</ele>
        <time>2022-05-12T07:27:46.000Z</time>
      </trkpt>
      <trkpt lat="47.28896" lon="-2.3722">
        <ele>-8.1999998092651</ele>
        <time>2022-05-12T07:27:48.000Z</time>
      </trkpt>
      <trkpt lat="47.28902" lon="-2.37218">
        <ele>-8.1999998092651</ele>
        <time>2022-05-12T07:27:52.000Z</time>
      </trkpt>
      <trkpt lat="47.28903" lon="-2.37218">
        <ele>-8.1999998092651</ele>
        <time>2022-05-12T07:27:53.000Z</time>
      </trkpt>
      <trkpt lat="47.28909" lon="-2.37216">
        <ele>-8.1999998092651</ele>
        <time>2022-05-12T07:27:59.000Z</time>
      </trkpt>
      <trkpt lat="47.28909" lon="-2.37218">
        <ele>-8.1999998092651</ele>
        <time>2022-05-12T07:28:00.000Z</time>
      </trkpt>
      <trkpt lat="47.28905" lon="-2.37221">
        <ele>-8.1999998092651</ele>
        <time>2022-05-12T07:28:03.000Z</time>
      </trkpt>
      <trkpt lat="47.28902" lon="-2.37221">
        <ele>-8.1999998092651</ele>
        <time>2022-05-12T07:28:04.000Z</time>
      </trkpt>
      <trkpt lat="47.28892" lon="-2.37227">
        <ele>-8.1999998092651</ele>
        <time>2022-05-12T07:28:08.000Z</time>
      </trkpt>
      <trkpt lat="47.28887" lon="-2.37231">
        <ele>-8.1999998092651</ele>
        <time>2022-05-12T07:28:12.000Z</time>
      </trkpt>
      <trkpt lat="47.28881" lon="-2.37232">
        <ele>-8.1999998092651</ele>
        <time>2022-05-12T07:28:16.000Z</time>
      </trkpt>
      <trkpt lat="47.28878" lon="-2.37232">
        <ele>-8.1999998092651</ele>
        <time>2022-05-12T07:28:18.000Z</time>
      </trkpt>
      <trkpt lat="47.28879" lon="-2.37228">
        <ele>-8.1999998092651</ele>
        <time>2022-05-12T07:28:21.000Z</time>
      </trkpt>
      <trkpt lat="47.28881" lon="-2.37227">
        <ele>-8.1999998092651</ele>
        <time>2022-05-12T07:28:22.000Z</time>
      </trkpt>
      <trkpt lat="47.28894" lon="-2.3722">
        <ele>-8.1999998092651</ele>
        <time>2022-05-12T07:28:26.000Z</time>
      </trkpt>
      <trkpt lat="47.28917" lon="-2.37212">
        <ele>-8.1999998092651</ele>
        <time>2022-05-12T07:28:33.000Z</time>
      </trkpt>
      <trkpt lat="47.28939" lon="-2.37205">
        <ele>-8.1999998092651</ele>
        <time>2022-05-12T07:28:39.000Z</time>
      </trkpt>
      <trkpt lat="47.28949" lon="-2.37203">
        <ele>-8.1999998092651</ele>
        <time>2022-05-12T07:28:45.000Z</time>
      </trkpt>
      <trkpt lat="47.28952" lon="-2.37203">
        <ele>-7.8000001907349</ele>
        <time>2022-05-12T07:28:52.000Z</time>
      </trkpt>
      <trkpt lat="47.28957" lon="-2.37199">
        <ele>-6.1999998092651</ele>
        <time>2022-05-12T07:29:12.000Z</time>
      </trkpt>
      <trkpt lat="47.28962" lon="-2.37195">
        <ele>-6.1999998092651</ele>
        <time>2022-05-12T07:29:14.000Z</time>
      </trkpt>
      <trkpt lat="47.28976" lon="-2.37183">
        <ele>-6.1999998092651</ele>
        <time>2022-05-12T07:29:19.000Z</time>
      </trkpt>
      <trkpt lat="47.28983" lon="-2.37178">
        <ele>-5.8000001907349</ele>
        <time>2022-05-12T07:29:21.000Z</time>
      </trkpt>
      <trkpt lat="47.28986" lon="-2.37176">
        <ele>-5.4000000953674</ele>
        <time>2022-05-12T07:29:22.000Z</time>
      </trkpt>
      <trkpt lat="47.28989" lon="-2.37174">
        <ele>-5</ele>
        <time>2022-05-12T07:29:23.000Z</time>
      </trkpt>
      <trkpt lat="47.28991" lon="-2.37172">
        <ele>-4.5999999046326</ele>
        <time>2022-05-12T07:29:24.000Z</time>
      </trkpt>
      <trkpt lat="47.28994" lon="-2.37171">
        <ele>-4.1999998092651</ele>
        <time>2022-05-12T07:29:25.000Z</time>
      </trkpt>
      <trkpt lat="47.28997" lon="-2.3717">
        <ele>-4.1999998092651</ele>
        <time>2022-05-12T07:29:26.000Z</time>
      </trkpt>
      <trkpt lat="47.29002" lon="-2.37171">
        <ele>-4.1999998092651</ele>
        <time>2022-05-12T07:29:28.000Z</time>
      </trkpt>
      <trkpt lat="47.29007" lon="-2.37174">
        <ele>-3.7999999523163</ele>
        <time>2022-05-12T07:29:30.000Z</time>
      </trkpt>
      <trkpt lat="47.29009" lon="-2.37176">
        <ele>-3.4000000953674</ele>
        <time>2022-05-12T07:29:31.000Z</time>
      </trkpt>
      <trkpt lat="47.29012" lon="-2.37178">
        <ele>-2.7999999523163</ele>
        <time>2022-05-12T07:29:32.000Z</time>
      </trkpt>
      <trkpt lat="47.29014" lon="-2.37181">
        <ele>-2.4000000953674</ele>
        <time>2022-05-12T07:29:33.000Z</time>
      </trkpt>
      <trkpt lat="47.29016" lon="-2.37183">
        <ele>-2</ele>
        <time>2022-05-12T07:29:34.000Z</time>
      </trkpt>
      <trkpt lat="47.2903" lon="-2.37198">
        <ele>-2</ele>
        <time>2022-05-12T07:29:39.000Z</time>
      </trkpt>
      <trkpt lat="47.29032" lon="-2.37201">
        <ele>-1.6000000238419</ele>
        <time>2022-05-12T07:29:40.000Z</time>
      </trkpt>
      <trkpt lat="47.29035" lon="-2.37204">
        <ele>-1.2000000476837</ele>
        <time>2022-05-12T07:29:41.000Z</time>
      </trkpt>
      <trkpt lat="47.29039" lon="-2.37207">
        <ele>-0.80000001192093</ele>
        <time>2022-05-12T07:29:42.000Z</time>
      </trkpt>
      <trkpt lat="47.29042" lon="-2.3721">
        <ele>-0.40000000596046</ele>
        <time>2022-05-12T07:29:43.000Z</time>
      </trkpt>
      <trkpt lat="47.29045" lon="-2.37213">
        <ele>19.6</ele>
        <time>2022-05-12T07:29:44.000Z</time>
      </trkpt>
      <trkpt lat="47.29051" lon="-2.3722">
        <ele>19.8</ele>
        <time>2022-05-12T07:29:46.000Z</time>
      </trkpt>
      <trkpt lat="47.29073" lon="-2.37242">
        <ele>0.40000000596046</ele>
        <time>2022-05-12T07:29:53.000Z</time>
      </trkpt>
      <trkpt lat="47.29076" lon="-2.37245">
        <ele>0.80000001192093</ele>
        <time>2022-05-12T07:29:54.000Z</time>
      </trkpt>
      <trkpt lat="47.29079" lon="-2.37248">
        <ele>1.3999999761581</ele>
        <time>2022-05-12T07:29:55.000Z</time>
      </trkpt>
      <trkpt lat="47.29082" lon="-2.3725">
        <ele>1.7999999523163</ele>
        <time>2022-05-12T07:29:56.000Z</time>
      </trkpt>
      <trkpt lat="47.29085" lon="-2.37253">
        <ele>2.2000000476837</ele>
        <time>2022-05-12T07:29:57.000Z</time>
      </trkpt>
      <trkpt lat="47.29094" lon="-2.37264">
        <ele>2.2000000476837</ele>
        <time>2022-05-12T07:30:00.000Z</time>
      </trkpt>
      <trkpt lat="47.29121" lon="-2.37292">
        <ele>2.2000000476837</ele>
        <time>2022-05-12T07:30:08.000Z</time>
      </trkpt>
      <trkpt lat="47.29144" lon="-2.37318">
        <ele>2.2000000476837</ele>
        <time>2022-05-12T07:30:15.000Z</time>
      </trkpt>
      <trkpt lat="47.29146" lon="-2.37322">
        <ele>2.2000000476837</ele>
        <time>2022-05-12T07:30:16.000Z</time>
      </trkpt>
      <trkpt lat="47.29158" lon="-2.37347">
        <ele>2.2000000476837</ele>
        <time>2022-05-12T07:30:20.000Z</time>
      </trkpt>
      <trkpt lat="47.29173" lon="-2.37377">
        <ele>2.2000000476837</ele>
        <time>2022-05-12T07:30:25.000Z</time>
      </trkpt>
      <trkpt lat="47.29177" lon="-2.37381">
        <ele>2.2000000476837</ele>
        <time>2022-05-12T07:30:26.000Z</time>
      </trkpt>
      <trkpt lat="47.29197" lon="-2.37418">
        <ele>2.2000000476837</ele>
        <time>2022-05-12T07:30:32.000Z</time>
      </trkpt>
      <trkpt lat="47.2921" lon="-2.37435">
        <ele>2.2000000476837</ele>
        <time>2022-05-12T07:30:35.000Z</time>
      </trkpt>
      <trkpt lat="47.29217" lon="-2.37448">
        <ele>2.2000000476837</ele>
        <time>2022-05-12T07:30:37.000Z</time>
      </trkpt>
      <trkpt lat="47.29243" lon="-2.37489">
        <ele>1.6000000238419</ele>
        <time>2022-05-12T07:30:43.000Z</time>
      </trkpt>
      <trkpt lat="47.29247" lon="-2.37496">
        <ele>1.2000000476837</ele>
        <time>2022-05-12T07:30:44.000Z</time>
      </trkpt>
      <trkpt lat="47.29252" lon="-2.37502">
        <ele>0.80000001192093</ele>
        <time>2022-05-12T07:30:45.000Z</time>
      </trkpt>
      <trkpt lat="47.29256" lon="-2.37508">
        <ele>0.40000000596046</ele>
        <time>2022-05-12T07:30:46.000Z</time>
      </trkpt>
      <trkpt lat="47.29263" lon="-2.37513">
        <ele>16.3</ele>
        <time>2022-05-12T07:30:47.000Z</time>
      </trkpt>
      <trkpt lat="47.29268" lon="-2.37517">
        <ele>16.1</ele>
        <time>2022-05-12T07:30:48.000Z</time>
      </trkpt>
      <trkpt lat="47.29275" lon="-2.37532">
        <ele>15.8</ele>
        <time>2022-05-12T07:30:50.000Z</time>
      </trkpt>
      <trkpt lat="47.29278" lon="-2.37541">
        <ele>15.6</ele>
        <time>2022-05-12T07:30:51.000Z</time>
      </trkpt>
      <trkpt lat="47.29282" lon="-2.3755">
        <ele>-0.40000000596046</ele>
        <time>2022-05-12T07:30:52.000Z</time>
      </trkpt>
      <trkpt lat="47.29286" lon="-2.37558">
        <ele>-1</ele>
        <time>2022-05-12T07:30:53.000Z</time>
      </trkpt>
      <trkpt lat="47.29291" lon="-2.37564">
        <ele>-1.3999999761581</ele>
        <time>2022-05-12T07:30:54.000Z</time>
      </trkpt>
      <trkpt lat="47.29295" lon="-2.3757">
        <ele>-2</ele>
        <time>2022-05-12T07:30:55.000Z</time>
      </trkpt>
      <trkpt lat="47.29298" lon="-2.37576">
        <ele>-2.4000000953674</ele>
        <time>2022-05-12T07:30:56.000Z</time>
      </trkpt>
      <trkpt lat="47.29315" lon="-2.37604">
        <ele>-2.4000000953674</ele>
        <time>2022-05-12T07:31:01.000Z</time>
      </trkpt>
      <trkpt lat="47.29321" lon="-2.37615">
        <ele>-2.4000000953674</ele>
        <time>2022-05-12T07:31:03.000Z</time>
      </trkpt>
      <trkpt lat="47.29326" lon="-2.37628">
        <ele>-2.4000000953674</ele>
        <time>2022-05-12T07:31:05.000Z</time>
      </trkpt>
      <trkpt lat="47.29337" lon="-2.37668">
        <ele>-2.4000000953674</ele>
        <time>2022-05-12T07:31:11.000Z</time>
      </trkpt>
      <trkpt lat="47.29338" lon="-2.37677">
        <ele>-2.4000000953674</ele>
        <time>2022-05-12T07:31:12.000Z</time>
      </trkpt>
      <trkpt lat="47.29335" lon="-2.37714">
        <ele>-2.4000000953674</ele>
        <time>2022-05-12T07:31:16.000Z</time>
      </trkpt>
      <trkpt lat="47.29336" lon="-2.37748">
        <ele>-2.7999999523163</ele>
        <time>2022-05-12T07:31:19.000Z</time>
      </trkpt>
      <trkpt lat="47.29336" lon="-2.3776">
        <ele>-3.2000000476837</ele>
        <time>2022-05-12T07:31:20.000Z</time>
      </trkpt>
      <trkpt lat="47.29337" lon="-2.37772">
        <ele>-3.5999999046326</ele>
        <time>2022-05-12T07:31:21.000Z</time>
      </trkpt>
      <trkpt lat="47.29337" lon="-2.37784">
        <ele>-4</ele>
        <time>2022-05-12T07:31:22.000Z</time>
      </trkpt>
      <trkpt lat="47.29338" lon="-2.37797">
        <ele>-4.4000000953674</ele>
        <time>2022-05-12T07:31:23.000Z</time>
      </trkpt>
      <trkpt lat="47.29339" lon="-2.37822">
        <ele>-5</ele>
        <time>2022-05-12T07:31:25.000Z</time>
      </trkpt>
      <trkpt lat="47.2934" lon="-2.37835">
        <ele>-5.4000000953674</ele>
        <time>2022-05-12T07:31:26.000Z</time>
      </trkpt>
      <trkpt lat="47.29343" lon="-2.37849">
        <ele>-5.8000001907349</ele>
        <time>2022-05-12T07:31:27.000Z</time>
      </trkpt>
      <trkpt lat="47.29345" lon="-2.37861">
        <ele>-6.1999998092651</ele>
        <time>2022-05-12T07:31:28.000Z</time>
      </trkpt>
      <trkpt lat="47.29349" lon="-2.37873">
        <ele>-6.5999999046326</ele>
        <time>2022-05-12T07:31:29.000Z</time>
      </trkpt>
      <trkpt lat="47.2936" lon="-2.37907">
        <ele>-7</ele>
        <time>2022-05-12T07:31:32.000Z</time>
      </trkpt>
      <trkpt lat="47.29364" lon="-2.37918">
        <ele>-7.4000000953674</ele>
        <time>2022-05-12T07:31:33.000Z</time>
      </trkpt>
      <trkpt lat="47.29368" lon="-2.37929">
        <ele>-7.8000001907349</ele>
        <time>2022-05-12T07:31:34.000Z</time>
      </trkpt>
      <trkpt lat="47.29372" lon="-2.37941">
        <ele>-8.3999996185303</ele>
        <time>2022-05-12T07:31:35.000Z</time>
      </trkpt>
      <trkpt lat="47.29376" lon="-2.37952">
        <ele>-8.8000001907349</ele>
        <time>2022-05-12T07:31:36.000Z</time>
      </trkpt>
      <trkpt lat="47.29384" lon="-2.37974">
        <ele>-9.6000003814697</ele>
        <time>2022-05-12T07:31:38.000Z</time>
      </trkpt>
      <trkpt lat="47.29388" lon="-2.37985">
        <ele>-10</ele>
        <time>2022-05-12T07:31:39.000Z</time>
      </trkpt>
      <trkpt lat="47.29391" lon="-2.37996">
        <ele>-10.39999961853</ele>
        <time>2022-05-12T07:31:40.000Z</time>
      </trkpt>
      <trkpt lat="47.29395" lon="-2.38006">
        <ele>-10.800000190735</ele>
        <time>2022-05-12T07:31:41.000Z</time>
      </trkpt>
      <trkpt lat="47.29398" lon="-2.38016">
        <ele>-10.800000190735</ele>
        <time>2022-05-12T07:31:42.000Z</time>
      </trkpt>
      <trkpt lat="47.29404" lon="-2.38031">
        <ele>-11.39999961853</ele>
        <time>2022-05-12T07:31:44.000Z</time>
      </trkpt>
      <trkpt lat="47.29406" lon="-2.38038">
        <ele>-11.800000190735</ele>
        <time>2022-05-12T07:31:45.000Z</time>
      </trkpt>
      <trkpt lat="47.29408" lon="-2.38043">
        <ele>-12.199999809265</ele>
        <time>2022-05-12T07:31:46.000Z</time>
      </trkpt>
      <trkpt lat="47.2941" lon="-2.38048">
        <ele>-12.800000190735</ele>
        <time>2022-05-12T07:31:47.000Z</time>
      </trkpt>
      <trkpt lat="47.29411" lon="-2.38054">
        <ele>-13.199999809265</ele>
        <time>2022-05-12T07:31:48.000Z</time>
      </trkpt>
      <trkpt lat="47.29414" lon="-2.38065">
        <ele>-13.199999809265</ele>
        <time>2022-05-12T07:31:51.000Z</time>
      </trkpt>
      <trkpt lat="47.29415" lon="-2.3807">
        <ele>-13.199999809265</ele>
        <time>2022-05-12T07:31:55.000Z</time>
      </trkpt>
      <trkpt lat="47.29418" lon="-2.38072">
        <ele>-13.199999809265</ele>
        <time>2022-05-12T07:32:07.000Z</time>
      </trkpt>
      <trkpt lat="47.29422" lon="-2.38081">
        <ele>-13.199999809265</ele>
        <time>2022-05-12T07:32:12.000Z</time>
      </trkpt>
      <trkpt lat="47.29426" lon="-2.38089">
        <ele>-13.199999809265</ele>
        <time>2022-05-12T07:32:15.000Z</time>
      </trkpt>
      <trkpt lat="47.29429" lon="-2.38098">
        <ele>-13.199999809265</ele>
        <time>2022-05-12T07:32:17.000Z</time>
      </trkpt>
      <trkpt lat="47.29439" lon="-2.38129">
        <ele>-13.199999809265</ele>
        <time>2022-05-12T07:32:22.000Z</time>
      </trkpt>
      <trkpt lat="47.29445" lon="-2.38146">
        <ele>-13.199999809265</ele>
        <time>2022-05-12T07:32:25.000Z</time>
      </trkpt>
      <trkpt lat="47.29453" lon="-2.38151">
        <ele>-13.199999809265</ele>
        <time>2022-05-12T07:32:27.000Z</time>
      </trkpt>
      <trkpt lat="47.29464" lon="-2.38145">
        <ele>-13.199999809265</ele>
        <time>2022-05-12T07:32:31.000Z</time>
      </trkpt>
      <trkpt lat="47.2947" lon="-2.38139">
        <ele>-13.199999809265</ele>
        <time>2022-05-12T07:32:33.000Z</time>
      </trkpt>
      <trkpt lat="47.29484" lon="-2.38127">
        <ele>-13.199999809265</ele>
        <time>2022-05-12T07:32:38.000Z</time>
      </trkpt>
      <trkpt lat="47.29503" lon="-2.38123">
        <ele>-13.199999809265</ele>
        <time>2022-05-12T07:32:43.000Z</time>
      </trkpt>
      <trkpt lat="47.29524" lon="-2.38125">
        <ele>-13.199999809265</ele>
        <time>2022-05-12T07:32:49.000Z</time>
      </trkpt>
      <trkpt lat="47.2953" lon="-2.38124">
        <ele>-12.800000190735</ele>
        <time>2022-05-12T07:32:51.000Z</time>
      </trkpt>
      <trkpt lat="47.29534" lon="-2.38123">
        <ele>-12.199999809265</ele>
        <time>2022-05-12T07:32:52.000Z</time>
      </trkpt>
      <trkpt lat="47.29537" lon="-2.38122">
        <ele>-11.39999961853</ele>
        <time>2022-05-12T07:32:53.000Z</time>
      </trkpt>
      <trkpt lat="47.29541" lon="-2.38122">
        <ele>-11</ele>
        <time>2022-05-12T07:32:54.000Z</time>
      </trkpt>
      <trkpt lat="47.29545" lon="-2.38122">
        <ele>-11</ele>
        <time>2022-05-12T07:32:55.000Z</time>
      </trkpt>
      <trkpt lat="47.29576" lon="-2.38119">
        <ele>-11</ele>
        <time>2022-05-12T07:33:02.000Z</time>
      </trkpt>
      <trkpt lat="47.29581" lon="-2.38118">
        <ele>-10.60000038147</ele>
        <time>2022-05-12T07:33:03.000Z</time>
      </trkpt>
      <trkpt lat="47.29586" lon="-2.38117">
        <ele>-10.199999809265</ele>
        <time>2022-05-12T07:33:04.000Z</time>
      </trkpt>
      <trkpt lat="47.2959" lon="-2.38116">
        <ele>-9.8000001907349</ele>
        <time>2022-05-12T07:33:05.000Z</time>
      </trkpt>
      <trkpt lat="47.29594" lon="-2.38115">
        <ele>-9.3999996185303</ele>
        <time>2022-05-12T07:33:06.000Z</time>
      </trkpt>
      <trkpt lat="47.29598" lon="-2.38114">
        <ele>-9</ele>
        <time>2022-05-12T07:33:07.000Z</time>
      </trkpt>
      <trkpt lat="47.29603" lon="-2.38113">
        <ele>-9</ele>
        <time>2022-05-12T07:33:08.000Z</time>
      </trkpt>
      <trkpt lat="47.29632" lon="-2.38104">
        <ele>-9</ele>
        <time>2022-05-12T07:33:15.000Z</time>
      </trkpt>
      <trkpt lat="47.29636" lon="-2.38102">
        <ele>-8.6000003814697</ele>
        <time>2022-05-12T07:33:16.000Z</time>
      </trkpt>
      <trkpt lat="47.29639" lon="-2.381">
        <ele>-8.1999998092651</ele>
        <time>2022-05-12T07:33:17.000Z</time>
      </trkpt>
      <trkpt lat="47.29643" lon="-2.38099">
        <ele>-7.4000000953674</ele>
        <time>2022-05-12T07:33:18.000Z</time>
      </trkpt>
      <trkpt lat="47.29646" lon="-2.38097">
        <ele>-6.8000001907349</ele>
        <time>2022-05-12T07:33:19.000Z</time>
      </trkpt>
      <trkpt lat="47.29659" lon="-2.38091">
        <ele>-6.8000001907349</ele>
        <time>2022-05-12T07:33:23.000Z</time>
      </trkpt>
      <trkpt lat="47.29674" lon="-2.38082">
        <ele>-6.4000000953674</ele>
        <time>2022-05-12T07:33:30.000Z</time>
      </trkpt>
      <trkpt lat="47.29676" lon="-2.38081">
        <ele>-6</ele>
        <time>2022-05-12T07:33:31.000Z</time>
      </trkpt>
      <trkpt lat="47.29678" lon="-2.3808">
        <ele>-5.5999999046326</ele>
        <time>2022-05-12T07:33:32.000Z</time>
      </trkpt>
      <trkpt lat="47.29679" lon="-2.38078">
        <ele>-5.1999998092651</ele>
        <time>2022-05-12T07:33:33.000Z</time>
      </trkpt>
      <trkpt lat="47.29681" lon="-2.38077">
        <ele>-4.8000001907349</ele>
        <time>2022-05-12T07:33:34.000Z</time>
      </trkpt>
      <trkpt lat="47.29687" lon="-2.38072">
        <ele>-4.8000001907349</ele>
        <time>2022-05-12T07:33:37.000Z</time>
      </trkpt>
      <trkpt lat="47.29693" lon="-2.38067">
        <ele>-4.4000000953674</ele>
        <time>2022-05-12T07:33:40.000Z</time>
      </trkpt>
      <trkpt lat="47.29694" lon="-2.38066">
        <ele>-4</ele>
        <time>2022-05-12T07:33:41.000Z</time>
      </trkpt>
      <trkpt lat="47.29696" lon="-2.38064">
        <ele>-3.5999999046326</ele>
        <time>2022-05-12T07:33:42.000Z</time>
      </trkpt>
      <trkpt lat="47.29698" lon="-2.38062">
        <ele>-2.7999999523163</ele>
        <time>2022-05-12T07:33:43.000Z</time>
      </trkpt>
      <trkpt lat="47.29701" lon="-2.3806">
        <ele>-2.7999999523163</ele>
        <time>2022-05-12T07:33:44.000Z</time>
      </trkpt>
      <trkpt lat="47.29706" lon="-2.38056">
        <ele>-2.4000000953674</ele>
        <time>2022-05-12T07:33:47.000Z</time>
      </trkpt>
      <trkpt lat="47.29707" lon="-2.38055">
        <ele>-1.7999999523163</ele>
        <time>2022-05-12T07:33:48.000Z</time>
      </trkpt>
      <trkpt lat="47.29709" lon="-2.38053">
        <ele>-1.3999999761581</ele>
        <time>2022-05-12T07:33:49.000Z</time>
      </trkpt>
      <trkpt lat="47.29711" lon="-2.38051">
        <ele>-1</ele>
        <time>2022-05-12T07:33:50.000Z</time>
      </trkpt>
      <trkpt lat="47.29713" lon="-2.3805">
        <ele>-0.60000002384186</ele>
        <time>2022-05-12T07:33:51.000Z</time>
      </trkpt>
      <trkpt lat="47.29719" lon="-2.38046">
        <ele>-0.20000000298023</ele>
        <time>2022-05-12T07:33:54.000Z</time>
      </trkpt>
      <trkpt lat="47.2972" lon="-2.38044">
        <ele>0.20000000298023</ele>
        <time>2022-05-12T07:33:55.000Z</time>
      </trkpt>
      <trkpt lat="47.29722" lon="-2.38042">
        <ele>0.60000002384186</ele>
        <time>2022-05-12T07:33:56.000Z</time>
      </trkpt>
      <trkpt lat="47.29724" lon="-2.38041">
        <ele>1</ele>
        <time>2022-05-12T07:33:57.000Z</time>
      </trkpt>
      <trkpt lat="47.29726" lon="-2.38039">
        <ele>1.3999999761581</ele>
        <time>2022-05-12T07:33:58.000Z</time>
      </trkpt>
      <trkpt lat="47.29731" lon="-2.38035">
        <ele>1.7999999523163</ele>
        <time>2022-05-12T07:34:01.000Z</time>
      </trkpt>
      <trkpt lat="47.29732" lon="-2.38033">
        <ele>2.4000000953674</ele>
        <time>2022-05-12T07:34:02.000Z</time>
      </trkpt>
      <trkpt lat="47.29733" lon="-2.3803">
        <ele>2.7999999523163</ele>
        <time>2022-05-12T07:34:03.000Z</time>
      </trkpt>
      <trkpt lat="47.29734" lon="-2.38027">
        <ele>3.2000000476837</ele>
        <time>2022-05-12T07:34:04.000Z</time>
      </trkpt>
      <trkpt lat="47.29734" lon="-2.38024">
        <ele>3.5999999046326</ele>
        <time>2022-05-12T07:34:05.000Z</time>
      </trkpt>
      <trkpt lat="47.29733" lon="-2.38015">
        <ele>4</ele>
        <time>2022-05-12T07:34:08.000Z</time>
      </trkpt>
      <trkpt lat="47.29733" lon="-2.38013">
        <ele>4.5999999046326</ele>
        <time>2022-05-12T07:34:09.000Z</time>
      </trkpt>
      <trkpt lat="47.29732" lon="-2.3801">
        <ele>5</ele>
        <time>2022-05-12T07:34:10.000Z</time>
      </trkpt>
      <trkpt lat="47.29732" lon="-2.38008">
        <ele>5.5999999046326</ele>
        <time>2022-05-12T07:34:11.000Z</time>
      </trkpt>
      <trkpt lat="47.29731" lon="-2.38006">
        <ele>6</ele>
        <time>2022-05-12T07:34:12.000Z</time>
      </trkpt>
      <trkpt lat="47.2973" lon="-2.38001">
        <ele>6.4000000953674</ele>
        <time>2022-05-12T07:34:14.000Z</time>
      </trkpt>
      <trkpt lat="47.2973" lon="-2.37998">
        <ele>6.8000001907349</ele>
        <time>2022-05-12T07:34:15.000Z</time>
      </trkpt>
      <trkpt lat="47.2973" lon="-2.37996">
        <ele>7.1999998092651</ele>
        <time>2022-05-12T07:34:16.000Z</time>
      </trkpt>
      <trkpt lat="47.2973" lon="-2.37993">
        <ele>7.5999999046326</ele>
        <time>2022-05-12T07:34:17.000Z</time>
      </trkpt>
      <trkpt lat="47.29729" lon="-2.37991">
        <ele>8</ele>
        <time>2022-05-12T07:34:18.000Z</time>
      </trkpt>
      <trkpt lat="47.29731" lon="-2.37985">
        <ele>8.3999996185303</ele>
        <time>2022-05-12T07:34:20.000Z</time>
      </trkpt>
      <trkpt lat="47.29732" lon="-2.37982">
        <ele>8.8000001907349</ele>
        <time>2022-05-12T07:34:21.000Z</time>
      </trkpt>
      <trkpt lat="47.29733" lon="-2.37979">
        <ele>9.3999996185303</ele>
        <time>2022-05-12T07:34:22.000Z</time>
      </trkpt>
      <trkpt lat="47.29733" lon="-2.37977">
        <ele>9.8000001907349</ele>
        <time>2022-05-12T07:34:23.000Z</time>
      </trkpt>
      <trkpt lat="47.29734" lon="-2.37974">
        <ele>10.199999809265</ele>
        <time>2022-05-12T07:34:24.000Z</time>
      </trkpt>
      <trkpt lat="47.29737" lon="-2.37967">
        <ele>10.199999809265</ele>
        <time>2022-05-12T07:34:27.000Z</time>
      </trkpt>
      <trkpt lat="47.29738" lon="-2.37966">
        <ele>10.60000038147</ele>
        <time>2022-05-12T07:34:28.000Z</time>
      </trkpt>
      <trkpt lat="47.29739" lon="-2.37963">
        <ele>11</ele>
        <time>2022-05-12T07:34:29.000Z</time>
      </trkpt>
      <trkpt lat="47.2974" lon="-2.37961">
        <ele>11.60000038147</ele>
        <time>2022-05-12T07:34:30.000Z</time>
      </trkpt>
      <trkpt lat="47.29741" lon="-2.37959">
        <ele>12</ele>
        <time>2022-05-12T07:34:31.000Z</time>
      </trkpt>
      <trkpt lat="47.29743" lon="-2.37956">
        <ele>12.39999961853</ele>
        <time>2022-05-12T07:34:32.000Z</time>
      </trkpt>
      <trkpt lat="47.29744" lon="-2.37954">
        <ele>12.39999961853</ele>
        <time>2022-05-12T07:34:33.000Z</time>
      </trkpt>
      <trkpt lat="47.29751" lon="-2.37942">
        <ele>12.800000190735</ele>
        <time>2022-05-12T07:34:38.000Z</time>
      </trkpt>
      <trkpt lat="47.29753" lon="-2.3794">
        <ele>13.199999809265</ele>
        <time>2022-05-12T07:34:39.000Z</time>
      </trkpt>
      <trkpt lat="47.29754" lon="-2.37938">
        <ele>13.60000038147</ele>
        <time>2022-05-12T07:34:40.000Z</time>
      </trkpt>
      <trkpt lat="47.29756" lon="-2.37936">
        <ele>14.199999809265</ele>
        <time>2022-05-12T07:34:41.000Z</time>
      </trkpt>
      <trkpt lat="47.29758" lon="-2.37934">
        <ele>14.60000038147</ele>
        <time>2022-05-12T07:34:42.000Z</time>
      </trkpt>
      <trkpt lat="47.2977" lon="-2.37923">
        <ele>14.60000038147</ele>
        <time>2022-05-12T07:34:48.000Z</time>
      </trkpt>
      <trkpt lat="47.29782" lon="-2.37912">
        <ele>14.60000038147</ele>
        <time>2022-05-12T07:34:54.000Z</time>
      </trkpt>
      <trkpt lat="47.29797" lon="-2.37902">
        <ele>15</ele>
        <time>2022-05-12T07:35:00.000Z</time>
      </trkpt>
      <trkpt lat="47.29799" lon="-2.379">
        <ele>15.39999961853</ele>
        <time>2022-05-12T07:35:01.000Z</time>
      </trkpt>
      <trkpt lat="47.29802" lon="-2.37899">
        <ele>15.800000190735</ele>
        <time>2022-05-12T07:35:02.000Z</time>
      </trkpt>
      <trkpt lat="47.29805" lon="-2.37898">
        <ele>16.200000762939</ele>
        <time>2022-05-12T07:35:03.000Z</time>
      </trkpt>
      <trkpt lat="47.29808" lon="-2.37896">
        <ele>16.60000038147</ele>
        <time>2022-05-12T07:35:04.000Z</time>
      </trkpt>
      <trkpt lat="47.29816" lon="-2.37892">
        <ele>16.60000038147</ele>
        <time>2022-05-12T07:35:06.000Z</time>
      </trkpt>
      <trkpt lat="47.29839" lon="-2.37877">
        <ele>16.60000038147</ele>
        <time>2022-05-12T07:35:12.000Z</time>
      </trkpt>
      <trkpt lat="47.29854" lon="-2.37851">
        <ele>16.60000038147</ele>
        <time>2022-05-12T07:35:17.000Z</time>
      </trkpt>
      <trkpt lat="47.29866" lon="-2.37821">
        <ele>16.60000038147</ele>
        <time>2022-05-12T07:35:23.000Z</time>
      </trkpt>
      <trkpt lat="47.29871" lon="-2.37808">
        <ele>16.200000762939</ele>
        <time>2022-05-12T07:35:26.000Z</time>
      </trkpt>
      <trkpt lat="47.29871" lon="-2.37804">
        <ele>15.800000190735</ele>
        <time>2022-05-12T07:35:27.000Z</time>
      </trkpt>
      <trkpt lat="47.29871" lon="-2.37801">
        <ele>15.39999961853</ele>
        <time>2022-05-12T07:35:28.000Z</time>
      </trkpt>
      <trkpt lat="47.29871" lon="-2.37798">
        <ele>15</ele>
        <time>2022-05-12T07:35:29.000Z</time>
      </trkpt>
      <trkpt lat="47.29872" lon="-2.37796">
        <ele>14.60000038147</ele>
        <time>2022-05-12T07:35:30.000Z</time>
      </trkpt>
      <trkpt lat="47.29875" lon="-2.37795">
        <ele>14.60000038147</ele>
        <time>2022-05-12T07:35:32.000Z</time>
      </trkpt>
      <trkpt lat="47.29876" lon="-2.37797">
        <ele>14.60000038147</ele>
        <time>2022-05-12T07:35:33.000Z</time>
      </trkpt>
      <trkpt lat="47.29877" lon="-2.37806">
        <ele>14.60000038147</ele>
        <time>2022-05-12T07:35:37.000Z</time>
      </trkpt>
      <trkpt lat="47.29877" lon="-2.37807">
        <ele>14.60000038147</ele>
        <time>2022-05-12T07:35:38.000Z</time>
      </trkpt>
      <trkpt lat="47.29879" lon="-2.37809">
        <ele>14.60000038147</ele>
        <time>2022-05-12T07:35:42.000Z</time>
      </trkpt>
      <trkpt lat="47.29881" lon="-2.37814">
        <ele>14.60000038147</ele>
        <time>2022-05-12T07:36:14.000Z</time>
      </trkpt>
      <trkpt lat="47.29884" lon="-2.37821">
        <ele>14.60000038147</ele>
        <time>2022-05-12T07:36:16.000Z</time>
      </trkpt>
      <trkpt lat="47.299" lon="-2.37842">
        <ele>14.199999809265</ele>
        <time>2022-05-12T07:36:20.000Z</time>
      </trkpt>
      <trkpt lat="47.29904" lon="-2.37851">
        <ele>13.60000038147</ele>
        <time>2022-05-12T07:36:21.000Z</time>
      </trkpt>
      <trkpt lat="47.29911" lon="-2.37857">
        <ele>13.199999809265</ele>
        <time>2022-05-12T07:36:22.000Z</time>
      </trkpt>
      <trkpt lat="47.29917" lon="-2.37865">
        <ele>12.800000190735</ele>
        <time>2022-05-12T07:36:23.000Z</time>
      </trkpt>
      <trkpt lat="47.29924" lon="-2.37872">
        <ele>12.199999809265</ele>
        <time>2022-05-12T07:36:24.000Z</time>
      </trkpt>
      <trkpt lat="47.2993" lon="-2.3788">
        <ele>11.60000038147</ele>
        <time>2022-05-12T07:36:25.000Z</time>
      </trkpt>
      <trkpt lat="47.29937" lon="-2.37888">
        <ele>11</ele>
        <time>2022-05-12T07:36:26.000Z</time>
      </trkpt>
      <trkpt lat="47.29943" lon="-2.37895">
        <ele>10.39999961853</ele>
        <time>2022-05-12T07:36:27.000Z</time>
      </trkpt>
      <trkpt lat="47.2995" lon="-2.37903">
        <ele>9.8000001907349</ele>
        <time>2022-05-12T07:36:28.000Z</time>
      </trkpt>
      <trkpt lat="47.29962" lon="-2.37917">
        <ele>9.3999996185303</ele>
        <time>2022-05-12T07:36:30.000Z</time>
      </trkpt>
      <trkpt lat="47.29968" lon="-2.37924">
        <ele>9</ele>
        <time>2022-05-12T07:36:31.000Z</time>
      </trkpt>
      <trkpt lat="47.29974" lon="-2.37931">
        <ele>8.3999996185303</ele>
        <time>2022-05-12T07:36:32.000Z</time>
      </trkpt>
      <trkpt lat="47.2998" lon="-2.37938">
        <ele>8</ele>
        <time>2022-05-12T07:36:33.000Z</time>
      </trkpt>
      <trkpt lat="47.29985" lon="-2.37944">
        <ele>7.5999999046326</ele>
        <time>2022-05-12T07:36:34.000Z</time>
      </trkpt>
      <trkpt lat="47.29991" lon="-2.37947">
        <ele>7.5999999046326</ele>
        <time>2022-05-12T07:36:35.000Z</time>
      </trkpt>
      <trkpt lat="47.29996" lon="-2.37948">
        <ele>7.5999999046326</ele>
        <time>2022-05-12T07:36:36.000Z</time>
      </trkpt>
      <trkpt lat="47.30002" lon="-2.37965">
        <ele>7.5999999046326</ele>
        <time>2022-05-12T07:36:39.000Z</time>
      </trkpt>
      <trkpt lat="47.29992" lon="-2.37986">
        <ele>7.5999999046326</ele>
        <time>2022-05-12T07:36:42.000Z</time>
      </trkpt>
      <trkpt lat="47.2999" lon="-2.37995">
        <ele>7.5999999046326</ele>
        <time>2022-05-12T07:36:43.000Z</time>
      </trkpt>
      <trkpt lat="47.29989" lon="-2.38015">
        <ele>7.5999999046326</ele>
        <time>2022-05-12T07:36:45.000Z</time>
      </trkpt>
      <trkpt lat="47.29987" lon="-2.38073">
        <ele>7.5999999046326</ele>
        <time>2022-05-12T07:36:51.000Z</time>
      </trkpt>
      <trkpt lat="47.29986" lon="-2.3812">
        <ele>7.5999999046326</ele>
        <time>2022-05-12T07:36:57.000Z</time>
      </trkpt>
      <trkpt lat="47.29988" lon="-2.38149">
        <ele>7.5999999046326</ele>
        <time>2022-05-12T07:37:01.000Z</time>
      </trkpt>
      <trkpt lat="47.2999" lon="-2.38163">
        <ele>7.5999999046326</ele>
        <time>2022-05-12T07:37:03.000Z</time>
      </trkpt>
      <trkpt lat="47.29991" lon="-2.38171">
        <ele>8</ele>
        <time>2022-05-12T07:37:04.000Z</time>
      </trkpt>
      <trkpt lat="47.29991" lon="-2.38179">
        <ele>8.3999996185303</ele>
        <time>2022-05-12T07:37:05.000Z</time>
      </trkpt>
      <trkpt lat="47.29992" lon="-2.38186">
        <ele>8.8000001907349</ele>
        <time>2022-05-12T07:37:06.000Z</time>
      </trkpt>
      <trkpt lat="47.29993" lon="-2.38194">
        <ele>9.1999998092651</ele>
        <time>2022-05-12T07:37:07.000Z</time>
      </trkpt>
      <trkpt lat="47.29993" lon="-2.38201">
        <ele>9.6000003814697</ele>
        <time>2022-05-12T07:37:08.000Z</time>
      </trkpt>
      <trkpt lat="47.29994" lon="-2.38217">
        <ele>9.6000003814697</ele>
        <time>2022-05-12T07:37:10.000Z</time>
      </trkpt>
      <trkpt lat="47.29995" lon="-2.38255">
        <ele>10</ele>
        <time>2022-05-12T07:37:15.000Z</time>
      </trkpt>
      <trkpt lat="47.29995" lon="-2.38262">
        <ele>10.39999961853</ele>
        <time>2022-05-12T07:37:16.000Z</time>
      </trkpt>
      <trkpt lat="47.29995" lon="-2.38271">
        <ele>10.800000190735</ele>
        <time>2022-05-12T07:37:17.000Z</time>
      </trkpt>
      <trkpt lat="47.29995" lon="-2.38279">
        <ele>11.199999809265</ele>
        <time>2022-05-12T07:37:18.000Z</time>
      </trkpt>
      <trkpt lat="47.29994" lon="-2.38286">
        <ele>11.60000038147</ele>
        <time>2022-05-12T07:37:19.000Z</time>
      </trkpt>
      <trkpt lat="47.29996" lon="-2.38336">
        <ele>11.60000038147</ele>
        <time>2022-05-12T07:37:25.000Z</time>
      </trkpt>
      <trkpt lat="47.29998" lon="-2.38403">
        <ele>11.60000038147</ele>
        <time>2022-05-12T07:37:33.000Z</time>
      </trkpt>
      <trkpt lat="47.30006" lon="-2.38456">
        <ele>11.60000038147</ele>
        <time>2022-05-12T07:37:40.000Z</time>
      </trkpt>
      <trkpt lat="47.30013" lon="-2.38502">
        <ele>12</ele>
        <time>2022-05-12T07:37:46.000Z</time>
      </trkpt>
      <trkpt lat="47.30014" lon="-2.3851">
        <ele>12.39999961853</ele>
        <time>2022-05-12T07:37:47.000Z</time>
      </trkpt>
      <trkpt lat="47.30015" lon="-2.38519">
        <ele>13.199999809265</ele>
        <time>2022-05-12T07:37:48.000Z</time>
      </trkpt>
      <trkpt lat="47.30017" lon="-2.38529">
        <ele>13.60000038147</ele>
        <time>2022-05-12T07:37:49.000Z</time>
      </trkpt>
      <trkpt lat="47.3002" lon="-2.38557">
        <ele>13.199999809265</ele>
        <time>2022-05-12T07:37:52.000Z</time>
      </trkpt>
      <trkpt lat="47.30021" lon="-2.38567">
        <ele>12.60000038147</ele>
        <time>2022-05-12T07:37:53.000Z</time>
      </trkpt>
      <trkpt lat="47.30022" lon="-2.38576">
        <ele>12.199999809265</ele>
        <time>2022-05-12T07:37:54.000Z</time>
      </trkpt>
      <trkpt lat="47.30024" lon="-2.38584">
        <ele>11.60000038147</ele>
        <time>2022-05-12T07:37:55.000Z</time>
      </trkpt>
      <trkpt lat="47.30025" lon="-2.38592">
        <ele>11.199999809265</ele>
        <time>2022-05-12T07:37:56.000Z</time>
      </trkpt>
      <trkpt lat="47.30025" lon="-2.38598">
        <ele>10.60000038147</ele>
        <time>2022-05-12T07:37:57.000Z</time>
      </trkpt>
      <trkpt lat="47.30025" lon="-2.38603">
        <ele>10</ele>
        <time>2022-05-12T07:37:58.000Z</time>
      </trkpt>
      <trkpt lat="47.30026" lon="-2.38609">
        <ele>9.3999996185303</ele>
        <time>2022-05-12T07:37:59.000Z</time>
      </trkpt>
      <trkpt lat="47.30025" lon="-2.38615">
        <ele>9</ele>
        <time>2022-05-12T07:38:00.000Z</time>
      </trkpt>
      <trkpt lat="47.30022" lon="-2.3863">
        <ele>8.3999996185303</ele>
        <time>2022-05-12T07:38:02.000Z</time>
      </trkpt>
      <trkpt lat="47.30023" lon="-2.38638">
        <ele>8</ele>
        <time>2022-05-12T07:38:03.000Z</time>
      </trkpt>
      <trkpt lat="47.30024" lon="-2.38646">
        <ele>7.5999999046326</ele>
        <time>2022-05-12T07:38:04.000Z</time>
      </trkpt>
      <trkpt lat="47.30024" lon="-2.38655">
        <ele>7.1999998092651</ele>
        <time>2022-05-12T07:38:05.000Z</time>
      </trkpt>
      <trkpt lat="47.30025" lon="-2.38664">
        <ele>6.8000001907349</ele>
        <time>2022-05-12T07:38:06.000Z</time>
      </trkpt>
      <trkpt lat="47.30025" lon="-2.38694">
        <ele>6.8000001907349</ele>
        <time>2022-05-12T07:38:09.000Z</time>
      </trkpt>
      <trkpt lat="47.30023" lon="-2.38715">
        <ele>6.4000000953674</ele>
        <time>2022-05-12T07:38:11.000Z</time>
      </trkpt>
      <trkpt lat="47.30021" lon="-2.38726">
        <ele>6</ele>
        <time>2022-05-12T07:38:12.000Z</time>
      </trkpt>
      <trkpt lat="47.30019" lon="-2.38737">
        <ele>5.1999998092651</ele>
        <time>2022-05-12T07:38:13.000Z</time>
      </trkpt>
      <trkpt lat="47.30017" lon="-2.38749">
        <ele>4.8000001907349</ele>
        <time>2022-05-12T07:38:14.000Z</time>
      </trkpt>
      <trkpt lat="47.30013" lon="-2.38786">
        <ele>4.1999998092651</ele>
        <time>2022-05-12T07:38:17.000Z</time>
      </trkpt>
      <trkpt lat="47.30012" lon="-2.38798">
        <ele>3.7999999523163</ele>
        <time>2022-05-12T07:38:18.000Z</time>
      </trkpt>
      <trkpt lat="47.30011" lon="-2.38811">
        <ele>3.2000000476837</ele>
        <time>2022-05-12T07:38:19.000Z</time>
      </trkpt>
      <trkpt lat="47.3001" lon="-2.38824">
        <ele>2.7999999523163</ele>
        <time>2022-05-12T07:38:20.000Z</time>
      </trkpt>
      <trkpt lat="47.30008" lon="-2.38837">
        <ele>2.4000000953674</ele>
        <time>2022-05-12T07:38:21.000Z</time>
      </trkpt>
      <trkpt lat="47.30007" lon="-2.38851">
        <ele>1.7999999523163</ele>
        <time>2022-05-12T07:38:22.000Z</time>
      </trkpt>
      <trkpt lat="47.30007" lon="-2.38864">
        <ele>1.3999999761581</ele>
        <time>2022-05-12T07:38:23.000Z</time>
      </trkpt>
      <trkpt lat="47.30006" lon="-2.38877">
        <ele>1</ele>
        <time>2022-05-12T07:38:24.000Z</time>
      </trkpt>
      <trkpt lat="47.30006" lon="-2.38889">
        <ele>0.60000002384186</ele>
        <time>2022-05-12T07:38:25.000Z</time>
      </trkpt>
      <trkpt lat="47.30006" lon="-2.38901">
        <ele>16</ele>
        <time>2022-05-12T07:38:26.000Z</time>
      </trkpt>
      <trkpt lat="47.30006" lon="-2.38913">
        <ele>-0.40000000596046</ele>
        <time>2022-05-12T07:38:27.000Z</time>
      </trkpt>
      <trkpt lat="47.30006" lon="-2.38924">
        <ele>-0.80000001192093</ele>
        <time>2022-05-12T07:38:28.000Z</time>
      </trkpt>
      <trkpt lat="47.30006" lon="-2.38935">
        <ele>-1.3999999761581</ele>
        <time>2022-05-12T07:38:29.000Z</time>
      </trkpt>
      <trkpt lat="47.30006" lon="-2.38945">
        <ele>-2</ele>
        <time>2022-05-12T07:38:30.000Z</time>
      </trkpt>
      <trkpt lat="47.30006" lon="-2.38954">
        <ele>-2.5999999046326</ele>
        <time>2022-05-12T07:38:31.000Z</time>
      </trkpt>
      <trkpt lat="47.30007" lon="-2.38962">
        <ele>-3.2000000476837</ele>
        <time>2022-05-12T07:38:32.000Z</time>
      </trkpt>
      <trkpt lat="47.30009" lon="-2.38969">
        <ele>-3.7999999523163</ele>
        <time>2022-05-12T07:38:33.000Z</time>
      </trkpt>
      <trkpt lat="47.30012" lon="-2.38973">
        <ele>-4.4000000953674</ele>
        <time>2022-05-12T07:38:34.000Z</time>
      </trkpt>
      <trkpt lat="47.30028" lon="-2.38974">
        <ele>-4.4000000953674</ele>
        <time>2022-05-12T07:38:37.000Z</time>
      </trkpt>
      <trkpt lat="47.30034" lon="-2.38969">
        <ele>-4.4000000953674</ele>
        <time>2022-05-12T07:38:38.000Z</time>
      </trkpt>
      <trkpt lat="47.30044" lon="-2.38959">
        <ele>-4.4000000953674</ele>
        <time>2022-05-12T07:38:40.000Z</time>
      </trkpt>
      <trkpt lat="47.30049" lon="-2.38955">
        <ele>-4.4000000953674</ele>
        <time>2022-05-12T07:38:41.000Z</time>
      </trkpt>
      <trkpt lat="47.30068" lon="-2.38937">
        <ele>-4.4000000953674</ele>
        <time>2022-05-12T07:38:45.000Z</time>
      </trkpt>
      <trkpt lat="47.30097" lon="-2.38914">
        <ele>-4.4000000953674</ele>
        <time>2022-05-12T07:38:52.000Z</time>
      </trkpt>
      <trkpt lat="47.30108" lon="-2.38903">
        <ele>-4.4000000953674</ele>
        <time>2022-05-12T07:38:55.000Z</time>
      </trkpt>
      <trkpt lat="47.30112" lon="-2.38898">
        <ele>-4</ele>
        <time>2022-05-12T07:38:56.000Z</time>
      </trkpt>
      <trkpt lat="47.30115" lon="-2.38894">
        <ele>-3.5999999046326</ele>
        <time>2022-05-12T07:38:57.000Z</time>
      </trkpt>
      <trkpt lat="47.30118" lon="-2.38889">
        <ele>-3.2000000476837</ele>
        <time>2022-05-12T07:38:58.000Z</time>
      </trkpt>
      <trkpt lat="47.30121" lon="-2.38884">
        <ele>-2.7999999523163</ele>
        <time>2022-05-12T07:38:59.000Z</time>
      </trkpt>
      <trkpt lat="47.30124" lon="-2.38878">
        <ele>-2.4000000953674</ele>
        <time>2022-05-12T07:39:00.000Z</time>
      </trkpt>
      <trkpt lat="47.30131" lon="-2.38863">
        <ele>-2.4000000953674</ele>
        <time>2022-05-12T07:39:03.000Z</time>
      </trkpt>
      <trkpt lat="47.30134" lon="-2.38858">
        <ele>-2</ele>
        <time>2022-05-12T07:39:04.000Z</time>
      </trkpt>
      <trkpt lat="47.30136" lon="-2.38854">
        <ele>-1.6000000238419</ele>
        <time>2022-05-12T07:39:05.000Z</time>
      </trkpt>
      <trkpt lat="47.30139" lon="-2.38849">
        <ele>-1.2000000476837</ele>
        <time>2022-05-12T07:39:06.000Z</time>
      </trkpt>
      <trkpt lat="47.30141" lon="-2.38844">
        <ele>-0.80000001192093</ele>
        <time>2022-05-12T07:39:07.000Z</time>
      </trkpt>
      <trkpt lat="47.30144" lon="-2.38839">
        <ele>-0.40000000596046</ele>
        <time>2022-05-12T07:39:08.000Z</time>
      </trkpt>
      <trkpt lat="47.30159" lon="-2.38811">
        <ele>22.7</ele>
        <time>2022-05-12T07:39:14.000Z</time>
      </trkpt>
      <trkpt lat="47.30162" lon="-2.38807">
        <ele>0.40000000596046</ele>
        <time>2022-05-12T07:39:15.000Z</time>
      </trkpt>
      <trkpt lat="47.30164" lon="-2.38804">
        <ele>0.80000001192093</ele>
        <time>2022-05-12T07:39:16.000Z</time>
      </trkpt>
      <trkpt lat="47.30167" lon="-2.388">
        <ele>1.2000000476837</ele>
        <time>2022-05-12T07:39:17.000Z</time>
      </trkpt>
      <trkpt lat="47.30169" lon="-2.38796">
        <ele>1.6000000238419</ele>
        <time>2022-05-12T07:39:18.000Z</time>
      </trkpt>
      <trkpt lat="47.30184" lon="-2.38782">
        <ele>2</ele>
        <time>2022-05-12T07:39:22.000Z</time>
      </trkpt>
      <trkpt lat="47.30187" lon="-2.38778">
        <ele>2.4000000953674</ele>
        <time>2022-05-12T07:39:23.000Z</time>
      </trkpt>
      <trkpt lat="47.3019" lon="-2.38775">
        <ele>2.7999999523163</ele>
        <time>2022-05-12T07:39:24.000Z</time>
      </trkpt>
      <trkpt lat="47.30193" lon="-2.38773">
        <ele>3.2000000476837</ele>
        <time>2022-05-12T07:39:25.000Z</time>
      </trkpt>
      <trkpt lat="47.30197" lon="-2.3877">
        <ele>3.5999999046326</ele>
        <time>2022-05-12T07:39:26.000Z</time>
      </trkpt>
      <trkpt lat="47.30204" lon="-2.38768">
        <ele>3.5999999046326</ele>
        <time>2022-05-12T07:39:28.000Z</time>
      </trkpt>
      <trkpt lat="47.30209" lon="-2.38769">
        <ele>4</ele>
        <time>2022-05-12T07:39:29.000Z</time>
      </trkpt>
      <trkpt lat="47.30213" lon="-2.38771">
        <ele>4.5999999046326</ele>
        <time>2022-05-12T07:39:30.000Z</time>
      </trkpt>
      <trkpt lat="47.30217" lon="-2.38772">
        <ele>5</ele>
        <time>2022-05-12T07:39:31.000Z</time>
      </trkpt>
      <trkpt lat="47.30219" lon="-2.38774">
        <ele>5.4000000953674</ele>
        <time>2022-05-12T07:39:32.000Z</time>
      </trkpt>
      <trkpt lat="47.30222" lon="-2.38777">
        <ele>5.8000001907349</ele>
        <time>2022-05-12T07:39:33.000Z</time>
      </trkpt>
      <trkpt lat="47.30225" lon="-2.3878">
        <ele>6.1999998092651</ele>
        <time>2022-05-12T07:39:34.000Z</time>
      </trkpt>
      <trkpt lat="47.30227" lon="-2.38783">
        <ele>6.5999999046326</ele>
        <time>2022-05-12T07:39:35.000Z</time>
      </trkpt>
      <trkpt lat="47.3023" lon="-2.38786">
        <ele>7</ele>
        <time>2022-05-12T07:39:36.000Z</time>
      </trkpt>
      <trkpt lat="47.30233" lon="-2.38789">
        <ele>7.4000000953674</ele>
        <time>2022-05-12T07:39:37.000Z</time>
      </trkpt>
      <trkpt lat="47.30235" lon="-2.38791">
        <ele>8</ele>
        <time>2022-05-12T07:39:38.000Z</time>
      </trkpt>
      <trkpt lat="47.3024" lon="-2.38797">
        <ele>8.3999996185303</ele>
        <time>2022-05-12T07:39:40.000Z</time>
      </trkpt>
      <trkpt lat="47.30243" lon="-2.388">
        <ele>8.8000001907349</ele>
        <time>2022-05-12T07:39:41.000Z</time>
      </trkpt>
      <trkpt lat="47.30246" lon="-2.38804">
        <ele>9.1999998092651</ele>
        <time>2022-05-12T07:39:42.000Z</time>
      </trkpt>
      <trkpt lat="47.30248" lon="-2.38808">
        <ele>9.6000003814697</ele>
        <time>2022-05-12T07:39:43.000Z</time>
      </trkpt>
      <trkpt lat="47.30251" lon="-2.38812">
        <ele>10</ele>
        <time>2022-05-12T07:39:44.000Z</time>
      </trkpt>
      <trkpt lat="47.30257" lon="-2.38825">
        <ele>10.39999961853</ele>
        <time>2022-05-12T07:39:47.000Z</time>
      </trkpt>
      <trkpt lat="47.30259" lon="-2.38829">
        <ele>11</ele>
        <time>2022-05-12T07:39:48.000Z</time>
      </trkpt>
      <trkpt lat="47.30261" lon="-2.38833">
        <ele>11.39999961853</ele>
        <time>2022-05-12T07:39:49.000Z</time>
      </trkpt>
      <trkpt lat="47.30263" lon="-2.38838">
        <ele>11.800000190735</ele>
        <time>2022-05-12T07:39:50.000Z</time>
      </trkpt>
      <trkpt lat="47.30265" lon="-2.38843">
        <ele>12.199999809265</ele>
        <time>2022-05-12T07:39:51.000Z</time>
      </trkpt>
      <trkpt lat="47.30284" lon="-2.38883">
        <ele>12.199999809265</ele>
        <time>2022-05-12T07:39:59.000Z</time>
      </trkpt>
      <trkpt lat="47.30288" lon="-2.38895">
        <ele>12.60000038147</ele>
        <time>2022-05-12T07:40:01.000Z</time>
      </trkpt>
      <trkpt lat="47.3029" lon="-2.389">
        <ele>13</ele>
        <time>2022-05-12T07:40:02.000Z</time>
      </trkpt>
      <trkpt lat="47.30292" lon="-2.38906">
        <ele>13.60000038147</ele>
        <time>2022-05-12T07:40:03.000Z</time>
      </trkpt>
      <trkpt lat="47.30294" lon="-2.38912">
        <ele>14</ele>
        <time>2022-05-12T07:40:04.000Z</time>
      </trkpt>
      <trkpt lat="47.30296" lon="-2.38918">
        <ele>14.39999961853</ele>
        <time>2022-05-12T07:40:05.000Z</time>
      </trkpt>
      <trkpt lat="47.30304" lon="-2.38936">
        <ele>14.39999961853</ele>
        <time>2022-05-12T07:40:08.000Z</time>
      </trkpt>
      <trkpt lat="47.30312" lon="-2.38953">
        <ele>14.39999961853</ele>
        <time>2022-05-12T07:40:11.000Z</time>
      </trkpt>
      <trkpt lat="47.30324" lon="-2.38971">
        <ele>14.39999961853</ele>
        <time>2022-05-12T07:40:15.000Z</time>
      </trkpt>
      <trkpt lat="47.30333" lon="-2.38983">
        <ele>14.800000190735</ele>
        <time>2022-05-12T07:40:18.000Z</time>
      </trkpt>
      <trkpt lat="47.30336" lon="-2.38988">
        <ele>15.199999809265</ele>
        <time>2022-05-12T07:40:19.000Z</time>
      </trkpt>
      <trkpt lat="47.30338" lon="-2.38993">
        <ele>15.60000038147</ele>
        <time>2022-05-12T07:40:20.000Z</time>
      </trkpt>
      <trkpt lat="47.3034" lon="-2.38999">
        <ele>16</ele>
        <time>2022-05-12T07:40:21.000Z</time>
      </trkpt>
      <trkpt lat="47.30341" lon="-2.39005">
        <ele>16.39999961853</ele>
        <time>2022-05-12T07:40:22.000Z</time>
      </trkpt>
      <trkpt lat="47.30351" lon="-2.3904">
        <ele>16.39999961853</ele>
        <time>2022-05-12T07:40:29.000Z</time>
      </trkpt>
      <trkpt lat="47.30353" lon="-2.3905">
        <ele>16.39999961853</ele>
        <time>2022-05-12T07:40:31.000Z</time>
      </trkpt>
      <trkpt lat="47.30356" lon="-2.39066">
        <ele>16.39999961853</ele>
        <time>2022-05-12T07:40:34.000Z</time>
      </trkpt>
      <trkpt lat="47.30365" lon="-2.39106">
        <ele>16.39999961853</ele>
        <time>2022-05-12T07:40:40.000Z</time>
      </trkpt>
      <trkpt lat="47.30369" lon="-2.39122">
        <ele>16.39999961853</ele>
        <time>2022-05-12T07:40:42.000Z</time>
      </trkpt>
      <trkpt lat="47.30383" lon="-2.39153">
        <ele>16.39999961853</ele>
        <time>2022-05-12T07:40:46.000Z</time>
      </trkpt>
      <trkpt lat="47.30405" lon="-2.39169">
        <ele>16.39999961853</ele>
        <time>2022-05-12T07:40:50.000Z</time>
      </trkpt>
      <trkpt lat="47.30426" lon="-2.39167">
        <ele>16.39999961853</ele>
        <time>2022-05-12T07:40:54.000Z</time>
      </trkpt>
      <trkpt lat="47.30436" lon="-2.39162">
        <ele>16.39999961853</ele>
        <time>2022-05-12T07:40:56.000Z</time>
      </trkpt>
      <trkpt lat="47.30441" lon="-2.39159">
        <ele>16.39999961853</ele>
        <time>2022-05-12T07:40:57.000Z</time>
      </trkpt>
      <trkpt lat="47.30449" lon="-2.3915">
        <ele>16.39999961853</ele>
        <time>2022-05-12T07:40:59.000Z</time>
      </trkpt>
      <trkpt lat="47.30472" lon="-2.39122">
        <ele>16.799999237061</ele>
        <time>2022-05-12T07:41:05.000Z</time>
      </trkpt>
      <trkpt lat="47.30476" lon="-2.39118">
        <ele>17.200000762939</ele>
        <time>2022-05-12T07:41:06.000Z</time>
      </trkpt>
      <trkpt lat="47.3048" lon="-2.39114">
        <ele>17.60000038147</ele>
        <time>2022-05-12T07:41:07.000Z</time>
      </trkpt>
      <trkpt lat="47.30484" lon="-2.3911">
        <ele>18.39999961853</ele>
        <time>2022-05-12T07:41:08.000Z</time>
      </trkpt>
      <trkpt lat="47.30505" lon="-2.39088">
        <ele>18.39999961853</ele>
        <time>2022-05-12T07:41:13.000Z</time>
      </trkpt>
      <trkpt lat="47.30534" lon="-2.3906">
        <ele>18.39999961853</ele>
        <time>2022-05-12T07:41:20.000Z</time>
      </trkpt>
      <trkpt lat="47.30538" lon="-2.39056">
        <ele>18.799999237061</ele>
        <time>2022-05-12T07:41:21.000Z</time>
      </trkpt>
      <trkpt lat="47.30542" lon="-2.39051">
        <ele>19.39999961853</ele>
        <time>2022-05-12T07:41:22.000Z</time>
      </trkpt>
      <trkpt lat="47.30546" lon="-2.39047">
        <ele>19.799999237061</ele>
        <time>2022-05-12T07:41:23.000Z</time>
      </trkpt>
      <trkpt lat="47.3055" lon="-2.39043">
        <ele>20.200000762939</ele>
        <time>2022-05-12T07:41:24.000Z</time>
      </trkpt>
      <trkpt lat="47.30554" lon="-2.39039">
        <ele>20.60000038147</ele>
        <time>2022-05-12T07:41:25.000Z</time>
      </trkpt>
      <trkpt lat="47.30557" lon="-2.39034">
        <ele>20.60000038147</ele>
        <time>2022-05-12T07:41:26.000Z</time>
      </trkpt>
      <trkpt lat="47.30571" lon="-2.39018">
        <ele>20.60000038147</ele>
        <time>2022-05-12T07:41:30.000Z</time>
      </trkpt>
      <trkpt lat="47.30577" lon="-2.39009">
        <ele>20.60000038147</ele>
        <time>2022-05-12T07:41:32.000Z</time>
      </trkpt>
      <trkpt lat="47.30583" lon="-2.39">
        <ele>20.60000038147</ele>
        <time>2022-05-12T07:41:34.000Z</time>
      </trkpt>
      <trkpt lat="47.30596" lon="-2.38986">
        <ele>21</ele>
        <time>2022-05-12T07:41:38.000Z</time>
      </trkpt>
      <trkpt lat="47.306" lon="-2.38982">
        <ele>21.39999961853</ele>
        <time>2022-05-12T07:41:39.000Z</time>
      </trkpt>
      <trkpt lat="47.30603" lon="-2.38979">
        <ele>21.799999237061</ele>
        <time>2022-05-12T07:41:40.000Z</time>
      </trkpt>
      <trkpt lat="47.30607" lon="-2.38975">
        <ele>22.200000762939</ele>
        <time>2022-05-12T07:41:41.000Z</time>
      </trkpt>
      <trkpt lat="47.3061" lon="-2.38972">
        <ele>22.60000038147</ele>
        <time>2022-05-12T07:41:42.000Z</time>
      </trkpt>
      <trkpt lat="47.30624" lon="-2.38958">
        <ele>22.60000038147</ele>
        <time>2022-05-12T07:41:46.000Z</time>
      </trkpt>
      <trkpt lat="47.30634" lon="-2.38947">
        <ele>22.60000038147</ele>
        <time>2022-05-12T07:41:49.000Z</time>
      </trkpt>
      <trkpt lat="47.30644" lon="-2.38939">
        <ele>22.60000038147</ele>
        <time>2022-05-12T07:41:52.000Z</time>
      </trkpt>
      <trkpt lat="47.30668" lon="-2.38918">
        <ele>23</ele>
        <time>2022-05-12T07:42:00.000Z</time>
      </trkpt>
      <trkpt lat="47.3067" lon="-2.38916">
        <ele>23.39999961853</ele>
        <time>2022-05-12T07:42:01.000Z</time>
      </trkpt>
      <trkpt lat="47.30671" lon="-2.38914">
        <ele>23.799999237061</ele>
        <time>2022-05-12T07:42:02.000Z</time>
      </trkpt>
      <trkpt lat="47.30673" lon="-2.38913">
        <ele>24.200000762939</ele>
        <time>2022-05-12T07:42:03.000Z</time>
      </trkpt>
      <trkpt lat="47.30675" lon="-2.38912">
        <ele>24.60000038147</ele>
        <time>2022-05-12T07:42:04.000Z</time>
      </trkpt>
      <trkpt lat="47.30677" lon="-2.3891">
        <ele>24.60000038147</ele>
        <time>2022-05-12T07:42:06.000Z</time>
      </trkpt>
      <trkpt lat="47.30684" lon="-2.38904">
        <ele>24.60000038147</ele>
        <time>2022-05-12T07:42:10.000Z</time>
      </trkpt>
      <trkpt lat="47.30687" lon="-2.38904">
        <ele>24.60000038147</ele>
        <time>2022-05-12T07:42:11.000Z</time>
      </trkpt>
      <trkpt lat="47.30694" lon="-2.38905">
        <ele>24.60000038147</ele>
        <time>2022-05-12T07:42:15.000Z</time>
      </trkpt>
      <trkpt lat="47.30699" lon="-2.38907">
        <ele>24.60000038147</ele>
        <time>2022-05-12T07:42:20.000Z</time>
      </trkpt>
      <trkpt lat="47.30699" lon="-2.38908">
        <ele>24.60000038147</ele>
        <time>2022-05-12T07:42:48.000Z</time>
      </trkpt>
      <trkpt lat="47.30699" lon="-2.38926">
        <ele>24.60000038147</ele>
        <time>2022-05-12T07:42:53.000Z</time>
      </trkpt>
      <trkpt lat="47.30698" lon="-2.38937">
        <ele>24.60000038147</ele>
        <time>2022-05-12T07:42:55.000Z</time>
      </trkpt>
      <trkpt lat="47.307" lon="-2.3895">
        <ele>24.60000038147</ele>
        <time>2022-05-12T07:42:57.000Z</time>
      </trkpt>
      <trkpt lat="47.30706" lon="-2.38961">
        <ele>24.60000038147</ele>
        <time>2022-05-12T07:43:00.000Z</time>
      </trkpt>
      <trkpt lat="47.3071" lon="-2.38963">
        <ele>24.60000038147</ele>
        <time>2022-05-12T07:43:02.000Z</time>
      </trkpt>
      <trkpt lat="47.30713" lon="-2.38963">
        <ele>24.60000038147</ele>
        <time>2022-05-12T07:43:05.000Z</time>
      </trkpt>
      <trkpt lat="47.30714" lon="-2.38964">
        <ele>24.60000038147</ele>
        <time>2022-05-12T07:43:06.000Z</time>
      </trkpt>
      <trkpt lat="47.30715" lon="-2.38963">
        <ele>23.39999961853</ele>
        <time>2022-05-12T07:43:09.000Z</time>
      </trkpt>
      <trkpt lat="47.30717" lon="-2.38962">
        <ele>22.60000038147</ele>
        <time>2022-05-12T07:43:10.000Z</time>
      </trkpt>
      <trkpt lat="47.30719" lon="-2.3896">
        <ele>22.60000038147</ele>
        <time>2022-05-12T07:43:11.000Z</time>
      </trkpt>
      <trkpt lat="47.30725" lon="-2.38953">
        <ele>22.60000038147</ele>
        <time>2022-05-12T07:43:13.000Z</time>
      </trkpt>
      <trkpt lat="47.3073" lon="-2.38951">
        <ele>22.60000038147</ele>
        <time>2022-05-12T07:43:14.000Z</time>
      </trkpt>
      <trkpt lat="47.30745" lon="-2.38953">
        <ele>22.60000038147</ele>
        <time>2022-05-12T07:43:17.000Z</time>
      </trkpt>
      <trkpt lat="47.30751" lon="-2.38954">
        <ele>22.60000038147</ele>
        <time>2022-05-12T07:43:18.000Z</time>
      </trkpt>
      <trkpt lat="47.30763" lon="-2.3895">
        <ele>22.60000038147</ele>
        <time>2022-05-12T07:43:20.000Z</time>
      </trkpt>
      <trkpt lat="47.308" lon="-2.38923">
        <ele>22.200000762939</ele>
        <time>2022-05-12T07:43:26.000Z</time>
      </trkpt>
      <trkpt lat="47.30805" lon="-2.3892">
        <ele>21.799999237061</ele>
        <time>2022-05-12T07:43:27.000Z</time>
      </trkpt>
      <trkpt lat="47.3081" lon="-2.38916">
        <ele>21.39999961853</ele>
        <time>2022-05-12T07:43:28.000Z</time>
      </trkpt>
      <trkpt lat="47.30816" lon="-2.38912">
        <ele>21</ele>
        <time>2022-05-12T07:43:29.000Z</time>
      </trkpt>
      <trkpt lat="47.30821" lon="-2.38909">
        <ele>20.60000038147</ele>
        <time>2022-05-12T07:43:30.000Z</time>
      </trkpt>
      <trkpt lat="47.30835" lon="-2.38899">
        <ele>20.60000038147</ele>
        <time>2022-05-12T07:43:33.000Z</time>
      </trkpt>
      <trkpt lat="47.3085" lon="-2.38886">
        <ele>20.60000038147</ele>
        <time>2022-05-12T07:43:37.000Z</time>
      </trkpt>
      <trkpt lat="47.30857" lon="-2.38878">
        <ele>20.60000038147</ele>
        <time>2022-05-12T07:43:39.000Z</time>
      </trkpt>
      <trkpt lat="47.3086" lon="-2.38874">
        <ele>21</ele>
        <time>2022-05-12T07:43:40.000Z</time>
      </trkpt>
      <trkpt lat="47.30862" lon="-2.3887">
        <ele>21.39999961853</ele>
        <time>2022-05-12T07:43:41.000Z</time>
      </trkpt>
      <trkpt lat="47.30864" lon="-2.38865">
        <ele>21.799999237061</ele>
        <time>2022-05-12T07:43:42.000Z</time>
      </trkpt>
      <trkpt lat="47.30866" lon="-2.38859">
        <ele>22.200000762939</ele>
        <time>2022-05-12T07:43:43.000Z</time>
      </trkpt>
      <trkpt lat="47.30868" lon="-2.38854">
        <ele>22.60000038147</ele>
        <time>2022-05-12T07:43:44.000Z</time>
      </trkpt>
      <trkpt lat="47.30871" lon="-2.38848">
        <ele>22.60000038147</ele>
        <time>2022-05-12T07:43:45.000Z</time>
      </trkpt>
      <trkpt lat="47.30882" lon="-2.38838">
        <ele>22.60000038147</ele>
        <time>2022-05-12T07:43:48.000Z</time>
      </trkpt>
      <trkpt lat="47.30895" lon="-2.38843">
        <ele>22.60000038147</ele>
        <time>2022-05-12T07:43:51.000Z</time>
      </trkpt>
      <trkpt lat="47.30902" lon="-2.38853">
        <ele>23</ele>
        <time>2022-05-12T07:43:53.000Z</time>
      </trkpt>
      <trkpt lat="47.30904" lon="-2.3886">
        <ele>23.39999961853</ele>
        <time>2022-05-12T07:43:54.000Z</time>
      </trkpt>
      <trkpt lat="47.30906" lon="-2.38867">
        <ele>23.799999237061</ele>
        <time>2022-05-12T07:43:55.000Z</time>
      </trkpt>
      <trkpt lat="47.30908" lon="-2.38874">
        <ele>24.200000762939</ele>
        <time>2022-05-12T07:43:56.000Z</time>
      </trkpt>
      <trkpt lat="47.30911" lon="-2.38881">
        <ele>24.60000038147</ele>
        <time>2022-05-12T07:43:57.000Z</time>
      </trkpt>
      <trkpt lat="47.30919" lon="-2.38892">
        <ele>24.60000038147</ele>
        <time>2022-05-12T07:43:59.000Z</time>
      </trkpt>
      <trkpt lat="47.30927" lon="-2.38903">
        <ele>24.60000038147</ele>
        <time>2022-05-12T07:44:01.000Z</time>
      </trkpt>
      <trkpt lat="47.30931" lon="-2.38917">
        <ele>24.60000038147</ele>
        <time>2022-05-12T07:44:03.000Z</time>
      </trkpt>
      <trkpt lat="47.30927" lon="-2.38939">
        <ele>24.60000038147</ele>
        <time>2022-05-12T07:44:06.000Z</time>
      </trkpt>
      <trkpt lat="47.30924" lon="-2.38945">
        <ele>24.60000038147</ele>
        <time>2022-05-12T07:44:07.000Z</time>
      </trkpt>
      <trkpt lat="47.30909" lon="-2.38979">
        <ele>24.60000038147</ele>
        <time>2022-05-12T07:44:12.000Z</time>
      </trkpt>
      <trkpt lat="47.30907" lon="-2.38986">
        <ele>24.60000038147</ele>
        <time>2022-05-12T07:44:13.000Z</time>
      </trkpt>
      <trkpt lat="47.30904" lon="-2.3901">
        <ele>24.60000038147</ele>
        <time>2022-05-12T07:44:16.000Z</time>
      </trkpt>
      <trkpt lat="47.30901" lon="-2.39077">
        <ele>24.60000038147</ele>
        <time>2022-05-12T07:44:24.000Z</time>
      </trkpt>
      <trkpt lat="47.3091" lon="-2.39109">
        <ele>24.60000038147</ele>
        <time>2022-05-12T07:44:28.000Z</time>
      </trkpt>
      <trkpt lat="47.30938" lon="-2.39183">
        <ele>24.60000038147</ele>
        <time>2022-05-12T07:44:38.000Z</time>
      </trkpt>
      <trkpt lat="47.3097" lon="-2.39255">
        <ele>24.60000038147</ele>
        <time>2022-05-12T07:44:48.000Z</time>
      </trkpt>
      <trkpt lat="47.30973" lon="-2.39262">
        <ele>24.60000038147</ele>
        <time>2022-05-12T07:44:49.000Z</time>
      </trkpt>
      <trkpt lat="47.30997" lon="-2.39332">
        <ele>24.60000038147</ele>
        <time>2022-05-12T07:44:58.000Z</time>
      </trkpt>
      <trkpt lat="47.31019" lon="-2.39395">
        <ele>24.60000038147</ele>
        <time>2022-05-12T07:45:06.000Z</time>
      </trkpt>
      <trkpt lat="47.3103" lon="-2.3943">
        <ele>24.60000038147</ele>
        <time>2022-05-12T07:45:10.000Z</time>
      </trkpt>
      <trkpt lat="47.31034" lon="-2.39448">
        <ele>24.60000038147</ele>
        <time>2022-05-12T07:45:12.000Z</time>
      </trkpt>
      <trkpt lat="47.31047" lon="-2.39462">
        <ele>24.200000762939</ele>
        <time>2022-05-12T07:45:15.000Z</time>
      </trkpt>
      <trkpt lat="47.31053" lon="-2.39461">
        <ele>23.799999237061</ele>
        <time>2022-05-12T07:45:16.000Z</time>
      </trkpt>
      <trkpt lat="47.31059" lon="-2.39457">
        <ele>23.39999961853</ele>
        <time>2022-05-12T07:45:17.000Z</time>
      </trkpt>
      <trkpt lat="47.31064" lon="-2.39451">
        <ele>23</ele>
        <time>2022-05-12T07:45:18.000Z</time>
      </trkpt>
      <trkpt lat="47.31068" lon="-2.39445">
        <ele>22.60000038147</ele>
        <time>2022-05-12T07:45:19.000Z</time>
      </trkpt>
      <trkpt lat="47.3109" lon="-2.39414">
        <ele>22.60000038147</ele>
        <time>2022-05-12T07:45:24.000Z</time>
      </trkpt>
      <trkpt lat="47.31123" lon="-2.39368">
        <ele>22.60000038147</ele>
        <time>2022-05-12T07:45:32.000Z</time>
      </trkpt>
      <trkpt lat="47.3115" lon="-2.3934">
        <ele>22.60000038147</ele>
        <time>2022-05-12T07:45:38.000Z</time>
      </trkpt>
      <trkpt lat="47.31174" lon="-2.39321">
        <ele>23</ele>
        <time>2022-05-12T07:45:43.000Z</time>
      </trkpt>
      <trkpt lat="47.31178" lon="-2.39318">
        <ele>23.39999961853</ele>
        <time>2022-05-12T07:45:44.000Z</time>
      </trkpt>
      <trkpt lat="47.31183" lon="-2.39316">
        <ele>23.799999237061</ele>
        <time>2022-05-12T07:45:45.000Z</time>
      </trkpt>
      <trkpt lat="47.31187" lon="-2.39313">
        <ele>24.200000762939</ele>
        <time>2022-05-12T07:45:46.000Z</time>
      </trkpt>
      <trkpt lat="47.31192" lon="-2.39309">
        <ele>24.799999237061</ele>
        <time>2022-05-12T07:45:47.000Z</time>
      </trkpt>
      <trkpt lat="47.31214" lon="-2.39293">
        <ele>24.799999237061</ele>
        <time>2022-05-12T07:45:52.000Z</time>
      </trkpt>
      <trkpt lat="47.31222" lon="-2.39286">
        <ele>24.799999237061</ele>
        <time>2022-05-12T07:45:54.000Z</time>
      </trkpt>
      <trkpt lat="47.31236" lon="-2.3927">
        <ele>24.799999237061</ele>
        <time>2022-05-12T07:45:58.000Z</time>
      </trkpt>
      <trkpt lat="47.31242" lon="-2.39262">
        <ele>25.200000762939</ele>
        <time>2022-05-12T07:46:00.000Z</time>
      </trkpt>
      <trkpt lat="47.31245" lon="-2.39257">
        <ele>25.60000038147</ele>
        <time>2022-05-12T07:46:01.000Z</time>
      </trkpt>
      <trkpt lat="47.31249" lon="-2.39252">
        <ele>26</ele>
        <time>2022-05-12T07:46:02.000Z</time>
      </trkpt>
      <trkpt lat="47.31252" lon="-2.39247">
        <ele>27</ele>
        <time>2022-05-12T07:46:03.000Z</time>
      </trkpt>
      <trkpt lat="47.31274" lon="-2.39216">
        <ele>27</ele>
        <time>2022-05-12T07:46:09.000Z</time>
      </trkpt>
      <trkpt lat="47.31302" lon="-2.3918">
        <ele>27</ele>
        <time>2022-05-12T07:46:16.000Z</time>
      </trkpt>
      <trkpt lat="47.31332" lon="-2.39147">
        <ele>27</ele>
        <time>2022-05-12T07:46:23.000Z</time>
      </trkpt>
      <trkpt lat="47.31361" lon="-2.39118">
        <ele>27</ele>
        <time>2022-05-12T07:46:30.000Z</time>
      </trkpt>
      <trkpt lat="47.31391" lon="-2.39086">
        <ele>27</ele>
        <time>2022-05-12T07:46:37.000Z</time>
      </trkpt>
      <trkpt lat="47.31417" lon="-2.39046">
        <ele>27</ele>
        <time>2022-05-12T07:46:43.000Z</time>
      </trkpt>
      <trkpt lat="47.31428" lon="-2.39023">
        <ele>27</ele>
        <time>2022-05-12T07:46:46.000Z</time>
      </trkpt>
      <trkpt lat="47.31433" lon="-2.39008">
        <ele>27</ele>
        <time>2022-05-12T07:46:48.000Z</time>
      </trkpt>
      <trkpt lat="47.31451" lon="-2.38962">
        <ele>27</ele>
        <time>2022-05-12T07:46:54.000Z</time>
      </trkpt>
      <trkpt lat="47.31473" lon="-2.3892">
        <ele>26.60000038147</ele>
        <time>2022-05-12T07:47:00.000Z</time>
      </trkpt>
      <trkpt lat="47.31477" lon="-2.38913">
        <ele>26.200000762939</ele>
        <time>2022-05-12T07:47:01.000Z</time>
      </trkpt>
      <trkpt lat="47.3148" lon="-2.38906">
        <ele>25.799999237061</ele>
        <time>2022-05-12T07:47:02.000Z</time>
      </trkpt>
      <trkpt lat="47.31484" lon="-2.38899">
        <ele>25.39999961853</ele>
        <time>2022-05-12T07:47:03.000Z</time>
      </trkpt>
      <trkpt lat="47.31488" lon="-2.38892">
        <ele>25</ele>
        <time>2022-05-12T07:47:04.000Z</time>
      </trkpt>
      <trkpt lat="47.31504" lon="-2.38863">
        <ele>25</ele>
        <time>2022-05-12T07:47:08.000Z</time>
      </trkpt>
      <trkpt lat="47.31527" lon="-2.38819">
        <ele>25</ele>
        <time>2022-05-12T07:47:14.000Z</time>
      </trkpt>
      <trkpt lat="47.31555" lon="-2.38768">
        <ele>25</ele>
        <time>2022-05-12T07:47:21.000Z</time>
      </trkpt>
      <trkpt lat="47.3159" lon="-2.38714">
        <ele>25</ele>
        <time>2022-05-12T07:47:29.000Z</time>
      </trkpt>
      <trkpt lat="47.3163" lon="-2.38655">
        <ele>25</ele>
        <time>2022-05-12T07:47:38.000Z</time>
      </trkpt>
      <trkpt lat="47.31634" lon="-2.38649">
        <ele>25</ele>
        <time>2022-05-12T07:47:39.000Z</time>
      </trkpt>
      <trkpt lat="47.31663" lon="-2.38616">
        <ele>25</ele>
        <time>2022-05-12T07:47:45.000Z</time>
      </trkpt>
      <trkpt lat="47.31702" lon="-2.38593">
        <ele>25</ele>
        <time>2022-05-12T07:47:52.000Z</time>
      </trkpt>
      <trkpt lat="47.31751" lon="-2.38566">
        <ele>25</ele>
        <time>2022-05-12T07:48:01.000Z</time>
      </trkpt>
      <trkpt lat="47.31784" lon="-2.38548">
        <ele>25</ele>
        <time>2022-05-12T07:48:08.000Z</time>
      </trkpt>
      <trkpt lat="47.31802" lon="-2.38541">
        <ele>25</ele>
        <time>2022-05-12T07:48:13.000Z</time>
      </trkpt>
      <trkpt lat="47.31804" lon="-2.38541">
        <ele>25</ele>
        <time>2022-05-12T07:48:15.000Z</time>
      </trkpt>
      <trkpt lat="47.31807" lon="-2.3854">
        <ele>22.799999237061</ele>
        <time>2022-05-12T07:48:28.000Z</time>
      </trkpt>
      <trkpt lat="47.31823" lon="-2.38537">
        <ele>22.799999237061</ele>
        <time>2022-05-12T07:48:33.000Z</time>
      </trkpt>
      <trkpt lat="47.31849" lon="-2.38529">
        <ele>22.799999237061</ele>
        <time>2022-05-12T07:48:39.000Z</time>
      </trkpt>
      <trkpt lat="47.31854" lon="-2.38527">
        <ele>22.39999961853</ele>
        <time>2022-05-12T07:48:40.000Z</time>
      </trkpt>
      <trkpt lat="47.31859" lon="-2.38525">
        <ele>22</ele>
        <time>2022-05-12T07:48:41.000Z</time>
      </trkpt>
      <trkpt lat="47.31863" lon="-2.38523">
        <ele>21.60000038147</ele>
        <time>2022-05-12T07:48:42.000Z</time>
      </trkpt>
      <trkpt lat="47.31868" lon="-2.38521">
        <ele>21.200000762939</ele>
        <time>2022-05-12T07:48:43.000Z</time>
      </trkpt>
      <trkpt lat="47.31873" lon="-2.38519">
        <ele>20.799999237061</ele>
        <time>2022-05-12T07:48:44.000Z</time>
      </trkpt>
      <trkpt lat="47.31889" lon="-2.38511">
        <ele>20.799999237061</ele>
        <time>2022-05-12T07:48:47.000Z</time>
      </trkpt>
      <trkpt lat="47.31907" lon="-2.385">
        <ele>20.200000762939</ele>
        <time>2022-05-12T07:48:50.000Z</time>
      </trkpt>
      <trkpt lat="47.31913" lon="-2.38497">
        <ele>19.799999237061</ele>
        <time>2022-05-12T07:48:51.000Z</time>
      </trkpt>
      <trkpt lat="47.31919" lon="-2.38494">
        <ele>19.39999961853</ele>
        <time>2022-05-12T07:48:52.000Z</time>
      </trkpt>
      <trkpt lat="47.31926" lon="-2.38491">
        <ele>19</ele>
        <time>2022-05-12T07:48:53.000Z</time>
      </trkpt>
      <trkpt lat="47.31932" lon="-2.38489">
        <ele>18.60000038147</ele>
        <time>2022-05-12T07:48:54.000Z</time>
      </trkpt>
      <trkpt lat="47.31938" lon="-2.38488">
        <ele>18.60000038147</ele>
        <time>2022-05-12T07:48:55.000Z</time>
      </trkpt>
      <trkpt lat="47.3196" lon="-2.38483">
        <ele>18.60000038147</ele>
        <time>2022-05-12T07:48:58.000Z</time>
      </trkpt>
      <trkpt lat="47.31966" lon="-2.38481">
        <ele>18.200000762939</ele>
        <time>2022-05-12T07:48:59.000Z</time>
      </trkpt>
      <trkpt lat="47.31973" lon="-2.38479">
        <ele>17.799999237061</ele>
        <time>2022-05-12T07:49:00.000Z</time>
      </trkpt>
      <trkpt lat="47.31979" lon="-2.38477">
        <ele>17.39999961853</ele>
        <time>2022-05-12T07:49:01.000Z</time>
      </trkpt>
      <trkpt lat="47.31986" lon="-2.38474">
        <ele>17</ele>
        <time>2022-05-12T07:49:02.000Z</time>
      </trkpt>
      <trkpt lat="47.31993" lon="-2.38471">
        <ele>16.60000038147</ele>
        <time>2022-05-12T07:49:03.000Z</time>
      </trkpt>
      <trkpt lat="47.32005" lon="-2.38467">
        <ele>16.60000038147</ele>
        <time>2022-05-12T07:49:05.000Z</time>
      </trkpt>
      <trkpt lat="47.32044" lon="-2.38452">
        <ele>16.60000038147</ele>
        <time>2022-05-12T07:49:11.000Z</time>
      </trkpt>
      <trkpt lat="47.32063" lon="-2.38445">
        <ele>16</ele>
        <time>2022-05-12T07:49:14.000Z</time>
      </trkpt>
      <trkpt lat="47.32069" lon="-2.38442">
        <ele>15.60000038147</ele>
        <time>2022-05-12T07:49:15.000Z</time>
      </trkpt>
      <trkpt lat="47.32075" lon="-2.38439">
        <ele>15.199999809265</ele>
        <time>2022-05-12T07:49:16.000Z</time>
      </trkpt>
      <trkpt lat="47.32081" lon="-2.38436">
        <ele>14.60000038147</ele>
        <time>2022-05-12T07:49:17.000Z</time>
      </trkpt>
      <trkpt lat="47.32086" lon="-2.38434">
        <ele>14.199999809265</ele>
        <time>2022-05-12T07:49:18.000Z</time>
      </trkpt>
      <trkpt lat="47.32115" lon="-2.38422">
        <ele>13.800000190735</ele>
        <time>2022-05-12T07:49:23.000Z</time>
      </trkpt>
      <trkpt lat="47.3212" lon="-2.38418">
        <ele>13.39999961853</ele>
        <time>2022-05-12T07:49:24.000Z</time>
      </trkpt>
      <trkpt lat="47.32126" lon="-2.38414">
        <ele>13</ele>
        <time>2022-05-12T07:49:25.000Z</time>
      </trkpt>
      <trkpt lat="47.32131" lon="-2.38409">
        <ele>12.60000038147</ele>
        <time>2022-05-12T07:49:26.000Z</time>
      </trkpt>
      <trkpt lat="47.32136" lon="-2.38404">
        <ele>12.199999809265</ele>
        <time>2022-05-12T07:49:27.000Z</time>
      </trkpt>
      <trkpt lat="47.32145" lon="-2.38391">
        <ele>12.199999809265</ele>
        <time>2022-05-12T07:49:29.000Z</time>
      </trkpt>
      <trkpt lat="47.32171" lon="-2.38351">
        <ele>12.199999809265</ele>
        <time>2022-05-12T07:49:35.000Z</time>
      </trkpt>
      <trkpt lat="47.32189" lon="-2.38325">
        <ele>12.199999809265</ele>
        <time>2022-05-12T07:49:40.000Z</time>
      </trkpt>
      <trkpt lat="47.3221" lon="-2.38298">
        <ele>12.199999809265</ele>
        <time>2022-05-12T07:49:45.000Z</time>
      </trkpt>
      <trkpt lat="47.32214" lon="-2.38295">
        <ele>12.199999809265</ele>
        <time>2022-05-12T07:49:46.000Z</time>
      </trkpt>
      <trkpt lat="47.32235" lon="-2.38293">
        <ele>12.199999809265</ele>
        <time>2022-05-12T07:49:50.000Z</time>
      </trkpt>
      <trkpt lat="47.32261" lon="-2.38287">
        <ele>12.199999809265</ele>
        <time>2022-05-12T07:49:55.000Z</time>
      </trkpt>
      <trkpt lat="47.32293" lon="-2.38294">
        <ele>12.199999809265</ele>
        <time>2022-05-12T07:50:01.000Z</time>
      </trkpt>
      <trkpt lat="47.3233" lon="-2.38307">
        <ele>12.199999809265</ele>
        <time>2022-05-12T07:50:08.000Z</time>
      </trkpt>
      <trkpt lat="47.32345" lon="-2.38313">
        <ele>12.199999809265</ele>
        <time>2022-05-12T07:50:11.000Z</time>
      </trkpt>
      <trkpt lat="47.32354" lon="-2.38317">
        <ele>12.199999809265</ele>
        <time>2022-05-12T07:50:13.000Z</time>
      </trkpt>
      <trkpt lat="47.32381" lon="-2.3833">
        <ele>12.60000038147</ele>
        <time>2022-05-12T07:50:19.000Z</time>
      </trkpt>
      <trkpt lat="47.32385" lon="-2.38332">
        <ele>13</ele>
        <time>2022-05-12T07:50:20.000Z</time>
      </trkpt>
      <trkpt lat="47.3239" lon="-2.38335">
        <ele>13.39999961853</ele>
        <time>2022-05-12T07:50:21.000Z</time>
      </trkpt>
      <trkpt lat="47.32394" lon="-2.38337">
        <ele>13.800000190735</ele>
        <time>2022-05-12T07:50:22.000Z</time>
      </trkpt>
      <trkpt lat="47.32399" lon="-2.38339">
        <ele>14.39999961853</ele>
        <time>2022-05-12T07:50:23.000Z</time>
      </trkpt>
      <trkpt lat="47.32419" lon="-2.38348">
        <ele>14.39999961853</ele>
        <time>2022-05-12T07:50:27.000Z</time>
      </trkpt>
      <trkpt lat="47.3244" lon="-2.38357">
        <ele>14.39999961853</ele>
        <time>2022-05-12T07:50:31.000Z</time>
      </trkpt>
      <trkpt lat="47.32451" lon="-2.38362">
        <ele>14.39999961853</ele>
        <time>2022-05-12T07:50:33.000Z</time>
      </trkpt>
      <trkpt lat="47.32482" lon="-2.38375">
        <ele>14.39999961853</ele>
        <time>2022-05-12T07:50:39.000Z</time>
      </trkpt>
      <trkpt lat="47.32514" lon="-2.38382">
        <ele>14.39999961853</ele>
        <time>2022-05-12T07:50:46.000Z</time>
      </trkpt>
      <trkpt lat="47.32519" lon="-2.38368">
        <ele>14.39999961853</ele>
        <time>2022-05-12T07:50:49.000Z</time>
      </trkpt>
      <trkpt lat="47.3252" lon="-2.38363">
        <ele>14.39999961853</ele>
        <time>2022-05-12T07:50:50.000Z</time>
      </trkpt>
      <trkpt lat="47.32523" lon="-2.38338">
        <ele>14.39999961853</ele>
        <time>2022-05-12T07:50:55.000Z</time>
      </trkpt>
      <trkpt lat="47.32529" lon="-2.38316">
        <ele>14.39999961853</ele>
        <time>2022-05-12T07:51:00.000Z</time>
      </trkpt>
      <trkpt lat="47.32532" lon="-2.38313">
        <ele>13.800000190735</ele>
        <time>2022-05-12T07:51:01.000Z</time>
      </trkpt>
      <trkpt lat="47.32536" lon="-2.38312">
        <ele>13.39999961853</ele>
        <time>2022-05-12T07:51:02.000Z</time>
      </trkpt>
      <trkpt lat="47.32541" lon="-2.38309">
        <ele>13</ele>
        <time>2022-05-12T07:51:03.000Z</time>
      </trkpt>
      <trkpt lat="47.32546" lon="-2.38308">
        <ele>12.39999961853</ele>
        <time>2022-05-12T07:51:04.000Z</time>
      </trkpt>
      <trkpt lat="47.32552" lon="-2.38306">
        <ele>12</ele>
        <time>2022-05-12T07:51:05.000Z</time>
      </trkpt>
      <trkpt lat="47.32584" lon="-2.38297">
        <ele>12</ele>
        <time>2022-05-12T07:51:10.000Z</time>
      </trkpt>
      <trkpt lat="47.3259" lon="-2.38296">
        <ele>12</ele>
        <time>2022-05-12T07:51:11.000Z</time>
      </trkpt>
      <trkpt lat="47.32596" lon="-2.38296">
        <ele>12</ele>
        <time>2022-05-12T07:51:12.000Z</time>
      </trkpt>
      <trkpt lat="47.32608" lon="-2.38301">
        <ele>12</ele>
        <time>2022-05-12T07:51:14.000Z</time>
      </trkpt>
      <trkpt lat="47.32623" lon="-2.38316">
        <ele>12</ele>
        <time>2022-05-12T07:51:17.000Z</time>
      </trkpt>
      <trkpt lat="47.32628" lon="-2.38322">
        <ele>12</ele>
        <time>2022-05-12T07:51:18.000Z</time>
      </trkpt>
      <trkpt lat="47.32648" lon="-2.38346">
        <ele>12</ele>
        <time>2022-05-12T07:51:23.000Z</time>
      </trkpt>
      <trkpt lat="47.32651" lon="-2.3835">
        <ele>12</ele>
        <time>2022-05-12T07:51:24.000Z</time>
      </trkpt>
      <trkpt lat="47.32667" lon="-2.38373">
        <ele>12.39999961853</ele>
        <time>2022-05-12T07:51:29.000Z</time>
      </trkpt>
      <trkpt lat="47.3267" lon="-2.38377">
        <ele>12.800000190735</ele>
        <time>2022-05-12T07:51:30.000Z</time>
      </trkpt>
      <trkpt lat="47.32673" lon="-2.38381">
        <ele>13.199999809265</ele>
        <time>2022-05-12T07:51:31.000Z</time>
      </trkpt>
      <trkpt lat="47.32676" lon="-2.38385">
        <ele>13.60000038147</ele>
        <time>2022-05-12T07:51:32.000Z</time>
      </trkpt>
      <trkpt lat="47.3268" lon="-2.38389">
        <ele>14.199999809265</ele>
        <time>2022-05-12T07:51:33.000Z</time>
      </trkpt>
      <trkpt lat="47.32693" lon="-2.38404">
        <ele>14.60000038147</ele>
        <time>2022-05-12T07:51:37.000Z</time>
      </trkpt>
      <trkpt lat="47.32697" lon="-2.38406">
        <ele>15</ele>
        <time>2022-05-12T07:51:38.000Z</time>
      </trkpt>
      <trkpt lat="47.32701" lon="-2.38407">
        <ele>15.39999961853</ele>
        <time>2022-05-12T07:51:39.000Z</time>
      </trkpt>
      <trkpt lat="47.32705" lon="-2.38408">
        <ele>15.800000190735</ele>
        <time>2022-05-12T07:51:40.000Z</time>
      </trkpt>
      <trkpt lat="47.32709" lon="-2.38409">
        <ele>16.200000762939</ele>
        <time>2022-05-12T07:51:41.000Z</time>
      </trkpt>
      <trkpt lat="47.32715" lon="-2.38409">
        <ele>16.200000762939</ele>
        <time>2022-05-12T07:51:43.000Z</time>
      </trkpt>
      <trkpt lat="47.32731" lon="-2.38401">
        <ele>16.200000762939</ele>
        <time>2022-05-12T07:51:48.000Z</time>
      </trkpt>
      <trkpt lat="47.32735" lon="-2.384">
        <ele>16.60000038147</ele>
        <time>2022-05-12T07:51:49.000Z</time>
      </trkpt>
      <trkpt lat="47.32738" lon="-2.38399">
        <ele>17</ele>
        <time>2022-05-12T07:51:50.000Z</time>
      </trkpt>
      <trkpt lat="47.32742" lon="-2.38398">
        <ele>17.39999961853</ele>
        <time>2022-05-12T07:51:51.000Z</time>
      </trkpt>
      <trkpt lat="47.32746" lon="-2.38397">
        <ele>18</ele>
        <time>2022-05-12T07:51:52.000Z</time>
      </trkpt>
      <trkpt lat="47.32749" lon="-2.38396">
        <ele>18.39999961853</ele>
        <time>2022-05-12T07:51:53.000Z</time>
      </trkpt>
      <trkpt lat="47.32755" lon="-2.38395">
        <ele>18.39999961853</ele>
        <time>2022-05-12T07:51:55.000Z</time>
      </trkpt>
      <trkpt lat="47.32771" lon="-2.38393">
        <ele>18.39999961853</ele>
        <time>2022-05-12T07:52:01.000Z</time>
      </trkpt>
      <trkpt lat="47.32779" lon="-2.38383">
        <ele>18.39999961853</ele>
        <time>2022-05-12T07:52:06.000Z</time>
      </trkpt>
      <trkpt lat="47.32785" lon="-2.38369">
        <ele>18.39999961853</ele>
        <time>2022-05-12T07:52:12.000Z</time>
      </trkpt>
      <trkpt lat="47.32785" lon="-2.38367">
        <ele>18.39999961853</ele>
        <time>2022-05-12T07:52:37.000Z</time>
      </trkpt>
      <trkpt lat="47.32785" lon="-2.38361">
        <ele>18.39999961853</ele>
        <time>2022-05-12T07:52:39.000Z</time>
      </trkpt>
      <trkpt lat="47.32788" lon="-2.38334">
        <ele>18.39999961853</ele>
        <time>2022-05-12T07:52:44.000Z</time>
      </trkpt>
      <trkpt lat="47.32795" lon="-2.38296">
        <ele>18.39999961853</ele>
        <time>2022-05-12T07:52:49.000Z</time>
      </trkpt>
      <trkpt lat="47.32803" lon="-2.38264">
        <ele>18</ele>
        <time>2022-05-12T07:52:52.000Z</time>
      </trkpt>
      <trkpt lat="47.32806" lon="-2.38254">
        <ele>17.39999961853</ele>
        <time>2022-05-12T07:52:53.000Z</time>
      </trkpt>
      <trkpt lat="47.32808" lon="-2.38243">
        <ele>17</ele>
        <time>2022-05-12T07:52:54.000Z</time>
      </trkpt>
      <trkpt lat="47.32811" lon="-2.38232">
        <ele>16.60000038147</ele>
        <time>2022-05-12T07:52:55.000Z</time>
      </trkpt>
      <trkpt lat="47.32815" lon="-2.3822">
        <ele>16.200000762939</ele>
        <time>2022-05-12T07:52:56.000Z</time>
      </trkpt>
      <trkpt lat="47.32818" lon="-2.38209">
        <ele>15.60000038147</ele>
        <time>2022-05-12T07:52:57.000Z</time>
      </trkpt>
      <trkpt lat="47.32822" lon="-2.38198">
        <ele>15.199999809265</ele>
        <time>2022-05-12T07:52:58.000Z</time>
      </trkpt>
      <trkpt lat="47.32826" lon="-2.38187">
        <ele>14.800000190735</ele>
        <time>2022-05-12T07:52:59.000Z</time>
      </trkpt>
      <trkpt lat="47.32831" lon="-2.38177">
        <ele>14.199999809265</ele>
        <time>2022-05-12T07:53:00.000Z</time>
      </trkpt>
      <trkpt lat="47.32835" lon="-2.38167">
        <ele>13.800000190735</ele>
        <time>2022-05-12T07:53:01.000Z</time>
      </trkpt>
      <trkpt lat="47.32849" lon="-2.38143">
        <ele>12.800000190735</ele>
        <time>2022-05-12T07:53:04.000Z</time>
      </trkpt>
      <trkpt lat="47.32854" lon="-2.38134">
        <ele>12.39999961853</ele>
        <time>2022-05-12T07:53:05.000Z</time>
      </trkpt>
      <trkpt lat="47.32859" lon="-2.38127">
        <ele>12</ele>
        <time>2022-05-12T07:53:06.000Z</time>
      </trkpt>
      <trkpt lat="47.32863" lon="-2.38119">
        <ele>11.39999961853</ele>
        <time>2022-05-12T07:53:07.000Z</time>
      </trkpt>
      <trkpt lat="47.32881" lon="-2.38092">
        <ele>11.39999961853</ele>
        <time>2022-05-12T07:53:11.000Z</time>
      </trkpt>
      <trkpt lat="47.32889" lon="-2.38078">
        <ele>11</ele>
        <time>2022-05-12T07:53:13.000Z</time>
      </trkpt>
      <trkpt lat="47.32893" lon="-2.38071">
        <ele>10.60000038147</ele>
        <time>2022-05-12T07:53:14.000Z</time>
      </trkpt>
      <trkpt lat="47.32897" lon="-2.38064">
        <ele>10.199999809265</ele>
        <time>2022-05-12T07:53:15.000Z</time>
      </trkpt>
      <trkpt lat="47.32901" lon="-2.38057">
        <ele>9.8000001907349</ele>
        <time>2022-05-12T07:53:16.000Z</time>
      </trkpt>
      <trkpt lat="47.32905" lon="-2.3805">
        <ele>9.3999996185303</ele>
        <time>2022-05-12T07:53:17.000Z</time>
      </trkpt>
      <trkpt lat="47.32909" lon="-2.38043">
        <ele>9.3999996185303</ele>
        <time>2022-05-12T07:53:18.000Z</time>
      </trkpt>
      <trkpt lat="47.32936" lon="-2.37996">
        <ele>9.3999996185303</ele>
        <time>2022-05-12T07:53:25.000Z</time>
      </trkpt>
      <trkpt lat="47.32946" lon="-2.37966">
        <ele>9.3999996185303</ele>
        <time>2022-05-12T07:53:29.000Z</time>
      </trkpt>
      <trkpt lat="47.32959" lon="-2.37947">
        <ele>9.3999996185303</ele>
        <time>2022-05-12T07:53:32.000Z</time>
      </trkpt>
      <trkpt lat="47.32968" lon="-2.37935">
        <ele>9.3999996185303</ele>
        <time>2022-05-12T07:53:34.000Z</time>
      </trkpt>
      <trkpt lat="47.32973" lon="-2.37928">
        <ele>9.3999996185303</ele>
        <time>2022-05-12T07:53:35.000Z</time>
      </trkpt>
      <trkpt lat="47.32988" lon="-2.37898">
        <ele>9.3999996185303</ele>
        <time>2022-05-12T07:53:39.000Z</time>
      </trkpt>
      <trkpt lat="47.33008" lon="-2.37856">
        <ele>9.3999996185303</ele>
        <time>2022-05-12T07:53:45.000Z</time>
      </trkpt>
      <trkpt lat="47.33011" lon="-2.37824">
        <ele>9</ele>
        <time>2022-05-12T07:53:49.000Z</time>
      </trkpt>
      <trkpt lat="47.33011" lon="-2.37815">
        <ele>8.6000003814697</ele>
        <time>2022-05-12T07:53:50.000Z</time>
      </trkpt>
      <trkpt lat="47.3301" lon="-2.37806">
        <ele>8.1999998092651</ele>
        <time>2022-05-12T07:53:51.000Z</time>
      </trkpt>
      <trkpt lat="47.33009" lon="-2.37799">
        <ele>7.8000001907349</ele>
        <time>2022-05-12T07:53:52.000Z</time>
      </trkpt>
      <trkpt lat="47.33008" lon="-2.3779">
        <ele>7.4000000953674</ele>
        <time>2022-05-12T07:53:53.000Z</time>
      </trkpt>
      <trkpt lat="47.33007" lon="-2.37782">
        <ele>7.4000000953674</ele>
        <time>2022-05-12T07:53:54.000Z</time>
      </trkpt>
      <trkpt lat="47.33006" lon="-2.37774">
        <ele>7.4000000953674</ele>
        <time>2022-05-12T07:53:55.000Z</time>
      </trkpt>
      <trkpt lat="47.33001" lon="-2.37712">
        <ele>7.4000000953674</ele>
        <time>2022-05-12T07:54:02.000Z</time>
      </trkpt>
      <trkpt lat="47.33001" lon="-2.37683">
        <ele>7.4000000953674</ele>
        <time>2022-05-12T07:54:05.000Z</time>
      </trkpt>
      <trkpt lat="47.33005" lon="-2.37666">
        <ele>7.4000000953674</ele>
        <time>2022-05-12T07:54:07.000Z</time>
      </trkpt>
      <trkpt lat="47.33013" lon="-2.37651">
        <ele>7.4000000953674</ele>
        <time>2022-05-12T07:54:09.000Z</time>
      </trkpt>
      <trkpt lat="47.33021" lon="-2.37637">
        <ele>7</ele>
        <time>2022-05-12T07:54:11.000Z</time>
      </trkpt>
      <trkpt lat="47.33026" lon="-2.37629">
        <ele>6.5999999046326</ele>
        <time>2022-05-12T07:54:12.000Z</time>
      </trkpt>
      <trkpt lat="47.33029" lon="-2.37621">
        <ele>6.1999998092651</ele>
        <time>2022-05-12T07:54:13.000Z</time>
      </trkpt>
      <trkpt lat="47.33033" lon="-2.37613">
        <ele>5.8000001907349</ele>
        <time>2022-05-12T07:54:14.000Z</time>
      </trkpt>
      <trkpt lat="47.33037" lon="-2.37605">
        <ele>5.1999998092651</ele>
        <time>2022-05-12T07:54:15.000Z</time>
      </trkpt>
      <trkpt lat="47.33041" lon="-2.37597">
        <ele>5.1999998092651</ele>
        <time>2022-05-12T07:54:16.000Z</time>
      </trkpt>
      <trkpt lat="47.33072" lon="-2.37531">
        <ele>4.8000001907349</ele>
        <time>2022-05-12T07:54:24.000Z</time>
      </trkpt>
      <trkpt lat="47.33076" lon="-2.37523">
        <ele>4.4000000953674</ele>
        <time>2022-05-12T07:54:25.000Z</time>
      </trkpt>
      <trkpt lat="47.3308" lon="-2.37514">
        <ele>4</ele>
        <time>2022-05-12T07:54:26.000Z</time>
      </trkpt>
      <trkpt lat="47.33083" lon="-2.37506">
        <ele>3.5999999046326</ele>
        <time>2022-05-12T07:54:27.000Z</time>
      </trkpt>
      <trkpt lat="47.33087" lon="-2.37497">
        <ele>3.2000000476837</ele>
        <time>2022-05-12T07:54:28.000Z</time>
      </trkpt>
      <trkpt lat="47.33098" lon="-2.37471">
        <ele>3.2000000476837</ele>
        <time>2022-05-12T07:54:31.000Z</time>
      </trkpt>
      <trkpt lat="47.33107" lon="-2.37445">
        <ele>2.7999999523163</ele>
        <time>2022-05-12T07:54:34.000Z</time>
      </trkpt>
      <trkpt lat="47.33108" lon="-2.37435">
        <ele>2.4000000953674</ele>
        <time>2022-05-12T07:54:35.000Z</time>
      </trkpt>
      <trkpt lat="47.3311" lon="-2.37425">
        <ele>2</ele>
        <time>2022-05-12T07:54:36.000Z</time>
      </trkpt>
      <trkpt lat="47.3311" lon="-2.37415">
        <ele>1.6000000238419</ele>
        <time>2022-05-12T07:54:37.000Z</time>
      </trkpt>
      <trkpt lat="47.3311" lon="-2.37406">
        <ele>1</ele>
        <time>2022-05-12T07:54:38.000Z</time>
      </trkpt>
      <trkpt lat="47.33109" lon="-2.37396">
        <ele>1</ele>
        <time>2022-05-12T07:54:39.000Z</time>
      </trkpt>
      <trkpt lat="47.33109" lon="-2.37377">
        <ele>1</ele>
        <time>2022-05-12T07:54:41.000Z</time>
      </trkpt>
      <trkpt lat="47.33104" lon="-2.37334">
        <ele>1</ele>
        <time>2022-05-12T07:54:46.000Z</time>
      </trkpt>
      <trkpt lat="47.33102" lon="-2.37287">
        <ele>1.6000000238419</ele>
        <time>2022-05-12T07:54:52.000Z</time>
      </trkpt>
      <trkpt lat="47.33102" lon="-2.3728">
        <ele>2</ele>
        <time>2022-05-12T07:54:53.000Z</time>
      </trkpt>
      <trkpt lat="47.33103" lon="-2.37274">
        <ele>2.4000000953674</ele>
        <time>2022-05-12T07:54:54.000Z</time>
      </trkpt>
      <trkpt lat="47.33103" lon="-2.37267">
        <ele>2.7999999523163</ele>
        <time>2022-05-12T07:54:55.000Z</time>
      </trkpt>
      <trkpt lat="47.33104" lon="-2.37261">
        <ele>3.2000000476837</ele>
        <time>2022-05-12T07:54:56.000Z</time>
      </trkpt>
      <trkpt lat="47.33105" lon="-2.37242">
        <ele>3.2000000476837</ele>
        <time>2022-05-12T07:54:59.000Z</time>
      </trkpt>
      <trkpt lat="47.33105" lon="-2.37236">
        <ele>3.5999999046326</ele>
        <time>2022-05-12T07:55:00.000Z</time>
      </trkpt>
      <trkpt lat="47.33105" lon="-2.37231">
        <ele>4</ele>
        <time>2022-05-12T07:55:01.000Z</time>
      </trkpt>
      <trkpt lat="47.33105" lon="-2.37226">
        <ele>4.4000000953674</ele>
        <time>2022-05-12T07:55:02.000Z</time>
      </trkpt>
      <trkpt lat="47.33104" lon="-2.3722">
        <ele>4.8000001907349</ele>
        <time>2022-05-12T07:55:03.000Z</time>
      </trkpt>
      <trkpt lat="47.33104" lon="-2.37215">
        <ele>5.1999998092651</ele>
        <time>2022-05-12T07:55:04.000Z</time>
      </trkpt>
      <trkpt lat="47.33103" lon="-2.37209">
        <ele>5.1999998092651</ele>
        <time>2022-05-12T07:55:05.000Z</time>
      </trkpt>
      <trkpt lat="47.33103" lon="-2.37204">
        <ele>5.5999999046326</ele>
        <time>2022-05-12T07:55:06.000Z</time>
      </trkpt>
      <trkpt lat="47.33103" lon="-2.372">
        <ele>6.5999999046326</ele>
        <time>2022-05-12T07:55:07.000Z</time>
      </trkpt>
      <trkpt lat="47.33102" lon="-2.37195">
        <ele>7</ele>
        <time>2022-05-12T07:55:08.000Z</time>
      </trkpt>
      <trkpt lat="47.33103" lon="-2.3719">
        <ele>7.4000000953674</ele>
        <time>2022-05-12T07:55:09.000Z</time>
      </trkpt>
      <trkpt lat="47.33103" lon="-2.37179">
        <ele>7.4000000953674</ele>
        <time>2022-05-12T07:55:11.000Z</time>
      </trkpt>
      <trkpt lat="47.33102" lon="-2.37174">
        <ele>7.8000001907349</ele>
        <time>2022-05-12T07:55:12.000Z</time>
      </trkpt>
      <trkpt lat="47.33102" lon="-2.37168">
        <ele>8.1999998092651</ele>
        <time>2022-05-12T07:55:13.000Z</time>
      </trkpt>
      <trkpt lat="47.33102" lon="-2.37163">
        <ele>8.6000003814697</ele>
        <time>2022-05-12T07:55:14.000Z</time>
      </trkpt>
      <trkpt lat="47.33102" lon="-2.37158">
        <ele>9.1999998092651</ele>
        <time>2022-05-12T07:55:15.000Z</time>
      </trkpt>
      <trkpt lat="47.33102" lon="-2.37153">
        <ele>9.6000003814697</ele>
        <time>2022-05-12T07:55:16.000Z</time>
      </trkpt>
      <trkpt lat="47.33103" lon="-2.37142">
        <ele>10</ele>
        <time>2022-05-12T07:55:18.000Z</time>
      </trkpt>
      <trkpt lat="47.33103" lon="-2.37137">
        <ele>10.39999961853</ele>
        <time>2022-05-12T07:55:19.000Z</time>
      </trkpt>
      <trkpt lat="47.33103" lon="-2.37132">
        <ele>10.800000190735</ele>
        <time>2022-05-12T07:55:20.000Z</time>
      </trkpt>
      <trkpt lat="47.33103" lon="-2.37126">
        <ele>11.199999809265</ele>
        <time>2022-05-12T07:55:21.000Z</time>
      </trkpt>
      <trkpt lat="47.33103" lon="-2.37121">
        <ele>11.60000038147</ele>
        <time>2022-05-12T07:55:22.000Z</time>
      </trkpt>
      <trkpt lat="47.33104" lon="-2.3711">
        <ele>11.60000038147</ele>
        <time>2022-05-12T07:55:24.000Z</time>
      </trkpt>
      <trkpt lat="47.33102" lon="-2.37067">
        <ele>11.60000038147</ele>
        <time>2022-05-12T07:55:32.000Z</time>
      </trkpt>
      <trkpt lat="47.33101" lon="-2.3705">
        <ele>12</ele>
        <time>2022-05-12T07:55:35.000Z</time>
      </trkpt>
      <trkpt lat="47.33101" lon="-2.37043">
        <ele>12.39999961853</ele>
        <time>2022-05-12T07:55:36.000Z</time>
      </trkpt>
      <trkpt lat="47.33101" lon="-2.37036">
        <ele>12.800000190735</ele>
        <time>2022-05-12T07:55:37.000Z</time>
      </trkpt>
      <trkpt lat="47.331" lon="-2.3703">
        <ele>13.199999809265</ele>
        <time>2022-05-12T07:55:38.000Z</time>
      </trkpt>
      <trkpt lat="47.331" lon="-2.37023">
        <ele>13.60000038147</ele>
        <time>2022-05-12T07:55:39.000Z</time>
      </trkpt>
      <trkpt lat="47.331" lon="-2.36994">
        <ele>13.60000038147</ele>
        <time>2022-05-12T07:55:43.000Z</time>
      </trkpt>
      <trkpt lat="47.33102" lon="-2.36951">
        <ele>13.60000038147</ele>
        <time>2022-05-12T07:55:48.000Z</time>
      </trkpt>
      <trkpt lat="47.33102" lon="-2.36942">
        <ele>13.199999809265</ele>
        <time>2022-05-12T07:55:49.000Z</time>
      </trkpt>
      <trkpt lat="47.33101" lon="-2.36933">
        <ele>12.800000190735</ele>
        <time>2022-05-12T07:55:50.000Z</time>
      </trkpt>
      <trkpt lat="47.33101" lon="-2.36923">
        <ele>12.39999961853</ele>
        <time>2022-05-12T07:55:51.000Z</time>
      </trkpt>
      <trkpt lat="47.331" lon="-2.36916">
        <ele>12</ele>
        <time>2022-05-12T07:55:52.000Z</time>
      </trkpt>
      <trkpt lat="47.331" lon="-2.36909">
        <ele>11.39999961853</ele>
        <time>2022-05-12T07:55:53.000Z</time>
      </trkpt>
      <trkpt lat="47.33107" lon="-2.36889">
        <ele>11.39999961853</ele>
        <time>2022-05-12T07:55:57.000Z</time>
      </trkpt>
      <trkpt lat="47.33122" lon="-2.36873">
        <ele>11</ele>
        <time>2022-05-12T07:56:01.000Z</time>
      </trkpt>
      <trkpt lat="47.33127" lon="-2.36868">
        <ele>10.60000038147</ele>
        <time>2022-05-12T07:56:02.000Z</time>
      </trkpt>
      <trkpt lat="47.33131" lon="-2.36863">
        <ele>10.199999809265</ele>
        <time>2022-05-12T07:56:03.000Z</time>
      </trkpt>
      <trkpt lat="47.33136" lon="-2.36858">
        <ele>9.8000001907349</ele>
        <time>2022-05-12T07:56:04.000Z</time>
      </trkpt>
      <trkpt lat="47.33142" lon="-2.36852">
        <ele>9.3999996185303</ele>
        <time>2022-05-12T07:56:05.000Z</time>
      </trkpt>
      <trkpt lat="47.33159" lon="-2.36836">
        <ele>9.3999996185303</ele>
        <time>2022-05-12T07:56:08.000Z</time>
      </trkpt>
      <trkpt lat="47.33192" lon="-2.36803">
        <ele>9.3999996185303</ele>
        <time>2022-05-12T07:56:14.000Z</time>
      </trkpt>
      <trkpt lat="47.33197" lon="-2.36797">
        <ele>9</ele>
        <time>2022-05-12T07:56:15.000Z</time>
      </trkpt>
      <trkpt lat="47.33203" lon="-2.36791">
        <ele>8.3999996185303</ele>
        <time>2022-05-12T07:56:16.000Z</time>
      </trkpt>
      <trkpt lat="47.33209" lon="-2.36785">
        <ele>8</ele>
        <time>2022-05-12T07:56:17.000Z</time>
      </trkpt>
      <trkpt lat="47.33216" lon="-2.3678">
        <ele>7.5999999046326</ele>
        <time>2022-05-12T07:56:18.000Z</time>
      </trkpt>
      <trkpt lat="47.33222" lon="-2.36774">
        <ele>7.1999998092651</ele>
        <time>2022-05-12T07:56:19.000Z</time>
      </trkpt>
      <trkpt lat="47.33242" lon="-2.36757">
        <ele>7.1999998092651</ele>
        <time>2022-05-12T07:56:22.000Z</time>
      </trkpt>
      <trkpt lat="47.33248" lon="-2.3675">
        <ele>7.1999998092651</ele>
        <time>2022-05-12T07:56:23.000Z</time>
      </trkpt>
      <trkpt lat="47.33263" lon="-2.36725">
        <ele>7.1999998092651</ele>
        <time>2022-05-12T07:56:26.000Z</time>
      </trkpt>
      <trkpt lat="47.33267" lon="-2.36717">
        <ele>6.5999999046326</ele>
        <time>2022-05-12T07:56:27.000Z</time>
      </trkpt>
      <trkpt lat="47.33271" lon="-2.36707">
        <ele>6.1999998092651</ele>
        <time>2022-05-12T07:56:28.000Z</time>
      </trkpt>
      <trkpt lat="47.33274" lon="-2.36697">
        <ele>5.8000001907349</ele>
        <time>2022-05-12T07:56:29.000Z</time>
      </trkpt>
      <trkpt lat="47.33278" lon="-2.36687">
        <ele>5.4000000953674</ele>
        <time>2022-05-12T07:56:30.000Z</time>
      </trkpt>
      <trkpt lat="47.33281" lon="-2.36677">
        <ele>5</ele>
        <time>2022-05-12T07:56:31.000Z</time>
      </trkpt>
      <trkpt lat="47.33303" lon="-2.36609">
        <ele>5</ele>
        <time>2022-05-12T07:56:38.000Z</time>
      </trkpt>
      <trkpt lat="47.33314" lon="-2.36567">
        <ele>5</ele>
        <time>2022-05-12T07:56:43.000Z</time>
      </trkpt>
      <trkpt lat="47.33329" lon="-2.36508">
        <ele>5</ele>
        <time>2022-05-12T07:56:51.000Z</time>
      </trkpt>
      <trkpt lat="47.33331" lon="-2.36493">
        <ele>5</ele>
        <time>2022-05-12T07:56:53.000Z</time>
      </trkpt>
      <trkpt lat="47.33332" lon="-2.36471">
        <ele>5</ele>
        <time>2022-05-12T07:56:56.000Z</time>
      </trkpt>
      <trkpt lat="47.33332" lon="-2.36464">
        <ele>5</ele>
        <time>2022-05-12T07:56:57.000Z</time>
      </trkpt>
      <trkpt lat="47.3333" lon="-2.36448">
        <ele>5.4000000953674</ele>
        <time>2022-05-12T07:56:59.000Z</time>
      </trkpt>
      <trkpt lat="47.33329" lon="-2.36441">
        <ele>5.8000001907349</ele>
        <time>2022-05-12T07:57:00.000Z</time>
      </trkpt>
      <trkpt lat="47.33328" lon="-2.36434">
        <ele>6.1999998092651</ele>
        <time>2022-05-12T07:57:01.000Z</time>
      </trkpt>
      <trkpt lat="47.33327" lon="-2.36426">
        <ele>6.5999999046326</ele>
        <time>2022-05-12T07:57:02.000Z</time>
      </trkpt>
      <trkpt lat="47.33326" lon="-2.36419">
        <ele>7</ele>
        <time>2022-05-12T07:57:03.000Z</time>
      </trkpt>
      <trkpt lat="47.33324" lon="-2.36411">
        <ele>7</ele>
        <time>2022-05-12T07:57:04.000Z</time>
      </trkpt>
      <trkpt lat="47.33315" lon="-2.36358">
        <ele>7</ele>
        <time>2022-05-12T07:57:11.000Z</time>
      </trkpt>
      <trkpt lat="47.3331" lon="-2.36314">
        <ele>7</ele>
        <time>2022-05-12T07:57:17.000Z</time>
      </trkpt>
      <trkpt lat="47.33308" lon="-2.36299">
        <ele>7.4000000953674</ele>
        <time>2022-05-12T07:57:19.000Z</time>
      </trkpt>
      <trkpt lat="47.33308" lon="-2.36291">
        <ele>7.8000001907349</ele>
        <time>2022-05-12T07:57:20.000Z</time>
      </trkpt>
      <trkpt lat="47.33308" lon="-2.36284">
        <ele>8.1999998092651</ele>
        <time>2022-05-12T07:57:21.000Z</time>
      </trkpt>
      <trkpt lat="47.33308" lon="-2.36276">
        <ele>8.6000003814697</ele>
        <time>2022-05-12T07:57:22.000Z</time>
      </trkpt>
      <trkpt lat="47.33308" lon="-2.36268">
        <ele>9</ele>
        <time>2022-05-12T07:57:23.000Z</time>
      </trkpt>
      <trkpt lat="47.33308" lon="-2.36254">
        <ele>9</ele>
        <time>2022-05-12T07:57:25.000Z</time>
      </trkpt>
      <trkpt lat="47.33309" lon="-2.36241">
        <ele>9</ele>
        <time>2022-05-12T07:57:27.000Z</time>
      </trkpt>
      <trkpt lat="47.33315" lon="-2.36225">
        <ele>9</ele>
        <time>2022-05-12T07:57:30.000Z</time>
      </trkpt>
      <trkpt lat="47.33327" lon="-2.3621">
        <ele>9</ele>
        <time>2022-05-12T07:57:34.000Z</time>
      </trkpt>
      <trkpt lat="47.33334" lon="-2.36204">
        <ele>9</ele>
        <time>2022-05-12T07:57:36.000Z</time>
      </trkpt>
      <trkpt lat="47.33346" lon="-2.36196">
        <ele>9</ele>
        <time>2022-05-12T07:57:39.000Z</time>
      </trkpt>
      <trkpt lat="47.33356" lon="-2.36189">
        <ele>9</ele>
        <time>2022-05-12T07:57:42.000Z</time>
      </trkpt>
      <trkpt lat="47.33376" lon="-2.36176">
        <ele>9.3999996185303</ele>
        <time>2022-05-12T07:57:47.000Z</time>
      </trkpt>
      <trkpt lat="47.3338" lon="-2.36173">
        <ele>9.8000001907349</ele>
        <time>2022-05-12T07:57:48.000Z</time>
      </trkpt>
      <trkpt lat="47.33384" lon="-2.3617">
        <ele>10.199999809265</ele>
        <time>2022-05-12T07:57:49.000Z</time>
      </trkpt>
      <trkpt lat="47.33387" lon="-2.36167">
        <ele>10.60000038147</ele>
        <time>2022-05-12T07:57:50.000Z</time>
      </trkpt>
      <trkpt lat="47.33392" lon="-2.36165">
        <ele>11</ele>
        <time>2022-05-12T07:57:51.000Z</time>
      </trkpt>
      <trkpt lat="47.33404" lon="-2.3616">
        <ele>11</ele>
        <time>2022-05-12T07:57:54.000Z</time>
      </trkpt>
      <trkpt lat="47.33407" lon="-2.36163">
        <ele>11</ele>
        <time>2022-05-12T07:57:55.000Z</time>
      </trkpt>
      <trkpt lat="47.33411" lon="-2.36181">
        <ele>11</ele>
        <time>2022-05-12T07:57:58.000Z</time>
      </trkpt>
      <trkpt lat="47.33412" lon="-2.36218">
        <ele>11</ele>
        <time>2022-05-12T07:58:03.000Z</time>
      </trkpt>
      <trkpt lat="47.33411" lon="-2.36226">
        <ele>11</ele>
        <time>2022-05-12T07:58:04.000Z</time>
      </trkpt>
      <trkpt lat="47.3341" lon="-2.36234">
        <ele>11</ele>
        <time>2022-05-12T07:58:05.000Z</time>
      </trkpt>
      <trkpt lat="47.3341" lon="-2.36258">
        <ele>11</ele>
        <time>2022-05-12T07:58:08.000Z</time>
      </trkpt>
      <trkpt lat="47.3341" lon="-2.36266">
        <ele>11</ele>
        <time>2022-05-12T07:58:09.000Z</time>
      </trkpt>
      <trkpt lat="47.33411" lon="-2.36282">
        <ele>10.60000038147</ele>
        <time>2022-05-12T07:58:11.000Z</time>
      </trkpt>
      <trkpt lat="47.33413" lon="-2.3629">
        <ele>10.199999809265</ele>
        <time>2022-05-12T07:58:12.000Z</time>
      </trkpt>
      <trkpt lat="47.33414" lon="-2.36298">
        <ele>9.8000001907349</ele>
        <time>2022-05-12T07:58:13.000Z</time>
      </trkpt>
      <trkpt lat="47.33416" lon="-2.36307">
        <ele>9.3999996185303</ele>
        <time>2022-05-12T07:58:14.000Z</time>
      </trkpt>
      <trkpt lat="47.33418" lon="-2.36315">
        <ele>9</ele>
        <time>2022-05-12T07:58:15.000Z</time>
      </trkpt>
      <trkpt lat="47.33428" lon="-2.36344">
        <ele>9</ele>
        <time>2022-05-12T07:58:20.000Z</time>
      </trkpt>
      <trkpt lat="47.33433" lon="-2.36359">
        <ele>8.6000003814697</ele>
        <time>2022-05-12T07:58:23.000Z</time>
      </trkpt>
      <trkpt lat="47.33436" lon="-2.36363">
        <ele>8.1999998092651</ele>
        <time>2022-05-12T07:58:24.000Z</time>
      </trkpt>
      <trkpt lat="47.33436" lon="-2.36367">
        <ele>7.4000000953674</ele>
        <time>2022-05-12T07:58:25.000Z</time>
      </trkpt>
      <trkpt lat="47.33438" lon="-2.36369">
        <ele>7</ele>
        <time>2022-05-12T07:58:26.000Z</time>
      </trkpt>
      <trkpt lat="47.3344" lon="-2.36378">
        <ele>7</ele>
        <time>2022-05-12T07:58:30.000Z</time>
      </trkpt>
      <trkpt lat="47.33446" lon="-2.36392">
        <ele>7</ele>
        <time>2022-05-12T07:58:36.000Z</time>
      </trkpt>
      <trkpt lat="47.33446" lon="-2.36395">
        <ele>7</ele>
        <time>2022-05-12T07:58:37.000Z</time>
      </trkpt>
      <trkpt lat="47.33448" lon="-2.36399">
        <ele>7</ele>
        <time>2022-05-12T07:58:39.000Z</time>
      </trkpt>
      <trkpt lat="47.3345" lon="-2.36401">
        <ele>7</ele>
        <time>2022-05-12T07:58:40.000Z</time>
      </trkpt>
      <trkpt lat="47.33456" lon="-2.36407">
        <ele>6.5999999046326</ele>
        <time>2022-05-12T07:58:43.000Z</time>
      </trkpt>
      <trkpt lat="47.33458" lon="-2.36408">
        <ele>6.1999998092651</ele>
        <time>2022-05-12T07:58:44.000Z</time>
      </trkpt>
      <trkpt lat="47.33461" lon="-2.36409">
        <ele>5.8000001907349</ele>
        <time>2022-05-12T07:58:45.000Z</time>
      </trkpt>
      <trkpt lat="47.33464" lon="-2.36411">
        <ele>5.4000000953674</ele>
        <time>2022-05-12T07:58:46.000Z</time>
      </trkpt>
      <trkpt lat="47.33465" lon="-2.36413">
        <ele>5</ele>
        <time>2022-05-12T07:58:47.000Z</time>
      </trkpt>
      <trkpt lat="47.3347" lon="-2.36419">
        <ele>5</ele>
        <time>2022-05-12T07:58:50.000Z</time>
      </trkpt>
      <trkpt lat="47.3347" lon="-2.36422">
        <ele>5</ele>
        <time>2022-05-12T07:58:51.000Z</time>
      </trkpt>
      <trkpt lat="47.33471" lon="-2.36432">
        <ele>5</ele>
        <time>2022-05-12T07:58:53.000Z</time>
      </trkpt>
      <trkpt lat="47.33472" lon="-2.36468">
        <ele>5</ele>
        <time>2022-05-12T07:58:59.000Z</time>
      </trkpt>
      <trkpt lat="47.33472" lon="-2.36475">
        <ele>5</ele>
        <time>2022-05-12T07:59:00.000Z</time>
      </trkpt>
      <trkpt lat="47.33471" lon="-2.36506">
        <ele>5</ele>
        <time>2022-05-12T07:59:04.000Z</time>
      </trkpt>
      <trkpt lat="47.3347" lon="-2.3656">
        <ele>5</ele>
        <time>2022-05-12T07:59:11.000Z</time>
      </trkpt>
      <trkpt lat="47.3347" lon="-2.36573">
        <ele>4.5999999046326</ele>
        <time>2022-05-12T07:59:13.000Z</time>
      </trkpt>
      <trkpt lat="47.33471" lon="-2.36579">
        <ele>3.7999999523163</ele>
        <time>2022-05-12T07:59:14.000Z</time>
      </trkpt>
      <trkpt lat="47.33473" lon="-2.36582">
        <ele>3.4000000953674</ele>
        <time>2022-05-12T07:59:15.000Z</time>
      </trkpt>
      <trkpt lat="47.33477" lon="-2.36585">
        <ele>3</ele>
        <time>2022-05-12T07:59:16.000Z</time>
      </trkpt>
      <trkpt lat="47.33485" lon="-2.36589">
        <ele>3</ele>
        <time>2022-05-12T07:59:18.000Z</time>
      </trkpt>
      <trkpt lat="47.3349" lon="-2.36591">
        <ele>3</ele>
        <time>2022-05-12T07:59:19.000Z</time>
      </trkpt>
      <trkpt lat="47.33494" lon="-2.36592">
        <ele>3</ele>
        <time>2022-05-12T07:59:20.000Z</time>
      </trkpt>
      <trkpt lat="47.33506" lon="-2.36601">
        <ele>3</ele>
        <time>2022-05-12T07:59:23.000Z</time>
      </trkpt>
      <trkpt lat="47.3352" lon="-2.3661">
        <ele>3</ele>
        <time>2022-05-12T07:59:26.000Z</time>
      </trkpt>
      <trkpt lat="47.33528" lon="-2.36616">
        <ele>3</ele>
        <time>2022-05-12T07:59:28.000Z</time>
      </trkpt>
      <trkpt lat="47.33532" lon="-2.36623">
        <ele>2.4000000953674</ele>
        <time>2022-05-12T07:59:30.000Z</time>
      </trkpt>
      <trkpt lat="47.33535" lon="-2.36627">
        <ele>2</ele>
        <time>2022-05-12T07:59:31.000Z</time>
      </trkpt>
      <trkpt lat="47.33537" lon="-2.36629">
        <ele>1.3999999761581</ele>
        <time>2022-05-12T07:59:32.000Z</time>
      </trkpt>
      <trkpt lat="47.33539" lon="-2.36633">
        <ele>0.80000001192093</ele>
        <time>2022-05-12T07:59:33.000Z</time>
      </trkpt>
      <trkpt lat="47.3354" lon="-2.36637">
        <ele>0.20000000298023</ele>
        <time>2022-05-12T07:59:34.000Z</time>
      </trkpt>
      <trkpt lat="47.33539" lon="-2.36643">
        <ele>-0.40000000596046</ele>
        <time>2022-05-12T07:59:35.000Z</time>
      </trkpt>
      <trkpt lat="47.33536" lon="-2.36648">
        <ele>-1.2000000476837</ele>
        <time>2022-05-12T07:59:36.000Z</time>
      </trkpt>
      <trkpt lat="47.33534" lon="-2.36652">
        <ele>-1.7999999523163</ele>
        <time>2022-05-12T07:59:37.000Z</time>
      </trkpt>
      <trkpt lat="47.3353" lon="-2.36657">
        <ele>-3.2000000476837</ele>
        <time>2022-05-12T07:59:38.000Z</time>
      </trkpt>
      <trkpt lat="47.33527" lon="-2.3666">
        <ele>-3.7999999523163</ele>
        <time>2022-05-12T07:59:39.000Z</time>
      </trkpt>
      <trkpt lat="47.3352" lon="-2.36667">
        <ele>-3.7999999523163</ele>
        <time>2022-05-12T07:59:41.000Z</time>
      </trkpt>
      <trkpt lat="47.33509" lon="-2.36686">
        <ele>-3.7999999523163</ele>
        <time>2022-05-12T07:59:45.000Z</time>
      </trkpt>
      <trkpt lat="47.33495" lon="-2.36707">
        <ele>-3.7999999523163</ele>
        <time>2022-05-12T07:59:50.000Z</time>
      </trkpt>
      <trkpt lat="47.33485" lon="-2.3673">
        <ele>-3.7999999523163</ele>
        <time>2022-05-12T07:59:55.000Z</time>
      </trkpt>
      <trkpt lat="47.33475" lon="-2.36763">
        <ele>-3.7999999523163</ele>
        <time>2022-05-12T08:00:01.000Z</time>
      </trkpt>
      <trkpt lat="47.33471" lon="-2.36782">
        <ele>-3.7999999523163</ele>
        <time>2022-05-12T08:00:04.000Z</time>
      </trkpt>
      <trkpt lat="47.3347" lon="-2.36797">
        <ele>-3.7999999523163</ele>
        <time>2022-05-12T08:00:06.000Z</time>
      </trkpt>
      <trkpt lat="47.33463" lon="-2.36836">
        <ele>-3.7999999523163</ele>
        <time>2022-05-12T08:00:12.000Z</time>
      </trkpt>
      <trkpt lat="47.33451" lon="-2.36853">
        <ele>-3.7999999523163</ele>
        <time>2022-05-12T08:00:16.000Z</time>
      </trkpt>
      <trkpt lat="47.33447" lon="-2.36865">
        <ele>-3.4000000953674</ele>
        <time>2022-05-12T08:00:20.000Z</time>
      </trkpt>
      <trkpt lat="47.33447" lon="-2.36867">
        <ele>-3</ele>
        <time>2022-05-12T08:00:21.000Z</time>
      </trkpt>
      <trkpt lat="47.33447" lon="-2.36869">
        <ele>-2.5999999046326</ele>
        <time>2022-05-12T08:00:22.000Z</time>
      </trkpt>
      <trkpt lat="47.33446" lon="-2.36873">
        <ele>-2.2000000476837</ele>
        <time>2022-05-12T08:00:23.000Z</time>
      </trkpt>
      <trkpt lat="47.33446" lon="-2.36877">
        <ele>-1.6000000238419</ele>
        <time>2022-05-12T08:00:24.000Z</time>
      </trkpt>
      <trkpt lat="47.33446" lon="-2.3688">
        <ele>-1.6000000238419</ele>
        <time>2022-05-12T08:00:25.000Z</time>
      </trkpt>
      <trkpt lat="47.33448" lon="-2.36902">
        <ele>-1.6000000238419</ele>
        <time>2022-05-12T08:00:30.000Z</time>
      </trkpt>
      <trkpt lat="47.33453" lon="-2.3693">
        <ele>-1.6000000238419</ele>
        <time>2022-05-12T08:00:35.000Z</time>
      </trkpt>
      <trkpt lat="47.33458" lon="-2.36962">
        <ele>-1.6000000238419</ele>
        <time>2022-05-12T08:00:40.000Z</time>
      </trkpt>
      <trkpt lat="47.33463" lon="-2.36976">
        <ele>-1.6000000238419</ele>
        <time>2022-05-12T08:00:42.000Z</time>
      </trkpt>
      <trkpt lat="47.3347" lon="-2.36988">
        <ele>-1.6000000238419</ele>
        <time>2022-05-12T08:00:45.000Z</time>
      </trkpt>
      <trkpt lat="47.33473" lon="-2.36998">
        <ele>-1.6000000238419</ele>
        <time>2022-05-12T08:00:48.000Z</time>
      </trkpt>
      <trkpt lat="47.33473" lon="-2.37">
        <ele>-1.6000000238419</ele>
        <time>2022-05-12T08:00:49.000Z</time>
      </trkpt>
      <trkpt lat="47.33472" lon="-2.37008">
        <ele>-1.6000000238419</ele>
        <time>2022-05-12T08:00:52.000Z</time>
      </trkpt>
      <trkpt lat="47.33472" lon="-2.3701">
        <ele>-1.6000000238419</ele>
        <time>2022-05-12T08:00:54.000Z</time>
      </trkpt>
      <trkpt lat="47.33472" lon="-2.37018">
        <ele>-1.6000000238419</ele>
        <time>2022-05-12T08:01:40.000Z</time>
      </trkpt>
      <trkpt lat="47.33472" lon="-2.37041">
        <ele>-1.6000000238419</ele>
        <time>2022-05-12T08:01:46.000Z</time>
      </trkpt>
      <trkpt lat="47.33471" lon="-2.37075">
        <ele>-1.6000000238419</ele>
        <time>2022-05-12T08:01:53.000Z</time>
      </trkpt>
      <trkpt lat="47.33475" lon="-2.37107">
        <ele>-1.6000000238419</ele>
        <time>2022-05-12T08:02:00.000Z</time>
      </trkpt>
      <trkpt lat="47.33476" lon="-2.37128">
        <ele>-1.2000000476837</ele>
        <time>2022-05-12T08:02:04.000Z</time>
      </trkpt>
      <trkpt lat="47.33477" lon="-2.37133">
        <ele>-0.80000001192093</ele>
        <time>2022-05-12T08:02:05.000Z</time>
      </trkpt>
      <trkpt lat="47.33478" lon="-2.37138">
        <ele>24.2</ele>
        <time>2022-05-12T08:02:06.000Z</time>
      </trkpt>
      <trkpt lat="47.33479" lon="-2.37143">
        <ele>0.40000000596046</ele>
        <time>2022-05-12T08:02:07.000Z</time>
      </trkpt>
      <trkpt lat="47.33483" lon="-2.37177">
        <ele>0.40000000596046</ele>
        <time>2022-05-12T08:02:14.000Z</time>
      </trkpt>
      <trkpt lat="47.33491" lon="-2.37217">
        <ele>0.80000001192093</ele>
        <time>2022-05-12T08:02:22.000Z</time>
      </trkpt>
      <trkpt lat="47.33493" lon="-2.37222">
        <ele>1.2000000476837</ele>
        <time>2022-05-12T08:02:23.000Z</time>
      </trkpt>
      <trkpt lat="47.33495" lon="-2.37226">
        <ele>1.7999999523163</ele>
        <time>2022-05-12T08:02:24.000Z</time>
      </trkpt>
      <trkpt lat="47.33498" lon="-2.37228">
        <ele>2.2000000476837</ele>
        <time>2022-05-12T08:02:25.000Z</time>
      </trkpt>
      <trkpt lat="47.335" lon="-2.3723">
        <ele>2.5999999046326</ele>
        <time>2022-05-12T08:02:26.000Z</time>
      </trkpt>
      <trkpt lat="47.33512" lon="-2.37232">
        <ele>2.5999999046326</ele>
        <time>2022-05-12T08:02:30.000Z</time>
      </trkpt>
      <trkpt lat="47.33528" lon="-2.37234">
        <ele>3</ele>
        <time>2022-05-12T08:02:35.000Z</time>
      </trkpt>
      <trkpt lat="47.33532" lon="-2.37234">
        <ele>3.4000000953674</ele>
        <time>2022-05-12T08:02:36.000Z</time>
      </trkpt>
      <trkpt lat="47.33535" lon="-2.37234">
        <ele>3.7999999523163</ele>
        <time>2022-05-12T08:02:37.000Z</time>
      </trkpt>
      <trkpt lat="47.33538" lon="-2.37234">
        <ele>4.1999998092651</ele>
        <time>2022-05-12T08:02:38.000Z</time>
      </trkpt>
      <trkpt lat="47.33541" lon="-2.37234">
        <ele>4.5999999046326</ele>
        <time>2022-05-12T08:02:39.000Z</time>
      </trkpt>
      <trkpt lat="47.33554" lon="-2.37234">
        <ele>4.5999999046326</ele>
        <time>2022-05-12T08:02:43.000Z</time>
      </trkpt>
      <trkpt lat="47.33576" lon="-2.37236">
        <ele>4.5999999046326</ele>
        <time>2022-05-12T08:02:50.000Z</time>
      </trkpt>
      <trkpt lat="47.33596" lon="-2.3723">
        <ele>4.5999999046326</ele>
        <time>2022-05-12T08:02:56.000Z</time>
      </trkpt>
      <trkpt lat="47.33598" lon="-2.37225">
        <ele>4.5999999046326</ele>
        <time>2022-05-12T08:02:57.000Z</time>
      </trkpt>
      <trkpt lat="47.33599" lon="-2.372">
        <ele>4.5999999046326</ele>
        <time>2022-05-12T08:03:01.000Z</time>
      </trkpt>
      <trkpt lat="47.33603" lon="-2.37156">
        <ele>4.5999999046326</ele>
        <time>2022-05-12T08:03:07.000Z</time>
      </trkpt>
      <trkpt lat="47.33603" lon="-2.37099">
        <ele>4.5999999046326</ele>
        <time>2022-05-12T08:03:14.000Z</time>
      </trkpt>
      <trkpt lat="47.33603" lon="-2.37051">
        <ele>5.4000000953674</ele>
        <time>2022-05-12T08:03:20.000Z</time>
      </trkpt>
      <trkpt lat="47.33603" lon="-2.37042">
        <ele>5.8000001907349</ele>
        <time>2022-05-12T08:03:21.000Z</time>
      </trkpt>
      <trkpt lat="47.33603" lon="-2.37034">
        <ele>6.1999998092651</ele>
        <time>2022-05-12T08:03:22.000Z</time>
      </trkpt>
      <trkpt lat="47.33603" lon="-2.37026">
        <ele>6.5999999046326</ele>
        <time>2022-05-12T08:03:23.000Z</time>
      </trkpt>
      <trkpt lat="47.33602" lon="-2.36974">
        <ele>6.5999999046326</ele>
        <time>2022-05-12T08:03:29.000Z</time>
      </trkpt>
      <trkpt lat="47.33604" lon="-2.36955">
        <ele>6.5999999046326</ele>
        <time>2022-05-12T08:03:31.000Z</time>
      </trkpt>
      <trkpt lat="47.3361" lon="-2.3694">
        <ele>6.5999999046326</ele>
        <time>2022-05-12T08:03:33.000Z</time>
      </trkpt>
      <trkpt lat="47.33617" lon="-2.36925">
        <ele>6.5999999046326</ele>
        <time>2022-05-12T08:03:35.000Z</time>
      </trkpt>
      <trkpt lat="47.33629" lon="-2.36907">
        <ele>6.5999999046326</ele>
        <time>2022-05-12T08:03:38.000Z</time>
      </trkpt>
      <trkpt lat="47.3366" lon="-2.36868">
        <ele>6.5999999046326</ele>
        <time>2022-05-12T08:03:45.000Z</time>
      </trkpt>
      <trkpt lat="47.3369" lon="-2.36835">
        <ele>6.5999999046326</ele>
        <time>2022-05-12T08:03:52.000Z</time>
      </trkpt>
      <trkpt lat="47.33721" lon="-2.36813">
        <ele>6.5999999046326</ele>
        <time>2022-05-12T08:03:58.000Z</time>
      </trkpt>
      <trkpt lat="47.33726" lon="-2.36812">
        <ele>6.5999999046326</ele>
        <time>2022-05-12T08:03:59.000Z</time>
      </trkpt>
      <trkpt lat="47.33741" lon="-2.36806">
        <ele>6.5999999046326</ele>
        <time>2022-05-12T08:04:02.000Z</time>
      </trkpt>
      <trkpt lat="47.33746" lon="-2.36803">
        <ele>6.5999999046326</ele>
        <time>2022-05-12T08:04:03.000Z</time>
      </trkpt>
      <trkpt lat="47.33783" lon="-2.3679">
        <ele>6.5999999046326</ele>
        <time>2022-05-12T08:04:09.000Z</time>
      </trkpt>
      <trkpt lat="47.33839" lon="-2.36775">
        <ele>6.5999999046326</ele>
        <time>2022-05-12T08:04:18.000Z</time>
      </trkpt>
      <trkpt lat="47.33881" lon="-2.36765">
        <ele>6.5999999046326</ele>
        <time>2022-05-12T08:04:25.000Z</time>
      </trkpt>
      <trkpt lat="47.33906" lon="-2.36759">
        <ele>6.5999999046326</ele>
        <time>2022-05-12T08:04:31.000Z</time>
      </trkpt>
      <trkpt lat="47.33915" lon="-2.36756">
        <ele>6.5999999046326</ele>
        <time>2022-05-12T08:04:37.000Z</time>
      </trkpt>
      <trkpt lat="47.33928" lon="-2.36758">
        <ele>6.5999999046326</ele>
        <time>2022-05-12T08:04:41.000Z</time>
      </trkpt>
      <trkpt lat="47.33933" lon="-2.36757">
        <ele>6.5999999046326</ele>
        <time>2022-05-12T08:04:42.000Z</time>
      </trkpt>
      <trkpt lat="47.33949" lon="-2.36754">
        <ele>6.5999999046326</ele>
        <time>2022-05-12T08:04:45.000Z</time>
      </trkpt>
      <trkpt lat="47.33983" lon="-2.36746">
        <ele>6.5999999046326</ele>
        <time>2022-05-12T08:04:51.000Z</time>
      </trkpt>
      <trkpt lat="47.33989" lon="-2.36744">
        <ele>6.1999998092651</ele>
        <time>2022-05-12T08:04:52.000Z</time>
      </trkpt>
      <trkpt lat="47.33995" lon="-2.36742">
        <ele>5.8000001907349</ele>
        <time>2022-05-12T08:04:53.000Z</time>
      </trkpt>
      <trkpt lat="47.34001" lon="-2.3674">
        <ele>5.4000000953674</ele>
        <time>2022-05-12T08:04:54.000Z</time>
      </trkpt>
      <trkpt lat="47.34007" lon="-2.36737">
        <ele>5</ele>
        <time>2022-05-12T08:04:55.000Z</time>
      </trkpt>
      <trkpt lat="47.34013" lon="-2.36735">
        <ele>4.4000000953674</ele>
        <time>2022-05-12T08:04:56.000Z</time>
      </trkpt>
      <trkpt lat="47.34026" lon="-2.3673">
        <ele>4.4000000953674</ele>
        <time>2022-05-12T08:04:58.000Z</time>
      </trkpt>
      <trkpt lat="47.3405" lon="-2.36716">
        <ele>4</ele>
        <time>2022-05-12T08:05:02.000Z</time>
      </trkpt>
      <trkpt lat="47.34055" lon="-2.36713">
        <ele>3.5999999046326</ele>
        <time>2022-05-12T08:05:03.000Z</time>
      </trkpt>
      <trkpt lat="47.34061" lon="-2.36709">
        <ele>3.2000000476837</ele>
        <time>2022-05-12T08:05:04.000Z</time>
      </trkpt>
      <trkpt lat="47.34066" lon="-2.36706">
        <ele>2.7999999523163</ele>
        <time>2022-05-12T08:05:05.000Z</time>
      </trkpt>
      <trkpt lat="47.34071" lon="-2.36703">
        <ele>2.4000000953674</ele>
        <time>2022-05-12T08:05:06.000Z</time>
      </trkpt>
      <trkpt lat="47.34076" lon="-2.36702">
        <ele>2.4000000953674</ele>
        <time>2022-05-12T08:05:07.000Z</time>
      </trkpt>
      <trkpt lat="47.34084" lon="-2.36708">
        <ele>2.4000000953674</ele>
        <time>2022-05-12T08:05:09.000Z</time>
      </trkpt>
      <trkpt lat="47.34088" lon="-2.36729">
        <ele>2.4000000953674</ele>
        <time>2022-05-12T08:05:12.000Z</time>
      </trkpt>
      <trkpt lat="47.3409" lon="-2.36745">
        <ele>2.4000000953674</ele>
        <time>2022-05-12T08:05:14.000Z</time>
      </trkpt>
      <trkpt lat="47.34092" lon="-2.36753">
        <ele>2</ele>
        <time>2022-05-12T08:05:15.000Z</time>
      </trkpt>
      <trkpt lat="47.34094" lon="-2.36761">
        <ele>1.6000000238419</ele>
        <time>2022-05-12T08:05:16.000Z</time>
      </trkpt>
      <trkpt lat="47.34096" lon="-2.3677">
        <ele>1.2000000476837</ele>
        <time>2022-05-12T08:05:17.000Z</time>
      </trkpt>
      <trkpt lat="47.34097" lon="-2.36778">
        <ele>0.80000001192093</ele>
        <time>2022-05-12T08:05:18.000Z</time>
      </trkpt>
      <trkpt lat="47.34099" lon="-2.36787">
        <ele>0.40000000596046</ele>
        <time>2022-05-12T08:05:19.000Z</time>
      </trkpt>
      <trkpt lat="47.34108" lon="-2.36841">
        <ele>0.40000000596046</ele>
        <time>2022-05-12T08:05:25.000Z</time>
      </trkpt>
      <trkpt lat="47.34117" lon="-2.36874">
        <ele>0.40000000596046</ele>
        <time>2022-05-12T08:05:29.000Z</time>
      </trkpt>
      <trkpt lat="47.34125" lon="-2.36888">
        <ele>0.40000000596046</ele>
        <time>2022-05-12T08:05:31.000Z</time>
      </trkpt>
      <trkpt lat="47.3415" lon="-2.36933">
        <ele>0.40000000596046</ele>
        <time>2022-05-12T08:05:38.000Z</time>
      </trkpt>
      <trkpt lat="47.34161" lon="-2.36951">
        <ele>0.40000000596046</ele>
        <time>2022-05-12T08:05:41.000Z</time>
      </trkpt>
      <trkpt lat="47.34171" lon="-2.36966">
        <ele>0.40000000596046</ele>
        <time>2022-05-12T08:05:44.000Z</time>
      </trkpt>
      <trkpt lat="47.34194" lon="-2.36996">
        <ele>0.40000000596046</ele>
        <time>2022-05-12T08:05:50.000Z</time>
      </trkpt>
      <trkpt lat="47.34197" lon="-2.37001">
        <ele>0.40000000596046</ele>
        <time>2022-05-12T08:05:51.000Z</time>
      </trkpt>
      <trkpt lat="47.34204" lon="-2.37011">
        <ele>0.80000001192093</ele>
        <time>2022-05-12T08:05:53.000Z</time>
      </trkpt>
      <trkpt lat="47.34207" lon="-2.37017">
        <ele>1.2000000476837</ele>
        <time>2022-05-12T08:05:54.000Z</time>
      </trkpt>
      <trkpt lat="47.34211" lon="-2.37022">
        <ele>1.6000000238419</ele>
        <time>2022-05-12T08:05:55.000Z</time>
      </trkpt>
      <trkpt lat="47.34214" lon="-2.37027">
        <ele>2</ele>
        <time>2022-05-12T08:05:56.000Z</time>
      </trkpt>
      <trkpt lat="47.34216" lon="-2.37032">
        <ele>2.4000000953674</ele>
        <time>2022-05-12T08:05:57.000Z</time>
      </trkpt>
      <trkpt lat="47.34229" lon="-2.37057">
        <ele>2.7999999523163</ele>
        <time>2022-05-12T08:06:02.000Z</time>
      </trkpt>
      <trkpt lat="47.34232" lon="-2.37061">
        <ele>3.2000000476837</ele>
        <time>2022-05-12T08:06:03.000Z</time>
      </trkpt>
      <trkpt lat="47.34235" lon="-2.37064">
        <ele>3.5999999046326</ele>
        <time>2022-05-12T08:06:04.000Z</time>
      </trkpt>
      <trkpt lat="47.34239" lon="-2.37063">
        <ele>4</ele>
        <time>2022-05-12T08:06:05.000Z</time>
      </trkpt>
      <trkpt lat="47.34243" lon="-2.37061">
        <ele>4.4000000953674</ele>
        <time>2022-05-12T08:06:06.000Z</time>
      </trkpt>
      <trkpt lat="47.34246" lon="-2.37057">
        <ele>4.4000000953674</ele>
        <time>2022-05-12T08:06:07.000Z</time>
      </trkpt>
      <trkpt lat="47.34261" lon="-2.37043">
        <ele>4.4000000953674</ele>
        <time>2022-05-12T08:06:11.000Z</time>
      </trkpt>
      <trkpt lat="47.34274" lon="-2.37031">
        <ele>4.4000000953674</ele>
        <time>2022-05-12T08:06:14.000Z</time>
      </trkpt>
      <trkpt lat="47.34302" lon="-2.36997">
        <ele>4.4000000953674</ele>
        <time>2022-05-12T08:06:21.000Z</time>
      </trkpt>
      <trkpt lat="47.3432" lon="-2.36968">
        <ele>4.4000000953674</ele>
        <time>2022-05-12T08:06:26.000Z</time>
      </trkpt>
      <trkpt lat="47.34352" lon="-2.36924">
        <ele>4.4000000953674</ele>
        <time>2022-05-12T08:06:33.000Z</time>
      </trkpt>
      <trkpt lat="47.3438" lon="-2.36881">
        <ele>4.4000000953674</ele>
        <time>2022-05-12T08:06:40.000Z</time>
      </trkpt>
      <trkpt lat="47.34417" lon="-2.36822">
        <ele>4.4000000953674</ele>
        <time>2022-05-12T08:06:49.000Z</time>
      </trkpt>
      <trkpt lat="47.34421" lon="-2.36816">
        <ele>4.4000000953674</ele>
        <time>2022-05-12T08:06:50.000Z</time>
      </trkpt>
      <trkpt lat="47.34455" lon="-2.36762">
        <ele>4.4000000953674</ele>
        <time>2022-05-12T08:06:59.000Z</time>
      </trkpt>
      <trkpt lat="47.3447" lon="-2.36734">
        <ele>4</ele>
        <time>2022-05-12T08:07:03.000Z</time>
      </trkpt>
      <trkpt lat="47.34474" lon="-2.36726">
        <ele>3.5999999046326</ele>
        <time>2022-05-12T08:07:04.000Z</time>
      </trkpt>
      <trkpt lat="47.34478" lon="-2.36719">
        <ele>3.2000000476837</ele>
        <time>2022-05-12T08:07:05.000Z</time>
      </trkpt>
      <trkpt lat="47.34483" lon="-2.3671">
        <ele>2.7999999523163</ele>
        <time>2022-05-12T08:07:06.000Z</time>
      </trkpt>
      <trkpt lat="47.34487" lon="-2.36702">
        <ele>2.4000000953674</ele>
        <time>2022-05-12T08:07:07.000Z</time>
      </trkpt>
      <trkpt lat="47.34503" lon="-2.36669">
        <ele>2.4000000953674</ele>
        <time>2022-05-12T08:07:11.000Z</time>
      </trkpt>
      <trkpt lat="47.34508" lon="-2.3666">
        <ele>2</ele>
        <time>2022-05-12T08:07:12.000Z</time>
      </trkpt>
      <trkpt lat="47.34511" lon="-2.36651">
        <ele>1.3999999761581</ele>
        <time>2022-05-12T08:07:13.000Z</time>
      </trkpt>
      <trkpt lat="47.34515" lon="-2.36642">
        <ele>1</ele>
        <time>2022-05-12T08:07:14.000Z</time>
      </trkpt>
      <trkpt lat="47.34519" lon="-2.36634">
        <ele>0.60000002384186</ele>
        <time>2022-05-12T08:07:15.000Z</time>
      </trkpt>
      <trkpt lat="47.34523" lon="-2.36625">
        <ele>0.20000000298023</ele>
        <time>2022-05-12T08:07:16.000Z</time>
      </trkpt>
      <trkpt lat="47.34537" lon="-2.36591">
        <ele>0.20000000298023</ele>
        <time>2022-05-12T08:07:20.000Z</time>
      </trkpt>
      <trkpt lat="47.34547" lon="-2.36565">
        <ele>-0.20000000298023</ele>
        <time>2022-05-12T08:07:23.000Z</time>
      </trkpt>
      <trkpt lat="47.3455" lon="-2.36556">
        <ele>-0.60000002384186</ele>
        <time>2022-05-12T08:07:24.000Z</time>
      </trkpt>
      <trkpt lat="47.34554" lon="-2.36548">
        <ele>-1</ele>
        <time>2022-05-12T08:07:25.000Z</time>
      </trkpt>
      <trkpt lat="47.34557" lon="-2.36539">
        <ele>-2</ele>
        <time>2022-05-12T08:07:26.000Z</time>
      </trkpt>
      <trkpt lat="47.34567" lon="-2.36516">
        <ele>-2</ele>
        <time>2022-05-12T08:07:29.000Z</time>
      </trkpt>
      <trkpt lat="47.34583" lon="-2.36468">
        <ele>-2</ele>
        <time>2022-05-12T08:07:35.000Z</time>
      </trkpt>
      <trkpt lat="47.34586" lon="-2.36462">
        <ele>-2</ele>
        <time>2022-05-12T08:07:36.000Z</time>
      </trkpt>
      <trkpt lat="47.34593" lon="-2.36437">
        <ele>-2</ele>
        <time>2022-05-12T08:07:40.000Z</time>
      </trkpt>
      <trkpt lat="47.34581" lon="-2.36419">
        <ele>-2</ele>
        <time>2022-05-12T08:07:43.000Z</time>
      </trkpt>
      <trkpt lat="47.34577" lon="-2.36411">
        <ele>-2</ele>
        <time>2022-05-12T08:07:44.000Z</time>
      </trkpt>
      <trkpt lat="47.34562" lon="-2.36388">
        <ele>-2.4000000953674</ele>
        <time>2022-05-12T08:07:47.000Z</time>
      </trkpt>
      <trkpt lat="47.34556" lon="-2.3638">
        <ele>-2.7999999523163</ele>
        <time>2022-05-12T08:07:48.000Z</time>
      </trkpt>
      <trkpt lat="47.34551" lon="-2.36372">
        <ele>-3.2000000476837</ele>
        <time>2022-05-12T08:07:49.000Z</time>
      </trkpt>
      <trkpt lat="47.34547" lon="-2.36362">
        <ele>-3.5999999046326</ele>
        <time>2022-05-12T08:07:50.000Z</time>
      </trkpt>
      <trkpt lat="47.34544" lon="-2.36353">
        <ele>-4.1999998092651</ele>
        <time>2022-05-12T08:07:51.000Z</time>
      </trkpt>
      <trkpt lat="47.34537" lon="-2.36335">
        <ele>-4.1999998092651</ele>
        <time>2022-05-12T08:07:53.000Z</time>
      </trkpt>
      <trkpt lat="47.34521" lon="-2.36293">
        <ele>-4.5999999046326</ele>
        <time>2022-05-12T08:07:58.000Z</time>
      </trkpt>
      <trkpt lat="47.34518" lon="-2.36285">
        <ele>-5</ele>
        <time>2022-05-12T08:07:59.000Z</time>
      </trkpt>
      <trkpt lat="47.34515" lon="-2.36276">
        <ele>-5.4000000953674</ele>
        <time>2022-05-12T08:08:00.000Z</time>
      </trkpt>
      <trkpt lat="47.34512" lon="-2.36268">
        <ele>-5.8000001907349</ele>
        <time>2022-05-12T08:08:01.000Z</time>
      </trkpt>
      <trkpt lat="47.3451" lon="-2.36261">
        <ele>-6.1999998092651</ele>
        <time>2022-05-12T08:08:02.000Z</time>
      </trkpt>
      <trkpt lat="47.34506" lon="-2.36245">
        <ele>-6.1999998092651</ele>
        <time>2022-05-12T08:08:04.000Z</time>
      </trkpt>
      <trkpt lat="47.345" lon="-2.36228">
        <ele>-6.1999998092651</ele>
        <time>2022-05-12T08:08:06.000Z</time>
      </trkpt>
      <trkpt lat="47.34492" lon="-2.36215">
        <ele>-6.1999998092651</ele>
        <time>2022-05-12T08:08:08.000Z</time>
      </trkpt>
      <trkpt lat="47.34483" lon="-2.36202">
        <ele>-6.1999998092651</ele>
        <time>2022-05-12T08:08:10.000Z</time>
      </trkpt>
      <trkpt lat="47.34472" lon="-2.36182">
        <ele>-6.1999998092651</ele>
        <time>2022-05-12T08:08:13.000Z</time>
      </trkpt>
      <trkpt lat="47.34457" lon="-2.3615">
        <ele>-6.1999998092651</ele>
        <time>2022-05-12T08:08:18.000Z</time>
      </trkpt>
      <trkpt lat="47.34455" lon="-2.36144">
        <ele>-6.1999998092651</ele>
        <time>2022-05-12T08:08:19.000Z</time>
      </trkpt>
      <trkpt lat="47.34445" lon="-2.36119">
        <ele>-6.1999998092651</ele>
        <time>2022-05-12T08:08:23.000Z</time>
      </trkpt>
      <trkpt lat="47.34442" lon="-2.36113">
        <ele>-6.1999998092651</ele>
        <time>2022-05-12T08:08:24.000Z</time>
      </trkpt>
      <trkpt lat="47.3443" lon="-2.36082">
        <ele>-5.8000001907349</ele>
        <time>2022-05-12T08:08:29.000Z</time>
      </trkpt>
      <trkpt lat="47.34428" lon="-2.36076">
        <ele>-5.4000000953674</ele>
        <time>2022-05-12T08:08:30.000Z</time>
      </trkpt>
      <trkpt lat="47.34426" lon="-2.3607">
        <ele>-5</ele>
        <time>2022-05-12T08:08:31.000Z</time>
      </trkpt>
      <trkpt lat="47.34425" lon="-2.36064">
        <ele>-4.5999999046326</ele>
        <time>2022-05-12T08:08:32.000Z</time>
      </trkpt>
      <trkpt lat="47.34423" lon="-2.36056">
        <ele>-4.1999998092651</ele>
        <time>2022-05-12T08:08:33.000Z</time>
      </trkpt>
      <trkpt lat="47.34418" lon="-2.36036">
        <ele>-4.1999998092651</ele>
        <time>2022-05-12T08:08:36.000Z</time>
      </trkpt>
      <trkpt lat="47.34415" lon="-2.3603">
        <ele>-4.1999998092651</ele>
        <time>2022-05-12T08:08:37.000Z</time>
      </trkpt>
      <trkpt lat="47.3441" lon="-2.36007">
        <ele>-4.1999998092651</ele>
        <time>2022-05-12T08:08:41.000Z</time>
      </trkpt>
      <trkpt lat="47.34411" lon="-2.36004">
        <ele>-4.1999998092651</ele>
        <time>2022-05-12T08:08:42.000Z</time>
      </trkpt>
      <trkpt lat="47.34419" lon="-2.35991">
        <ele>-4.1999998092651</ele>
        <time>2022-05-12T08:08:46.000Z</time>
      </trkpt>
      <trkpt lat="47.34425" lon="-2.35986">
        <ele>-4.1999998092651</ele>
        <time>2022-05-12T08:08:48.000Z</time>
      </trkpt>
      <trkpt lat="47.34442" lon="-2.35971">
        <ele>-4.1999998092651</ele>
        <time>2022-05-12T08:08:53.000Z</time>
      </trkpt>
      <trkpt lat="47.34476" lon="-2.35942">
        <ele>-4.1999998092651</ele>
        <time>2022-05-12T08:09:01.000Z</time>
      </trkpt>
      <trkpt lat="47.34482" lon="-2.35939">
        <ele>-4.5999999046326</ele>
        <time>2022-05-12T08:09:02.000Z</time>
      </trkpt>
      <trkpt lat="47.34487" lon="-2.35936">
        <ele>-5</ele>
        <time>2022-05-12T08:09:03.000Z</time>
      </trkpt>
      <trkpt lat="47.34493" lon="-2.35934">
        <ele>-5.4000000953674</ele>
        <time>2022-05-12T08:09:04.000Z</time>
      </trkpt>
      <trkpt lat="47.34499" lon="-2.35931">
        <ele>-6.1999998092651</ele>
        <time>2022-05-12T08:09:05.000Z</time>
      </trkpt>
      <trkpt lat="47.3451" lon="-2.35926">
        <ele>-6.1999998092651</ele>
        <time>2022-05-12T08:09:07.000Z</time>
      </trkpt>
      <trkpt lat="47.34539" lon="-2.35915">
        <ele>-6.5999999046326</ele>
        <time>2022-05-12T08:09:12.000Z</time>
      </trkpt>
      <trkpt lat="47.34544" lon="-2.35912">
        <ele>-7</ele>
        <time>2022-05-12T08:09:13.000Z</time>
      </trkpt>
      <trkpt lat="47.3455" lon="-2.35909">
        <ele>-7.4000000953674</ele>
        <time>2022-05-12T08:09:14.000Z</time>
      </trkpt>
      <trkpt lat="47.34557" lon="-2.35906">
        <ele>-8</ele>
        <time>2022-05-12T08:09:15.000Z</time>
      </trkpt>
      <trkpt lat="47.34563" lon="-2.35903">
        <ele>-8.3999996185303</ele>
        <time>2022-05-12T08:09:16.000Z</time>
      </trkpt>
      <trkpt lat="47.34586" lon="-2.35888">
        <ele>-8.3999996185303</ele>
        <time>2022-05-12T08:09:20.000Z</time>
      </trkpt>
      <trkpt lat="47.34611" lon="-2.35867">
        <ele>-8.3999996185303</ele>
        <time>2022-05-12T08:09:25.000Z</time>
      </trkpt>
      <trkpt lat="47.34635" lon="-2.35847">
        <ele>-8.3999996185303</ele>
        <time>2022-05-12T08:09:31.000Z</time>
      </trkpt>
      <trkpt lat="47.3466" lon="-2.35828">
        <ele>-8.3999996185303</ele>
        <time>2022-05-12T08:09:36.000Z</time>
      </trkpt>
      <trkpt lat="47.34695" lon="-2.35797">
        <ele>-8.3999996185303</ele>
        <time>2022-05-12T08:09:43.000Z</time>
      </trkpt>
      <trkpt lat="47.34727" lon="-2.3577">
        <ele>-8.3999996185303</ele>
        <time>2022-05-12T08:09:50.000Z</time>
      </trkpt>
      <trkpt lat="47.3475" lon="-2.35755">
        <ele>-8.3999996185303</ele>
        <time>2022-05-12T08:09:55.000Z</time>
      </trkpt>
      <trkpt lat="47.34755" lon="-2.35753">
        <ele>-8.3999996185303</ele>
        <time>2022-05-12T08:09:56.000Z</time>
      </trkpt>
      <trkpt lat="47.34768" lon="-2.35747">
        <ele>-8.3999996185303</ele>
        <time>2022-05-12T08:09:59.000Z</time>
      </trkpt>
      <trkpt lat="47.34775" lon="-2.35744">
        <ele>-8.3999996185303</ele>
        <time>2022-05-12T08:10:01.000Z</time>
      </trkpt>
      <trkpt lat="47.34796" lon="-2.35734">
        <ele>-8.3999996185303</ele>
        <time>2022-05-12T08:10:06.000Z</time>
      </trkpt>
      <trkpt lat="47.34799" lon="-2.35732">
        <ele>-8.3999996185303</ele>
        <time>2022-05-12T08:10:07.000Z</time>
      </trkpt>
      <trkpt lat="47.34824" lon="-2.35721">
        <ele>-8.3999996185303</ele>
        <time>2022-05-12T08:10:13.000Z</time>
      </trkpt>
      <trkpt lat="47.34835" lon="-2.35713">
        <ele>-8.3999996185303</ele>
        <time>2022-05-12T08:10:16.000Z</time>
      </trkpt>
      <trkpt lat="47.34839" lon="-2.35707">
        <ele>-8.3999996185303</ele>
        <time>2022-05-12T08:10:17.000Z</time>
      </trkpt>
      <trkpt lat="47.34846" lon="-2.35688">
        <ele>-8.3999996185303</ele>
        <time>2022-05-12T08:10:20.000Z</time>
      </trkpt>
      <trkpt lat="47.34848" lon="-2.35682">
        <ele>-8.3999996185303</ele>
        <time>2022-05-12T08:10:21.000Z</time>
      </trkpt>
      <trkpt lat="47.34853" lon="-2.35663">
        <ele>-8.3999996185303</ele>
        <time>2022-05-12T08:10:26.000Z</time>
      </trkpt>
      <trkpt lat="47.34844" lon="-2.35658">
        <ele>-8.3999996185303</ele>
        <time>2022-05-12T08:10:29.000Z</time>
      </trkpt>
      <trkpt lat="47.34841" lon="-2.35657">
        <ele>-8.3999996185303</ele>
        <time>2022-05-12T08:10:30.000Z</time>
      </trkpt>
      <trkpt lat="47.34819" lon="-2.35647">
        <ele>-8.3999996185303</ele>
        <time>2022-05-12T08:10:35.000Z</time>
      </trkpt>
      <trkpt lat="47.3481" lon="-2.3564">
        <ele>-8.3999996185303</ele>
        <time>2022-05-12T08:10:37.000Z</time>
      </trkpt>
      <trkpt lat="47.34796" lon="-2.35626">
        <ele>-8.3999996185303</ele>
        <time>2022-05-12T08:10:40.000Z</time>
      </trkpt>
      <trkpt lat="47.34764" lon="-2.35587">
        <ele>-8.3999996185303</ele>
        <time>2022-05-12T08:10:47.000Z</time>
      </trkpt>
      <trkpt lat="47.34741" lon="-2.35556">
        <ele>-8.3999996185303</ele>
        <time>2022-05-12T08:10:52.000Z</time>
      </trkpt>
      <trkpt lat="47.34709" lon="-2.35502">
        <ele>-8.3999996185303</ele>
        <time>2022-05-12T08:10:59.000Z</time>
      </trkpt>
      <trkpt lat="47.34684" lon="-2.3546">
        <ele>-8.8000001907349</ele>
        <time>2022-05-12T08:11:05.000Z</time>
      </trkpt>
      <trkpt lat="47.3468" lon="-2.35454">
        <ele>-9.1999998092651</ele>
        <time>2022-05-12T08:11:06.000Z</time>
      </trkpt>
      <trkpt lat="47.34676" lon="-2.35447">
        <ele>-9.6000003814697</ele>
        <time>2022-05-12T08:11:07.000Z</time>
      </trkpt>
      <trkpt lat="47.34671" lon="-2.35441">
        <ele>-10.39999961853</ele>
        <time>2022-05-12T08:11:08.000Z</time>
      </trkpt>
      <trkpt lat="47.3465" lon="-2.35407">
        <ele>-10.39999961853</ele>
        <time>2022-05-12T08:11:15.000Z</time>
      </trkpt>
      <trkpt lat="47.34656" lon="-2.35404">
        <ele>-10.39999961853</ele>
        <time>2022-05-12T08:11:18.000Z</time>
      </trkpt>
      <trkpt lat="47.34658" lon="-2.35405">
        <ele>-10.39999961853</ele>
        <time>2022-05-12T08:11:19.000Z</time>
      </trkpt>
      <trkpt lat="47.34662" lon="-2.35404">
        <ele>-10.39999961853</ele>
        <time>2022-05-12T08:11:21.000Z</time>
      </trkpt>
      <trkpt lat="47.34667" lon="-2.35402">
        <ele>-10.39999961853</ele>
        <time>2022-05-12T08:11:23.000Z</time>
      </trkpt>
      <trkpt lat="47.34685" lon="-2.35399">
        <ele>-10.39999961853</ele>
        <time>2022-05-12T08:11:29.000Z</time>
      </trkpt>
      <trkpt lat="47.3469" lon="-2.35395">
        <ele>-10.39999961853</ele>
        <time>2022-05-12T08:11:31.000Z</time>
      </trkpt>
      <trkpt lat="47.34696" lon="-2.3539">
        <ele>-10.39999961853</ele>
        <time>2022-05-12T08:11:33.000Z</time>
      </trkpt>
      <trkpt lat="47.34705" lon="-2.35381">
        <ele>-10.39999961853</ele>
        <time>2022-05-12T08:11:37.000Z</time>
      </trkpt>
      <trkpt lat="47.34714" lon="-2.35369">
        <ele>-10.39999961853</ele>
        <time>2022-05-12T08:11:41.000Z</time>
      </trkpt>
      <trkpt lat="47.34716" lon="-2.35367">
        <ele>-10.39999961853</ele>
        <time>2022-05-12T08:11:42.000Z</time>
      </trkpt>
      <trkpt lat="47.34722" lon="-2.35356">
        <ele>-10.39999961853</ele>
        <time>2022-05-12T08:11:45.000Z</time>
      </trkpt>
      <trkpt lat="47.34723" lon="-2.35352">
        <ele>-10.39999961853</ele>
        <time>2022-05-12T08:11:46.000Z</time>
      </trkpt>
      <trkpt lat="47.34724" lon="-2.35342">
        <ele>-10.39999961853</ele>
        <time>2022-05-12T08:11:49.000Z</time>
      </trkpt>
      <trkpt lat="47.34724" lon="-2.35338">
        <ele>-10.39999961853</ele>
        <time>2022-05-12T08:11:50.000Z</time>
      </trkpt>
      <trkpt lat="47.34725" lon="-2.35324">
        <ele>-10.39999961853</ele>
        <time>2022-05-12T08:11:54.000Z</time>
      </trkpt>
      <trkpt lat="47.3473" lon="-2.35302">
        <ele>-10.39999961853</ele>
        <time>2022-05-12T08:11:58.000Z</time>
      </trkpt>
      <trkpt lat="47.34736" lon="-2.35282">
        <ele>-10.39999961853</ele>
        <time>2022-05-12T08:12:01.000Z</time>
      </trkpt>
      <trkpt lat="47.34738" lon="-2.35273">
        <ele>-10.39999961853</ele>
        <time>2022-05-12T08:12:03.000Z</time>
      </trkpt>
      <trkpt lat="47.34745" lon="-2.35236">
        <ele>-10.39999961853</ele>
        <time>2022-05-12T08:12:09.000Z</time>
      </trkpt>
      <trkpt lat="47.34746" lon="-2.35229">
        <ele>-10.39999961853</ele>
        <time>2022-05-12T08:12:10.000Z</time>
      </trkpt>
      <trkpt lat="47.34748" lon="-2.35209">
        <ele>-10.39999961853</ele>
        <time>2022-05-12T08:12:13.000Z</time>
      </trkpt>
      <trkpt lat="47.34752" lon="-2.35173">
        <ele>-10.39999961853</ele>
        <time>2022-05-12T08:12:18.000Z</time>
      </trkpt>
      <trkpt lat="47.34752" lon="-2.35167">
        <ele>-10.39999961853</ele>
        <time>2022-05-12T08:12:19.000Z</time>
      </trkpt>
      <trkpt lat="47.34747" lon="-2.35149">
        <ele>-10.39999961853</ele>
        <time>2022-05-12T08:12:22.000Z</time>
      </trkpt>
      <trkpt lat="47.34746" lon="-2.35143">
        <ele>-10.39999961853</ele>
        <time>2022-05-12T08:12:23.000Z</time>
      </trkpt>
      <trkpt lat="47.34738" lon="-2.35134">
        <ele>-10.39999961853</ele>
        <time>2022-05-12T08:12:26.000Z</time>
      </trkpt>
      <trkpt lat="47.34729" lon="-2.35115">
        <ele>-10.39999961853</ele>
        <time>2022-05-12T08:12:30.000Z</time>
      </trkpt>
      <trkpt lat="47.34726" lon="-2.35104">
        <ele>-10.39999961853</ele>
        <time>2022-05-12T08:12:32.000Z</time>
      </trkpt>
      <trkpt lat="47.34718" lon="-2.35091">
        <ele>-10.39999961853</ele>
        <time>2022-05-12T08:12:35.000Z</time>
      </trkpt>
      <trkpt lat="47.34705" lon="-2.35077">
        <ele>-10.39999961853</ele>
        <time>2022-05-12T08:12:39.000Z</time>
      </trkpt>
      <trkpt lat="47.34692" lon="-2.35055">
        <ele>-10.39999961853</ele>
        <time>2022-05-12T08:12:44.000Z</time>
      </trkpt>
      <trkpt lat="47.34679" lon="-2.35045">
        <ele>-10.39999961853</ele>
        <time>2022-05-12T08:12:48.000Z</time>
      </trkpt>
      <trkpt lat="47.34656" lon="-2.35043">
        <ele>-10.39999961853</ele>
        <time>2022-05-12T08:12:54.000Z</time>
      </trkpt>
      <trkpt lat="47.34642" lon="-2.35031">
        <ele>-10.39999961853</ele>
        <time>2022-05-12T08:12:58.000Z</time>
      </trkpt>
      <trkpt lat="47.34627" lon="-2.35003">
        <ele>-10.39999961853</ele>
        <time>2022-05-12T08:13:04.000Z</time>
      </trkpt>
      <trkpt lat="47.34623" lon="-2.34996">
        <ele>-10.39999961853</ele>
        <time>2022-05-12T08:13:05.000Z</time>
      </trkpt>
      <trkpt lat="47.34607" lon="-2.34974">
        <ele>-10.39999961853</ele>
        <time>2022-05-12T08:13:09.000Z</time>
      </trkpt>
      <trkpt lat="47.34597" lon="-2.34953">
        <ele>-10.39999961853</ele>
        <time>2022-05-12T08:13:12.000Z</time>
      </trkpt>
      <trkpt lat="47.34588" lon="-2.34931">
        <ele>-10.39999961853</ele>
        <time>2022-05-12T08:13:15.000Z</time>
      </trkpt>
      <trkpt lat="47.34578" lon="-2.3491">
        <ele>-10.39999961853</ele>
        <time>2022-05-12T08:13:19.000Z</time>
      </trkpt>
      <trkpt lat="47.34577" lon="-2.34905">
        <ele>-10.39999961853</ele>
        <time>2022-05-12T08:13:20.000Z</time>
      </trkpt>
      <trkpt lat="47.34578" lon="-2.34893">
        <ele>-10.39999961853</ele>
        <time>2022-05-12T08:13:23.000Z</time>
      </trkpt>
      <trkpt lat="47.34586" lon="-2.34869">
        <ele>-10.39999961853</ele>
        <time>2022-05-12T08:13:28.000Z</time>
      </trkpt>
      <trkpt lat="47.34607" lon="-2.34821">
        <ele>-10.39999961853</ele>
        <time>2022-05-12T08:13:34.000Z</time>
      </trkpt>
      <trkpt lat="47.34627" lon="-2.34772">
        <ele>-10.39999961853</ele>
        <time>2022-05-12T08:13:40.000Z</time>
      </trkpt>
      <trkpt lat="47.34631" lon="-2.34755">
        <ele>-10.39999961853</ele>
        <time>2022-05-12T08:13:42.000Z</time>
      </trkpt>
      <trkpt lat="47.34634" lon="-2.34729">
        <ele>-10.39999961853</ele>
        <time>2022-05-12T08:13:45.000Z</time>
      </trkpt>
      <trkpt lat="47.34634" lon="-2.34712">
        <ele>-10.39999961853</ele>
        <time>2022-05-12T08:13:47.000Z</time>
      </trkpt>
      <trkpt lat="47.34633" lon="-2.34695">
        <ele>-10.39999961853</ele>
        <time>2022-05-12T08:13:49.000Z</time>
      </trkpt>
      <trkpt lat="47.34629" lon="-2.34675">
        <ele>-10.39999961853</ele>
        <time>2022-05-12T08:13:52.000Z</time>
      </trkpt>
      <trkpt lat="47.34627" lon="-2.34661">
        <ele>-10.39999961853</ele>
        <time>2022-05-12T08:13:54.000Z</time>
      </trkpt>
      <trkpt lat="47.34623" lon="-2.34636">
        <ele>-10.39999961853</ele>
        <time>2022-05-12T08:13:58.000Z</time>
      </trkpt>
      <trkpt lat="47.34618" lon="-2.3461">
        <ele>-10</ele>
        <time>2022-05-12T08:14:03.000Z</time>
      </trkpt>
      <trkpt lat="47.34617" lon="-2.34604">
        <ele>-9.3999996185303</ele>
        <time>2022-05-12T08:14:04.000Z</time>
      </trkpt>
      <trkpt lat="47.34616" lon="-2.34599">
        <ele>-9</ele>
        <time>2022-05-12T08:14:05.000Z</time>
      </trkpt>
      <trkpt lat="47.34615" lon="-2.34594">
        <ele>-8.6000003814697</ele>
        <time>2022-05-12T08:14:06.000Z</time>
      </trkpt>
      <trkpt lat="47.34614" lon="-2.34589">
        <ele>-8.1999998092651</ele>
        <time>2022-05-12T08:14:07.000Z</time>
      </trkpt>
      <trkpt lat="47.34611" lon="-2.34568">
        <ele>-8.1999998092651</ele>
        <time>2022-05-12T08:14:11.000Z</time>
      </trkpt>
      <trkpt lat="47.34607" lon="-2.34541">
        <ele>-8.1999998092651</ele>
        <time>2022-05-12T08:14:18.000Z</time>
      </trkpt>
      <trkpt lat="47.34607" lon="-2.34533">
        <ele>-8.1999998092651</ele>
        <time>2022-05-12T08:14:20.000Z</time>
      </trkpt>
      <trkpt lat="47.34611" lon="-2.34528">
        <ele>-8.1999998092651</ele>
        <time>2022-05-12T08:14:22.000Z</time>
      </trkpt>
      <trkpt lat="47.34623" lon="-2.34524">
        <ele>-8.1999998092651</ele>
        <time>2022-05-12T08:14:25.000Z</time>
      </trkpt>
      <trkpt lat="47.34631" lon="-2.34522">
        <ele>-8.1999998092651</ele>
        <time>2022-05-12T08:14:27.000Z</time>
      </trkpt>
      <trkpt lat="47.34655" lon="-2.34516">
        <ele>-8.1999998092651</ele>
        <time>2022-05-12T08:14:33.000Z</time>
      </trkpt>
      <trkpt lat="47.34684" lon="-2.34507">
        <ele>-8.1999998092651</ele>
        <time>2022-05-12T08:14:40.000Z</time>
      </trkpt>
      <trkpt lat="47.34709" lon="-2.34495">
        <ele>-8.1999998092651</ele>
        <time>2022-05-12T08:14:47.000Z</time>
      </trkpt>
      <trkpt lat="47.34734" lon="-2.34484">
        <ele>-8.1999998092651</ele>
        <time>2022-05-12T08:14:54.000Z</time>
      </trkpt>
      <trkpt lat="47.34742" lon="-2.3448">
        <ele>-8.1999998092651</ele>
        <time>2022-05-12T08:14:56.000Z</time>
      </trkpt>
      <trkpt lat="47.34751" lon="-2.34469">
        <ele>-8.1999998092651</ele>
        <time>2022-05-12T08:14:59.000Z</time>
      </trkpt>
      <trkpt lat="47.34755" lon="-2.34457">
        <ele>-8.1999998092651</ele>
        <time>2022-05-12T08:15:02.000Z</time>
      </trkpt>
      <trkpt lat="47.34764" lon="-2.34429">
        <ele>-8.1999998092651</ele>
        <time>2022-05-12T08:15:09.000Z</time>
      </trkpt>
      <trkpt lat="47.34773" lon="-2.34408">
        <ele>-8.1999998092651</ele>
        <time>2022-05-12T08:15:17.000Z</time>
      </trkpt>
      <trkpt lat="47.3478" lon="-2.34395">
        <ele>-8.1999998092651</ele>
        <time>2022-05-12T08:15:22.000Z</time>
      </trkpt>
      <trkpt lat="47.34782" lon="-2.34386">
        <ele>-8.1999998092651</ele>
        <time>2022-05-12T08:15:26.000Z</time>
      </trkpt>
      <trkpt lat="47.34781" lon="-2.34381">
        <ele>-8.1999998092651</ele>
        <time>2022-05-12T08:15:28.000Z</time>
      </trkpt>
      <trkpt lat="47.34775" lon="-2.34373">
        <ele>-8.1999998092651</ele>
        <time>2022-05-12T08:15:32.000Z</time>
      </trkpt>
      <trkpt lat="47.34772" lon="-2.34372">
        <ele>-8.1999998092651</ele>
        <time>2022-05-12T08:15:33.000Z</time>
      </trkpt>
      <trkpt lat="47.34751" lon="-2.34374">
        <ele>-8.1999998092651</ele>
        <time>2022-05-12T08:15:40.000Z</time>
      </trkpt>
      <trkpt lat="47.34732" lon="-2.34379">
        <ele>-8.1999998092651</ele>
        <time>2022-05-12T08:15:46.000Z</time>
      </trkpt>
      <trkpt lat="47.34722" lon="-2.34375">
        <ele>-8.1999998092651</ele>
        <time>2022-05-12T08:15:50.000Z</time>
      </trkpt>
      <trkpt lat="47.34721" lon="-2.3437">
        <ele>-8.1999998092651</ele>
        <time>2022-05-12T08:15:51.000Z</time>
      </trkpt>
      <trkpt lat="47.34716" lon="-2.3434">
        <ele>-8.1999998092651</ele>
        <time>2022-05-12T08:15:56.000Z</time>
      </trkpt>
      <trkpt lat="47.3471" lon="-2.34303">
        <ele>-8.1999998092651</ele>
        <time>2022-05-12T08:16:01.000Z</time>
      </trkpt>
      <trkpt lat="47.34704" lon="-2.34263">
        <ele>-8.1999998092651</ele>
        <time>2022-05-12T08:16:07.000Z</time>
      </trkpt>
      <trkpt lat="47.34703" lon="-2.34261">
        <ele>-8.1999998092651</ele>
        <time>2022-05-12T08:16:08.000Z</time>
      </trkpt>
      <trkpt lat="47.34707" lon="-2.34259">
        <ele>-8.1999998092651</ele>
        <time>2022-05-12T08:16:10.000Z</time>
      </trkpt>
      <trkpt lat="47.34729" lon="-2.34254">
        <ele>-8.1999998092651</ele>
        <time>2022-05-12T08:16:15.000Z</time>
      </trkpt>
      <trkpt lat="47.3475" lon="-2.34249">
        <ele>-8.1999998092651</ele>
        <time>2022-05-12T08:16:21.000Z</time>
      </trkpt>
      <trkpt lat="47.34767" lon="-2.34243">
        <ele>-8.1999998092651</ele>
        <time>2022-05-12T08:16:27.000Z</time>
      </trkpt>
      <trkpt lat="47.34786" lon="-2.34239">
        <ele>-8.1999998092651</ele>
        <time>2022-05-12T08:16:33.000Z</time>
      </trkpt>
      <trkpt lat="47.34808" lon="-2.34234">
        <ele>-8.1999998092651</ele>
        <time>2022-05-12T08:16:39.000Z</time>
      </trkpt>
      <trkpt lat="47.34826" lon="-2.34232">
        <ele>-7.8000001907349</ele>
        <time>2022-05-12T08:16:44.000Z</time>
      </trkpt>
      <trkpt lat="47.3483" lon="-2.34232">
        <ele>-7.4000000953674</ele>
        <time>2022-05-12T08:16:45.000Z</time>
      </trkpt>
      <trkpt lat="47.34833" lon="-2.34232">
        <ele>-7</ele>
        <time>2022-05-12T08:16:46.000Z</time>
      </trkpt>
      <trkpt lat="47.34837" lon="-2.34232">
        <ele>-6.5999999046326</ele>
        <time>2022-05-12T08:16:47.000Z</time>
      </trkpt>
      <trkpt lat="47.3484" lon="-2.34231">
        <ele>-6.1999998092651</ele>
        <time>2022-05-12T08:16:48.000Z</time>
      </trkpt>
      <trkpt lat="47.3485" lon="-2.34234">
        <ele>-6.1999998092651</ele>
        <time>2022-05-12T08:16:51.000Z</time>
      </trkpt>
      <trkpt lat="47.34853" lon="-2.34235">
        <ele>-5.8000001907349</ele>
        <time>2022-05-12T08:16:52.000Z</time>
      </trkpt>
      <trkpt lat="47.34855" lon="-2.34237">
        <ele>-4.8000001907349</ele>
        <time>2022-05-12T08:16:53.000Z</time>
      </trkpt>
      <trkpt lat="47.34857" lon="-2.34238">
        <ele>-4.4000000953674</ele>
        <time>2022-05-12T08:16:54.000Z</time>
      </trkpt>
      <trkpt lat="47.34859" lon="-2.34238">
        <ele>-4</ele>
        <time>2022-05-12T08:16:55.000Z</time>
      </trkpt>
      <trkpt lat="47.34861" lon="-2.34237">
        <ele>-4</ele>
        <time>2022-05-12T08:16:56.000Z</time>
      </trkpt>
      <trkpt lat="47.34862" lon="-2.34235">
        <ele>-3.5999999046326</ele>
        <time>2022-05-12T08:16:57.000Z</time>
      </trkpt>
      <trkpt lat="47.34864" lon="-2.34233">
        <ele>-3.2000000476837</ele>
        <time>2022-05-12T08:16:58.000Z</time>
      </trkpt>
      <trkpt lat="47.34867" lon="-2.34231">
        <ele>-2.7999999523163</ele>
        <time>2022-05-12T08:16:59.000Z</time>
      </trkpt>
      <trkpt lat="47.34869" lon="-2.34228">
        <ele>-2.4000000953674</ele>
        <time>2022-05-12T08:17:00.000Z</time>
      </trkpt>
      <trkpt lat="47.3487" lon="-2.34225">
        <ele>-2</ele>
        <time>2022-05-12T08:17:01.000Z</time>
      </trkpt>
      <trkpt lat="47.34872" lon="-2.34223">
        <ele>-2</ele>
        <time>2022-05-12T08:17:02.000Z</time>
      </trkpt>
      <trkpt lat="47.34877" lon="-2.34215">
        <ele>-1.6000000238419</ele>
        <time>2022-05-12T08:17:05.000Z</time>
      </trkpt>
      <trkpt lat="47.34878" lon="-2.34212">
        <ele>-1.2000000476837</ele>
        <time>2022-05-12T08:17:06.000Z</time>
      </trkpt>
      <trkpt lat="47.34879" lon="-2.34211">
        <ele>-0.80000001192093</ele>
        <time>2022-05-12T08:17:07.000Z</time>
      </trkpt>
      <trkpt lat="47.34881" lon="-2.34211">
        <ele>-0.40000000596046</ele>
        <time>2022-05-12T08:17:08.000Z</time>
      </trkpt>
      <trkpt lat="47.34882" lon="-2.3421">
        <ele>25.4</ele>
        <time>2022-05-12T08:17:09.000Z</time>
      </trkpt>
      <trkpt lat="47.34887" lon="-2.34209">
        <ele>25.8</ele>
        <time>2022-05-12T08:17:13.000Z</time>
      </trkpt>
      <trkpt lat="47.34896" lon="-2.34204">
        <ele>2</ele>
        <time>2022-05-12T08:29:38.000Z</time>
      </trkpt>
      <trkpt lat="47.34901" lon="-2.34205">
        <ele>2</ele>
        <time>2022-05-12T08:29:40.000Z</time>
      </trkpt>
      <trkpt lat="47.34908" lon="-2.34208">
        <ele>2</ele>
        <time>2022-05-12T08:29:42.000Z</time>
      </trkpt>
      <trkpt lat="47.34912" lon="-2.34209">
        <ele>2</ele>
        <time>2022-05-12T08:29:43.000Z</time>
      </trkpt>
      <trkpt lat="47.34917" lon="-2.34209">
        <ele>2</ele>
        <time>2022-05-12T08:29:44.000Z</time>
      </trkpt>
      <trkpt lat="47.34926" lon="-2.34209">
        <ele>1.6000000238419</ele>
        <time>2022-05-12T08:29:46.000Z</time>
      </trkpt>
      <trkpt lat="47.3493" lon="-2.34208">
        <ele>1.2000000476837</ele>
        <time>2022-05-12T08:29:47.000Z</time>
      </trkpt>
      <trkpt lat="47.34934" lon="-2.34205">
        <ele>0.80000001192093</ele>
        <time>2022-05-12T08:29:48.000Z</time>
      </trkpt>
      <trkpt lat="47.34938" lon="-2.34203">
        <ele>0.40000000596046</ele>
        <time>2022-05-12T08:29:49.000Z</time>
      </trkpt>
      <trkpt lat="47.34942" lon="-2.34201">
        <ele>21.9</ele>
        <time>2022-05-12T08:29:50.000Z</time>
      </trkpt>
      <trkpt lat="47.3495" lon="-2.34197">
        <ele>21.5</ele>
        <time>2022-05-12T08:29:52.000Z</time>
      </trkpt>
      <trkpt lat="47.34954" lon="-2.34195">
        <ele>-0.40000000596046</ele>
        <time>2022-05-12T08:29:53.000Z</time>
      </trkpt>
      <trkpt lat="47.34958" lon="-2.34195">
        <ele>-0.80000001192093</ele>
        <time>2022-05-12T08:29:54.000Z</time>
      </trkpt>
      <trkpt lat="47.34961" lon="-2.34194">
        <ele>-1.2000000476837</ele>
        <time>2022-05-12T08:29:55.000Z</time>
      </trkpt>
      <trkpt lat="47.34963" lon="-2.34193">
        <ele>-1.6000000238419</ele>
        <time>2022-05-12T08:29:56.000Z</time>
      </trkpt>
      <trkpt lat="47.34965" lon="-2.34192">
        <ele>-2</ele>
        <time>2022-05-12T08:29:57.000Z</time>
      </trkpt>
      <trkpt lat="47.34967" lon="-2.34191">
        <ele>-2</ele>
        <time>2022-05-12T08:29:58.000Z</time>
      </trkpt>
      <trkpt lat="47.34969" lon="-2.34189">
        <ele>-2</ele>
        <time>2022-05-12T08:29:59.000Z</time>
      </trkpt>
      <trkpt lat="47.34975" lon="-2.34183">
        <ele>-2.4000000953674</ele>
        <time>2022-05-12T08:30:04.000Z</time>
      </trkpt>
      <trkpt lat="47.34976" lon="-2.34181">
        <ele>-3</ele>
        <time>2022-05-12T08:30:05.000Z</time>
      </trkpt>
      <trkpt lat="47.34977" lon="-2.34179">
        <ele>-3.4000000953674</ele>
        <time>2022-05-12T08:30:06.000Z</time>
      </trkpt>
      <trkpt lat="47.34977" lon="-2.34178">
        <ele>-3.7999999523163</ele>
        <time>2022-05-12T08:30:07.000Z</time>
      </trkpt>
      <trkpt lat="47.34978" lon="-2.34178">
        <ele>-4.1999998092651</ele>
        <time>2022-05-12T08:30:08.000Z</time>
      </trkpt>
      <trkpt lat="47.34979" lon="-2.34177">
        <ele>-4.1999998092651</ele>
        <time>2022-05-12T08:30:09.000Z</time>
      </trkpt>
      <trkpt lat="47.34979" lon="-2.34177">
        <ele>-4.1999998092651</ele>
        <time>2022-05-12T08:30:10.000Z</time>
      </trkpt>
      <trkpt lat="47.34982" lon="-2.34172">
        <ele>-4.1999998092651</ele>
        <time>2022-05-12T08:31:12.000Z</time>
      </trkpt>
      <trkpt lat="47.34984" lon="-2.34166">
        <ele>-4.1999998092651</ele>
        <time>2022-05-12T08:31:14.000Z</time>
      </trkpt>
      <trkpt lat="47.34992" lon="-2.34152">
        <ele>-4.5999999046326</ele>
        <time>2022-05-12T08:31:18.000Z</time>
      </trkpt>
      <trkpt lat="47.34995" lon="-2.34148">
        <ele>-5</ele>
        <time>2022-05-12T08:31:19.000Z</time>
      </trkpt>
      <trkpt lat="47.34998" lon="-2.34144">
        <ele>-5.4000000953674</ele>
        <time>2022-05-12T08:31:20.000Z</time>
      </trkpt>
      <trkpt lat="47.35001" lon="-2.34141">
        <ele>-5.8000001907349</ele>
        <time>2022-05-12T08:31:21.000Z</time>
      </trkpt>
      <trkpt lat="47.35004" lon="-2.34138">
        <ele>-6.1999998092651</ele>
        <time>2022-05-12T08:31:22.000Z</time>
      </trkpt>
      <trkpt lat="47.35006" lon="-2.34135">
        <ele>-6.1999998092651</ele>
        <time>2022-05-12T08:31:23.000Z</time>
      </trkpt>
      <trkpt lat="47.35013" lon="-2.34127">
        <ele>-6.1999998092651</ele>
        <time>2022-05-12T08:31:28.000Z</time>
      </trkpt>
      <trkpt lat="47.35016" lon="-2.34128">
        <ele>-6.1999998092651</ele>
        <time>2022-05-12T08:31:31.000Z</time>
      </trkpt>
      <trkpt lat="47.35019" lon="-2.3413">
        <ele>-6.1999998092651</ele>
        <time>2022-05-12T08:31:33.000Z</time>
      </trkpt>
      <trkpt lat="47.35025" lon="-2.3413">
        <ele>-6.1999998092651</ele>
        <time>2022-05-12T08:31:37.000Z</time>
      </trkpt>
      <trkpt lat="47.35029" lon="-2.34129">
        <ele>-6.1999998092651</ele>
        <time>2022-05-12T08:31:40.000Z</time>
      </trkpt>
      <trkpt lat="47.35027" lon="-2.34132">
        <ele>-6.1999998092651</ele>
        <time>2022-05-12T08:31:44.000Z</time>
      </trkpt>
      <trkpt lat="47.35026" lon="-2.34132">
        <ele>-6.1999998092651</ele>
        <time>2022-05-12T08:31:45.000Z</time>
      </trkpt>
      <trkpt lat="47.3502" lon="-2.34129">
        <ele>-6.1999998092651</ele>
        <time>2022-05-12T08:31:50.000Z</time>
      </trkpt>
      <trkpt lat="47.35019" lon="-2.34126">
        <ele>-6.1999998092651</ele>
        <time>2022-05-12T08:31:51.000Z</time>
      </trkpt>
      <trkpt lat="47.35019" lon="-2.34117">
        <ele>-6.1999998092651</ele>
        <time>2022-05-12T08:31:53.000Z</time>
      </trkpt>
      <trkpt lat="47.3502" lon="-2.34107">
        <ele>-6.1999998092651</ele>
        <time>2022-05-12T08:31:55.000Z</time>
      </trkpt>
      <trkpt lat="47.35022" lon="-2.34083">
        <ele>-6.1999998092651</ele>
        <time>2022-05-12T08:31:59.000Z</time>
      </trkpt>
      <trkpt lat="47.35027" lon="-2.34034">
        <ele>-6.5999999046326</ele>
        <time>2022-05-12T08:32:06.000Z</time>
      </trkpt>
      <trkpt lat="47.35028" lon="-2.34025">
        <ele>-7.5999999046326</ele>
        <time>2022-05-12T08:32:07.000Z</time>
      </trkpt>
      <trkpt lat="47.35029" lon="-2.34017">
        <ele>-8</ele>
        <time>2022-05-12T08:32:08.000Z</time>
      </trkpt>
      <trkpt lat="47.3503" lon="-2.34007">
        <ele>-8.3999996185303</ele>
        <time>2022-05-12T08:32:09.000Z</time>
      </trkpt>
      <trkpt lat="47.35037" lon="-2.3397">
        <ele>-8.8000001907349</ele>
        <time>2022-05-12T08:32:13.000Z</time>
      </trkpt>
      <trkpt lat="47.35039" lon="-2.3396">
        <ele>-9.1999998092651</ele>
        <time>2022-05-12T08:32:14.000Z</time>
      </trkpt>
      <trkpt lat="47.35041" lon="-2.33951">
        <ele>-9.6000003814697</ele>
        <time>2022-05-12T08:32:15.000Z</time>
      </trkpt>
      <trkpt lat="47.35042" lon="-2.33941">
        <ele>-10</ele>
        <time>2022-05-12T08:32:16.000Z</time>
      </trkpt>
      <trkpt lat="47.35044" lon="-2.33931">
        <ele>-10.39999961853</ele>
        <time>2022-05-12T08:32:17.000Z</time>
      </trkpt>
      <trkpt lat="47.35047" lon="-2.33902">
        <ele>-10.39999961853</ele>
        <time>2022-05-12T08:32:20.000Z</time>
      </trkpt>
      <trkpt lat="47.35048" lon="-2.33893">
        <ele>-10.800000190735</ele>
        <time>2022-05-12T08:32:21.000Z</time>
      </trkpt>
      <trkpt lat="47.35049" lon="-2.33885">
        <ele>-11.39999961853</ele>
        <time>2022-05-12T08:32:22.000Z</time>
      </trkpt>
      <trkpt lat="47.35051" lon="-2.33876">
        <ele>-11.800000190735</ele>
        <time>2022-05-12T08:32:23.000Z</time>
      </trkpt>
      <trkpt lat="47.35052" lon="-2.33869">
        <ele>-12.199999809265</ele>
        <time>2022-05-12T08:32:24.000Z</time>
      </trkpt>
      <trkpt lat="47.35054" lon="-2.33861">
        <ele>-12.60000038147</ele>
        <time>2022-05-12T08:32:25.000Z</time>
      </trkpt>
      <trkpt lat="47.35056" lon="-2.33856">
        <ele>-12.60000038147</ele>
        <time>2022-05-12T08:32:26.000Z</time>
      </trkpt>
      <trkpt lat="47.35057" lon="-2.33846">
        <ele>-13</ele>
        <time>2022-05-12T08:32:28.000Z</time>
      </trkpt>
      <trkpt lat="47.35054" lon="-2.33842">
        <ele>-13.39999961853</ele>
        <time>2022-05-12T08:32:29.000Z</time>
      </trkpt>
      <trkpt lat="47.35051" lon="-2.33839">
        <ele>-14</ele>
        <time>2022-05-12T08:32:30.000Z</time>
      </trkpt>
      <trkpt lat="47.35047" lon="-2.33835">
        <ele>-14.39999961853</ele>
        <time>2022-05-12T08:32:31.000Z</time>
      </trkpt>
      <trkpt lat="47.35043" lon="-2.33831">
        <ele>-14.800000190735</ele>
        <time>2022-05-12T08:32:32.000Z</time>
      </trkpt>
      <trkpt lat="47.35039" lon="-2.33827">
        <ele>-14.800000190735</ele>
        <time>2022-05-12T08:32:33.000Z</time>
      </trkpt>
      <trkpt lat="47.35006" lon="-2.33796">
        <ele>-14.800000190735</ele>
        <time>2022-05-12T08:32:40.000Z</time>
      </trkpt>
      <trkpt lat="47.34986" lon="-2.33776">
        <ele>-15.199999809265</ele>
        <time>2022-05-12T08:32:44.000Z</time>
      </trkpt>
      <trkpt lat="47.34981" lon="-2.3377">
        <ele>-15.60000038147</ele>
        <time>2022-05-12T08:32:45.000Z</time>
      </trkpt>
      <trkpt lat="47.34976" lon="-2.33765">
        <ele>-16</ele>
        <time>2022-05-12T08:32:46.000Z</time>
      </trkpt>
      <trkpt lat="47.34971" lon="-2.3376">
        <ele>-16.39999961853</ele>
        <time>2022-05-12T08:32:47.000Z</time>
      </trkpt>
      <trkpt lat="47.34966" lon="-2.33755">
        <ele>-16.799999237061</ele>
        <time>2022-05-12T08:32:48.000Z</time>
      </trkpt>
      <trkpt lat="47.34959" lon="-2.33748">
        <ele>-16.799999237061</ele>
        <time>2022-05-12T08:32:50.000Z</time>
      </trkpt>
      <trkpt lat="47.34957" lon="-2.33746">
        <ele>-16.799999237061</ele>
        <time>2022-05-12T08:32:51.000Z</time>
      </trkpt>
      <trkpt lat="47.34955" lon="-2.33739">
        <ele>-16.799999237061</ele>
        <time>2022-05-12T08:32:52.000Z</time>
      </trkpt>
      <trkpt lat="47.34956" lon="-2.33732">
        <ele>-16.799999237061</ele>
        <time>2022-05-12T08:32:53.000Z</time>
      </trkpt>
      <trkpt lat="47.34961" lon="-2.33699">
        <ele>-16.799999237061</ele>
        <time>2022-05-12T08:32:57.000Z</time>
      </trkpt>
      <trkpt lat="47.3497" lon="-2.33637">
        <ele>-16.799999237061</ele>
        <time>2022-05-12T08:33:04.000Z</time>
      </trkpt>
      <trkpt lat="47.34982" lon="-2.33574">
        <ele>-16.799999237061</ele>
        <time>2022-05-12T08:33:11.000Z</time>
      </trkpt>
      <trkpt lat="47.34999" lon="-2.33526">
        <ele>-16.799999237061</ele>
        <time>2022-05-12T08:33:17.000Z</time>
      </trkpt>
      <trkpt lat="47.35024" lon="-2.33478">
        <ele>-16.799999237061</ele>
        <time>2022-05-12T08:33:24.000Z</time>
      </trkpt>
      <trkpt lat="47.35049" lon="-2.33434">
        <ele>-16.799999237061</ele>
        <time>2022-05-12T08:33:31.000Z</time>
      </trkpt>
      <trkpt lat="47.35068" lon="-2.33393">
        <ele>-16.799999237061</ele>
        <time>2022-05-12T08:33:38.000Z</time>
      </trkpt>
      <trkpt lat="47.35074" lon="-2.33383">
        <ele>-16.799999237061</ele>
        <time>2022-05-12T08:33:40.000Z</time>
      </trkpt>
      <trkpt lat="47.35082" lon="-2.33365">
        <ele>-16.799999237061</ele>
        <time>2022-05-12T08:33:43.000Z</time>
      </trkpt>
      <trkpt lat="47.35106" lon="-2.3332">
        <ele>-16.799999237061</ele>
        <time>2022-05-12T08:33:50.000Z</time>
      </trkpt>
      <trkpt lat="47.35126" lon="-2.33279">
        <ele>-16.799999237061</ele>
        <time>2022-05-12T08:33:56.000Z</time>
      </trkpt>
      <trkpt lat="47.35153" lon="-2.33233">
        <ele>-16.799999237061</ele>
        <time>2022-05-12T08:34:03.000Z</time>
      </trkpt>
      <trkpt lat="47.35179" lon="-2.33201">
        <ele>-16.799999237061</ele>
        <time>2022-05-12T08:34:08.000Z</time>
      </trkpt>
      <trkpt lat="47.3519" lon="-2.33188">
        <ele>-16.799999237061</ele>
        <time>2022-05-12T08:34:10.000Z</time>
      </trkpt>
      <trkpt lat="47.35231" lon="-2.33142">
        <ele>-16.799999237061</ele>
        <time>2022-05-12T08:34:17.000Z</time>
      </trkpt>
      <trkpt lat="47.35268" lon="-2.33102">
        <ele>-16.799999237061</ele>
        <time>2022-05-12T08:34:24.000Z</time>
      </trkpt>
      <trkpt lat="47.35293" lon="-2.33067">
        <ele>-16.799999237061</ele>
        <time>2022-05-12T08:34:29.000Z</time>
      </trkpt>
      <trkpt lat="47.35306" lon="-2.3304">
        <ele>-16.799999237061</ele>
        <time>2022-05-12T08:34:32.000Z</time>
      </trkpt>
      <trkpt lat="47.35308" lon="-2.3303">
        <ele>-16.799999237061</ele>
        <time>2022-05-12T08:34:33.000Z</time>
      </trkpt>
      <trkpt lat="47.3531" lon="-2.3299">
        <ele>-16.799999237061</ele>
        <time>2022-05-12T08:34:37.000Z</time>
      </trkpt>
      <trkpt lat="47.3531" lon="-2.32981">
        <ele>-16.799999237061</ele>
        <time>2022-05-12T08:34:38.000Z</time>
      </trkpt>
      <trkpt lat="47.35311" lon="-2.32934">
        <ele>-16.799999237061</ele>
        <time>2022-05-12T08:34:43.000Z</time>
      </trkpt>
      <trkpt lat="47.35314" lon="-2.32907">
        <ele>-16.39999961853</ele>
        <time>2022-05-12T08:34:46.000Z</time>
      </trkpt>
      <trkpt lat="47.35316" lon="-2.32899">
        <ele>-16</ele>
        <time>2022-05-12T08:34:47.000Z</time>
      </trkpt>
      <trkpt lat="47.35319" lon="-2.32891">
        <ele>-15.60000038147</ele>
        <time>2022-05-12T08:34:48.000Z</time>
      </trkpt>
      <trkpt lat="47.35322" lon="-2.32883">
        <ele>-15.199999809265</ele>
        <time>2022-05-12T08:34:49.000Z</time>
      </trkpt>
      <trkpt lat="47.35326" lon="-2.32876">
        <ele>-14.800000190735</ele>
        <time>2022-05-12T08:34:50.000Z</time>
      </trkpt>
      <trkpt lat="47.35333" lon="-2.32864">
        <ele>-14.800000190735</ele>
        <time>2022-05-12T08:34:52.000Z</time>
      </trkpt>
      <trkpt lat="47.35337" lon="-2.32857">
        <ele>-14.800000190735</ele>
        <time>2022-05-12T08:34:53.000Z</time>
      </trkpt>
      <trkpt lat="47.35363" lon="-2.32827">
        <ele>-14.800000190735</ele>
        <time>2022-05-12T08:34:58.000Z</time>
      </trkpt>
      <trkpt lat="47.35369" lon="-2.32822">
        <ele>-14.800000190735</ele>
        <time>2022-05-12T08:34:59.000Z</time>
      </trkpt>
      <trkpt lat="47.35382" lon="-2.32809">
        <ele>-14.800000190735</ele>
        <time>2022-05-12T08:35:01.000Z</time>
      </trkpt>
      <trkpt lat="47.35413" lon="-2.32774">
        <ele>-14.800000190735</ele>
        <time>2022-05-12T08:35:06.000Z</time>
      </trkpt>
      <trkpt lat="47.35418" lon="-2.32766">
        <ele>-14.800000190735</ele>
        <time>2022-05-12T08:35:07.000Z</time>
      </trkpt>
      <trkpt lat="47.35445" lon="-2.32714">
        <ele>-14.800000190735</ele>
        <time>2022-05-12T08:35:11.000Z</time>
      </trkpt>
      <trkpt lat="47.35461" lon="-2.32666">
        <ele>-14.800000190735</ele>
        <time>2022-05-12T08:35:18.000Z</time>
      </trkpt>
      <trkpt lat="47.35462" lon="-2.32656">
        <ele>-14.800000190735</ele>
        <time>2022-05-12T08:35:19.000Z</time>
      </trkpt>
      <trkpt lat="47.35472" lon="-2.32583">
        <ele>-14.800000190735</ele>
        <time>2022-05-12T08:35:26.000Z</time>
      </trkpt>
      <trkpt lat="47.35478" lon="-2.32561">
        <ele>-15.199999809265</ele>
        <time>2022-05-12T08:35:28.000Z</time>
      </trkpt>
      <trkpt lat="47.35482" lon="-2.32551">
        <ele>-15.60000038147</ele>
        <time>2022-05-12T08:35:29.000Z</time>
      </trkpt>
      <trkpt lat="47.35486" lon="-2.3254">
        <ele>-16</ele>
        <time>2022-05-12T08:35:30.000Z</time>
      </trkpt>
      <trkpt lat="47.35491" lon="-2.32531">
        <ele>-16.39999961853</ele>
        <time>2022-05-12T08:35:31.000Z</time>
      </trkpt>
      <trkpt lat="47.35496" lon="-2.32522">
        <ele>-16.799999237061</ele>
        <time>2022-05-12T08:35:32.000Z</time>
      </trkpt>
      <trkpt lat="47.35525" lon="-2.32463">
        <ele>-16.799999237061</ele>
        <time>2022-05-12T08:35:39.000Z</time>
      </trkpt>
      <trkpt lat="47.35534" lon="-2.32446">
        <ele>-17.39999961853</ele>
        <time>2022-05-12T08:35:41.000Z</time>
      </trkpt>
      <trkpt lat="47.35539" lon="-2.32437">
        <ele>-17.799999237061</ele>
        <time>2022-05-12T08:35:42.000Z</time>
      </trkpt>
      <trkpt lat="47.35543" lon="-2.32428">
        <ele>-18.200000762939</ele>
        <time>2022-05-12T08:35:43.000Z</time>
      </trkpt>
      <trkpt lat="47.35547" lon="-2.3242">
        <ele>-18.60000038147</ele>
        <time>2022-05-12T08:35:44.000Z</time>
      </trkpt>
      <trkpt lat="47.35552" lon="-2.32411">
        <ele>-19</ele>
        <time>2022-05-12T08:35:45.000Z</time>
      </trkpt>
      <trkpt lat="47.35585" lon="-2.32349">
        <ele>-19</ele>
        <time>2022-05-12T08:35:53.000Z</time>
      </trkpt>
      <trkpt lat="47.35608" lon="-2.32302">
        <ele>-19</ele>
        <time>2022-05-12T08:36:00.000Z</time>
      </trkpt>
      <trkpt lat="47.35621" lon="-2.32277">
        <ele>-19</ele>
        <time>2022-05-12T08:36:03.000Z</time>
      </trkpt>
      <trkpt lat="47.35626" lon="-2.3227">
        <ele>-19</ele>
        <time>2022-05-12T08:36:04.000Z</time>
      </trkpt>
      <trkpt lat="47.35653" lon="-2.32214">
        <ele>-19</ele>
        <time>2022-05-12T08:36:11.000Z</time>
      </trkpt>
      <trkpt lat="47.35669" lon="-2.32182">
        <ele>-19</ele>
        <time>2022-05-12T08:36:16.000Z</time>
      </trkpt>
      <trkpt lat="47.35674" lon="-2.3217">
        <ele>-19.39999961853</ele>
        <time>2022-05-12T08:36:18.000Z</time>
      </trkpt>
      <trkpt lat="47.35678" lon="-2.32165">
        <ele>-19.799999237061</ele>
        <time>2022-05-12T08:36:19.000Z</time>
      </trkpt>
      <trkpt lat="47.35682" lon="-2.32159">
        <ele>-20.200000762939</ele>
        <time>2022-05-12T08:36:20.000Z</time>
      </trkpt>
      <trkpt lat="47.35686" lon="-2.32153">
        <ele>-20.799999237061</ele>
        <time>2022-05-12T08:36:21.000Z</time>
      </trkpt>
      <trkpt lat="47.35691" lon="-2.32146">
        <ele>-21.200000762939</ele>
        <time>2022-05-12T08:36:22.000Z</time>
      </trkpt>
      <trkpt lat="47.35713" lon="-2.32111">
        <ele>-21.200000762939</ele>
        <time>2022-05-12T08:36:27.000Z</time>
      </trkpt>
      <trkpt lat="47.35724" lon="-2.3209">
        <ele>-21.200000762939</ele>
        <time>2022-05-12T08:36:30.000Z</time>
      </trkpt>
      <trkpt lat="47.35737" lon="-2.32065">
        <ele>-21.200000762939</ele>
        <time>2022-05-12T08:36:33.000Z</time>
      </trkpt>
      <trkpt lat="47.35763" lon="-2.32019">
        <ele>-21.200000762939</ele>
        <time>2022-05-12T08:36:39.000Z</time>
      </trkpt>
      <trkpt lat="47.35794" lon="-2.31964">
        <ele>-21.200000762939</ele>
        <time>2022-05-12T08:36:46.000Z</time>
      </trkpt>
      <trkpt lat="47.35829" lon="-2.31907">
        <ele>-21.200000762939</ele>
        <time>2022-05-12T08:36:54.000Z</time>
      </trkpt>
      <trkpt lat="47.35865" lon="-2.31844">
        <ele>-21.200000762939</ele>
        <time>2022-05-12T08:37:03.000Z</time>
      </trkpt>
      <trkpt lat="47.35898" lon="-2.31785">
        <ele>-21.200000762939</ele>
        <time>2022-05-12T08:37:11.000Z</time>
      </trkpt>
      <trkpt lat="47.35926" lon="-2.31739">
        <ele>-21.200000762939</ele>
        <time>2022-05-12T08:37:18.000Z</time>
      </trkpt>
      <trkpt lat="47.3595" lon="-2.31693">
        <ele>-21.200000762939</ele>
        <time>2022-05-12T08:37:25.000Z</time>
      </trkpt>
      <trkpt lat="47.35975" lon="-2.31649">
        <ele>-21.200000762939</ele>
        <time>2022-05-12T08:37:31.000Z</time>
      </trkpt>
      <trkpt lat="47.35987" lon="-2.31629">
        <ele>-20.60000038147</ele>
        <time>2022-05-12T08:37:34.000Z</time>
      </trkpt>
      <trkpt lat="47.35991" lon="-2.31623">
        <ele>-20.200000762939</ele>
        <time>2022-05-12T08:37:35.000Z</time>
      </trkpt>
      <trkpt lat="47.35994" lon="-2.31617">
        <ele>-19.799999237061</ele>
        <time>2022-05-12T08:37:36.000Z</time>
      </trkpt>
      <trkpt lat="47.35997" lon="-2.3161">
        <ele>-19.39999961853</ele>
        <time>2022-05-12T08:37:37.000Z</time>
      </trkpt>
      <trkpt lat="47.36" lon="-2.31604">
        <ele>-19</ele>
        <time>2022-05-12T08:37:38.000Z</time>
      </trkpt>
      <trkpt lat="47.36021" lon="-2.31568">
        <ele>-19</ele>
        <time>2022-05-12T08:37:44.000Z</time>
      </trkpt>
      <trkpt lat="47.36049" lon="-2.31519">
        <ele>-19</ele>
        <time>2022-05-12T08:37:53.000Z</time>
      </trkpt>
      <trkpt lat="47.3606" lon="-2.31496">
        <ele>-19</ele>
        <time>2022-05-12T08:37:57.000Z</time>
      </trkpt>
      <trkpt lat="47.36062" lon="-2.31489">
        <ele>-19</ele>
        <time>2022-05-12T08:37:58.000Z</time>
      </trkpt>
      <trkpt lat="47.36066" lon="-2.31465">
        <ele>-19</ele>
        <time>2022-05-12T08:38:01.000Z</time>
      </trkpt>
      <trkpt lat="47.36066" lon="-2.31449">
        <ele>-19</ele>
        <time>2022-05-12T08:38:03.000Z</time>
      </trkpt>
      <trkpt lat="47.36065" lon="-2.31431">
        <ele>-19</ele>
        <time>2022-05-12T08:38:05.000Z</time>
      </trkpt>
      <trkpt lat="47.3606" lon="-2.31397">
        <ele>-19</ele>
        <time>2022-05-12T08:38:09.000Z</time>
      </trkpt>
      <trkpt lat="47.36056" lon="-2.31371">
        <ele>-19</ele>
        <time>2022-05-12T08:38:12.000Z</time>
      </trkpt>
      <trkpt lat="47.36061" lon="-2.31348">
        <ele>-19</ele>
        <time>2022-05-12T08:38:15.000Z</time>
      </trkpt>
      <trkpt lat="47.36071" lon="-2.31344">
        <ele>-19</ele>
        <time>2022-05-12T08:38:17.000Z</time>
      </trkpt>
      <trkpt lat="47.36087" lon="-2.31349">
        <ele>-19</ele>
        <time>2022-05-12T08:38:20.000Z</time>
      </trkpt>
      <trkpt lat="47.36092" lon="-2.31351">
        <ele>-19</ele>
        <time>2022-05-12T08:38:21.000Z</time>
      </trkpt>
      <trkpt lat="47.36105" lon="-2.3136">
        <ele>-19</ele>
        <time>2022-05-12T08:38:24.000Z</time>
      </trkpt>
      <trkpt lat="47.36114" lon="-2.31368">
        <ele>-19</ele>
        <time>2022-05-12T08:38:26.000Z</time>
      </trkpt>
      <trkpt lat="47.36138" lon="-2.31403">
        <ele>-19</ele>
        <time>2022-05-12T08:38:33.000Z</time>
      </trkpt>
      <trkpt lat="47.36141" lon="-2.31409">
        <ele>-19</ele>
        <time>2022-05-12T08:38:34.000Z</time>
      </trkpt>
      <trkpt lat="47.36152" lon="-2.31427">
        <ele>-19</ele>
        <time>2022-05-12T08:38:37.000Z</time>
      </trkpt>
      <trkpt lat="47.36155" lon="-2.31433">
        <ele>-19</ele>
        <time>2022-05-12T08:38:38.000Z</time>
      </trkpt>
      <trkpt lat="47.36174" lon="-2.31476">
        <ele>-19</ele>
        <time>2022-05-12T08:38:44.000Z</time>
      </trkpt>
      <trkpt lat="47.36181" lon="-2.31518">
        <ele>-19</ele>
        <time>2022-05-12T08:38:49.000Z</time>
      </trkpt>
      <trkpt lat="47.36191" lon="-2.31584">
        <ele>-19</ele>
        <time>2022-05-12T08:38:57.000Z</time>
      </trkpt>
      <trkpt lat="47.36199" lon="-2.31649">
        <ele>-19</ele>
        <time>2022-05-12T08:39:04.000Z</time>
      </trkpt>
      <trkpt lat="47.36205" lon="-2.31694">
        <ele>-19</ele>
        <time>2022-05-12T08:39:09.000Z</time>
      </trkpt>
      <trkpt lat="47.36215" lon="-2.3177">
        <ele>-19</ele>
        <time>2022-05-12T08:39:17.000Z</time>
      </trkpt>
      <trkpt lat="47.36225" lon="-2.31837">
        <ele>-19</ele>
        <time>2022-05-12T08:39:24.000Z</time>
      </trkpt>
      <trkpt lat="47.36234" lon="-2.31905">
        <ele>-19</ele>
        <time>2022-05-12T08:39:31.000Z</time>
      </trkpt>
      <trkpt lat="47.36241" lon="-2.31959">
        <ele>-19</ele>
        <time>2022-05-12T08:39:37.000Z</time>
      </trkpt>
      <trkpt lat="47.36248" lon="-2.32002">
        <ele>-19</ele>
        <time>2022-05-12T08:39:42.000Z</time>
      </trkpt>
      <trkpt lat="47.36255" lon="-2.32055">
        <ele>-19</ele>
        <time>2022-05-12T08:39:48.000Z</time>
      </trkpt>
      <trkpt lat="47.36262" lon="-2.32107">
        <ele>-19</ele>
        <time>2022-05-12T08:39:54.000Z</time>
      </trkpt>
      <trkpt lat="47.36266" lon="-2.32143">
        <ele>-19</ele>
        <time>2022-05-12T08:39:58.000Z</time>
      </trkpt>
      <trkpt lat="47.36267" lon="-2.32152">
        <ele>-18.60000038147</ele>
        <time>2022-05-12T08:39:59.000Z</time>
      </trkpt>
      <trkpt lat="47.36268" lon="-2.3216">
        <ele>-18.200000762939</ele>
        <time>2022-05-12T08:40:00.000Z</time>
      </trkpt>
      <trkpt lat="47.36269" lon="-2.32169">
        <ele>-17.799999237061</ele>
        <time>2022-05-12T08:40:01.000Z</time>
      </trkpt>
      <trkpt lat="47.3627" lon="-2.32178">
        <ele>-17.200000762939</ele>
        <time>2022-05-12T08:40:02.000Z</time>
      </trkpt>
      <trkpt lat="47.36271" lon="-2.32187">
        <ele>-16.799999237061</ele>
        <time>2022-05-12T08:40:03.000Z</time>
      </trkpt>
      <trkpt lat="47.36276" lon="-2.32233">
        <ele>-16.799999237061</ele>
        <time>2022-05-12T08:40:08.000Z</time>
      </trkpt>
      <trkpt lat="47.3628" lon="-2.32252">
        <ele>-16.799999237061</ele>
        <time>2022-05-12T08:40:10.000Z</time>
      </trkpt>
      <trkpt lat="47.36284" lon="-2.3228">
        <ele>-16.799999237061</ele>
        <time>2022-05-12T08:40:13.000Z</time>
      </trkpt>
      <trkpt lat="47.36289" lon="-2.32322">
        <ele>-16.799999237061</ele>
        <time>2022-05-12T08:40:18.000Z</time>
      </trkpt>
      <trkpt lat="47.36291" lon="-2.32329">
        <ele>-16.799999237061</ele>
        <time>2022-05-12T08:40:19.000Z</time>
      </trkpt>
      <trkpt lat="47.36291" lon="-2.32335">
        <ele>-16.799999237061</ele>
        <time>2022-05-12T08:40:20.000Z</time>
      </trkpt>
      <trkpt lat="47.36286" lon="-2.32346">
        <ele>-16.799999237061</ele>
        <time>2022-05-12T08:40:22.000Z</time>
      </trkpt>
      <trkpt lat="47.36273" lon="-2.32353">
        <ele>-16.799999237061</ele>
        <time>2022-05-12T08:40:25.000Z</time>
      </trkpt>
      <trkpt lat="47.36261" lon="-2.32355">
        <ele>-16.799999237061</ele>
        <time>2022-05-12T08:40:27.000Z</time>
      </trkpt>
      <trkpt lat="47.36245" lon="-2.32356">
        <ele>-16.799999237061</ele>
        <time>2022-05-12T08:40:30.000Z</time>
      </trkpt>
      <trkpt lat="47.36206" lon="-2.32358">
        <ele>-16.799999237061</ele>
        <time>2022-05-12T08:40:36.000Z</time>
      </trkpt>
      <trkpt lat="47.36161" lon="-2.3236">
        <ele>-16.799999237061</ele>
        <time>2022-05-12T08:40:43.000Z</time>
      </trkpt>
      <trkpt lat="47.36143" lon="-2.32361">
        <ele>-16.799999237061</ele>
        <time>2022-05-12T08:40:46.000Z</time>
      </trkpt>
      <trkpt lat="47.36125" lon="-2.32365">
        <ele>-16.799999237061</ele>
        <time>2022-05-12T08:40:49.000Z</time>
      </trkpt>
      <trkpt lat="47.36119" lon="-2.32383">
        <ele>-16.799999237061</ele>
        <time>2022-05-12T08:40:52.000Z</time>
      </trkpt>
      <trkpt lat="47.36121" lon="-2.32405">
        <ele>-16.799999237061</ele>
        <time>2022-05-12T08:40:55.000Z</time>
      </trkpt>
      <trkpt lat="47.36122" lon="-2.32413">
        <ele>-16.799999237061</ele>
        <time>2022-05-12T08:40:56.000Z</time>
      </trkpt>
      <trkpt lat="47.36124" lon="-2.32455">
        <ele>-16.799999237061</ele>
        <time>2022-05-12T08:41:01.000Z</time>
      </trkpt>
      <trkpt lat="47.36123" lon="-2.32513">
        <ele>-16.799999237061</ele>
        <time>2022-05-12T08:41:08.000Z</time>
      </trkpt>
      <trkpt lat="47.36125" lon="-2.32568">
        <ele>-16.799999237061</ele>
        <time>2022-05-12T08:41:15.000Z</time>
      </trkpt>
      <trkpt lat="47.36124" lon="-2.32623">
        <ele>-16.799999237061</ele>
        <time>2022-05-12T08:41:21.000Z</time>
      </trkpt>
      <trkpt lat="47.36124" lon="-2.32633">
        <ele>-16.799999237061</ele>
        <time>2022-05-12T08:41:22.000Z</time>
      </trkpt>
      <trkpt lat="47.36124" lon="-2.32691">
        <ele>-16.799999237061</ele>
        <time>2022-05-12T08:41:28.000Z</time>
      </trkpt>
      <trkpt lat="47.36117" lon="-2.32737">
        <ele>-16.799999237061</ele>
        <time>2022-05-12T08:41:33.000Z</time>
      </trkpt>
      <trkpt lat="47.36112" lon="-2.32795">
        <ele>-16.39999961853</ele>
        <time>2022-05-12T08:41:40.000Z</time>
      </trkpt>
      <trkpt lat="47.36111" lon="-2.32804">
        <ele>-16</ele>
        <time>2022-05-12T08:41:41.000Z</time>
      </trkpt>
      <trkpt lat="47.3611" lon="-2.32812">
        <ele>-15.60000038147</ele>
        <time>2022-05-12T08:41:42.000Z</time>
      </trkpt>
      <trkpt lat="47.36109" lon="-2.3282">
        <ele>-15.199999809265</ele>
        <time>2022-05-12T08:41:43.000Z</time>
      </trkpt>
      <trkpt lat="47.36108" lon="-2.32828">
        <ele>-14.800000190735</ele>
        <time>2022-05-12T08:41:44.000Z</time>
      </trkpt>
      <trkpt lat="47.36107" lon="-2.32836">
        <ele>-14.800000190735</ele>
        <time>2022-05-12T08:41:45.000Z</time>
      </trkpt>
      <trkpt lat="47.36106" lon="-2.32845">
        <ele>-14.800000190735</ele>
        <time>2022-05-12T08:41:46.000Z</time>
      </trkpt>
      <trkpt lat="47.36101" lon="-2.32901">
        <ele>-14.800000190735</ele>
        <time>2022-05-12T08:41:52.000Z</time>
      </trkpt>
      <trkpt lat="47.36098" lon="-2.32931">
        <ele>-14.39999961853</ele>
        <time>2022-05-12T08:41:55.000Z</time>
      </trkpt>
      <trkpt lat="47.36096" lon="-2.32941">
        <ele>-14</ele>
        <time>2022-05-12T08:41:56.000Z</time>
      </trkpt>
      <trkpt lat="47.36095" lon="-2.3295">
        <ele>-13.60000038147</ele>
        <time>2022-05-12T08:41:57.000Z</time>
      </trkpt>
      <trkpt lat="47.36094" lon="-2.3296">
        <ele>-13.199999809265</ele>
        <time>2022-05-12T08:41:58.000Z</time>
      </trkpt>
      <trkpt lat="47.36094" lon="-2.3297">
        <ele>-12.800000190735</ele>
        <time>2022-05-12T08:41:59.000Z</time>
      </trkpt>
      <trkpt lat="47.3609" lon="-2.33011">
        <ele>-12.800000190735</ele>
        <time>2022-05-12T08:42:03.000Z</time>
      </trkpt>
      <trkpt lat="47.36089" lon="-2.3302">
        <ele>-12.800000190735</ele>
        <time>2022-05-12T08:42:04.000Z</time>
      </trkpt>
      <trkpt lat="47.36083" lon="-2.33077">
        <ele>-12.800000190735</ele>
        <time>2022-05-12T08:42:10.000Z</time>
      </trkpt>
      <trkpt lat="47.36078" lon="-2.33134">
        <ele>-12.800000190735</ele>
        <time>2022-05-12T08:42:16.000Z</time>
      </trkpt>
      <trkpt lat="47.3607" lon="-2.33207">
        <ele>-12.800000190735</ele>
        <time>2022-05-12T08:42:24.000Z</time>
      </trkpt>
      <trkpt lat="47.36068" lon="-2.33246">
        <ele>-12.800000190735</ele>
        <time>2022-05-12T08:42:28.000Z</time>
      </trkpt>
      <trkpt lat="47.36067" lon="-2.33255">
        <ele>-12.800000190735</ele>
        <time>2022-05-12T08:42:29.000Z</time>
      </trkpt>
      <trkpt lat="47.36066" lon="-2.33265">
        <ele>-13.199999809265</ele>
        <time>2022-05-12T08:42:30.000Z</time>
      </trkpt>
      <trkpt lat="47.36065" lon="-2.33275">
        <ele>-13.60000038147</ele>
        <time>2022-05-12T08:42:31.000Z</time>
      </trkpt>
      <trkpt lat="47.36064" lon="-2.33285">
        <ele>-14</ele>
        <time>2022-05-12T08:42:32.000Z</time>
      </trkpt>
      <trkpt lat="47.36064" lon="-2.33296">
        <ele>-14.39999961853</ele>
        <time>2022-05-12T08:42:33.000Z</time>
      </trkpt>
      <trkpt lat="47.36062" lon="-2.33307">
        <ele>-14.800000190735</ele>
        <time>2022-05-12T08:42:34.000Z</time>
      </trkpt>
      <trkpt lat="47.36061" lon="-2.33317">
        <ele>-15.199999809265</ele>
        <time>2022-05-12T08:42:35.000Z</time>
      </trkpt>
      <trkpt lat="47.3606" lon="-2.33328">
        <ele>-15.60000038147</ele>
        <time>2022-05-12T08:42:36.000Z</time>
      </trkpt>
      <trkpt lat="47.36059" lon="-2.33338">
        <ele>-16</ele>
        <time>2022-05-12T08:42:37.000Z</time>
      </trkpt>
      <trkpt lat="47.36058" lon="-2.33348">
        <ele>-16.39999961853</ele>
        <time>2022-05-12T08:42:38.000Z</time>
      </trkpt>
      <trkpt lat="47.36056" lon="-2.33358">
        <ele>-16.799999237061</ele>
        <time>2022-05-12T08:42:39.000Z</time>
      </trkpt>
      <trkpt lat="47.36055" lon="-2.33367">
        <ele>-16.799999237061</ele>
        <time>2022-05-12T08:42:40.000Z</time>
      </trkpt>
      <trkpt lat="47.36054" lon="-2.33378">
        <ele>-16.799999237061</ele>
        <time>2022-05-12T08:42:41.000Z</time>
      </trkpt>
      <trkpt lat="47.36046" lon="-2.3345">
        <ele>-16.799999237061</ele>
        <time>2022-05-12T08:42:49.000Z</time>
      </trkpt>
      <trkpt lat="47.36044" lon="-2.33462">
        <ele>-16.799999237061</ele>
        <time>2022-05-12T08:42:51.000Z</time>
      </trkpt>
      <trkpt lat="47.36037" lon="-2.33468">
        <ele>-16.799999237061</ele>
        <time>2022-05-12T08:42:53.000Z</time>
      </trkpt>
      <trkpt lat="47.36022" lon="-2.33473">
        <ele>-16.799999237061</ele>
        <time>2022-05-12T08:42:56.000Z</time>
      </trkpt>
      <trkpt lat="47.36016" lon="-2.33475">
        <ele>-16.799999237061</ele>
        <time>2022-05-12T08:42:57.000Z</time>
      </trkpt>
      <trkpt lat="47.35978" lon="-2.33487">
        <ele>-16.799999237061</ele>
        <time>2022-05-12T08:43:03.000Z</time>
      </trkpt>
      <trkpt lat="47.35934" lon="-2.33497">
        <ele>-16.799999237061</ele>
        <time>2022-05-12T08:43:10.000Z</time>
      </trkpt>
      <trkpt lat="47.35888" lon="-2.33506">
        <ele>-16.799999237061</ele>
        <time>2022-05-12T08:43:18.000Z</time>
      </trkpt>
      <trkpt lat="47.35843" lon="-2.33515">
        <ele>-16.799999237061</ele>
        <time>2022-05-12T08:43:25.000Z</time>
      </trkpt>
      <trkpt lat="47.35831" lon="-2.33517">
        <ele>-16.39999961853</ele>
        <time>2022-05-12T08:43:27.000Z</time>
      </trkpt>
      <trkpt lat="47.35825" lon="-2.33518">
        <ele>-16</ele>
        <time>2022-05-12T08:43:28.000Z</time>
      </trkpt>
      <trkpt lat="47.35818" lon="-2.3352">
        <ele>-15.60000038147</ele>
        <time>2022-05-12T08:43:29.000Z</time>
      </trkpt>
      <trkpt lat="47.35812" lon="-2.33521">
        <ele>-15.199999809265</ele>
        <time>2022-05-12T08:43:30.000Z</time>
      </trkpt>
      <trkpt lat="47.35806" lon="-2.33523">
        <ele>-14.800000190735</ele>
        <time>2022-05-12T08:43:31.000Z</time>
      </trkpt>
      <trkpt lat="47.35761" lon="-2.33534">
        <ele>-14.800000190735</ele>
        <time>2022-05-12T08:43:38.000Z</time>
      </trkpt>
      <trkpt lat="47.35721" lon="-2.33544">
        <ele>-14.800000190735</ele>
        <time>2022-05-12T08:43:44.000Z</time>
      </trkpt>
      <trkpt lat="47.35682" lon="-2.33556">
        <ele>-14.800000190735</ele>
        <time>2022-05-12T08:43:50.000Z</time>
      </trkpt>
      <trkpt lat="47.35634" lon="-2.33567">
        <ele>-14.800000190735</ele>
        <time>2022-05-12T08:43:57.000Z</time>
      </trkpt>
      <trkpt lat="47.35587" lon="-2.33582">
        <ele>-14.800000190735</ele>
        <time>2022-05-12T08:44:04.000Z</time>
      </trkpt>
      <trkpt lat="47.35553" lon="-2.33592">
        <ele>-14.800000190735</ele>
        <time>2022-05-12T08:44:09.000Z</time>
      </trkpt>
      <trkpt lat="47.35548" lon="-2.33597">
        <ele>-14.800000190735</ele>
        <time>2022-05-12T08:44:10.000Z</time>
      </trkpt>
      <trkpt lat="47.3553" lon="-2.33625">
        <ele>-14.800000190735</ele>
        <time>2022-05-12T08:44:14.000Z</time>
      </trkpt>
      <trkpt lat="47.35523" lon="-2.3364">
        <ele>-14.800000190735</ele>
        <time>2022-05-12T08:44:16.000Z</time>
      </trkpt>
      <trkpt lat="47.35512" lon="-2.33672">
        <ele>-14.800000190735</ele>
        <time>2022-05-12T08:44:20.000Z</time>
      </trkpt>
      <trkpt lat="47.35508" lon="-2.33689">
        <ele>-14.800000190735</ele>
        <time>2022-05-12T08:44:22.000Z</time>
      </trkpt>
      <trkpt lat="47.35503" lon="-2.33722">
        <ele>-14.800000190735</ele>
        <time>2022-05-12T08:44:26.000Z</time>
      </trkpt>
      <trkpt lat="47.35493" lon="-2.33777">
        <ele>-14.800000190735</ele>
        <time>2022-05-12T08:44:33.000Z</time>
      </trkpt>
      <trkpt lat="47.35491" lon="-2.33785">
        <ele>-14.800000190735</ele>
        <time>2022-05-12T08:44:34.000Z</time>
      </trkpt>
      <trkpt lat="47.35473" lon="-2.33832">
        <ele>-14</ele>
        <time>2022-05-12T08:44:40.000Z</time>
      </trkpt>
      <trkpt lat="47.35469" lon="-2.3384">
        <ele>-13.60000038147</ele>
        <time>2022-05-12T08:44:41.000Z</time>
      </trkpt>
      <trkpt lat="47.35466" lon="-2.33849">
        <ele>-13.199999809265</ele>
        <time>2022-05-12T08:44:42.000Z</time>
      </trkpt>
      <trkpt lat="47.35463" lon="-2.33858">
        <ele>-12.800000190735</ele>
        <time>2022-05-12T08:44:43.000Z</time>
      </trkpt>
      <trkpt lat="47.35451" lon="-2.33895">
        <ele>-12.800000190735</ele>
        <time>2022-05-12T08:44:48.000Z</time>
      </trkpt>
      <trkpt lat="47.35438" lon="-2.33942">
        <ele>-12.800000190735</ele>
        <time>2022-05-12T08:44:55.000Z</time>
      </trkpt>
      <trkpt lat="47.35432" lon="-2.33976">
        <ele>-12.800000190735</ele>
        <time>2022-05-12T08:45:01.000Z</time>
      </trkpt>
      <trkpt lat="47.35432" lon="-2.33986">
        <ele>-12.800000190735</ele>
        <time>2022-05-12T08:45:06.000Z</time>
      </trkpt>
      <trkpt lat="47.35432" lon="-2.33986">
        <ele>-12.800000190735</ele>
        <time>2022-05-12T08:45:08.000Z</time>
      </trkpt>
      <trkpt lat="47.35433" lon="-2.33989">
        <ele>-12.800000190735</ele>
        <time>2022-05-12T08:45:21.000Z</time>
      </trkpt>
      <trkpt lat="47.35434" lon="-2.33991">
        <ele>-12.800000190735</ele>
        <time>2022-05-12T08:45:22.000Z</time>
      </trkpt>
      <trkpt lat="47.35441" lon="-2.34009">
        <ele>-12.800000190735</ele>
        <time>2022-05-12T08:45:27.000Z</time>
      </trkpt>
      <trkpt lat="47.35449" lon="-2.34024">
        <ele>-12.800000190735</ele>
        <time>2022-05-12T08:45:30.000Z</time>
      </trkpt>
      <trkpt lat="47.35455" lon="-2.34034">
        <ele>-12.800000190735</ele>
        <time>2022-05-12T08:45:32.000Z</time>
      </trkpt>
      <trkpt lat="47.35465" lon="-2.34051">
        <ele>-12.800000190735</ele>
        <time>2022-05-12T08:45:35.000Z</time>
      </trkpt>
      <trkpt lat="47.35475" lon="-2.34068">
        <ele>-12.800000190735</ele>
        <time>2022-05-12T08:45:38.000Z</time>
      </trkpt>
      <trkpt lat="47.35479" lon="-2.34082">
        <ele>-12.800000190735</ele>
        <time>2022-05-12T08:45:40.000Z</time>
      </trkpt>
      <trkpt lat="47.35486" lon="-2.34113">
        <ele>-12.800000190735</ele>
        <time>2022-05-12T08:45:44.000Z</time>
      </trkpt>
      <trkpt lat="47.3549" lon="-2.34128">
        <ele>-12.800000190735</ele>
        <time>2022-05-12T08:45:46.000Z</time>
      </trkpt>
      <trkpt lat="47.355" lon="-2.34146">
        <ele>-12.800000190735</ele>
        <time>2022-05-12T08:45:49.000Z</time>
      </trkpt>
      <trkpt lat="47.35505" lon="-2.34151">
        <ele>-12.800000190735</ele>
        <time>2022-05-12T08:45:50.000Z</time>
      </trkpt>
      <trkpt lat="47.35515" lon="-2.34159">
        <ele>-12.800000190735</ele>
        <time>2022-05-12T08:45:52.000Z</time>
      </trkpt>
      <trkpt lat="47.35526" lon="-2.34164">
        <ele>-12.800000190735</ele>
        <time>2022-05-12T08:45:54.000Z</time>
      </trkpt>
      <trkpt lat="47.35559" lon="-2.3418">
        <ele>-12.800000190735</ele>
        <time>2022-05-12T08:46:01.000Z</time>
      </trkpt>
      <trkpt lat="47.35566" lon="-2.34198">
        <ele>-12.800000190735</ele>
        <time>2022-05-12T08:46:04.000Z</time>
      </trkpt>
      <trkpt lat="47.35566" lon="-2.34223">
        <ele>-12.800000190735</ele>
        <time>2022-05-12T08:46:07.000Z</time>
      </trkpt>
      <trkpt lat="47.35566" lon="-2.34233">
        <ele>-12.800000190735</ele>
        <time>2022-05-12T08:46:08.000Z</time>
      </trkpt>
      <trkpt lat="47.3556" lon="-2.34294">
        <ele>-12.800000190735</ele>
        <time>2022-05-12T08:46:15.000Z</time>
      </trkpt>
      <trkpt lat="47.35553" lon="-2.34348">
        <ele>-12.800000190735</ele>
        <time>2022-05-12T08:46:21.000Z</time>
      </trkpt>
      <trkpt lat="47.35539" lon="-2.34418">
        <ele>-12.800000190735</ele>
        <time>2022-05-12T08:46:29.000Z</time>
      </trkpt>
      <trkpt lat="47.3553" lon="-2.34483">
        <ele>-12.800000190735</ele>
        <time>2022-05-12T08:46:36.000Z</time>
      </trkpt>
      <trkpt lat="47.35526" lon="-2.34503">
        <ele>-13.199999809265</ele>
        <time>2022-05-12T08:46:38.000Z</time>
      </trkpt>
      <trkpt lat="47.35524" lon="-2.34514">
        <ele>-13.60000038147</ele>
        <time>2022-05-12T08:46:39.000Z</time>
      </trkpt>
      <trkpt lat="47.35522" lon="-2.34524">
        <ele>-14</ele>
        <time>2022-05-12T08:46:40.000Z</time>
      </trkpt>
      <trkpt lat="47.35519" lon="-2.34534">
        <ele>-14.60000038147</ele>
        <time>2022-05-12T08:46:41.000Z</time>
      </trkpt>
      <trkpt lat="47.35516" lon="-2.34543">
        <ele>-15</ele>
        <time>2022-05-12T08:46:42.000Z</time>
      </trkpt>
      <trkpt lat="47.35494" lon="-2.34597">
        <ele>-15</ele>
        <time>2022-05-12T08:46:48.000Z</time>
      </trkpt>
      <trkpt lat="47.35467" lon="-2.34654">
        <ele>-15</ele>
        <time>2022-05-12T08:46:55.000Z</time>
      </trkpt>
      <trkpt lat="47.35449" lon="-2.34699">
        <ele>-14.60000038147</ele>
        <time>2022-05-12T08:47:01.000Z</time>
      </trkpt>
      <trkpt lat="47.35446" lon="-2.34704">
        <ele>-14.199999809265</ele>
        <time>2022-05-12T08:47:02.000Z</time>
      </trkpt>
      <trkpt lat="47.35442" lon="-2.34707">
        <ele>-13.800000190735</ele>
        <time>2022-05-12T08:47:03.000Z</time>
      </trkpt>
      <trkpt lat="47.35438" lon="-2.34705">
        <ele>-13.39999961853</ele>
        <time>2022-05-12T08:47:04.000Z</time>
      </trkpt>
      <trkpt lat="47.35435" lon="-2.347">
        <ele>-13</ele>
        <time>2022-05-12T08:47:05.000Z</time>
      </trkpt>
      <trkpt lat="47.35432" lon="-2.34695">
        <ele>-13</ele>
        <time>2022-05-12T08:47:06.000Z</time>
      </trkpt>
      <trkpt lat="47.35429" lon="-2.3469">
        <ele>-13</ele>
        <time>2022-05-12T08:47:07.000Z</time>
      </trkpt>
      <trkpt lat="47.35422" lon="-2.34677">
        <ele>-13</ele>
        <time>2022-05-12T08:47:09.000Z</time>
      </trkpt>
      <trkpt lat="47.35416" lon="-2.34663">
        <ele>-13</ele>
        <time>2022-05-12T08:47:11.000Z</time>
      </trkpt>
      <trkpt lat="47.354" lon="-2.34613">
        <ele>-13</ele>
        <time>2022-05-12T08:47:17.000Z</time>
      </trkpt>
      <trkpt lat="47.35377" lon="-2.34558">
        <ele>-13</ele>
        <time>2022-05-12T08:47:24.000Z</time>
      </trkpt>
      <trkpt lat="47.35354" lon="-2.34514">
        <ele>-13</ele>
        <time>2022-05-12T08:47:30.000Z</time>
      </trkpt>
      <trkpt lat="47.35338" lon="-2.34497">
        <ele>-13</ele>
        <time>2022-05-12T08:47:33.000Z</time>
      </trkpt>
      <trkpt lat="47.35327" lon="-2.34488">
        <ele>-13</ele>
        <time>2022-05-12T08:47:35.000Z</time>
      </trkpt>
      <trkpt lat="47.35296" lon="-2.34473">
        <ele>-13</ele>
        <time>2022-05-12T08:47:40.000Z</time>
      </trkpt>
      <trkpt lat="47.35266" lon="-2.34479">
        <ele>-13</ele>
        <time>2022-05-12T08:47:44.000Z</time>
      </trkpt>
      <trkpt lat="47.35217" lon="-2.34498">
        <ele>-13</ele>
        <time>2022-05-12T08:47:51.000Z</time>
      </trkpt>
      <trkpt lat="47.35177" lon="-2.34514">
        <ele>-13</ele>
        <time>2022-05-12T08:47:57.000Z</time>
      </trkpt>
      <trkpt lat="47.35137" lon="-2.3453">
        <ele>-13</ele>
        <time>2022-05-12T08:48:04.000Z</time>
      </trkpt>
      <trkpt lat="47.35115" lon="-2.3454">
        <ele>-13</ele>
        <time>2022-05-12T08:48:09.000Z</time>
      </trkpt>
      <trkpt lat="47.35113" lon="-2.34539">
        <ele>-13</ele>
        <time>2022-05-12T08:48:10.000Z</time>
      </trkpt>
      <trkpt lat="47.3511" lon="-2.34532">
        <ele>-13</ele>
        <time>2022-05-12T08:48:12.000Z</time>
      </trkpt>
      <trkpt lat="47.35108" lon="-2.34523">
        <ele>-13</ele>
        <time>2022-05-12T08:48:14.000Z</time>
      </trkpt>
      <trkpt lat="47.35102" lon="-2.34515">
        <ele>-13</ele>
        <time>2022-05-12T08:48:17.000Z</time>
      </trkpt>
      <trkpt lat="47.35101" lon="-2.34512">
        <ele>-13</ele>
        <time>2022-05-12T08:48:18.000Z</time>
      </trkpt>
      <trkpt lat="47.35096" lon="-2.34505">
        <ele>-13</ele>
        <time>2022-05-12T08:48:21.000Z</time>
      </trkpt>
      <trkpt lat="47.35086" lon="-2.34494">
        <ele>-13</ele>
        <time>2022-05-12T08:48:27.000Z</time>
      </trkpt>
      <trkpt lat="47.35077" lon="-2.34484">
        <ele>-13.39999961853</ele>
        <time>2022-05-12T08:48:32.000Z</time>
      </trkpt>
      <trkpt lat="47.35076" lon="-2.34481">
        <ele>-13.800000190735</ele>
        <time>2022-05-12T08:48:33.000Z</time>
      </trkpt>
      <trkpt lat="47.35075" lon="-2.34479">
        <ele>-14.199999809265</ele>
        <time>2022-05-12T08:48:34.000Z</time>
      </trkpt>
      <trkpt lat="47.35074" lon="-2.34476">
        <ele>-14.60000038147</ele>
        <time>2022-05-12T08:48:35.000Z</time>
      </trkpt>
      <trkpt lat="47.35074" lon="-2.34474">
        <ele>-15</ele>
        <time>2022-05-12T08:48:36.000Z</time>
      </trkpt>
      <trkpt lat="47.35074" lon="-2.34471">
        <ele>-15</ele>
        <time>2022-05-12T08:48:37.000Z</time>
      </trkpt>
      <trkpt lat="47.35072" lon="-2.34464">
        <ele>-15.39999961853</ele>
        <time>2022-05-12T08:48:41.000Z</time>
      </trkpt>
      <trkpt lat="47.35071" lon="-2.34463">
        <ele>-15.800000190735</ele>
        <time>2022-05-12T08:48:42.000Z</time>
      </trkpt>
      <trkpt lat="47.35071" lon="-2.34461">
        <ele>-16.200000762939</ele>
        <time>2022-05-12T08:48:43.000Z</time>
      </trkpt>
      <trkpt lat="47.3507" lon="-2.34461">
        <ele>-16.60000038147</ele>
        <time>2022-05-12T08:48:44.000Z</time>
      </trkpt>
      <trkpt lat="47.3507" lon="-2.3446">
        <ele>-17</ele>
        <time>2022-05-12T08:48:45.000Z</time>
      </trkpt>
      <trkpt lat="47.35057" lon="-2.34437">
        <ele>-19</ele>
        <time>2022-05-12T08:50:02.000Z</time>
      </trkpt>
      <trkpt lat="47.35057" lon="-2.34436">
        <ele>-19</ele>
        <time>2022-05-12T08:50:03.000Z</time>
      </trkpt>
      <trkpt lat="47.35056" lon="-2.34434">
        <ele>-19</ele>
        <time>2022-05-12T08:50:06.000Z</time>
      </trkpt>
      <trkpt lat="47.35052" lon="-2.34422">
        <ele>-17</ele>
        <time>2022-05-12T08:50:18.000Z</time>
      </trkpt>
      <trkpt lat="47.35051" lon="-2.34421">
        <ele>-17</ele>
        <time>2022-05-12T08:50:19.000Z</time>
      </trkpt>
      <trkpt lat="47.35051" lon="-2.34419">
        <ele>-17</ele>
        <time>2022-05-12T08:50:21.000Z</time>
      </trkpt>
      <trkpt lat="47.35047" lon="-2.3441">
        <ele>-17</ele>
        <time>2022-05-12T08:50:31.000Z</time>
      </trkpt>
      <trkpt lat="47.35046" lon="-2.34407">
        <ele>-16.60000038147</ele>
        <time>2022-05-12T08:50:32.000Z</time>
      </trkpt>
      <trkpt lat="47.35045" lon="-2.34405">
        <ele>-16.200000762939</ele>
        <time>2022-05-12T08:50:33.000Z</time>
      </trkpt>
      <trkpt lat="47.35043" lon="-2.34403">
        <ele>-15.800000190735</ele>
        <time>2022-05-12T08:50:34.000Z</time>
      </trkpt>
      <trkpt lat="47.35042" lon="-2.344">
        <ele>-15.39999961853</ele>
        <time>2022-05-12T08:50:35.000Z</time>
      </trkpt>
      <trkpt lat="47.35041" lon="-2.34398">
        <ele>-15</ele>
        <time>2022-05-12T08:50:36.000Z</time>
      </trkpt>
      <trkpt lat="47.35038" lon="-2.34391">
        <ele>-15</ele>
        <time>2022-05-12T08:50:39.000Z</time>
      </trkpt>
      <trkpt lat="47.35032" lon="-2.34378">
        <ele>-14.60000038147</ele>
        <time>2022-05-12T08:50:43.000Z</time>
      </trkpt>
      <trkpt lat="47.3503" lon="-2.34376">
        <ele>-14.199999809265</ele>
        <time>2022-05-12T08:50:44.000Z</time>
      </trkpt>
      <trkpt lat="47.35029" lon="-2.34374">
        <ele>-13.60000038147</ele>
        <time>2022-05-12T08:50:45.000Z</time>
      </trkpt>
      <trkpt lat="47.35028" lon="-2.34372">
        <ele>-13.199999809265</ele>
        <time>2022-05-12T08:50:46.000Z</time>
      </trkpt>
      <trkpt lat="47.35027" lon="-2.3437">
        <ele>-12.800000190735</ele>
        <time>2022-05-12T08:50:47.000Z</time>
      </trkpt>
      <trkpt lat="47.35027" lon="-2.34369">
        <ele>-12.800000190735</ele>
        <time>2022-05-12T08:50:48.000Z</time>
      </trkpt>
      <trkpt lat="47.35024" lon="-2.34359">
        <ele>-12.800000190735</ele>
        <time>2022-05-12T08:51:18.000Z</time>
      </trkpt>
      <trkpt lat="47.35022" lon="-2.34354">
        <ele>-12.800000190735</ele>
        <time>2022-05-12T08:51:20.000Z</time>
      </trkpt>
      <trkpt lat="47.35017" lon="-2.34339">
        <ele>-12.800000190735</ele>
        <time>2022-05-12T08:51:25.000Z</time>
      </trkpt>
      <trkpt lat="47.35016" lon="-2.34336">
        <ele>-12.39999961853</ele>
        <time>2022-05-12T08:51:26.000Z</time>
      </trkpt>
      <trkpt lat="47.35016" lon="-2.34333">
        <ele>-12</ele>
        <time>2022-05-12T08:51:27.000Z</time>
      </trkpt>
      <trkpt lat="47.35016" lon="-2.34331">
        <ele>-11.60000038147</ele>
        <time>2022-05-12T08:51:28.000Z</time>
      </trkpt>
      <trkpt lat="47.35013" lon="-2.34325">
        <ele>-11</ele>
        <time>2022-05-12T08:51:29.000Z</time>
      </trkpt>
      <trkpt lat="47.35012" lon="-2.34318">
        <ele>-10.60000038147</ele>
        <time>2022-05-12T08:51:30.000Z</time>
      </trkpt>
      <trkpt lat="47.35002" lon="-2.34294">
        <ele>-10.60000038147</ele>
        <time>2022-05-12T08:51:35.000Z</time>
      </trkpt>
      <trkpt lat="47.34999" lon="-2.34285">
        <ele>-10.199999809265</ele>
        <time>2022-05-12T08:51:37.000Z</time>
      </trkpt>
      <trkpt lat="47.34998" lon="-2.3428">
        <ele>-9.8000001907349</ele>
        <time>2022-05-12T08:51:38.000Z</time>
      </trkpt>
      <trkpt lat="47.34997" lon="-2.34276">
        <ele>-9.3999996185303</ele>
        <time>2022-05-12T08:51:39.000Z</time>
      </trkpt>
      <trkpt lat="47.34996" lon="-2.34273">
        <ele>-8.6000003814697</ele>
        <time>2022-05-12T08:51:40.000Z</time>
      </trkpt>
      <trkpt lat="47.34993" lon="-2.34264">
        <ele>-8.6000003814697</ele>
        <time>2022-05-12T08:51:42.000Z</time>
      </trkpt>
      <trkpt lat="47.34989" lon="-2.3425">
        <ele>-8</ele>
        <time>2022-05-12T08:51:45.000Z</time>
      </trkpt>
      <trkpt lat="47.34987" lon="-2.34245">
        <ele>-7.5999999046326</ele>
        <time>2022-05-12T08:51:46.000Z</time>
      </trkpt>
      <trkpt lat="47.34986" lon="-2.3424">
        <ele>-7.1999998092651</ele>
        <time>2022-05-12T08:51:47.000Z</time>
      </trkpt>
      <trkpt lat="47.34984" lon="-2.34236">
        <ele>-6.8000001907349</ele>
        <time>2022-05-12T08:51:48.000Z</time>
      </trkpt>
      <trkpt lat="47.34984" lon="-2.34232">
        <ele>-6.4000000953674</ele>
        <time>2022-05-12T08:51:49.000Z</time>
      </trkpt>
      <trkpt lat="47.34981" lon="-2.34215">
        <ele>-6.4000000953674</ele>
        <time>2022-05-12T08:51:53.000Z</time>
      </trkpt>
      <trkpt lat="47.34976" lon="-2.34208">
        <ele>-5.8000001907349</ele>
        <time>2022-05-12T08:51:56.000Z</time>
      </trkpt>
      <trkpt lat="47.34974" lon="-2.34205">
        <ele>-5.4000000953674</ele>
        <time>2022-05-12T08:51:57.000Z</time>
      </trkpt>
      <trkpt lat="47.34972" lon="-2.34201">
        <ele>-5</ele>
        <time>2022-05-12T08:51:58.000Z</time>
      </trkpt>
      <trkpt lat="47.34969" lon="-2.34199">
        <ele>-4.5999999046326</ele>
        <time>2022-05-12T08:51:59.000Z</time>
      </trkpt>
      <trkpt lat="47.34965" lon="-2.34198">
        <ele>-4</ele>
        <time>2022-05-12T08:52:00.000Z</time>
      </trkpt>
      <trkpt lat="47.34957" lon="-2.34198">
        <ele>-4</ele>
        <time>2022-05-12T08:52:02.000Z</time>
      </trkpt>
      <trkpt lat="47.34943" lon="-2.34202">
        <ele>-3.5999999046326</ele>
        <time>2022-05-12T08:52:06.000Z</time>
      </trkpt>
      <trkpt lat="47.3494" lon="-2.34204">
        <ele>-3.2000000476837</ele>
        <time>2022-05-12T08:52:07.000Z</time>
      </trkpt>
      <trkpt lat="47.34937" lon="-2.34205">
        <ele>-2.7999999523163</ele>
        <time>2022-05-12T08:52:08.000Z</time>
      </trkpt>
      <trkpt lat="47.34934" lon="-2.34207">
        <ele>-2.4000000953674</ele>
        <time>2022-05-12T08:52:09.000Z</time>
      </trkpt>
      <trkpt lat="47.34932" lon="-2.34208">
        <ele>-2</ele>
        <time>2022-05-12T08:52:10.000Z</time>
      </trkpt>
      <trkpt lat="47.34925" lon="-2.34211">
        <ele>-2</ele>
        <time>2022-05-12T08:52:12.000Z</time>
      </trkpt>
      <trkpt lat="47.3491" lon="-2.34211">
        <ele>-1.6000000238419</ele>
        <time>2022-05-12T08:52:17.000Z</time>
      </trkpt>
      <trkpt lat="47.34907" lon="-2.34211">
        <ele>-1</ele>
        <time>2022-05-12T08:52:18.000Z</time>
      </trkpt>
      <trkpt lat="47.34904" lon="-2.3421">
        <ele>-0.60000002384186</ele>
        <time>2022-05-12T08:52:19.000Z</time>
      </trkpt>
      <trkpt lat="47.34901" lon="-2.34209">
        <ele>-0.20000000298023</ele>
        <time>2022-05-12T08:52:20.000Z</time>
      </trkpt>
      <trkpt lat="47.34898" lon="-2.34208">
        <ele>0.20000000298023</ele>
        <time>2022-05-12T08:52:21.000Z</time>
      </trkpt>
      <trkpt lat="47.34893" lon="-2.34207">
        <ele>0.20000000298023</ele>
        <time>2022-05-12T08:52:23.000Z</time>
      </trkpt>
      <trkpt lat="47.34888" lon="-2.34205">
        <ele>0.60000002384186</ele>
        <time>2022-05-12T08:52:26.000Z</time>
      </trkpt>
      <trkpt lat="47.34886" lon="-2.34205">
        <ele>1</ele>
        <time>2022-05-12T08:52:27.000Z</time>
      </trkpt>
      <trkpt lat="47.34885" lon="-2.34204">
        <ele>1.3999999761581</ele>
        <time>2022-05-12T08:52:28.000Z</time>
      </trkpt>
      <trkpt lat="47.34884" lon="-2.34203">
        <ele>2.2000000476837</ele>
        <time>2022-05-12T08:52:29.000Z</time>
      </trkpt>
      <trkpt lat="47.34876" lon="-2.34197">
        <ele>2.2000000476837</ele>
        <time>2022-05-12T08:52:34.000Z</time>
      </trkpt>
      <trkpt lat="47.34874" lon="-2.34199">
        <ele>2.2000000476837</ele>
        <time>2022-05-12T08:52:35.000Z</time>
      </trkpt>
      <trkpt lat="47.34871" lon="-2.34203">
        <ele>2.2000000476837</ele>
        <time>2022-05-12T08:52:37.000Z</time>
      </trkpt>
      <trkpt lat="47.34871" lon="-2.34214">
        <ele>2.2000000476837</ele>
        <time>2022-05-12T08:52:40.000Z</time>
      </trkpt>
      <trkpt lat="47.34865" lon="-2.34231">
        <ele>2.2000000476837</ele>
        <time>2022-05-12T08:52:44.000Z</time>
      </trkpt>
      <trkpt lat="47.34863" lon="-2.34235">
        <ele>1.7999999523163</ele>
        <time>2022-05-12T08:52:45.000Z</time>
      </trkpt>
      <trkpt lat="47.3486" lon="-2.34237">
        <ele>1.3999999761581</ele>
        <time>2022-05-12T08:52:46.000Z</time>
      </trkpt>
      <trkpt lat="47.34857" lon="-2.34238">
        <ele>1</ele>
        <time>2022-05-12T08:52:47.000Z</time>
      </trkpt>
      <trkpt lat="47.34855" lon="-2.34239">
        <ele>0.40000000596046</ele>
        <time>2022-05-12T08:52:48.000Z</time>
      </trkpt>
      <trkpt lat="47.34852" lon="-2.34239">
        <ele>21.2</ele>
        <time>2022-05-12T08:52:49.000Z</time>
      </trkpt>
      <trkpt lat="47.34849" lon="-2.34238">
        <ele>-0.40000000596046</ele>
        <time>2022-05-12T08:52:50.000Z</time>
      </trkpt>
      <trkpt lat="47.34843" lon="-2.34237">
        <ele>-0.80000001192093</ele>
        <time>2022-05-12T08:52:51.000Z</time>
      </trkpt>
      <trkpt lat="47.34837" lon="-2.34237">
        <ele>-1.2000000476837</ele>
        <time>2022-05-12T08:52:52.000Z</time>
      </trkpt>
      <trkpt lat="47.34831" lon="-2.34237">
        <ele>-1.6000000238419</ele>
        <time>2022-05-12T08:52:53.000Z</time>
      </trkpt>
      <trkpt lat="47.34825" lon="-2.34238">
        <ele>-2.4000000953674</ele>
        <time>2022-05-12T08:52:54.000Z</time>
      </trkpt>
      <trkpt lat="47.34818" lon="-2.34238">
        <ele>-2.7999999523163</ele>
        <time>2022-05-12T08:52:55.000Z</time>
      </trkpt>
      <trkpt lat="47.34811" lon="-2.34239">
        <ele>-3.2000000476837</ele>
        <time>2022-05-12T08:52:56.000Z</time>
      </trkpt>
      <trkpt lat="47.34803" lon="-2.3424">
        <ele>-3.5999999046326</ele>
        <time>2022-05-12T08:52:57.000Z</time>
      </trkpt>
      <trkpt lat="47.34796" lon="-2.34241">
        <ele>-4</ele>
        <time>2022-05-12T08:52:58.000Z</time>
      </trkpt>
      <trkpt lat="47.34762" lon="-2.3425">
        <ele>-4.5999999046326</ele>
        <time>2022-05-12T08:53:03.000Z</time>
      </trkpt>
      <trkpt lat="47.34756" lon="-2.34252">
        <ele>-5</ele>
        <time>2022-05-12T08:53:04.000Z</time>
      </trkpt>
      <trkpt lat="47.3475" lon="-2.34254">
        <ele>-5.4000000953674</ele>
        <time>2022-05-12T08:53:05.000Z</time>
      </trkpt>
      <trkpt lat="47.34743" lon="-2.34255">
        <ele>-5.8000001907349</ele>
        <time>2022-05-12T08:53:06.000Z</time>
      </trkpt>
      <trkpt lat="47.34736" lon="-2.34257">
        <ele>-6.1999998092651</ele>
        <time>2022-05-12T08:53:07.000Z</time>
      </trkpt>
      <trkpt lat="47.34702" lon="-2.34264">
        <ele>-6.5999999046326</ele>
        <time>2022-05-12T08:53:12.000Z</time>
      </trkpt>
      <trkpt lat="47.34695" lon="-2.34265">
        <ele>-7</ele>
        <time>2022-05-12T08:53:13.000Z</time>
      </trkpt>
      <trkpt lat="47.34689" lon="-2.34265">
        <ele>-7.4000000953674</ele>
        <time>2022-05-12T08:53:14.000Z</time>
      </trkpt>
      <trkpt lat="47.34683" lon="-2.34265">
        <ele>-7.8000001907349</ele>
        <time>2022-05-12T08:53:15.000Z</time>
      </trkpt>
      <trkpt lat="47.34677" lon="-2.34266">
        <ele>-8.1999998092651</ele>
        <time>2022-05-12T08:53:16.000Z</time>
      </trkpt>
      <trkpt lat="47.34664" lon="-2.34268">
        <ele>-8.1999998092651</ele>
        <time>2022-05-12T08:53:18.000Z</time>
      </trkpt>
      <trkpt lat="47.34658" lon="-2.34271">
        <ele>-8.1999998092651</ele>
        <time>2022-05-12T08:53:19.000Z</time>
      </trkpt>
      <trkpt lat="47.34643" lon="-2.34284">
        <ele>-8.1999998092651</ele>
        <time>2022-05-12T08:53:22.000Z</time>
      </trkpt>
      <trkpt lat="47.34623" lon="-2.34302">
        <ele>-8.1999998092651</ele>
        <time>2022-05-12T08:53:27.000Z</time>
      </trkpt>
      <trkpt lat="47.34619" lon="-2.34303">
        <ele>-8.1999998092651</ele>
        <time>2022-05-12T08:53:28.000Z</time>
      </trkpt>
      <trkpt lat="47.34607" lon="-2.34302">
        <ele>-8.1999998092651</ele>
        <time>2022-05-12T08:53:31.000Z</time>
      </trkpt>
      <trkpt lat="47.346" lon="-2.34301">
        <ele>-8.1999998092651</ele>
        <time>2022-05-12T08:53:33.000Z</time>
      </trkpt>
      <trkpt lat="47.34594" lon="-2.34302">
        <ele>-8.1999998092651</ele>
        <time>2022-05-12T08:53:37.000Z</time>
      </trkpt>
      <trkpt lat="47.3459" lon="-2.34304">
        <ele>-8.1999998092651</ele>
        <time>2022-05-12T08:53:45.000Z</time>
      </trkpt>
      <trkpt lat="47.34588" lon="-2.34304">
        <ele>-7.8000001907349</ele>
        <time>2022-05-12T08:53:46.000Z</time>
      </trkpt>
      <trkpt lat="47.34585" lon="-2.34305">
        <ele>-7.4000000953674</ele>
        <time>2022-05-12T08:53:47.000Z</time>
      </trkpt>
      <trkpt lat="47.34582" lon="-2.34306">
        <ele>-7</ele>
        <time>2022-05-12T08:53:48.000Z</time>
      </trkpt>
      <trkpt lat="47.34578" lon="-2.34306">
        <ele>-6.5999999046326</ele>
        <time>2022-05-12T08:53:49.000Z</time>
      </trkpt>
      <trkpt lat="47.34574" lon="-2.34308">
        <ele>-6.1999998092651</ele>
        <time>2022-05-12T08:53:50.000Z</time>
      </trkpt>
      <trkpt lat="47.34567" lon="-2.34312">
        <ele>-6.1999998092651</ele>
        <time>2022-05-12T08:53:52.000Z</time>
      </trkpt>
      <trkpt lat="47.3455" lon="-2.34324">
        <ele>-5.8000001907349</ele>
        <time>2022-05-12T08:53:57.000Z</time>
      </trkpt>
      <trkpt lat="47.34547" lon="-2.34327">
        <ele>-5.4000000953674</ele>
        <time>2022-05-12T08:53:58.000Z</time>
      </trkpt>
      <trkpt lat="47.34543" lon="-2.3433">
        <ele>-5</ele>
        <time>2022-05-12T08:53:59.000Z</time>
      </trkpt>
      <trkpt lat="47.3454" lon="-2.34333">
        <ele>-4.4000000953674</ele>
        <time>2022-05-12T08:54:00.000Z</time>
      </trkpt>
      <trkpt lat="47.34535" lon="-2.34338">
        <ele>-4</ele>
        <time>2022-05-12T08:54:01.000Z</time>
      </trkpt>
      <trkpt lat="47.34523" lon="-2.34351">
        <ele>-4</ele>
        <time>2022-05-12T08:54:04.000Z</time>
      </trkpt>
      <trkpt lat="47.34509" lon="-2.34364">
        <ele>-4</ele>
        <time>2022-05-12T08:54:07.000Z</time>
      </trkpt>
      <trkpt lat="47.345" lon="-2.34374">
        <ele>-4</ele>
        <time>2022-05-12T08:54:09.000Z</time>
      </trkpt>
      <trkpt lat="47.34486" lon="-2.34388">
        <ele>-4</ele>
        <time>2022-05-12T08:54:12.000Z</time>
      </trkpt>
      <trkpt lat="47.34476" lon="-2.34394">
        <ele>-4</ele>
        <time>2022-05-12T08:54:14.000Z</time>
      </trkpt>
      <trkpt lat="47.34443" lon="-2.34407">
        <ele>-4</ele>
        <time>2022-05-12T08:54:20.000Z</time>
      </trkpt>
      <trkpt lat="47.34405" lon="-2.34423">
        <ele>-4</ele>
        <time>2022-05-12T08:54:27.000Z</time>
      </trkpt>
      <trkpt lat="47.34395" lon="-2.34428">
        <ele>-3.5999999046326</ele>
        <time>2022-05-12T08:54:29.000Z</time>
      </trkpt>
      <trkpt lat="47.34389" lon="-2.3443">
        <ele>-3.2000000476837</ele>
        <time>2022-05-12T08:54:30.000Z</time>
      </trkpt>
      <trkpt lat="47.34384" lon="-2.34432">
        <ele>-2.7999999523163</ele>
        <time>2022-05-12T08:54:31.000Z</time>
      </trkpt>
      <trkpt lat="47.34379" lon="-2.34435">
        <ele>-2.4000000953674</ele>
        <time>2022-05-12T08:54:32.000Z</time>
      </trkpt>
      <trkpt lat="47.34374" lon="-2.34438">
        <ele>-2</ele>
        <time>2022-05-12T08:54:33.000Z</time>
      </trkpt>
      <trkpt lat="47.34343" lon="-2.34457">
        <ele>-2</ele>
        <time>2022-05-12T08:54:39.000Z</time>
      </trkpt>
      <trkpt lat="47.34332" lon="-2.34462">
        <ele>-2</ele>
        <time>2022-05-12T08:54:41.000Z</time>
      </trkpt>
      <trkpt lat="47.34298" lon="-2.34467">
        <ele>-2</ele>
        <time>2022-05-12T08:54:47.000Z</time>
      </trkpt>
      <trkpt lat="47.3427" lon="-2.34471">
        <ele>-2</ele>
        <time>2022-05-12T08:54:52.000Z</time>
      </trkpt>
      <trkpt lat="47.34265" lon="-2.34474">
        <ele>-2</ele>
        <time>2022-05-12T08:54:53.000Z</time>
      </trkpt>
      <trkpt lat="47.34227" lon="-2.34491">
        <ele>-2</ele>
        <time>2022-05-12T08:55:00.000Z</time>
      </trkpt>
      <trkpt lat="47.34194" lon="-2.34508">
        <ele>-2</ele>
        <time>2022-05-12T08:55:06.000Z</time>
      </trkpt>
      <trkpt lat="47.34189" lon="-2.3451">
        <ele>-2</ele>
        <time>2022-05-12T08:55:07.000Z</time>
      </trkpt>
      <trkpt lat="47.34174" lon="-2.34515">
        <ele>-2</ele>
        <time>2022-05-12T08:55:10.000Z</time>
      </trkpt>
      <trkpt lat="47.34164" lon="-2.34518">
        <ele>-2</ele>
        <time>2022-05-12T08:55:12.000Z</time>
      </trkpt>
      <trkpt lat="47.34133" lon="-2.34531">
        <ele>-2</ele>
        <time>2022-05-12T08:55:18.000Z</time>
      </trkpt>
      <trkpt lat="47.34118" lon="-2.34539">
        <ele>-2</ele>
        <time>2022-05-12T08:55:21.000Z</time>
      </trkpt>
      <trkpt lat="47.34104" lon="-2.34549">
        <ele>-2</ele>
        <time>2022-05-12T08:55:24.000Z</time>
      </trkpt>
      <trkpt lat="47.34081" lon="-2.34567">
        <ele>-2</ele>
        <time>2022-05-12T08:55:29.000Z</time>
      </trkpt>
      <trkpt lat="47.34071" lon="-2.34575">
        <ele>-2</ele>
        <time>2022-05-12T08:55:34.000Z</time>
      </trkpt>
      <trkpt lat="47.34058" lon="-2.34585">
        <ele>-2</ele>
        <time>2022-05-12T08:55:38.000Z</time>
      </trkpt>
      <trkpt lat="47.34042" lon="-2.34594">
        <ele>-2</ele>
        <time>2022-05-12T08:55:43.000Z</time>
      </trkpt>
      <trkpt lat="47.34035" lon="-2.34597">
        <ele>-1.6000000238419</ele>
        <time>2022-05-12T08:55:45.000Z</time>
      </trkpt>
      <trkpt lat="47.34031" lon="-2.34598">
        <ele>-1</ele>
        <time>2022-05-12T08:55:46.000Z</time>
      </trkpt>
      <trkpt lat="47.34027" lon="-2.34598">
        <ele>-0.60000002384186</ele>
        <time>2022-05-12T08:55:47.000Z</time>
      </trkpt>
      <trkpt lat="47.34022" lon="-2.34599">
        <ele>-0.20000000298023</ele>
        <time>2022-05-12T08:55:48.000Z</time>
      </trkpt>
      <trkpt lat="47.34018" lon="-2.34599">
        <ele>0.20000000298023</ele>
        <time>2022-05-12T08:55:49.000Z</time>
      </trkpt>
      <trkpt lat="47.34003" lon="-2.34595">
        <ele>0.20000000298023</ele>
        <time>2022-05-12T08:55:53.000Z</time>
      </trkpt>
      <trkpt lat="47.3397" lon="-2.34591">
        <ele>0.20000000298023</ele>
        <time>2022-05-12T08:56:00.000Z</time>
      </trkpt>
      <trkpt lat="47.33938" lon="-2.34593">
        <ele>0.20000000298023</ele>
        <time>2022-05-12T08:56:06.000Z</time>
      </trkpt>
      <trkpt lat="47.33914" lon="-2.34595">
        <ele>0.20000000298023</ele>
        <time>2022-05-12T08:56:11.000Z</time>
      </trkpt>
      <trkpt lat="47.33905" lon="-2.34597">
        <ele>0.20000000298023</ele>
        <time>2022-05-12T08:56:13.000Z</time>
      </trkpt>
      <trkpt lat="47.33903" lon="-2.34599">
        <ele>0.20000000298023</ele>
        <time>2022-05-12T08:56:14.000Z</time>
      </trkpt>
      <trkpt lat="47.33898" lon="-2.34607">
        <ele>0.20000000298023</ele>
        <time>2022-05-12T08:56:17.000Z</time>
      </trkpt>
      <trkpt lat="47.33896" lon="-2.34613">
        <ele>0.20000000298023</ele>
        <time>2022-05-12T08:56:19.000Z</time>
      </trkpt>
      <trkpt lat="47.33894" lon="-2.34622">
        <ele>0.20000000298023</ele>
        <time>2022-05-12T08:56:24.000Z</time>
      </trkpt>
      <trkpt lat="47.33891" lon="-2.34632">
        <ele>0.20000000298023</ele>
        <time>2022-05-12T08:56:28.000Z</time>
      </trkpt>
      <trkpt lat="47.33889" lon="-2.34635">
        <ele>0.20000000298023</ele>
        <time>2022-05-12T08:56:30.000Z</time>
      </trkpt>
      <trkpt lat="47.33887" lon="-2.3464">
        <ele>0.20000000298023</ele>
        <time>2022-05-12T08:56:37.000Z</time>
      </trkpt>
      <trkpt lat="47.33886" lon="-2.34648">
        <ele>0.20000000298023</ele>
        <time>2022-05-12T08:56:39.000Z</time>
      </trkpt>
      <trkpt lat="47.33885" lon="-2.34653">
        <ele>0.20000000298023</ele>
        <time>2022-05-12T08:56:40.000Z</time>
      </trkpt>
      <trkpt lat="47.33885" lon="-2.34669">
        <ele>0.20000000298023</ele>
        <time>2022-05-12T08:56:43.000Z</time>
      </trkpt>
      <trkpt lat="47.3388" lon="-2.34702">
        <ele>0.20000000298023</ele>
        <time>2022-05-12T08:56:48.000Z</time>
      </trkpt>
      <trkpt lat="47.33877" lon="-2.34719">
        <ele>0.20000000298023</ele>
        <time>2022-05-12T08:56:50.000Z</time>
      </trkpt>
      <trkpt lat="47.33872" lon="-2.34745">
        <ele>0.20000000298023</ele>
        <time>2022-05-12T08:56:53.000Z</time>
      </trkpt>
      <trkpt lat="47.33872" lon="-2.34753">
        <ele>-0.20000000298023</ele>
        <time>2022-05-12T08:56:54.000Z</time>
      </trkpt>
      <trkpt lat="47.33872" lon="-2.34762">
        <ele>-0.60000002384186</ele>
        <time>2022-05-12T08:56:55.000Z</time>
      </trkpt>
      <trkpt lat="47.33871" lon="-2.3477">
        <ele>-1</ele>
        <time>2022-05-12T08:56:56.000Z</time>
      </trkpt>
      <trkpt lat="47.33871" lon="-2.34779">
        <ele>-1.3999999761581</ele>
        <time>2022-05-12T08:56:57.000Z</time>
      </trkpt>
      <trkpt lat="47.3387" lon="-2.34787">
        <ele>-1.7999999523163</ele>
        <time>2022-05-12T08:56:58.000Z</time>
      </trkpt>
      <trkpt lat="47.33869" lon="-2.34795">
        <ele>-1.7999999523163</ele>
        <time>2022-05-12T08:56:59.000Z</time>
      </trkpt>
      <trkpt lat="47.33867" lon="-2.34802">
        <ele>-1.7999999523163</ele>
        <time>2022-05-12T08:57:00.000Z</time>
      </trkpt>
      <trkpt lat="47.33862" lon="-2.34825">
        <ele>-1.7999999523163</ele>
        <time>2022-05-12T08:57:04.000Z</time>
      </trkpt>
      <trkpt lat="47.33844" lon="-2.34843">
        <ele>-1.7999999523163</ele>
        <time>2022-05-12T08:57:10.000Z</time>
      </trkpt>
      <trkpt lat="47.33826" lon="-2.34862">
        <ele>-1.7999999523163</ele>
        <time>2022-05-12T08:57:15.000Z</time>
      </trkpt>
      <trkpt lat="47.33813" lon="-2.3488">
        <ele>-1.7999999523163</ele>
        <time>2022-05-12T08:57:19.000Z</time>
      </trkpt>
      <trkpt lat="47.33805" lon="-2.34902">
        <ele>-1.7999999523163</ele>
        <time>2022-05-12T08:57:23.000Z</time>
      </trkpt>
      <trkpt lat="47.33795" lon="-2.34919">
        <ele>-1.7999999523163</ele>
        <time>2022-05-12T08:57:26.000Z</time>
      </trkpt>
      <trkpt lat="47.33788" lon="-2.3493">
        <ele>-1.7999999523163</ele>
        <time>2022-05-12T08:57:28.000Z</time>
      </trkpt>
      <trkpt lat="47.33773" lon="-2.3495">
        <ele>-1.7999999523163</ele>
        <time>2022-05-12T08:57:32.000Z</time>
      </trkpt>
      <trkpt lat="47.33764" lon="-2.34958">
        <ele>-1.7999999523163</ele>
        <time>2022-05-12T08:57:34.000Z</time>
      </trkpt>
      <trkpt lat="47.33756" lon="-2.34966">
        <ele>-1.7999999523163</ele>
        <time>2022-05-12T08:57:36.000Z</time>
      </trkpt>
      <trkpt lat="47.33739" lon="-2.34981">
        <ele>-1.7999999523163</ele>
        <time>2022-05-12T08:57:40.000Z</time>
      </trkpt>
      <trkpt lat="47.33715" lon="-2.35004">
        <ele>-1.7999999523163</ele>
        <time>2022-05-12T08:57:47.000Z</time>
      </trkpt>
      <trkpt lat="47.33714" lon="-2.35009">
        <ele>-1.7999999523163</ele>
        <time>2022-05-12T08:57:48.000Z</time>
      </trkpt>
      <trkpt lat="47.33716" lon="-2.35019">
        <ele>-1.7999999523163</ele>
        <time>2022-05-12T08:57:50.000Z</time>
      </trkpt>
      <trkpt lat="47.33725" lon="-2.35032">
        <ele>-1.7999999523163</ele>
        <time>2022-05-12T08:57:53.000Z</time>
      </trkpt>
      <trkpt lat="47.33728" lon="-2.35036">
        <ele>-1.7999999523163</ele>
        <time>2022-05-12T08:57:54.000Z</time>
      </trkpt>
      <trkpt lat="47.33746" lon="-2.35059">
        <ele>-1.7999999523163</ele>
        <time>2022-05-12T08:57:59.000Z</time>
      </trkpt>
      <trkpt lat="47.33754" lon="-2.35067">
        <ele>-1.7999999523163</ele>
        <time>2022-05-12T08:58:01.000Z</time>
      </trkpt>
      <trkpt lat="47.33773" lon="-2.35081">
        <ele>-1.7999999523163</ele>
        <time>2022-05-12T08:58:06.000Z</time>
      </trkpt>
      <trkpt lat="47.33794" lon="-2.35091">
        <ele>-1.7999999523163</ele>
        <time>2022-05-12T08:58:11.000Z</time>
      </trkpt>
      <trkpt lat="47.33803" lon="-2.35096">
        <ele>-1.3999999761581</ele>
        <time>2022-05-12T08:58:13.000Z</time>
      </trkpt>
      <trkpt lat="47.33807" lon="-2.35098">
        <ele>-1</ele>
        <time>2022-05-12T08:58:14.000Z</time>
      </trkpt>
      <trkpt lat="47.33812" lon="-2.35101">
        <ele>-0.60000002384186</ele>
        <time>2022-05-12T08:58:15.000Z</time>
      </trkpt>
      <trkpt lat="47.33816" lon="-2.35103">
        <ele>-0.20000000298023</ele>
        <time>2022-05-12T08:58:16.000Z</time>
      </trkpt>
      <trkpt lat="47.3382" lon="-2.35106">
        <ele>0.20000000298023</ele>
        <time>2022-05-12T08:58:17.000Z</time>
      </trkpt>
      <trkpt lat="47.33829" lon="-2.35111">
        <ele>0.20000000298023</ele>
        <time>2022-05-12T08:58:19.000Z</time>
      </trkpt>
      <trkpt lat="47.33862" lon="-2.35133">
        <ele>0.20000000298023</ele>
        <time>2022-05-12T08:58:27.000Z</time>
      </trkpt>
      <trkpt lat="47.33878" lon="-2.35148">
        <ele>0.20000000298023</ele>
        <time>2022-05-12T08:58:31.000Z</time>
      </trkpt>
      <trkpt lat="47.33891" lon="-2.35159">
        <ele>0.60000002384186</ele>
        <time>2022-05-12T08:58:34.000Z</time>
      </trkpt>
      <trkpt lat="47.33895" lon="-2.35162">
        <ele>1</ele>
        <time>2022-05-12T08:58:35.000Z</time>
      </trkpt>
      <trkpt lat="47.33899" lon="-2.35166">
        <ele>1.3999999761581</ele>
        <time>2022-05-12T08:58:36.000Z</time>
      </trkpt>
      <trkpt lat="47.33903" lon="-2.35169">
        <ele>1.7999999523163</ele>
        <time>2022-05-12T08:58:37.000Z</time>
      </trkpt>
      <trkpt lat="47.33907" lon="-2.35172">
        <ele>2.2000000476837</ele>
        <time>2022-05-12T08:58:38.000Z</time>
      </trkpt>
      <trkpt lat="47.33919" lon="-2.35183">
        <ele>2.2000000476837</ele>
        <time>2022-05-12T08:58:41.000Z</time>
      </trkpt>
      <trkpt lat="47.33927" lon="-2.35193">
        <ele>2.2000000476837</ele>
        <time>2022-05-12T08:58:43.000Z</time>
      </trkpt>
      <trkpt lat="47.33937" lon="-2.35209">
        <ele>2.2000000476837</ele>
        <time>2022-05-12T08:58:46.000Z</time>
      </trkpt>
      <trkpt lat="47.33942" lon="-2.3522">
        <ele>2.2000000476837</ele>
        <time>2022-05-12T08:58:48.000Z</time>
      </trkpt>
      <trkpt lat="47.33948" lon="-2.3524">
        <ele>2.2000000476837</ele>
        <time>2022-05-12T08:58:51.000Z</time>
      </trkpt>
      <trkpt lat="47.33944" lon="-2.35264">
        <ele>2.2000000476837</ele>
        <time>2022-05-12T08:58:55.000Z</time>
      </trkpt>
      <trkpt lat="47.33943" lon="-2.35269">
        <ele>2.2000000476837</ele>
        <time>2022-05-12T08:58:56.000Z</time>
      </trkpt>
      <trkpt lat="47.33932" lon="-2.35284">
        <ele>2.2000000476837</ele>
        <time>2022-05-12T08:59:00.000Z</time>
      </trkpt>
      <trkpt lat="47.33907" lon="-2.35295">
        <ele>2.2000000476837</ele>
        <time>2022-05-12T08:59:06.000Z</time>
      </trkpt>
      <trkpt lat="47.33898" lon="-2.35298">
        <ele>2.2000000476837</ele>
        <time>2022-05-12T08:59:08.000Z</time>
      </trkpt>
      <trkpt lat="47.33883" lon="-2.35303">
        <ele>2.2000000476837</ele>
        <time>2022-05-12T08:59:11.000Z</time>
      </trkpt>
      <trkpt lat="47.33878" lon="-2.35305">
        <ele>2.2000000476837</ele>
        <time>2022-05-12T08:59:12.000Z</time>
      </trkpt>
      <trkpt lat="47.33858" lon="-2.35318">
        <ele>2.2000000476837</ele>
        <time>2022-05-12T08:59:16.000Z</time>
      </trkpt>
      <trkpt lat="47.33829" lon="-2.35344">
        <ele>2.2000000476837</ele>
        <time>2022-05-12T08:59:22.000Z</time>
      </trkpt>
      <trkpt lat="47.33824" lon="-2.35348">
        <ele>2.2000000476837</ele>
        <time>2022-05-12T08:59:23.000Z</time>
      </trkpt>
      <trkpt lat="47.33806" lon="-2.35353">
        <ele>2.2000000476837</ele>
        <time>2022-05-12T08:59:26.000Z</time>
      </trkpt>
      <trkpt lat="47.338" lon="-2.35353">
        <ele>2.2000000476837</ele>
        <time>2022-05-12T08:59:27.000Z</time>
      </trkpt>
      <trkpt lat="47.33772" lon="-2.35356">
        <ele>2.2000000476837</ele>
        <time>2022-05-12T08:59:32.000Z</time>
      </trkpt>
      <trkpt lat="47.33737" lon="-2.35361">
        <ele>2.2000000476837</ele>
        <time>2022-05-12T08:59:38.000Z</time>
      </trkpt>
      <trkpt lat="47.337" lon="-2.35365">
        <ele>2.2000000476837</ele>
        <time>2022-05-12T08:59:44.000Z</time>
      </trkpt>
      <trkpt lat="47.33654" lon="-2.35368">
        <ele>2.2000000476837</ele>
        <time>2022-05-12T08:59:51.000Z</time>
      </trkpt>
      <trkpt lat="47.33604" lon="-2.35379">
        <ele>2.2000000476837</ele>
        <time>2022-05-12T08:59:59.000Z</time>
      </trkpt>
      <trkpt lat="47.33584" lon="-2.35385">
        <ele>1.7999999523163</ele>
        <time>2022-05-12T09:00:02.000Z</time>
      </trkpt>
      <trkpt lat="47.33578" lon="-2.35387">
        <ele>1.3999999761581</ele>
        <time>2022-05-12T09:00:03.000Z</time>
      </trkpt>
      <trkpt lat="47.33572" lon="-2.35389">
        <ele>1</ele>
        <time>2022-05-12T09:00:04.000Z</time>
      </trkpt>
      <trkpt lat="47.33566" lon="-2.35392">
        <ele>0.60000002384186</ele>
        <time>2022-05-12T09:00:05.000Z</time>
      </trkpt>
      <trkpt lat="47.3356" lon="-2.35394">
        <ele>0.20000000298023</ele>
        <time>2022-05-12T09:00:06.000Z</time>
      </trkpt>
      <trkpt lat="47.33525" lon="-2.35409">
        <ele>0.20000000298023</ele>
        <time>2022-05-12T09:00:12.000Z</time>
      </trkpt>
      <trkpt lat="47.33501" lon="-2.35419">
        <ele>0.20000000298023</ele>
        <time>2022-05-12T09:00:16.000Z</time>
      </trkpt>
      <trkpt lat="47.33486" lon="-2.35427">
        <ele>0.20000000298023</ele>
        <time>2022-05-12T09:00:19.000Z</time>
      </trkpt>
      <trkpt lat="47.33475" lon="-2.35431">
        <ele>0.20000000298023</ele>
        <time>2022-05-12T09:00:21.000Z</time>
      </trkpt>
      <trkpt lat="47.33466" lon="-2.35435">
        <ele>0.20000000298023</ele>
        <time>2022-05-12T09:00:23.000Z</time>
      </trkpt>
      <trkpt lat="47.33453" lon="-2.35445">
        <ele>0.20000000298023</ele>
        <time>2022-05-12T09:00:26.000Z</time>
      </trkpt>
      <trkpt lat="47.33448" lon="-2.35449">
        <ele>0.20000000298023</ele>
        <time>2022-05-12T09:00:27.000Z</time>
      </trkpt>
      <trkpt lat="47.33426" lon="-2.35459">
        <ele>0.20000000298023</ele>
        <time>2022-05-12T09:00:31.000Z</time>
      </trkpt>
      <trkpt lat="47.33403" lon="-2.35467">
        <ele>0.60000002384186</ele>
        <time>2022-05-12T09:00:35.000Z</time>
      </trkpt>
      <trkpt lat="47.33397" lon="-2.35469">
        <ele>1</ele>
        <time>2022-05-12T09:00:36.000Z</time>
      </trkpt>
      <trkpt lat="47.33391" lon="-2.35472">
        <ele>1.7999999523163</ele>
        <time>2022-05-12T09:00:37.000Z</time>
      </trkpt>
      <trkpt lat="47.33384" lon="-2.35475">
        <ele>2.2000000476837</ele>
        <time>2022-05-12T09:00:38.000Z</time>
      </trkpt>
      <trkpt lat="47.33377" lon="-2.35479">
        <ele>2.2000000476837</ele>
        <time>2022-05-12T09:00:39.000Z</time>
      </trkpt>
      <trkpt lat="47.3334" lon="-2.35501">
        <ele>2.2000000476837</ele>
        <time>2022-05-12T09:00:45.000Z</time>
      </trkpt>
      <trkpt lat="47.33304" lon="-2.35521">
        <ele>2.2000000476837</ele>
        <time>2022-05-12T09:00:51.000Z</time>
      </trkpt>
      <trkpt lat="47.33294" lon="-2.35531">
        <ele>2.7999999523163</ele>
        <time>2022-05-12T09:00:53.000Z</time>
      </trkpt>
      <trkpt lat="47.33289" lon="-2.35536">
        <ele>3.2000000476837</ele>
        <time>2022-05-12T09:00:54.000Z</time>
      </trkpt>
      <trkpt lat="47.33284" lon="-2.35542">
        <ele>3.5999999046326</ele>
        <time>2022-05-12T09:00:55.000Z</time>
      </trkpt>
      <trkpt lat="47.33279" lon="-2.35548">
        <ele>4</ele>
        <time>2022-05-12T09:00:56.000Z</time>
      </trkpt>
      <trkpt lat="47.33274" lon="-2.35554">
        <ele>4.4000000953674</ele>
        <time>2022-05-12T09:00:57.000Z</time>
      </trkpt>
      <trkpt lat="47.33241" lon="-2.35586">
        <ele>4.4000000953674</ele>
        <time>2022-05-12T09:01:03.000Z</time>
      </trkpt>
      <trkpt lat="47.33197" lon="-2.3562">
        <ele>4.4000000953674</ele>
        <time>2022-05-12T09:01:11.000Z</time>
      </trkpt>
      <trkpt lat="47.3318" lon="-2.35629">
        <ele>4.4000000953674</ele>
        <time>2022-05-12T09:01:14.000Z</time>
      </trkpt>
      <trkpt lat="47.33168" lon="-2.35632">
        <ele>4.4000000953674</ele>
        <time>2022-05-12T09:01:16.000Z</time>
      </trkpt>
      <trkpt lat="47.33121" lon="-2.35642">
        <ele>4</ele>
        <time>2022-05-12T09:01:23.000Z</time>
      </trkpt>
      <trkpt lat="47.33113" lon="-2.35643">
        <ele>3.5999999046326</ele>
        <time>2022-05-12T09:01:24.000Z</time>
      </trkpt>
      <trkpt lat="47.33106" lon="-2.35644">
        <ele>3</ele>
        <time>2022-05-12T09:01:25.000Z</time>
      </trkpt>
      <trkpt lat="47.33099" lon="-2.35646">
        <ele>2.2000000476837</ele>
        <time>2022-05-12T09:01:26.000Z</time>
      </trkpt>
      <trkpt lat="47.33084" lon="-2.35648">
        <ele>1.7999999523163</ele>
        <time>2022-05-12T09:01:28.000Z</time>
      </trkpt>
      <trkpt lat="47.33077" lon="-2.35649">
        <ele>1.3999999761581</ele>
        <time>2022-05-12T09:01:29.000Z</time>
      </trkpt>
      <trkpt lat="47.3307" lon="-2.3565">
        <ele>1</ele>
        <time>2022-05-12T09:01:30.000Z</time>
      </trkpt>
      <trkpt lat="47.33063" lon="-2.35652">
        <ele>0.60000002384186</ele>
        <time>2022-05-12T09:01:31.000Z</time>
      </trkpt>
      <trkpt lat="47.33056" lon="-2.35653">
        <ele>0.20000000298023</ele>
        <time>2022-05-12T09:01:32.000Z</time>
      </trkpt>
      <trkpt lat="47.33036" lon="-2.35656">
        <ele>-0.40000000596046</ele>
        <time>2022-05-12T09:01:35.000Z</time>
      </trkpt>
      <trkpt lat="47.33031" lon="-2.35657">
        <ele>-0.80000001192093</ele>
        <time>2022-05-12T09:01:36.000Z</time>
      </trkpt>
      <trkpt lat="47.33027" lon="-2.35658">
        <ele>-1.2000000476837</ele>
        <time>2022-05-12T09:01:37.000Z</time>
      </trkpt>
      <trkpt lat="47.33024" lon="-2.35658">
        <ele>-1.6000000238419</ele>
        <time>2022-05-12T09:01:38.000Z</time>
      </trkpt>
      <trkpt lat="47.33021" lon="-2.35658">
        <ele>-2</ele>
        <time>2022-05-12T09:01:39.000Z</time>
      </trkpt>
      <trkpt lat="47.33019" lon="-2.35656">
        <ele>-2</ele>
        <time>2022-05-12T09:01:40.000Z</time>
      </trkpt>
      <trkpt lat="47.33018" lon="-2.35653">
        <ele>-2</ele>
        <time>2022-05-12T09:01:41.000Z</time>
      </trkpt>
      <trkpt lat="47.33018" lon="-2.35645">
        <ele>-2</ele>
        <time>2022-05-12T09:01:43.000Z</time>
      </trkpt>
      <trkpt lat="47.33018" lon="-2.35621">
        <ele>-2</ele>
        <time>2022-05-12T09:01:49.000Z</time>
      </trkpt>
      <trkpt lat="47.3302" lon="-2.35597">
        <ele>-2</ele>
        <time>2022-05-12T09:01:54.000Z</time>
      </trkpt>
      <trkpt lat="47.33021" lon="-2.35591">
        <ele>-2</ele>
        <time>2022-05-12T09:01:55.000Z</time>
      </trkpt>
      <trkpt lat="47.33021" lon="-2.35565">
        <ele>-2</ele>
        <time>2022-05-12T09:01:59.000Z</time>
      </trkpt>
      <trkpt lat="47.33019" lon="-2.35543">
        <ele>-2</ele>
        <time>2022-05-12T09:02:02.000Z</time>
      </trkpt>
      <trkpt lat="47.3302" lon="-2.35535">
        <ele>-2</ele>
        <time>2022-05-12T09:02:03.000Z</time>
      </trkpt>
      <trkpt lat="47.33025" lon="-2.3549">
        <ele>-2</ele>
        <time>2022-05-12T09:02:09.000Z</time>
      </trkpt>
      <trkpt lat="47.33027" lon="-2.35475">
        <ele>-1.6000000238419</ele>
        <time>2022-05-12T09:02:11.000Z</time>
      </trkpt>
      <trkpt lat="47.33027" lon="-2.35467">
        <ele>-1.2000000476837</ele>
        <time>2022-05-12T09:02:12.000Z</time>
      </trkpt>
      <trkpt lat="47.33027" lon="-2.35461">
        <ele>-0.80000001192093</ele>
        <time>2022-05-12T09:02:13.000Z</time>
      </trkpt>
      <trkpt lat="47.33027" lon="-2.35454">
        <ele>-0.40000000596046</ele>
        <time>2022-05-12T09:02:14.000Z</time>
      </trkpt>
      <trkpt lat="47.33027" lon="-2.35447">
        <ele>25.9</ele>
        <time>2022-05-12T09:02:15.000Z</time>
      </trkpt>
      <trkpt lat="47.33027" lon="-2.35426">
        <ele>26</ele>
        <time>2022-05-12T09:02:18.000Z</time>
      </trkpt>
      <trkpt lat="47.33026" lon="-2.3541">
        <ele>26.2</ele>
        <time>2022-05-12T09:02:20.000Z</time>
      </trkpt>
      <trkpt lat="47.33024" lon="-2.35387">
        <ele>26.9</ele>
        <time>2022-05-12T09:02:23.000Z</time>
      </trkpt>
      <trkpt lat="47.33022" lon="-2.35372">
        <ele>0.40000000596046</ele>
        <time>2022-05-12T09:02:25.000Z</time>
      </trkpt>
      <trkpt lat="47.33021" lon="-2.35365">
        <ele>0.80000001192093</ele>
        <time>2022-05-12T09:02:26.000Z</time>
      </trkpt>
      <trkpt lat="47.33021" lon="-2.35357">
        <ele>1.2000000476837</ele>
        <time>2022-05-12T09:02:27.000Z</time>
      </trkpt>
      <trkpt lat="47.3302" lon="-2.35349">
        <ele>1.6000000238419</ele>
        <time>2022-05-12T09:02:28.000Z</time>
      </trkpt>
      <trkpt lat="47.3302" lon="-2.35341">
        <ele>2</ele>
        <time>2022-05-12T09:02:29.000Z</time>
      </trkpt>
      <trkpt lat="47.3302" lon="-2.35319">
        <ele>2</ele>
        <time>2022-05-12T09:02:32.000Z</time>
      </trkpt>
      <trkpt lat="47.33025" lon="-2.35261">
        <ele>2</ele>
        <time>2022-05-12T09:02:39.000Z</time>
      </trkpt>
      <trkpt lat="47.33024" lon="-2.35241">
        <ele>2</ele>
        <time>2022-05-12T09:02:42.000Z</time>
      </trkpt>
      <trkpt lat="47.33025" lon="-2.35233">
        <ele>2</ele>
        <time>2022-05-12T09:02:43.000Z</time>
      </trkpt>
      <trkpt lat="47.33031" lon="-2.35209">
        <ele>2</ele>
        <time>2022-05-12T09:02:46.000Z</time>
      </trkpt>
      <trkpt lat="47.33033" lon="-2.35203">
        <ele>2</ele>
        <time>2022-05-12T09:02:47.000Z</time>
      </trkpt>
      <trkpt lat="47.33037" lon="-2.35193">
        <ele>2</ele>
        <time>2022-05-12T09:02:50.000Z</time>
      </trkpt>
      <trkpt lat="47.33037" lon="-2.35193">
        <ele>2</ele>
        <time>2022-05-12T09:02:51.000Z</time>
      </trkpt>
      <trkpt lat="47.33037" lon="-2.35192">
        <ele>2</ele>
        <time>2022-05-12T09:03:00.000Z</time>
      </trkpt>
      <trkpt lat="47.3304" lon="-2.35186">
        <ele>2</ele>
        <time>2022-05-12T09:03:02.000Z</time>
      </trkpt>
      <trkpt lat="47.33048" lon="-2.35161">
        <ele>2</ele>
        <time>2022-05-12T09:03:09.000Z</time>
      </trkpt>
      <trkpt lat="47.33056" lon="-2.35142">
        <ele>2</ele>
        <time>2022-05-12T09:03:13.000Z</time>
      </trkpt>
      <trkpt lat="47.33074" lon="-2.35112">
        <ele>2</ele>
        <time>2022-05-12T09:03:19.000Z</time>
      </trkpt>
      <trkpt lat="47.33086" lon="-2.35097">
        <ele>2</ele>
        <time>2022-05-12T09:03:22.000Z</time>
      </trkpt>
      <trkpt lat="47.33092" lon="-2.35089">
        <ele>2</ele>
        <time>2022-05-12T09:03:24.000Z</time>
      </trkpt>
      <trkpt lat="47.331" lon="-2.35075">
        <ele>2</ele>
        <time>2022-05-12T09:03:27.000Z</time>
      </trkpt>
      <trkpt lat="47.33103" lon="-2.35071">
        <ele>2</ele>
        <time>2022-05-12T09:03:28.000Z</time>
      </trkpt>
      <trkpt lat="47.33112" lon="-2.35058">
        <ele>2</ele>
        <time>2022-05-12T09:03:31.000Z</time>
      </trkpt>
      <trkpt lat="47.33114" lon="-2.35053">
        <ele>2</ele>
        <time>2022-05-12T09:03:32.000Z</time>
      </trkpt>
      <trkpt lat="47.3312" lon="-2.35044">
        <ele>2</ele>
        <time>2022-05-12T09:03:34.000Z</time>
      </trkpt>
      <trkpt lat="47.33128" lon="-2.35028">
        <ele>1.6000000238419</ele>
        <time>2022-05-12T09:03:37.000Z</time>
      </trkpt>
      <trkpt lat="47.33131" lon="-2.35023">
        <ele>1.2000000476837</ele>
        <time>2022-05-12T09:03:38.000Z</time>
      </trkpt>
      <trkpt lat="47.33134" lon="-2.35017">
        <ele>0.80000001192093</ele>
        <time>2022-05-12T09:03:39.000Z</time>
      </trkpt>
      <trkpt lat="47.33136" lon="-2.35012">
        <ele>0.40000000596046</ele>
        <time>2022-05-12T09:03:40.000Z</time>
      </trkpt>
      <trkpt lat="47.3314" lon="-2.3501">
        <ele>25</ele>
        <time>2022-05-12T09:03:41.000Z</time>
      </trkpt>
      <trkpt lat="47.33143" lon="-2.35009">
        <ele>25</ele>
        <time>2022-05-12T09:03:42.000Z</time>
      </trkpt>
      <trkpt lat="47.33156" lon="-2.35014">
        <ele>25.3</ele>
        <time>2022-05-12T09:03:47.000Z</time>
      </trkpt>
      <trkpt lat="47.33166" lon="-2.35014">
        <ele>25.5</ele>
        <time>2022-05-12T09:03:51.000Z</time>
      </trkpt>
      <trkpt lat="47.33178" lon="-2.35002">
        <ele>25.1</ele>
        <time>2022-05-12T09:03:54.000Z</time>
      </trkpt>
      <trkpt lat="47.33186" lon="-2.34992">
        <ele>24.7</ele>
        <time>2022-05-12T09:03:56.000Z</time>
      </trkpt>
      <trkpt lat="47.33209" lon="-2.34968">
        <ele>24.4</ele>
        <time>2022-05-12T09:04:01.000Z</time>
      </trkpt>
      <trkpt lat="47.33213" lon="-2.34965">
        <ele>24.5</ele>
        <time>2022-05-12T09:04:02.000Z</time>
      </trkpt>
      <trkpt lat="47.33223" lon="-2.34958">
        <ele>24.5</ele>
        <time>2022-05-12T09:04:04.000Z</time>
      </trkpt>
      <trkpt lat="47.3324" lon="-2.34954">
        <ele>24.3</ele>
        <time>2022-05-12T09:04:07.000Z</time>
      </trkpt>
      <trkpt lat="47.33263" lon="-2.34947">
        <ele>24.6</ele>
        <time>2022-05-12T09:04:12.000Z</time>
      </trkpt>
      <trkpt lat="47.33289" lon="-2.34942">
        <ele>25.3</ele>
        <time>2022-05-12T09:04:18.000Z</time>
      </trkpt>
      <trkpt lat="47.33303" lon="-2.34942">
        <ele>25.8</ele>
        <time>2022-05-12T09:04:23.000Z</time>
      </trkpt>
      <trkpt lat="47.33313" lon="-2.34941">
        <ele>25.9</ele>
        <time>2022-05-12T09:04:31.000Z</time>
      </trkpt>
      <trkpt lat="47.3332" lon="-2.34939">
        <ele>25.9</ele>
        <time>2022-05-12T09:04:36.000Z</time>
      </trkpt>
      <trkpt lat="47.33333" lon="-2.34939">
        <ele>26</ele>
        <time>2022-05-12T09:04:41.000Z</time>
      </trkpt>
      <trkpt lat="47.33353" lon="-2.34935">
        <ele>26.5</ele>
        <time>2022-05-12T09:04:46.000Z</time>
      </trkpt>
      <trkpt lat="47.33361" lon="-2.34933">
        <ele>26.6</ele>
        <time>2022-05-12T09:04:48.000Z</time>
      </trkpt>
      <trkpt lat="47.33375" lon="-2.34935">
        <ele>27.2</ele>
        <time>2022-05-12T09:04:51.000Z</time>
      </trkpt>
      <trkpt lat="47.33396" lon="-2.3493">
        <ele>0.40000000596046</ele>
        <time>2022-05-12T09:04:56.000Z</time>
      </trkpt>
      <trkpt lat="47.33399" lon="-2.34928">
        <ele>0.80000001192093</ele>
        <time>2022-05-12T09:04:57.000Z</time>
      </trkpt>
      <trkpt lat="47.33403" lon="-2.34927">
        <ele>1.2000000476837</ele>
        <time>2022-05-12T09:04:58.000Z</time>
      </trkpt>
      <trkpt lat="47.33407" lon="-2.34925">
        <ele>1.6000000238419</ele>
        <time>2022-05-12T09:04:59.000Z</time>
      </trkpt>
      <trkpt lat="47.3341" lon="-2.34922">
        <ele>2</ele>
        <time>2022-05-12T09:05:00.000Z</time>
      </trkpt>
      <trkpt lat="47.33413" lon="-2.3492">
        <ele>2</ele>
        <time>2022-05-12T09:05:01.000Z</time>
      </trkpt>
      <trkpt lat="47.33434" lon="-2.34909">
        <ele>2</ele>
        <time>2022-05-12T09:05:06.000Z</time>
      </trkpt>
      <trkpt lat="47.33461" lon="-2.34897">
        <ele>2</ele>
        <time>2022-05-12T09:05:12.000Z</time>
      </trkpt>
      <trkpt lat="47.33485" lon="-2.34891">
        <ele>2</ele>
        <time>2022-05-12T09:05:17.000Z</time>
      </trkpt>
      <trkpt lat="47.33503" lon="-2.34896">
        <ele>2</ele>
        <time>2022-05-12T09:05:21.000Z</time>
      </trkpt>
      <trkpt lat="47.33508" lon="-2.34899">
        <ele>2</ele>
        <time>2022-05-12T09:05:22.000Z</time>
      </trkpt>
      <trkpt lat="47.3353" lon="-2.34908">
        <ele>2</ele>
        <time>2022-05-12T09:05:26.000Z</time>
      </trkpt>
      <trkpt lat="47.3354" lon="-2.34912">
        <ele>2</ele>
        <time>2022-05-12T09:05:28.000Z</time>
      </trkpt>
      <trkpt lat="47.33573" lon="-2.34925">
        <ele>2</ele>
        <time>2022-05-12T09:05:34.000Z</time>
      </trkpt>
      <trkpt lat="47.33614" lon="-2.34946">
        <ele>2</ele>
        <time>2022-05-12T09:05:41.000Z</time>
      </trkpt>
      <trkpt lat="47.33639" lon="-2.34963">
        <ele>2</ele>
        <time>2022-05-12T09:05:46.000Z</time>
      </trkpt>
      <trkpt lat="47.33643" lon="-2.34964">
        <ele>1.6000000238419</ele>
        <time>2022-05-12T09:05:47.000Z</time>
      </trkpt>
      <trkpt lat="47.33649" lon="-2.34963">
        <ele>1.2000000476837</ele>
        <time>2022-05-12T09:05:48.000Z</time>
      </trkpt>
      <trkpt lat="47.33653" lon="-2.34962">
        <ele>0.80000001192093</ele>
        <time>2022-05-12T09:05:49.000Z</time>
      </trkpt>
      <trkpt lat="47.33658" lon="-2.34962">
        <ele>0.40000000596046</ele>
        <time>2022-05-12T09:05:50.000Z</time>
      </trkpt>
      <trkpt lat="47.33662" lon="-2.3496">
        <ele>24.3</ele>
        <time>2022-05-12T09:05:51.000Z</time>
      </trkpt>
      <trkpt lat="47.33666" lon="-2.34957">
        <ele>24</ele>
        <time>2022-05-12T09:05:53.000Z</time>
      </trkpt>
      <trkpt lat="47.33662" lon="-2.34948">
        <ele>24.2</ele>
        <time>2022-05-12T09:05:57.000Z</time>
      </trkpt>
      <trkpt lat="47.3365" lon="-2.34931">
        <ele>24.6</ele>
        <time>2022-05-12T09:06:02.000Z</time>
      </trkpt>
      <trkpt lat="47.33631" lon="-2.34908">
        <ele>25.3</ele>
        <time>2022-05-12T09:06:09.000Z</time>
      </trkpt>
      <trkpt lat="47.33609" lon="-2.34878">
        <ele>26</ele>
        <time>2022-05-12T09:06:16.000Z</time>
      </trkpt>
      <trkpt lat="47.33586" lon="-2.34844">
        <ele>26.6</ele>
        <time>2022-05-12T09:06:23.000Z</time>
      </trkpt>
      <trkpt lat="47.33583" lon="-2.34839">
        <ele>0.40000000596046</ele>
        <time>2022-05-12T09:06:24.000Z</time>
      </trkpt>
      <trkpt lat="47.3358" lon="-2.34835">
        <ele>0.80000001192093</ele>
        <time>2022-05-12T09:06:25.000Z</time>
      </trkpt>
      <trkpt lat="47.33577" lon="-2.34831">
        <ele>1.2000000476837</ele>
        <time>2022-05-12T09:06:26.000Z</time>
      </trkpt>
      <trkpt lat="47.33574" lon="-2.34828">
        <ele>1.6000000238419</ele>
        <time>2022-05-12T09:06:27.000Z</time>
      </trkpt>
      <trkpt lat="47.33571" lon="-2.34825">
        <ele>2</ele>
        <time>2022-05-12T09:06:28.000Z</time>
      </trkpt>
      <trkpt lat="47.33569" lon="-2.34821">
        <ele>2</ele>
        <time>2022-05-12T09:06:29.000Z</time>
      </trkpt>
      <trkpt lat="47.33558" lon="-2.34809">
        <ele>2</ele>
        <time>2022-05-12T09:06:35.000Z</time>
      </trkpt>
      <trkpt lat="47.33554" lon="-2.34804">
        <ele>2</ele>
        <time>2022-05-12T09:06:40.000Z</time>
      </trkpt>
      <trkpt lat="47.33552" lon="-2.34798">
        <ele>2</ele>
        <time>2022-05-12T09:07:03.000Z</time>
      </trkpt>
      <trkpt lat="47.33539" lon="-2.34775">
        <ele>2</ele>
        <time>2022-05-12T09:07:09.000Z</time>
      </trkpt>
      <trkpt lat="47.33525" lon="-2.34756">
        <ele>2</ele>
        <time>2022-05-12T09:07:14.000Z</time>
      </trkpt>
      <trkpt lat="47.33503" lon="-2.34726">
        <ele>2</ele>
        <time>2022-05-12T09:07:19.000Z</time>
      </trkpt>
      <trkpt lat="47.3349" lon="-2.34707">
        <ele>2</ele>
        <time>2022-05-12T09:07:23.000Z</time>
      </trkpt>
      <trkpt lat="47.3348" lon="-2.34693">
        <ele>2</ele>
        <time>2022-05-12T09:07:25.000Z</time>
      </trkpt>
      <trkpt lat="47.33445" lon="-2.34636">
        <ele>2</ele>
        <time>2022-05-12T09:07:33.000Z</time>
      </trkpt>
      <trkpt lat="47.33433" lon="-2.34614">
        <ele>1.6000000238419</ele>
        <time>2022-05-12T09:07:36.000Z</time>
      </trkpt>
      <trkpt lat="47.33429" lon="-2.34606">
        <ele>1.2000000476837</ele>
        <time>2022-05-12T09:07:37.000Z</time>
      </trkpt>
      <trkpt lat="47.33425" lon="-2.34598">
        <ele>0.20000000298023</ele>
        <time>2022-05-12T09:07:38.000Z</time>
      </trkpt>
      <trkpt lat="47.33421" lon="-2.34591">
        <ele>-0.20000000298023</ele>
        <time>2022-05-12T09:07:39.000Z</time>
      </trkpt>
      <trkpt lat="47.33408" lon="-2.34566">
        <ele>-0.20000000298023</ele>
        <time>2022-05-12T09:07:42.000Z</time>
      </trkpt>
      <trkpt lat="47.33384" lon="-2.34518">
        <ele>-0.60000002384186</ele>
        <time>2022-05-12T09:07:48.000Z</time>
      </trkpt>
      <trkpt lat="47.3338" lon="-2.3451">
        <ele>-1</ele>
        <time>2022-05-12T09:07:49.000Z</time>
      </trkpt>
      <trkpt lat="47.33376" lon="-2.34503">
        <ele>-1.3999999761581</ele>
        <time>2022-05-12T09:07:50.000Z</time>
      </trkpt>
      <trkpt lat="47.33372" lon="-2.34496">
        <ele>-2</ele>
        <time>2022-05-12T09:07:51.000Z</time>
      </trkpt>
      <trkpt lat="47.33368" lon="-2.34493">
        <ele>-2.4000000953674</ele>
        <time>2022-05-12T09:07:52.000Z</time>
      </trkpt>
      <trkpt lat="47.33363" lon="-2.34493">
        <ele>-2.4000000953674</ele>
        <time>2022-05-12T09:07:53.000Z</time>
      </trkpt>
      <trkpt lat="47.33354" lon="-2.34506">
        <ele>-2.4000000953674</ele>
        <time>2022-05-12T09:07:56.000Z</time>
      </trkpt>
      <trkpt lat="47.3335" lon="-2.34511">
        <ele>-2.4000000953674</ele>
        <time>2022-05-12T09:07:57.000Z</time>
      </trkpt>
      <trkpt lat="47.33345" lon="-2.34525">
        <ele>-2.4000000953674</ele>
        <time>2022-05-12T09:07:59.000Z</time>
      </trkpt>
      <trkpt lat="47.33341" lon="-2.34539">
        <ele>-2.4000000953674</ele>
        <time>2022-05-12T09:08:01.000Z</time>
      </trkpt>
      <trkpt lat="47.33339" lon="-2.34544">
        <ele>-2.7999999523163</ele>
        <time>2022-05-12T09:08:02.000Z</time>
      </trkpt>
      <trkpt lat="47.33337" lon="-2.34548">
        <ele>-3.2000000476837</ele>
        <time>2022-05-12T09:08:03.000Z</time>
      </trkpt>
      <trkpt lat="47.33336" lon="-2.34552">
        <ele>-3.5999999046326</ele>
        <time>2022-05-12T09:08:04.000Z</time>
      </trkpt>
      <trkpt lat="47.33335" lon="-2.34555">
        <ele>-4.1999998092651</ele>
        <time>2022-05-12T09:08:05.000Z</time>
      </trkpt>
      <trkpt lat="47.33334" lon="-2.34558">
        <ele>-4.5999999046326</ele>
        <time>2022-05-12T09:08:06.000Z</time>
      </trkpt>
      <trkpt lat="47.3333" lon="-2.34571">
        <ele>-4.5999999046326</ele>
        <time>2022-05-12T09:08:10.000Z</time>
      </trkpt>
      <trkpt lat="47.33319" lon="-2.34606">
        <ele>-4.5999999046326</ele>
        <time>2022-05-12T09:08:18.000Z</time>
      </trkpt>
      <trkpt lat="47.33307" lon="-2.34638">
        <ele>-4.5999999046326</ele>
        <time>2022-05-12T09:08:24.000Z</time>
      </trkpt>
      <trkpt lat="47.33296" lon="-2.34655">
        <ele>-4.5999999046326</ele>
        <time>2022-05-12T09:08:29.000Z</time>
      </trkpt>
      <trkpt lat="47.33291" lon="-2.34681">
        <ele>-4.5999999046326</ele>
        <time>2022-05-12T09:08:36.000Z</time>
      </trkpt>
      <trkpt lat="47.33283" lon="-2.34707">
        <ele>-4.5999999046326</ele>
        <time>2022-05-12T09:08:41.000Z</time>
      </trkpt>
      <trkpt lat="47.33273" lon="-2.34734">
        <ele>-4.5999999046326</ele>
        <time>2022-05-12T09:08:46.000Z</time>
      </trkpt>
      <trkpt lat="47.33267" lon="-2.3476">
        <ele>-4.5999999046326</ele>
        <time>2022-05-12T09:08:51.000Z</time>
      </trkpt>
      <trkpt lat="47.33255" lon="-2.34791">
        <ele>-4.5999999046326</ele>
        <time>2022-05-12T09:08:56.000Z</time>
      </trkpt>
      <trkpt lat="47.33241" lon="-2.34825">
        <ele>-4.5999999046326</ele>
        <time>2022-05-12T09:09:02.000Z</time>
      </trkpt>
      <trkpt lat="47.33225" lon="-2.34863">
        <ele>-4.5999999046326</ele>
        <time>2022-05-12T09:09:08.000Z</time>
      </trkpt>
      <trkpt lat="47.33213" lon="-2.34892">
        <ele>-4.1999998092651</ele>
        <time>2022-05-12T09:09:13.000Z</time>
      </trkpt>
      <trkpt lat="47.33211" lon="-2.34897">
        <ele>-3.7999999523163</ele>
        <time>2022-05-12T09:09:14.000Z</time>
      </trkpt>
      <trkpt lat="47.33209" lon="-2.34901">
        <ele>-3.4000000953674</ele>
        <time>2022-05-12T09:09:15.000Z</time>
      </trkpt>
      <trkpt lat="47.33206" lon="-2.34906">
        <ele>-2.4000000953674</ele>
        <time>2022-05-12T09:09:16.000Z</time>
      </trkpt>
      <trkpt lat="47.33197" lon="-2.34927">
        <ele>-2.4000000953674</ele>
        <time>2022-05-12T09:09:20.000Z</time>
      </trkpt>
      <trkpt lat="47.33183" lon="-2.34953">
        <ele>-2.4000000953674</ele>
        <time>2022-05-12T09:09:26.000Z</time>
      </trkpt>
      <trkpt lat="47.33176" lon="-2.34972">
        <ele>-2</ele>
        <time>2022-05-12T09:09:30.000Z</time>
      </trkpt>
      <trkpt lat="47.33172" lon="-2.34979">
        <ele>-1.6000000238419</ele>
        <time>2022-05-12T09:09:31.000Z</time>
      </trkpt>
      <trkpt lat="47.33168" lon="-2.34986">
        <ele>-1.2000000476837</ele>
        <time>2022-05-12T09:09:32.000Z</time>
      </trkpt>
      <trkpt lat="47.33164" lon="-2.34993">
        <ele>-0.80000001192093</ele>
        <time>2022-05-12T09:09:33.000Z</time>
      </trkpt>
      <trkpt lat="47.3316" lon="-2.34998">
        <ele>-0.40000000596046</ele>
        <time>2022-05-12T09:09:34.000Z</time>
      </trkpt>
      <trkpt lat="47.33149" lon="-2.35015">
        <ele>-0.40000000596046</ele>
        <time>2022-05-12T09:09:37.000Z</time>
      </trkpt>
      <trkpt lat="47.33129" lon="-2.35043">
        <ele>-0.40000000596046</ele>
        <time>2022-05-12T09:09:43.000Z</time>
      </trkpt>
      <trkpt lat="47.33127" lon="-2.35048">
        <ele>-0.40000000596046</ele>
        <time>2022-05-12T09:09:44.000Z</time>
      </trkpt>
      <trkpt lat="47.33109" lon="-2.35072">
        <ele>-0.40000000596046</ele>
        <time>2022-05-12T09:09:50.000Z</time>
      </trkpt>
      <trkpt lat="47.33095" lon="-2.3509">
        <ele>-0.40000000596046</ele>
        <time>2022-05-12T09:09:54.000Z</time>
      </trkpt>
      <trkpt lat="47.33083" lon="-2.35107">
        <ele>-0.40000000596046</ele>
        <time>2022-05-12T09:09:58.000Z</time>
      </trkpt>
      <trkpt lat="47.33075" lon="-2.35119">
        <ele>26.3</ele>
        <time>2022-05-12T09:10:01.000Z</time>
      </trkpt>
      <trkpt lat="47.33073" lon="-2.35124">
        <ele>0.40000000596046</ele>
        <time>2022-05-12T09:10:02.000Z</time>
      </trkpt>
      <trkpt lat="47.3307" lon="-2.35128">
        <ele>0.80000001192093</ele>
        <time>2022-05-12T09:10:03.000Z</time>
      </trkpt>
      <trkpt lat="47.33067" lon="-2.35132">
        <ele>1.2000000476837</ele>
        <time>2022-05-12T09:10:04.000Z</time>
      </trkpt>
      <trkpt lat="47.33064" lon="-2.35137">
        <ele>1.6000000238419</ele>
        <time>2022-05-12T09:10:05.000Z</time>
      </trkpt>
      <trkpt lat="47.33055" lon="-2.3515">
        <ele>1.6000000238419</ele>
        <time>2022-05-12T09:10:08.000Z</time>
      </trkpt>
      <trkpt lat="47.33053" lon="-2.35156">
        <ele>1.6000000238419</ele>
        <time>2022-05-12T09:10:09.000Z</time>
      </trkpt>
      <trkpt lat="47.33048" lon="-2.35174">
        <ele>1.6000000238419</ele>
        <time>2022-05-12T09:10:12.000Z</time>
      </trkpt>
      <trkpt lat="47.33045" lon="-2.35179">
        <ele>1.6000000238419</ele>
        <time>2022-05-12T09:10:13.000Z</time>
      </trkpt>
      <trkpt lat="47.33038" lon="-2.35188">
        <ele>1.6000000238419</ele>
        <time>2022-05-12T09:10:16.000Z</time>
      </trkpt>
      <trkpt lat="47.33035" lon="-2.35188">
        <ele>1.6000000238419</ele>
        <time>2022-05-12T09:10:17.000Z</time>
      </trkpt>
      <trkpt lat="47.33027" lon="-2.35176">
        <ele>1.6000000238419</ele>
        <time>2022-05-12T09:10:22.000Z</time>
      </trkpt>
      <trkpt lat="47.33025" lon="-2.35153">
        <ele>1.6000000238419</ele>
        <time>2022-05-12T09:10:28.000Z</time>
      </trkpt>
      <trkpt lat="47.33029" lon="-2.35121">
        <ele>1.6000000238419</ele>
        <time>2022-05-12T09:10:34.000Z</time>
      </trkpt>
      <trkpt lat="47.33031" lon="-2.35096">
        <ele>1.6000000238419</ele>
        <time>2022-05-12T09:10:39.000Z</time>
      </trkpt>
      <trkpt lat="47.33028" lon="-2.35071">
        <ele>1.6000000238419</ele>
        <time>2022-05-12T09:10:45.000Z</time>
      </trkpt>
      <trkpt lat="47.3302" lon="-2.35047">
        <ele>1.6000000238419</ele>
        <time>2022-05-12T09:10:51.000Z</time>
      </trkpt>
      <trkpt lat="47.33014" lon="-2.35025">
        <ele>1.6000000238419</ele>
        <time>2022-05-12T09:10:56.000Z</time>
      </trkpt>
      <trkpt lat="47.33004" lon="-2.34998">
        <ele>1.6000000238419</ele>
        <time>2022-05-12T09:11:00.000Z</time>
      </trkpt>
      <trkpt lat="47.33001" lon="-2.3499">
        <ele>1.6000000238419</ele>
        <time>2022-05-12T09:11:01.000Z</time>
      </trkpt>
      <trkpt lat="47.32999" lon="-2.34984">
        <ele>1.2000000476837</ele>
        <time>2022-05-12T09:11:02.000Z</time>
      </trkpt>
      <trkpt lat="47.32995" lon="-2.34976">
        <ele>0.80000001192093</ele>
        <time>2022-05-12T09:11:03.000Z</time>
      </trkpt>
      <trkpt lat="47.32992" lon="-2.34969">
        <ele>0.40000000596046</ele>
        <time>2022-05-12T09:11:04.000Z</time>
      </trkpt>
      <trkpt lat="47.32989" lon="-2.34963">
        <ele>23.8</ele>
        <time>2022-05-12T09:11:05.000Z</time>
      </trkpt>
      <trkpt lat="47.32986" lon="-2.34955">
        <ele>-0.40000000596046</ele>
        <time>2022-05-12T09:11:06.000Z</time>
      </trkpt>
      <trkpt lat="47.32972" lon="-2.34911">
        <ele>-0.40000000596046</ele>
        <time>2022-05-12T09:11:12.000Z</time>
      </trkpt>
      <trkpt lat="47.32954" lon="-2.34867">
        <ele>-0.40000000596046</ele>
        <time>2022-05-12T09:11:17.000Z</time>
      </trkpt>
      <trkpt lat="47.32934" lon="-2.34821">
        <ele>-0.40000000596046</ele>
        <time>2022-05-12T09:11:23.000Z</time>
      </trkpt>
      <trkpt lat="47.3293" lon="-2.34813">
        <ele>-0.40000000596046</ele>
        <time>2022-05-12T09:11:24.000Z</time>
      </trkpt>
      <trkpt lat="47.32912" lon="-2.34801">
        <ele>-0.40000000596046</ele>
        <time>2022-05-12T09:11:27.000Z</time>
      </trkpt>
      <trkpt lat="47.3289" lon="-2.34806">
        <ele>-0.40000000596046</ele>
        <time>2022-05-12T09:11:31.000Z</time>
      </trkpt>
      <trkpt lat="47.32881" lon="-2.34809">
        <ele>-0.40000000596046</ele>
        <time>2022-05-12T09:11:33.000Z</time>
      </trkpt>
      <trkpt lat="47.32868" lon="-2.34817">
        <ele>-0.40000000596046</ele>
        <time>2022-05-12T09:11:36.000Z</time>
      </trkpt>
      <trkpt lat="47.32848" lon="-2.3483">
        <ele>-0.40000000596046</ele>
        <time>2022-05-12T09:11:41.000Z</time>
      </trkpt>
      <trkpt lat="47.32843" lon="-2.34833">
        <ele>-0.40000000596046</ele>
        <time>2022-05-12T09:11:42.000Z</time>
      </trkpt>
      <trkpt lat="47.32819" lon="-2.34849">
        <ele>-0.40000000596046</ele>
        <time>2022-05-12T09:11:48.000Z</time>
      </trkpt>
      <trkpt lat="47.32802" lon="-2.3486">
        <ele>-0.40000000596046</ele>
        <time>2022-05-12T09:11:52.000Z</time>
      </trkpt>
      <trkpt lat="47.32798" lon="-2.34863">
        <ele>-0.40000000596046</ele>
        <time>2022-05-12T09:11:53.000Z</time>
      </trkpt>
      <trkpt lat="47.32773" lon="-2.3488">
        <ele>-0.40000000596046</ele>
        <time>2022-05-12T09:11:59.000Z</time>
      </trkpt>
      <trkpt lat="47.32747" lon="-2.34898">
        <ele>-0.40000000596046</ele>
        <time>2022-05-12T09:12:05.000Z</time>
      </trkpt>
      <trkpt lat="47.32724" lon="-2.34915">
        <ele>-0.40000000596046</ele>
        <time>2022-05-12T09:12:11.000Z</time>
      </trkpt>
      <trkpt lat="47.32704" lon="-2.34931">
        <ele>-0.40000000596046</ele>
        <time>2022-05-12T09:12:17.000Z</time>
      </trkpt>
      <trkpt lat="47.32685" lon="-2.34945">
        <ele>-0.40000000596046</ele>
        <time>2022-05-12T09:12:23.000Z</time>
      </trkpt>
      <trkpt lat="47.32677" lon="-2.3495">
        <ele>26.2</ele>
        <time>2022-05-12T09:12:26.000Z</time>
      </trkpt>
      <trkpt lat="47.32675" lon="-2.34952">
        <ele>0.40000000596046</ele>
        <time>2022-05-12T09:12:27.000Z</time>
      </trkpt>
      <trkpt lat="47.32673" lon="-2.34953">
        <ele>0.80000001192093</ele>
        <time>2022-05-12T09:12:28.000Z</time>
      </trkpt>
      <trkpt lat="47.32672" lon="-2.34953">
        <ele>1.2000000476837</ele>
        <time>2022-05-12T09:12:29.000Z</time>
      </trkpt>
      <trkpt lat="47.3267" lon="-2.34954">
        <ele>1.6000000238419</ele>
        <time>2022-05-12T09:12:30.000Z</time>
      </trkpt>
      <trkpt lat="47.32669" lon="-2.34954">
        <ele>1.6000000238419</ele>
        <time>2022-05-12T09:12:34.000Z</time>
      </trkpt>
      <trkpt lat="47.32662" lon="-2.34958">
        <ele>1.6000000238419</ele>
        <time>2022-05-12T09:13:01.000Z</time>
      </trkpt>
      <trkpt lat="47.32649" lon="-2.34969">
        <ele>1.6000000238419</ele>
        <time>2022-05-12T09:13:05.000Z</time>
      </trkpt>
      <trkpt lat="47.32645" lon="-2.34972">
        <ele>1.6000000238419</ele>
        <time>2022-05-12T09:13:06.000Z</time>
      </trkpt>
      <trkpt lat="47.32628" lon="-2.34982">
        <ele>1.6000000238419</ele>
        <time>2022-05-12T09:13:10.000Z</time>
      </trkpt>
      <trkpt lat="47.32602" lon="-2.34999">
        <ele>1.6000000238419</ele>
        <time>2022-05-12T09:13:16.000Z</time>
      </trkpt>
      <trkpt lat="47.32583" lon="-2.3501">
        <ele>2</ele>
        <time>2022-05-12T09:13:20.000Z</time>
      </trkpt>
      <trkpt lat="47.32578" lon="-2.35012">
        <ele>2.4000000953674</ele>
        <time>2022-05-12T09:13:21.000Z</time>
      </trkpt>
      <trkpt lat="47.32573" lon="-2.35014">
        <ele>2.7999999523163</ele>
        <time>2022-05-12T09:13:22.000Z</time>
      </trkpt>
      <trkpt lat="47.32568" lon="-2.35015">
        <ele>3.2000000476837</ele>
        <time>2022-05-12T09:13:23.000Z</time>
      </trkpt>
      <trkpt lat="47.32563" lon="-2.35017">
        <ele>3.5999999046326</ele>
        <time>2022-05-12T09:13:24.000Z</time>
      </trkpt>
      <trkpt lat="47.32549" lon="-2.35022">
        <ele>3.5999999046326</ele>
        <time>2022-05-12T09:13:27.000Z</time>
      </trkpt>
      <trkpt lat="47.32539" lon="-2.35026">
        <ele>3.5999999046326</ele>
        <time>2022-05-12T09:13:29.000Z</time>
      </trkpt>
      <trkpt lat="47.32513" lon="-2.35035">
        <ele>3.5999999046326</ele>
        <time>2022-05-12T09:13:35.000Z</time>
      </trkpt>
      <trkpt lat="47.32499" lon="-2.35039">
        <ele>3.5999999046326</ele>
        <time>2022-05-12T09:13:38.000Z</time>
      </trkpt>
      <trkpt lat="47.32485" lon="-2.35041">
        <ele>3.5999999046326</ele>
        <time>2022-05-12T09:13:40.000Z</time>
      </trkpt>
      <trkpt lat="47.32458" lon="-2.35047">
        <ele>4</ele>
        <time>2022-05-12T09:13:45.000Z</time>
      </trkpt>
      <trkpt lat="47.32452" lon="-2.35049">
        <ele>4.5999999046326</ele>
        <time>2022-05-12T09:13:46.000Z</time>
      </trkpt>
      <trkpt lat="47.32447" lon="-2.35051">
        <ele>5</ele>
        <time>2022-05-12T09:13:47.000Z</time>
      </trkpt>
      <trkpt lat="47.32441" lon="-2.35052">
        <ele>5.4000000953674</ele>
        <time>2022-05-12T09:13:48.000Z</time>
      </trkpt>
      <trkpt lat="47.32435" lon="-2.35053">
        <ele>5.8000001907349</ele>
        <time>2022-05-12T09:13:49.000Z</time>
      </trkpt>
      <trkpt lat="47.32418" lon="-2.35055">
        <ele>5.8000001907349</ele>
        <time>2022-05-12T09:13:52.000Z</time>
      </trkpt>
      <trkpt lat="47.32379" lon="-2.35053">
        <ele>5.8000001907349</ele>
        <time>2022-05-12T09:13:58.000Z</time>
      </trkpt>
      <trkpt lat="47.32335" lon="-2.35054">
        <ele>5.8000001907349</ele>
        <time>2022-05-12T09:14:05.000Z</time>
      </trkpt>
      <trkpt lat="47.32296" lon="-2.35055">
        <ele>5.8000001907349</ele>
        <time>2022-05-12T09:14:11.000Z</time>
      </trkpt>
      <trkpt lat="47.32281" lon="-2.35053">
        <ele>5.4000000953674</ele>
        <time>2022-05-12T09:14:13.000Z</time>
      </trkpt>
      <trkpt lat="47.32275" lon="-2.35053">
        <ele>4.4000000953674</ele>
        <time>2022-05-12T09:14:14.000Z</time>
      </trkpt>
      <trkpt lat="47.32267" lon="-2.35053">
        <ele>4</ele>
        <time>2022-05-12T09:14:15.000Z</time>
      </trkpt>
      <trkpt lat="47.3226" lon="-2.35053">
        <ele>3.5999999046326</ele>
        <time>2022-05-12T09:14:16.000Z</time>
      </trkpt>
      <trkpt lat="47.32229" lon="-2.35056">
        <ele>3.5999999046326</ele>
        <time>2022-05-12T09:14:21.000Z</time>
      </trkpt>
      <trkpt lat="47.32189" lon="-2.35063">
        <ele>3.5999999046326</ele>
        <time>2022-05-12T09:14:27.000Z</time>
      </trkpt>
      <trkpt lat="47.3215" lon="-2.35065">
        <ele>3.2000000476837</ele>
        <time>2022-05-12T09:14:33.000Z</time>
      </trkpt>
      <trkpt lat="47.32144" lon="-2.35065">
        <ele>2.7999999523163</ele>
        <time>2022-05-12T09:14:34.000Z</time>
      </trkpt>
      <trkpt lat="47.32138" lon="-2.35066">
        <ele>2.4000000953674</ele>
        <time>2022-05-12T09:14:35.000Z</time>
      </trkpt>
      <trkpt lat="47.32132" lon="-2.35066">
        <ele>2</ele>
        <time>2022-05-12T09:14:36.000Z</time>
      </trkpt>
      <trkpt lat="47.32126" lon="-2.35066">
        <ele>1.6000000238419</ele>
        <time>2022-05-12T09:14:37.000Z</time>
      </trkpt>
      <trkpt lat="47.32093" lon="-2.35065">
        <ele>1.6000000238419</ele>
        <time>2022-05-12T09:14:42.000Z</time>
      </trkpt>
      <trkpt lat="47.32054" lon="-2.35059">
        <ele>1.6000000238419</ele>
        <time>2022-05-12T09:14:48.000Z</time>
      </trkpt>
      <trkpt lat="47.32048" lon="-2.3506">
        <ele>1.6000000238419</ele>
        <time>2022-05-12T09:14:49.000Z</time>
      </trkpt>
      <trkpt lat="47.32041" lon="-2.35065">
        <ele>1.6000000238419</ele>
        <time>2022-05-12T09:14:51.000Z</time>
      </trkpt>
      <trkpt lat="47.32044" lon="-2.35078">
        <ele>1.6000000238419</ele>
        <time>2022-05-12T09:14:53.000Z</time>
      </trkpt>
      <trkpt lat="47.32049" lon="-2.35091">
        <ele>1.6000000238419</ele>
        <time>2022-05-12T09:14:55.000Z</time>
      </trkpt>
      <trkpt lat="47.32054" lon="-2.35115">
        <ele>1.6000000238419</ele>
        <time>2022-05-12T09:14:59.000Z</time>
      </trkpt>
      <trkpt lat="47.32052" lon="-2.35121">
        <ele>1.6000000238419</ele>
        <time>2022-05-12T09:15:00.000Z</time>
      </trkpt>
      <trkpt lat="47.32044" lon="-2.3513">
        <ele>1.6000000238419</ele>
        <time>2022-05-12T09:15:02.000Z</time>
      </trkpt>
      <trkpt lat="47.32036" lon="-2.35138">
        <ele>1.6000000238419</ele>
        <time>2022-05-12T09:15:04.000Z</time>
      </trkpt>
      <trkpt lat="47.32023" lon="-2.35153">
        <ele>1.6000000238419</ele>
        <time>2022-05-12T09:15:07.000Z</time>
      </trkpt>
      <trkpt lat="47.31985" lon="-2.35193">
        <ele>1.6000000238419</ele>
        <time>2022-05-12T09:15:15.000Z</time>
      </trkpt>
      <trkpt lat="47.31958" lon="-2.35215">
        <ele>1.6000000238419</ele>
        <time>2022-05-12T09:15:20.000Z</time>
      </trkpt>
      <trkpt lat="47.31954" lon="-2.35219">
        <ele>1.6000000238419</ele>
        <time>2022-05-12T09:15:21.000Z</time>
      </trkpt>
      <trkpt lat="47.31928" lon="-2.35242">
        <ele>1.6000000238419</ele>
        <time>2022-05-12T09:15:26.000Z</time>
      </trkpt>
      <trkpt lat="47.31923" lon="-2.35247">
        <ele>1.6000000238419</ele>
        <time>2022-05-12T09:15:27.000Z</time>
      </trkpt>
      <trkpt lat="47.31899" lon="-2.35268">
        <ele>1.6000000238419</ele>
        <time>2022-05-12T09:15:32.000Z</time>
      </trkpt>
      <trkpt lat="47.31886" lon="-2.35278">
        <ele>2</ele>
        <time>2022-05-12T09:15:35.000Z</time>
      </trkpt>
      <trkpt lat="47.31881" lon="-2.35282">
        <ele>2.4000000953674</ele>
        <time>2022-05-12T09:15:36.000Z</time>
      </trkpt>
      <trkpt lat="47.31877" lon="-2.35286">
        <ele>2.7999999523163</ele>
        <time>2022-05-12T09:15:37.000Z</time>
      </trkpt>
      <trkpt lat="47.31872" lon="-2.35289">
        <ele>3.2000000476837</ele>
        <time>2022-05-12T09:15:38.000Z</time>
      </trkpt>
      <trkpt lat="47.31868" lon="-2.35293">
        <ele>3.5999999046326</ele>
        <time>2022-05-12T09:15:39.000Z</time>
      </trkpt>
      <trkpt lat="47.31847" lon="-2.35307">
        <ele>3.5999999046326</ele>
        <time>2022-05-12T09:15:43.000Z</time>
      </trkpt>
      <trkpt lat="47.3183" lon="-2.35317">
        <ele>3.5999999046326</ele>
        <time>2022-05-12T09:15:46.000Z</time>
      </trkpt>
      <trkpt lat="47.31825" lon="-2.35319">
        <ele>4</ele>
        <time>2022-05-12T09:15:47.000Z</time>
      </trkpt>
      <trkpt lat="47.3182" lon="-2.35322">
        <ele>4.4000000953674</ele>
        <time>2022-05-12T09:15:48.000Z</time>
      </trkpt>
      <trkpt lat="47.31815" lon="-2.35325">
        <ele>4.8000001907349</ele>
        <time>2022-05-12T09:15:49.000Z</time>
      </trkpt>
      <trkpt lat="47.3181" lon="-2.35328">
        <ele>5.1999998092651</ele>
        <time>2022-05-12T09:15:50.000Z</time>
      </trkpt>
      <trkpt lat="47.31805" lon="-2.3533">
        <ele>5.5999999046326</ele>
        <time>2022-05-12T09:15:51.000Z</time>
      </trkpt>
      <trkpt lat="47.318" lon="-2.35333">
        <ele>5.5999999046326</ele>
        <time>2022-05-12T09:15:52.000Z</time>
      </trkpt>
      <trkpt lat="47.31792" lon="-2.35339">
        <ele>5.5999999046326</ele>
        <time>2022-05-12T09:15:54.000Z</time>
      </trkpt>
      <trkpt lat="47.31781" lon="-2.35348">
        <ele>6</ele>
        <time>2022-05-12T09:15:57.000Z</time>
      </trkpt>
      <trkpt lat="47.31778" lon="-2.3535">
        <ele>6.4000000953674</ele>
        <time>2022-05-12T09:15:58.000Z</time>
      </trkpt>
      <trkpt lat="47.31775" lon="-2.35352">
        <ele>6.8000001907349</ele>
        <time>2022-05-12T09:15:59.000Z</time>
      </trkpt>
      <trkpt lat="47.31772" lon="-2.35354">
        <ele>7.1999998092651</ele>
        <time>2022-05-12T09:16:00.000Z</time>
      </trkpt>
      <trkpt lat="47.3177" lon="-2.35355">
        <ele>7.5999999046326</ele>
        <time>2022-05-12T09:16:01.000Z</time>
      </trkpt>
      <trkpt lat="47.31765" lon="-2.35362">
        <ele>7.5999999046326</ele>
        <time>2022-05-12T09:16:03.000Z</time>
      </trkpt>
      <trkpt lat="47.31763" lon="-2.3537">
        <ele>7.5999999046326</ele>
        <time>2022-05-12T09:16:05.000Z</time>
      </trkpt>
      <trkpt lat="47.31766" lon="-2.35376">
        <ele>7.5999999046326</ele>
        <time>2022-05-12T09:16:06.000Z</time>
      </trkpt>
      <trkpt lat="47.31777" lon="-2.35391">
        <ele>7.5999999046326</ele>
        <time>2022-05-12T09:16:09.000Z</time>
      </trkpt>
      <trkpt lat="47.31786" lon="-2.35404">
        <ele>7.5999999046326</ele>
        <time>2022-05-12T09:16:11.000Z</time>
      </trkpt>
      <trkpt lat="47.31811" lon="-2.35438">
        <ele>7.5999999046326</ele>
        <time>2022-05-12T09:16:17.000Z</time>
      </trkpt>
      <trkpt lat="47.31818" lon="-2.3545">
        <ele>7.1999998092651</ele>
        <time>2022-05-12T09:16:19.000Z</time>
      </trkpt>
      <trkpt lat="47.31821" lon="-2.35455">
        <ele>6.8000001907349</ele>
        <time>2022-05-12T09:16:20.000Z</time>
      </trkpt>
      <trkpt lat="47.31824" lon="-2.3546">
        <ele>6.4000000953674</ele>
        <time>2022-05-12T09:16:21.000Z</time>
      </trkpt>
      <trkpt lat="47.31826" lon="-2.35463">
        <ele>6</ele>
        <time>2022-05-12T09:16:22.000Z</time>
      </trkpt>
      <trkpt lat="47.31828" lon="-2.35467">
        <ele>5.5999999046326</ele>
        <time>2022-05-12T09:16:23.000Z</time>
      </trkpt>
      <trkpt lat="47.31838" lon="-2.35493">
        <ele>5.5999999046326</ele>
        <time>2022-05-12T09:16:29.000Z</time>
      </trkpt>
      <trkpt lat="47.31839" lon="-2.35498">
        <ele>5.5999999046326</ele>
        <time>2022-05-12T09:16:30.000Z</time>
      </trkpt>
      <trkpt lat="47.31843" lon="-2.3552">
        <ele>5.5999999046326</ele>
        <time>2022-05-12T09:16:33.000Z</time>
      </trkpt>
      <trkpt lat="47.3185" lon="-2.35548">
        <ele>5.5999999046326</ele>
        <time>2022-05-12T09:16:38.000Z</time>
      </trkpt>
      <trkpt lat="47.31849" lon="-2.35555">
        <ele>5.5999999046326</ele>
        <time>2022-05-12T09:16:40.000Z</time>
      </trkpt>
      <trkpt lat="47.31846" lon="-2.35559">
        <ele>5.5999999046326</ele>
        <time>2022-05-12T09:16:41.000Z</time>
      </trkpt>
      <trkpt lat="47.31832" lon="-2.35579">
        <ele>5.5999999046326</ele>
        <time>2022-05-12T09:16:46.000Z</time>
      </trkpt>
      <trkpt lat="47.31826" lon="-2.3559">
        <ele>5.5999999046326</ele>
        <time>2022-05-12T09:16:48.000Z</time>
      </trkpt>
      <trkpt lat="47.31815" lon="-2.35607">
        <ele>5.5999999046326</ele>
        <time>2022-05-12T09:16:51.000Z</time>
      </trkpt>
      <trkpt lat="47.31793" lon="-2.35647">
        <ele>5.5999999046326</ele>
        <time>2022-05-12T09:16:57.000Z</time>
      </trkpt>
      <trkpt lat="47.31786" lon="-2.35672">
        <ele>6</ele>
        <time>2022-05-12T09:17:01.000Z</time>
      </trkpt>
      <trkpt lat="47.31785" lon="-2.35678">
        <ele>6.4000000953674</ele>
        <time>2022-05-12T09:17:02.000Z</time>
      </trkpt>
      <trkpt lat="47.31784" lon="-2.35685">
        <ele>6.8000001907349</ele>
        <time>2022-05-12T09:17:03.000Z</time>
      </trkpt>
      <trkpt lat="47.31783" lon="-2.35691">
        <ele>7.4000000953674</ele>
        <time>2022-05-12T09:17:04.000Z</time>
      </trkpt>
      <trkpt lat="47.31783" lon="-2.35698">
        <ele>7.8000001907349</ele>
        <time>2022-05-12T09:17:05.000Z</time>
      </trkpt>
      <trkpt lat="47.3178" lon="-2.35727">
        <ele>7.8000001907349</ele>
        <time>2022-05-12T09:17:09.000Z</time>
      </trkpt>
      <trkpt lat="47.31779" lon="-2.3574">
        <ele>8.1999998092651</ele>
        <time>2022-05-12T09:17:11.000Z</time>
      </trkpt>
      <trkpt lat="47.31779" lon="-2.35748">
        <ele>8.6000003814697</ele>
        <time>2022-05-12T09:17:12.000Z</time>
      </trkpt>
      <trkpt lat="47.3178" lon="-2.35755">
        <ele>9</ele>
        <time>2022-05-12T09:17:13.000Z</time>
      </trkpt>
      <trkpt lat="47.3178" lon="-2.35763">
        <ele>9.3999996185303</ele>
        <time>2022-05-12T09:17:14.000Z</time>
      </trkpt>
      <trkpt lat="47.31781" lon="-2.35773">
        <ele>9.8000001907349</ele>
        <time>2022-05-12T09:17:15.000Z</time>
      </trkpt>
      <trkpt lat="47.31783" lon="-2.35781">
        <ele>9.8000001907349</ele>
        <time>2022-05-12T09:17:16.000Z</time>
      </trkpt>
      <trkpt lat="47.31794" lon="-2.35802">
        <ele>9.8000001907349</ele>
        <time>2022-05-12T09:17:19.000Z</time>
      </trkpt>
      <trkpt lat="47.31798" lon="-2.35808">
        <ele>9.8000001907349</ele>
        <time>2022-05-12T09:17:20.000Z</time>
      </trkpt>
      <trkpt lat="47.31815" lon="-2.35833">
        <ele>9.8000001907349</ele>
        <time>2022-05-12T09:17:25.000Z</time>
      </trkpt>
      <trkpt lat="47.31828" lon="-2.35865">
        <ele>9.8000001907349</ele>
        <time>2022-05-12T09:17:30.000Z</time>
      </trkpt>
      <trkpt lat="47.31819" lon="-2.3588">
        <ele>9.8000001907349</ele>
        <time>2022-05-12T09:17:33.000Z</time>
      </trkpt>
      <trkpt lat="47.31806" lon="-2.35886">
        <ele>9.8000001907349</ele>
        <time>2022-05-12T09:17:36.000Z</time>
      </trkpt>
      <trkpt lat="47.31795" lon="-2.35892">
        <ele>9.8000001907349</ele>
        <time>2022-05-12T09:17:38.000Z</time>
      </trkpt>
      <trkpt lat="47.31766" lon="-2.35911">
        <ele>9.8000001907349</ele>
        <time>2022-05-12T09:17:44.000Z</time>
      </trkpt>
      <trkpt lat="47.31748" lon="-2.35921">
        <ele>10.199999809265</ele>
        <time>2022-05-12T09:17:48.000Z</time>
      </trkpt>
      <trkpt lat="47.31743" lon="-2.35925">
        <ele>10.60000038147</ele>
        <time>2022-05-12T09:17:49.000Z</time>
      </trkpt>
      <trkpt lat="47.31738" lon="-2.35929">
        <ele>11.199999809265</ele>
        <time>2022-05-12T09:17:50.000Z</time>
      </trkpt>
      <trkpt lat="47.31734" lon="-2.35931">
        <ele>11.60000038147</ele>
        <time>2022-05-12T09:17:51.000Z</time>
      </trkpt>
      <trkpt lat="47.31729" lon="-2.35934">
        <ele>12</ele>
        <time>2022-05-12T09:17:52.000Z</time>
      </trkpt>
      <trkpt lat="47.31709" lon="-2.35945">
        <ele>12</ele>
        <time>2022-05-12T09:17:56.000Z</time>
      </trkpt>
      <trkpt lat="47.31693" lon="-2.35952">
        <ele>12</ele>
        <time>2022-05-12T09:17:59.000Z</time>
      </trkpt>
      <trkpt lat="47.31689" lon="-2.35955">
        <ele>12</ele>
        <time>2022-05-12T09:18:00.000Z</time>
      </trkpt>
      <trkpt lat="47.31674" lon="-2.35964">
        <ele>12.39999961853</ele>
        <time>2022-05-12T09:18:03.000Z</time>
      </trkpt>
      <trkpt lat="47.31669" lon="-2.35967">
        <ele>12.800000190735</ele>
        <time>2022-05-12T09:18:04.000Z</time>
      </trkpt>
      <trkpt lat="47.31664" lon="-2.35969">
        <ele>13.199999809265</ele>
        <time>2022-05-12T09:18:05.000Z</time>
      </trkpt>
      <trkpt lat="47.3166" lon="-2.35972">
        <ele>13.60000038147</ele>
        <time>2022-05-12T09:18:06.000Z</time>
      </trkpt>
      <trkpt lat="47.31655" lon="-2.35975">
        <ele>14</ele>
        <time>2022-05-12T09:18:07.000Z</time>
      </trkpt>
      <trkpt lat="47.31638" lon="-2.35992">
        <ele>14</ele>
        <time>2022-05-12T09:18:11.000Z</time>
      </trkpt>
      <trkpt lat="47.31625" lon="-2.36003">
        <ele>14</ele>
        <time>2022-05-12T09:18:14.000Z</time>
      </trkpt>
      <trkpt lat="47.31621" lon="-2.36008">
        <ele>14</ele>
        <time>2022-05-12T09:18:15.000Z</time>
      </trkpt>
      <trkpt lat="47.316" lon="-2.36031">
        <ele>14</ele>
        <time>2022-05-12T09:18:20.000Z</time>
      </trkpt>
      <trkpt lat="47.31596" lon="-2.36035">
        <ele>14</ele>
        <time>2022-05-12T09:18:21.000Z</time>
      </trkpt>
      <trkpt lat="47.31591" lon="-2.36039">
        <ele>14.39999961853</ele>
        <time>2022-05-12T09:18:22.000Z</time>
      </trkpt>
      <trkpt lat="47.31587" lon="-2.36045">
        <ele>14.800000190735</ele>
        <time>2022-05-12T09:18:23.000Z</time>
      </trkpt>
      <trkpt lat="47.31583" lon="-2.36049">
        <ele>15.199999809265</ele>
        <time>2022-05-12T09:18:24.000Z</time>
      </trkpt>
      <trkpt lat="47.31579" lon="-2.36053">
        <ele>15.60000038147</ele>
        <time>2022-05-12T09:18:25.000Z</time>
      </trkpt>
      <trkpt lat="47.31576" lon="-2.36056">
        <ele>16</ele>
        <time>2022-05-12T09:18:26.000Z</time>
      </trkpt>
      <trkpt lat="47.31567" lon="-2.36068">
        <ele>16</ele>
        <time>2022-05-12T09:18:29.000Z</time>
      </trkpt>
      <trkpt lat="47.31559" lon="-2.36076">
        <ele>16</ele>
        <time>2022-05-12T09:18:31.000Z</time>
      </trkpt>
      <trkpt lat="47.31551" lon="-2.36085">
        <ele>16</ele>
        <time>2022-05-12T09:18:33.000Z</time>
      </trkpt>
      <trkpt lat="47.31543" lon="-2.36093">
        <ele>16</ele>
        <time>2022-05-12T09:18:35.000Z</time>
      </trkpt>
      <trkpt lat="47.3152" lon="-2.36118">
        <ele>16</ele>
        <time>2022-05-12T09:18:41.000Z</time>
      </trkpt>
      <trkpt lat="47.31496" lon="-2.36145">
        <ele>16</ele>
        <time>2022-05-12T09:18:47.000Z</time>
      </trkpt>
      <trkpt lat="47.31475" lon="-2.36165">
        <ele>16</ele>
        <time>2022-05-12T09:18:53.000Z</time>
      </trkpt>
      <trkpt lat="47.31465" lon="-2.36171">
        <ele>16</ele>
        <time>2022-05-12T09:18:58.000Z</time>
      </trkpt>
      <trkpt lat="47.31464" lon="-2.36171">
        <ele>16</ele>
        <time>2022-05-12T09:19:01.000Z</time>
      </trkpt>
      <trkpt lat="47.31462" lon="-2.36167">
        <ele>16</ele>
        <time>2022-05-12T09:20:04.000Z</time>
      </trkpt>
      <trkpt lat="47.31461" lon="-2.36165">
        <ele>16</ele>
        <time>2022-05-12T09:20:05.000Z</time>
      </trkpt>
      <trkpt lat="47.31456" lon="-2.36144">
        <ele>16</ele>
        <time>2022-05-12T09:20:10.000Z</time>
      </trkpt>
      <trkpt lat="47.31452" lon="-2.36133">
        <ele>16</ele>
        <time>2022-05-12T09:20:12.000Z</time>
      </trkpt>
      <trkpt lat="47.31446" lon="-2.36116">
        <ele>16</ele>
        <time>2022-05-12T09:20:15.000Z</time>
      </trkpt>
      <trkpt lat="47.31437" lon="-2.3609">
        <ele>16</ele>
        <time>2022-05-12T09:20:19.000Z</time>
      </trkpt>
      <trkpt lat="47.31432" lon="-2.36075">
        <ele>16</ele>
        <time>2022-05-12T09:20:21.000Z</time>
      </trkpt>
      <trkpt lat="47.3141" lon="-2.36011">
        <ele>16</ele>
        <time>2022-05-12T09:20:29.000Z</time>
      </trkpt>
      <trkpt lat="47.31395" lon="-2.35964">
        <ele>15.60000038147</ele>
        <time>2022-05-12T09:20:34.000Z</time>
      </trkpt>
      <trkpt lat="47.3139" lon="-2.35956">
        <ele>15.199999809265</ele>
        <time>2022-05-12T09:20:35.000Z</time>
      </trkpt>
      <trkpt lat="47.31386" lon="-2.35948">
        <ele>14.60000038147</ele>
        <time>2022-05-12T09:20:36.000Z</time>
      </trkpt>
      <trkpt lat="47.31381" lon="-2.35941">
        <ele>14.199999809265</ele>
        <time>2022-05-12T09:20:37.000Z</time>
      </trkpt>
      <trkpt lat="47.31376" lon="-2.35932">
        <ele>13.800000190735</ele>
        <time>2022-05-12T09:20:38.000Z</time>
      </trkpt>
      <trkpt lat="47.31372" lon="-2.35924">
        <ele>13.800000190735</ele>
        <time>2022-05-12T09:20:39.000Z</time>
      </trkpt>
      <trkpt lat="47.31348" lon="-2.35875">
        <ele>13.800000190735</ele>
        <time>2022-05-12T09:20:45.000Z</time>
      </trkpt>
      <trkpt lat="47.31345" lon="-2.35868">
        <ele>13.800000190735</ele>
        <time>2022-05-12T09:20:46.000Z</time>
      </trkpt>
      <trkpt lat="47.31343" lon="-2.35859">
        <ele>13.800000190735</ele>
        <time>2022-05-12T09:20:47.000Z</time>
      </trkpt>
      <trkpt lat="47.31341" lon="-2.3583">
        <ele>13.800000190735</ele>
        <time>2022-05-12T09:20:50.000Z</time>
      </trkpt>
      <trkpt lat="47.31334" lon="-2.35776">
        <ele>14.199999809265</ele>
        <time>2022-05-12T09:20:56.000Z</time>
      </trkpt>
      <trkpt lat="47.31333" lon="-2.35768">
        <ele>14.60000038147</ele>
        <time>2022-05-12T09:20:57.000Z</time>
      </trkpt>
      <trkpt lat="47.31333" lon="-2.35759">
        <ele>15</ele>
        <time>2022-05-12T09:20:58.000Z</time>
      </trkpt>
      <trkpt lat="47.31333" lon="-2.35751">
        <ele>15.39999961853</ele>
        <time>2022-05-12T09:20:59.000Z</time>
      </trkpt>
      <trkpt lat="47.31333" lon="-2.35743">
        <ele>15.800000190735</ele>
        <time>2022-05-12T09:21:00.000Z</time>
      </trkpt>
      <trkpt lat="47.31334" lon="-2.35726">
        <ele>15.800000190735</ele>
        <time>2022-05-12T09:21:02.000Z</time>
      </trkpt>
      <trkpt lat="47.31334" lon="-2.35681">
        <ele>15.800000190735</ele>
        <time>2022-05-12T09:21:07.000Z</time>
      </trkpt>
      <trkpt lat="47.31331" lon="-2.35622">
        <ele>15.800000190735</ele>
        <time>2022-05-12T09:21:14.000Z</time>
      </trkpt>
      <trkpt lat="47.31329" lon="-2.35615">
        <ele>15.800000190735</ele>
        <time>2022-05-12T09:21:15.000Z</time>
      </trkpt>
      <trkpt lat="47.31327" lon="-2.3559">
        <ele>15.800000190735</ele>
        <time>2022-05-12T09:21:19.000Z</time>
      </trkpt>
      <trkpt lat="47.31326" lon="-2.35574">
        <ele>15.39999961853</ele>
        <time>2022-05-12T09:21:22.000Z</time>
      </trkpt>
      <trkpt lat="47.31326" lon="-2.35568">
        <ele>15</ele>
        <time>2022-05-12T09:21:23.000Z</time>
      </trkpt>
      <trkpt lat="47.31327" lon="-2.35561">
        <ele>14.60000038147</ele>
        <time>2022-05-12T09:21:24.000Z</time>
      </trkpt>
      <trkpt lat="47.31328" lon="-2.35554">
        <ele>14.199999809265</ele>
        <time>2022-05-12T09:21:25.000Z</time>
      </trkpt>
      <trkpt lat="47.31329" lon="-2.35547">
        <ele>13.800000190735</ele>
        <time>2022-05-12T09:21:26.000Z</time>
      </trkpt>
      <trkpt lat="47.31331" lon="-2.35512">
        <ele>13.800000190735</ele>
        <time>2022-05-12T09:21:30.000Z</time>
      </trkpt>
      <trkpt lat="47.31332" lon="-2.35447">
        <ele>13.800000190735</ele>
        <time>2022-05-12T09:21:37.000Z</time>
      </trkpt>
      <trkpt lat="47.31333" lon="-2.35395">
        <ele>13.800000190735</ele>
        <time>2022-05-12T09:21:43.000Z</time>
      </trkpt>
      <trkpt lat="47.31337" lon="-2.3534">
        <ele>13.800000190735</ele>
        <time>2022-05-12T09:21:49.000Z</time>
      </trkpt>
      <trkpt lat="47.31336" lon="-2.35321">
        <ele>13.800000190735</ele>
        <time>2022-05-12T09:21:51.000Z</time>
      </trkpt>
      <trkpt lat="47.31336" lon="-2.35301">
        <ele>13.800000190735</ele>
        <time>2022-05-12T09:21:53.000Z</time>
      </trkpt>
      <trkpt lat="47.31336" lon="-2.35229">
        <ele>13.800000190735</ele>
        <time>2022-05-12T09:22:00.000Z</time>
      </trkpt>
      <trkpt lat="47.31338" lon="-2.35161">
        <ele>13.800000190735</ele>
        <time>2022-05-12T09:22:07.000Z</time>
      </trkpt>
      <trkpt lat="47.3134" lon="-2.35095">
        <ele>13.800000190735</ele>
        <time>2022-05-12T09:22:14.000Z</time>
      </trkpt>
      <trkpt lat="47.3134" lon="-2.35023">
        <ele>13.800000190735</ele>
        <time>2022-05-12T09:22:22.000Z</time>
      </trkpt>
      <trkpt lat="47.31332" lon="-2.34968">
        <ele>13.800000190735</ele>
        <time>2022-05-12T09:22:28.000Z</time>
      </trkpt>
      <trkpt lat="47.31319" lon="-2.34916">
        <ele>13.800000190735</ele>
        <time>2022-05-12T09:22:34.000Z</time>
      </trkpt>
      <trkpt lat="47.31301" lon="-2.34852">
        <ele>13.800000190735</ele>
        <time>2022-05-12T09:22:42.000Z</time>
      </trkpt>
      <trkpt lat="47.31289" lon="-2.34794">
        <ele>13.800000190735</ele>
        <time>2022-05-12T09:22:49.000Z</time>
      </trkpt>
      <trkpt lat="47.31277" lon="-2.34727">
        <ele>13.800000190735</ele>
        <time>2022-05-12T09:22:58.000Z</time>
      </trkpt>
      <trkpt lat="47.31275" lon="-2.34715">
        <ele>13.800000190735</ele>
        <time>2022-05-12T09:23:00.000Z</time>
      </trkpt>
      <trkpt lat="47.31273" lon="-2.34702">
        <ele>13.800000190735</ele>
        <time>2022-05-12T09:23:03.000Z</time>
      </trkpt>
      <trkpt lat="47.31279" lon="-2.34681">
        <ele>13.800000190735</ele>
        <time>2022-05-12T09:23:07.000Z</time>
      </trkpt>
      <trkpt lat="47.31284" lon="-2.34661">
        <ele>13.800000190735</ele>
        <time>2022-05-12T09:23:10.000Z</time>
      </trkpt>
      <trkpt lat="47.31286" lon="-2.34644">
        <ele>13.800000190735</ele>
        <time>2022-05-12T09:23:12.000Z</time>
      </trkpt>
      <trkpt lat="47.31287" lon="-2.34634">
        <ele>13.39999961853</ele>
        <time>2022-05-12T09:23:13.000Z</time>
      </trkpt>
      <trkpt lat="47.31287" lon="-2.34623">
        <ele>13</ele>
        <time>2022-05-12T09:23:14.000Z</time>
      </trkpt>
      <trkpt lat="47.31287" lon="-2.34612">
        <ele>12.60000038147</ele>
        <time>2022-05-12T09:23:15.000Z</time>
      </trkpt>
      <trkpt lat="47.31287" lon="-2.34601">
        <ele>12.199999809265</ele>
        <time>2022-05-12T09:23:16.000Z</time>
      </trkpt>
      <trkpt lat="47.31286" lon="-2.34589">
        <ele>11.800000190735</ele>
        <time>2022-05-12T09:23:17.000Z</time>
      </trkpt>
      <trkpt lat="47.31284" lon="-2.34577">
        <ele>11.39999961853</ele>
        <time>2022-05-12T09:23:18.000Z</time>
      </trkpt>
      <trkpt lat="47.31284" lon="-2.34566">
        <ele>11</ele>
        <time>2022-05-12T09:23:19.000Z</time>
      </trkpt>
      <trkpt lat="47.31282" lon="-2.34554">
        <ele>10.60000038147</ele>
        <time>2022-05-12T09:23:20.000Z</time>
      </trkpt>
      <trkpt lat="47.31281" lon="-2.34542">
        <ele>10.199999809265</ele>
        <time>2022-05-12T09:23:21.000Z</time>
      </trkpt>
      <trkpt lat="47.3128" lon="-2.3453">
        <ele>9.6000003814697</ele>
        <time>2022-05-12T09:23:22.000Z</time>
      </trkpt>
      <trkpt lat="47.31271" lon="-2.34445">
        <ele>9.1999998092651</ele>
        <time>2022-05-12T09:23:29.000Z</time>
      </trkpt>
      <trkpt lat="47.3127" lon="-2.34433">
        <ele>8.8000001907349</ele>
        <time>2022-05-12T09:23:30.000Z</time>
      </trkpt>
      <trkpt lat="47.31268" lon="-2.34421">
        <ele>8.3999996185303</ele>
        <time>2022-05-12T09:23:31.000Z</time>
      </trkpt>
      <trkpt lat="47.31267" lon="-2.34408">
        <ele>7.8000001907349</ele>
        <time>2022-05-12T09:23:32.000Z</time>
      </trkpt>
      <trkpt lat="47.31265" lon="-2.34396">
        <ele>7.4000000953674</ele>
        <time>2022-05-12T09:23:33.000Z</time>
      </trkpt>
      <trkpt lat="47.31259" lon="-2.34372">
        <ele>7</ele>
        <time>2022-05-12T09:23:35.000Z</time>
      </trkpt>
      <trkpt lat="47.31256" lon="-2.34362">
        <ele>6.4000000953674</ele>
        <time>2022-05-12T09:23:36.000Z</time>
      </trkpt>
      <trkpt lat="47.31251" lon="-2.34355">
        <ele>6</ele>
        <time>2022-05-12T09:23:37.000Z</time>
      </trkpt>
      <trkpt lat="47.31246" lon="-2.3435">
        <ele>5.5999999046326</ele>
        <time>2022-05-12T09:23:38.000Z</time>
      </trkpt>
      <trkpt lat="47.3124" lon="-2.34347">
        <ele>5</ele>
        <time>2022-05-12T09:23:39.000Z</time>
      </trkpt>
      <trkpt lat="47.31225" lon="-2.34341">
        <ele>5</ele>
        <time>2022-05-12T09:23:41.000Z</time>
      </trkpt>
      <trkpt lat="47.31211" lon="-2.3433">
        <ele>5</ele>
        <time>2022-05-12T09:23:43.000Z</time>
      </trkpt>
      <trkpt lat="47.31192" lon="-2.34301">
        <ele>5</ele>
        <time>2022-05-12T09:23:46.000Z</time>
      </trkpt>
      <trkpt lat="47.3117" lon="-2.34255">
        <ele>5</ele>
        <time>2022-05-12T09:23:51.000Z</time>
      </trkpt>
      <trkpt lat="47.31135" lon="-2.34191">
        <ele>5</ele>
        <time>2022-05-12T09:23:59.000Z</time>
      </trkpt>
      <trkpt lat="47.31105" lon="-2.3414">
        <ele>5</ele>
        <time>2022-05-12T09:24:06.000Z</time>
      </trkpt>
      <trkpt lat="47.31101" lon="-2.34132">
        <ele>6</ele>
        <time>2022-05-12T09:24:07.000Z</time>
      </trkpt>
      <trkpt lat="47.31097" lon="-2.34125">
        <ele>6.5999999046326</ele>
        <time>2022-05-12T09:24:08.000Z</time>
      </trkpt>
      <trkpt lat="47.31093" lon="-2.34117">
        <ele>7</ele>
        <time>2022-05-12T09:24:09.000Z</time>
      </trkpt>
      <trkpt lat="47.31089" lon="-2.3411">
        <ele>7.4000000953674</ele>
        <time>2022-05-12T09:24:10.000Z</time>
      </trkpt>
      <trkpt lat="47.31085" lon="-2.34102">
        <ele>8</ele>
        <time>2022-05-12T09:24:11.000Z</time>
      </trkpt>
      <trkpt lat="47.31081" lon="-2.34094">
        <ele>8.3999996185303</ele>
        <time>2022-05-12T09:24:12.000Z</time>
      </trkpt>
      <trkpt lat="47.31078" lon="-2.34085">
        <ele>8.8000001907349</ele>
        <time>2022-05-12T09:24:13.000Z</time>
      </trkpt>
      <trkpt lat="47.31075" lon="-2.34075">
        <ele>9.1999998092651</ele>
        <time>2022-05-12T09:24:14.000Z</time>
      </trkpt>
      <trkpt lat="47.31072" lon="-2.34067">
        <ele>9.8000001907349</ele>
        <time>2022-05-12T09:24:15.000Z</time>
      </trkpt>
      <trkpt lat="47.31069" lon="-2.34057">
        <ele>9.8000001907349</ele>
        <time>2022-05-12T09:24:16.000Z</time>
      </trkpt>
      <trkpt lat="47.31068" lon="-2.34048">
        <ele>9.8000001907349</ele>
        <time>2022-05-12T09:24:17.000Z</time>
      </trkpt>
      <trkpt lat="47.31065" lon="-2.34029">
        <ele>10.199999809265</ele>
        <time>2022-05-12T09:24:19.000Z</time>
      </trkpt>
      <trkpt lat="47.31064" lon="-2.3402">
        <ele>10.60000038147</ele>
        <time>2022-05-12T09:24:20.000Z</time>
      </trkpt>
      <trkpt lat="47.31063" lon="-2.3401">
        <ele>11</ele>
        <time>2022-05-12T09:24:21.000Z</time>
      </trkpt>
      <trkpt lat="47.31063" lon="-2.34">
        <ele>11.39999961853</ele>
        <time>2022-05-12T09:24:22.000Z</time>
      </trkpt>
      <trkpt lat="47.31062" lon="-2.3399">
        <ele>11.800000190735</ele>
        <time>2022-05-12T09:24:23.000Z</time>
      </trkpt>
      <trkpt lat="47.3106" lon="-2.33925">
        <ele>11.800000190735</ele>
        <time>2022-05-12T09:24:30.000Z</time>
      </trkpt>
      <trkpt lat="47.31061" lon="-2.33866">
        <ele>11.800000190735</ele>
        <time>2022-05-12T09:24:37.000Z</time>
      </trkpt>
      <trkpt lat="47.31067" lon="-2.33802">
        <ele>11.800000190735</ele>
        <time>2022-05-12T09:24:45.000Z</time>
      </trkpt>
      <trkpt lat="47.3107" lon="-2.33794">
        <ele>11.800000190735</ele>
        <time>2022-05-12T09:24:46.000Z</time>
      </trkpt>
      <trkpt lat="47.3108" lon="-2.33772">
        <ele>11.800000190735</ele>
        <time>2022-05-12T09:24:49.000Z</time>
      </trkpt>
      <trkpt lat="47.31089" lon="-2.3375">
        <ele>11.800000190735</ele>
        <time>2022-05-12T09:24:52.000Z</time>
      </trkpt>
      <trkpt lat="47.31093" lon="-2.33734">
        <ele>11.800000190735</ele>
        <time>2022-05-12T09:24:54.000Z</time>
      </trkpt>
      <trkpt lat="47.31094" lon="-2.33726">
        <ele>11.800000190735</ele>
        <time>2022-05-12T09:24:55.000Z</time>
      </trkpt>
      <trkpt lat="47.31101" lon="-2.33676">
        <ele>11.800000190735</ele>
        <time>2022-05-12T09:25:02.000Z</time>
      </trkpt>
      <trkpt lat="47.31105" lon="-2.33636">
        <ele>11.800000190735</ele>
        <time>2022-05-12T09:25:08.000Z</time>
      </trkpt>
      <trkpt lat="47.3111" lon="-2.33592">
        <ele>11.800000190735</ele>
        <time>2022-05-12T09:25:15.000Z</time>
      </trkpt>
      <trkpt lat="47.31109" lon="-2.33579">
        <ele>11.800000190735</ele>
        <time>2022-05-12T09:25:17.000Z</time>
      </trkpt>
      <trkpt lat="47.31107" lon="-2.33545">
        <ele>11.800000190735</ele>
        <time>2022-05-12T09:25:22.000Z</time>
      </trkpt>
      <trkpt lat="47.31098" lon="-2.33491">
        <ele>11.800000190735</ele>
        <time>2022-05-12T09:25:29.000Z</time>
      </trkpt>
      <trkpt lat="47.31094" lon="-2.33427">
        <ele>11.800000190735</ele>
        <time>2022-05-12T09:25:36.000Z</time>
      </trkpt>
      <trkpt lat="47.31093" lon="-2.33408">
        <ele>11.39999961853</ele>
        <time>2022-05-12T09:25:38.000Z</time>
      </trkpt>
      <trkpt lat="47.31093" lon="-2.33398">
        <ele>11</ele>
        <time>2022-05-12T09:25:39.000Z</time>
      </trkpt>
      <trkpt lat="47.31093" lon="-2.33387">
        <ele>10.60000038147</ele>
        <time>2022-05-12T09:25:40.000Z</time>
      </trkpt>
      <trkpt lat="47.31092" lon="-2.33377">
        <ele>10.199999809265</ele>
        <time>2022-05-12T09:25:41.000Z</time>
      </trkpt>
      <trkpt lat="47.31092" lon="-2.33367">
        <ele>9.8000001907349</ele>
        <time>2022-05-12T09:25:42.000Z</time>
      </trkpt>
      <trkpt lat="47.31092" lon="-2.33358">
        <ele>9.8000001907349</ele>
        <time>2022-05-12T09:25:43.000Z</time>
      </trkpt>
      <trkpt lat="47.31092" lon="-2.33293">
        <ele>9.8000001907349</ele>
        <time>2022-05-12T09:25:50.000Z</time>
      </trkpt>
      <trkpt lat="47.31097" lon="-2.33241">
        <ele>9.8000001907349</ele>
        <time>2022-05-12T09:25:56.000Z</time>
      </trkpt>
      <trkpt lat="47.31101" lon="-2.33218">
        <ele>9.8000001907349</ele>
        <time>2022-05-12T09:25:59.000Z</time>
      </trkpt>
      <trkpt lat="47.31104" lon="-2.33211">
        <ele>9.8000001907349</ele>
        <time>2022-05-12T09:26:00.000Z</time>
      </trkpt>
      <trkpt lat="47.31123" lon="-2.33197">
        <ele>9.3999996185303</ele>
        <time>2022-05-12T09:26:03.000Z</time>
      </trkpt>
      <trkpt lat="47.31129" lon="-2.33194">
        <ele>9</ele>
        <time>2022-05-12T09:26:04.000Z</time>
      </trkpt>
      <trkpt lat="47.31135" lon="-2.3319">
        <ele>8.6000003814697</ele>
        <time>2022-05-12T09:26:05.000Z</time>
      </trkpt>
      <trkpt lat="47.31142" lon="-2.33187">
        <ele>8.1999998092651</ele>
        <time>2022-05-12T09:26:06.000Z</time>
      </trkpt>
      <trkpt lat="47.31148" lon="-2.33183">
        <ele>7.8000001907349</ele>
        <time>2022-05-12T09:26:07.000Z</time>
      </trkpt>
      <trkpt lat="47.3116" lon="-2.33176">
        <ele>7.8000001907349</ele>
        <time>2022-05-12T09:26:09.000Z</time>
      </trkpt>
      <trkpt lat="47.31196" lon="-2.33155">
        <ele>7.8000001907349</ele>
        <time>2022-05-12T09:26:15.000Z</time>
      </trkpt>
      <trkpt lat="47.31202" lon="-2.33153">
        <ele>7.8000001907349</ele>
        <time>2022-05-12T09:26:16.000Z</time>
      </trkpt>
      <trkpt lat="47.31223" lon="-2.3315">
        <ele>7.8000001907349</ele>
        <time>2022-05-12T09:26:19.000Z</time>
      </trkpt>
      <trkpt lat="47.3123" lon="-2.3315">
        <ele>7.8000001907349</ele>
        <time>2022-05-12T09:26:20.000Z</time>
      </trkpt>
      <trkpt lat="47.31257" lon="-2.33155">
        <ele>7.8000001907349</ele>
        <time>2022-05-12T09:26:24.000Z</time>
      </trkpt>
      <trkpt lat="47.31288" lon="-2.33171">
        <ele>7.8000001907349</ele>
        <time>2022-05-12T09:26:29.000Z</time>
      </trkpt>
      <trkpt lat="47.31326" lon="-2.33203">
        <ele>7.8000001907349</ele>
        <time>2022-05-12T09:26:36.000Z</time>
      </trkpt>
      <trkpt lat="47.31355" lon="-2.33228">
        <ele>7.8000001907349</ele>
        <time>2022-05-12T09:26:42.000Z</time>
      </trkpt>
      <trkpt lat="47.31396" lon="-2.33256">
        <ele>7.8000001907349</ele>
        <time>2022-05-12T09:26:50.000Z</time>
      </trkpt>
      <trkpt lat="47.31431" lon="-2.33285">
        <ele>7.8000001907349</ele>
        <time>2022-05-12T09:26:57.000Z</time>
      </trkpt>
      <trkpt lat="47.31435" lon="-2.33289">
        <ele>7.8000001907349</ele>
        <time>2022-05-12T09:26:58.000Z</time>
      </trkpt>
      <trkpt lat="47.31449" lon="-2.33311">
        <ele>7.8000001907349</ele>
        <time>2022-05-12T09:27:02.000Z</time>
      </trkpt>
      <trkpt lat="47.3147" lon="-2.33351">
        <ele>7.8000001907349</ele>
        <time>2022-05-12T09:27:08.000Z</time>
      </trkpt>
      <trkpt lat="47.31477" lon="-2.33365">
        <ele>7.8000001907349</ele>
        <time>2022-05-12T09:27:10.000Z</time>
      </trkpt>
      <trkpt lat="47.31488" lon="-2.33368">
        <ele>7.8000001907349</ele>
        <time>2022-05-12T09:27:12.000Z</time>
      </trkpt>
      <trkpt lat="47.31499" lon="-2.33363">
        <ele>7.8000001907349</ele>
        <time>2022-05-12T09:27:14.000Z</time>
      </trkpt>
      <trkpt lat="47.31515" lon="-2.33353">
        <ele>7.8000001907349</ele>
        <time>2022-05-12T09:27:17.000Z</time>
      </trkpt>
      <trkpt lat="47.31527" lon="-2.33346">
        <ele>8.1999998092651</ele>
        <time>2022-05-12T09:27:19.000Z</time>
      </trkpt>
      <trkpt lat="47.31532" lon="-2.33343">
        <ele>8.6000003814697</ele>
        <time>2022-05-12T09:27:20.000Z</time>
      </trkpt>
      <trkpt lat="47.31538" lon="-2.33341">
        <ele>9</ele>
        <time>2022-05-12T09:27:21.000Z</time>
      </trkpt>
      <trkpt lat="47.31544" lon="-2.33339">
        <ele>9.6000003814697</ele>
        <time>2022-05-12T09:27:22.000Z</time>
      </trkpt>
      <trkpt lat="47.3155" lon="-2.33336">
        <ele>10</ele>
        <time>2022-05-12T09:27:23.000Z</time>
      </trkpt>
      <trkpt lat="47.31556" lon="-2.33334">
        <ele>10</ele>
        <time>2022-05-12T09:27:24.000Z</time>
      </trkpt>
      <trkpt lat="47.3159" lon="-2.33316">
        <ele>10</ele>
        <time>2022-05-12T09:27:30.000Z</time>
      </trkpt>
      <trkpt lat="47.31628" lon="-2.33292">
        <ele>10</ele>
        <time>2022-05-12T09:27:37.000Z</time>
      </trkpt>
      <trkpt lat="47.31671" lon="-2.33271">
        <ele>10</ele>
        <time>2022-05-12T09:27:44.000Z</time>
      </trkpt>
      <trkpt lat="47.31696" lon="-2.33261">
        <ele>9.6000003814697</ele>
        <time>2022-05-12T09:27:48.000Z</time>
      </trkpt>
      <trkpt lat="47.31701" lon="-2.33257">
        <ele>9.1999998092651</ele>
        <time>2022-05-12T09:27:49.000Z</time>
      </trkpt>
      <trkpt lat="47.31708" lon="-2.33254">
        <ele>8.1999998092651</ele>
        <time>2022-05-12T09:27:50.000Z</time>
      </trkpt>
      <trkpt lat="47.31715" lon="-2.33251">
        <ele>7.8000001907349</ele>
        <time>2022-05-12T09:27:51.000Z</time>
      </trkpt>
      <trkpt lat="47.31728" lon="-2.33246">
        <ele>7.4000000953674</ele>
        <time>2022-05-12T09:27:53.000Z</time>
      </trkpt>
      <trkpt lat="47.31734" lon="-2.33245">
        <ele>7</ele>
        <time>2022-05-12T09:27:54.000Z</time>
      </trkpt>
      <trkpt lat="47.31739" lon="-2.33247">
        <ele>6.5999999046326</ele>
        <time>2022-05-12T09:27:55.000Z</time>
      </trkpt>
      <trkpt lat="47.31743" lon="-2.3325">
        <ele>6.1999998092651</ele>
        <time>2022-05-12T09:27:56.000Z</time>
      </trkpt>
      <trkpt lat="47.31747" lon="-2.33255">
        <ele>5.8000001907349</ele>
        <time>2022-05-12T09:27:57.000Z</time>
      </trkpt>
      <trkpt lat="47.3175" lon="-2.33269">
        <ele>5.8000001907349</ele>
        <time>2022-05-12T09:27:59.000Z</time>
      </trkpt>
      <trkpt lat="47.31751" lon="-2.33276">
        <ele>5.8000001907349</ele>
        <time>2022-05-12T09:28:00.000Z</time>
      </trkpt>
      <trkpt lat="47.31755" lon="-2.33299">
        <ele>5.8000001907349</ele>
        <time>2022-05-12T09:28:03.000Z</time>
      </trkpt>
      <trkpt lat="47.31758" lon="-2.33305">
        <ele>5.8000001907349</ele>
        <time>2022-05-12T09:28:04.000Z</time>
      </trkpt>
      <trkpt lat="47.31766" lon="-2.33317">
        <ele>5.4000000953674</ele>
        <time>2022-05-12T09:28:06.000Z</time>
      </trkpt>
      <trkpt lat="47.3177" lon="-2.33321">
        <ele>5</ele>
        <time>2022-05-12T09:28:07.000Z</time>
      </trkpt>
      <trkpt lat="47.31773" lon="-2.33323">
        <ele>4.5999999046326</ele>
        <time>2022-05-12T09:28:08.000Z</time>
      </trkpt>
      <trkpt lat="47.31777" lon="-2.33322">
        <ele>4.1999998092651</ele>
        <time>2022-05-12T09:28:09.000Z</time>
      </trkpt>
      <trkpt lat="47.3178" lon="-2.33319">
        <ele>3.5999999046326</ele>
        <time>2022-05-12T09:28:10.000Z</time>
      </trkpt>
      <trkpt lat="47.31784" lon="-2.33315">
        <ele>3.5999999046326</ele>
        <time>2022-05-12T09:28:11.000Z</time>
      </trkpt>
      <trkpt lat="47.31789" lon="-2.33311">
        <ele>3.2000000476837</ele>
        <time>2022-05-12T09:28:12.000Z</time>
      </trkpt>
      <trkpt lat="47.31795" lon="-2.33306">
        <ele>2.5999999046326</ele>
        <time>2022-05-12T09:28:13.000Z</time>
      </trkpt>
      <trkpt lat="47.318" lon="-2.33302">
        <ele>1.6000000238419</ele>
        <time>2022-05-12T09:28:14.000Z</time>
      </trkpt>
      <trkpt lat="47.31805" lon="-2.33297">
        <ele>1.2000000476837</ele>
        <time>2022-05-12T09:28:15.000Z</time>
      </trkpt>
      <trkpt lat="47.31811" lon="-2.33292">
        <ele>0.60000002384186</ele>
        <time>2022-05-12T09:28:16.000Z</time>
      </trkpt>
      <trkpt lat="47.31816" lon="-2.33287">
        <ele>0.20000000298023</ele>
        <time>2022-05-12T09:28:17.000Z</time>
      </trkpt>
      <trkpt lat="47.31822" lon="-2.33281">
        <ele>-0.20000000298023</ele>
        <time>2022-05-12T09:28:18.000Z</time>
      </trkpt>
      <trkpt lat="47.31828" lon="-2.33274">
        <ele>-0.60000002384186</ele>
        <time>2022-05-12T09:28:19.000Z</time>
      </trkpt>
      <trkpt lat="47.31833" lon="-2.33266">
        <ele>-1</ele>
        <time>2022-05-12T09:28:20.000Z</time>
      </trkpt>
      <trkpt lat="47.31838" lon="-2.33258">
        <ele>-1</ele>
        <time>2022-05-12T09:28:21.000Z</time>
      </trkpt>
      <trkpt lat="47.31847" lon="-2.3324">
        <ele>-1</ele>
        <time>2022-05-12T09:28:23.000Z</time>
      </trkpt>
      <trkpt lat="47.31854" lon="-2.33219">
        <ele>-1</ele>
        <time>2022-05-12T09:28:25.000Z</time>
      </trkpt>
      <trkpt lat="47.31856" lon="-2.33209">
        <ele>-1.3999999761581</ele>
        <time>2022-05-12T09:28:26.000Z</time>
      </trkpt>
      <trkpt lat="47.31859" lon="-2.33198">
        <ele>-1.7999999523163</ele>
        <time>2022-05-12T09:28:27.000Z</time>
      </trkpt>
      <trkpt lat="47.31861" lon="-2.33188">
        <ele>-2.2000000476837</ele>
        <time>2022-05-12T09:28:28.000Z</time>
      </trkpt>
      <trkpt lat="47.31863" lon="-2.33178">
        <ele>-2.5999999046326</ele>
        <time>2022-05-12T09:28:29.000Z</time>
      </trkpt>
      <trkpt lat="47.31866" lon="-2.33168">
        <ele>-3</ele>
        <time>2022-05-12T09:28:30.000Z</time>
      </trkpt>
      <trkpt lat="47.31873" lon="-2.33135">
        <ele>-3.4000000953674</ele>
        <time>2022-05-12T09:28:33.000Z</time>
      </trkpt>
      <trkpt lat="47.31874" lon="-2.33124">
        <ele>-4</ele>
        <time>2022-05-12T09:28:34.000Z</time>
      </trkpt>
      <trkpt lat="47.31876" lon="-2.33113">
        <ele>-4.4000000953674</ele>
        <time>2022-05-12T09:28:35.000Z</time>
      </trkpt>
      <trkpt lat="47.31878" lon="-2.331">
        <ele>-4.8000001907349</ele>
        <time>2022-05-12T09:28:36.000Z</time>
      </trkpt>
      <trkpt lat="47.31879" lon="-2.33089">
        <ele>-5.1999998092651</ele>
        <time>2022-05-12T09:28:37.000Z</time>
      </trkpt>
      <trkpt lat="47.3188" lon="-2.33066">
        <ele>-6</ele>
        <time>2022-05-12T09:28:39.000Z</time>
      </trkpt>
      <trkpt lat="47.31881" lon="-2.33053">
        <ele>-6.5999999046326</ele>
        <time>2022-05-12T09:28:40.000Z</time>
      </trkpt>
      <trkpt lat="47.3188" lon="-2.33041">
        <ele>-7</ele>
        <time>2022-05-12T09:28:41.000Z</time>
      </trkpt>
      <trkpt lat="47.31879" lon="-2.3303">
        <ele>-7.4000000953674</ele>
        <time>2022-05-12T09:28:42.000Z</time>
      </trkpt>
      <trkpt lat="47.31877" lon="-2.32976">
        <ele>-7.4000000953674</ele>
        <time>2022-05-12T09:28:47.000Z</time>
      </trkpt>
      <trkpt lat="47.31877" lon="-2.32915">
        <ele>-7.4000000953674</ele>
        <time>2022-05-12T09:28:53.000Z</time>
      </trkpt>
      <trkpt lat="47.31878" lon="-2.32851">
        <ele>-7.4000000953674</ele>
        <time>2022-05-12T09:28:59.000Z</time>
      </trkpt>
      <trkpt lat="47.31873" lon="-2.32774">
        <ele>-7.4000000953674</ele>
        <time>2022-05-12T09:29:06.000Z</time>
      </trkpt>
      <trkpt lat="47.31862" lon="-2.3274">
        <ele>-7.4000000953674</ele>
        <time>2022-05-12T09:29:10.000Z</time>
      </trkpt>
      <trkpt lat="47.31855" lon="-2.32723">
        <ele>-7</ele>
        <time>2022-05-12T09:29:12.000Z</time>
      </trkpt>
      <trkpt lat="47.31852" lon="-2.32715">
        <ele>-6.5999999046326</ele>
        <time>2022-05-12T09:29:13.000Z</time>
      </trkpt>
      <trkpt lat="47.3185" lon="-2.32708">
        <ele>-6.1999998092651</ele>
        <time>2022-05-12T09:29:14.000Z</time>
      </trkpt>
      <trkpt lat="47.31847" lon="-2.32701">
        <ele>-5.8000001907349</ele>
        <time>2022-05-12T09:29:15.000Z</time>
      </trkpt>
      <trkpt lat="47.31845" lon="-2.32694">
        <ele>-5.4000000953674</ele>
        <time>2022-05-12T09:29:16.000Z</time>
      </trkpt>
      <trkpt lat="47.3183" lon="-2.3266">
        <ele>-5.4000000953674</ele>
        <time>2022-05-12T09:29:21.000Z</time>
      </trkpt>
      <trkpt lat="47.3182" lon="-2.32624">
        <ele>-5.4000000953674</ele>
        <time>2022-05-12T09:29:26.000Z</time>
      </trkpt>
      <trkpt lat="47.31817" lon="-2.3261">
        <ele>-5</ele>
        <time>2022-05-12T09:29:28.000Z</time>
      </trkpt>
      <trkpt lat="47.31816" lon="-2.32603">
        <ele>-4.5999999046326</ele>
        <time>2022-05-12T09:29:29.000Z</time>
      </trkpt>
      <trkpt lat="47.31815" lon="-2.32595">
        <ele>-4.1999998092651</ele>
        <time>2022-05-12T09:29:30.000Z</time>
      </trkpt>
      <trkpt lat="47.31813" lon="-2.32587">
        <ele>-3.5999999046326</ele>
        <time>2022-05-12T09:29:31.000Z</time>
      </trkpt>
      <trkpt lat="47.31812" lon="-2.3258">
        <ele>-3.2000000476837</ele>
        <time>2022-05-12T09:29:32.000Z</time>
      </trkpt>
      <trkpt lat="47.3181" lon="-2.32572">
        <ele>-3.2000000476837</ele>
        <time>2022-05-12T09:29:33.000Z</time>
      </trkpt>
      <trkpt lat="47.31803" lon="-2.32546">
        <ele>-3.2000000476837</ele>
        <time>2022-05-12T09:29:37.000Z</time>
      </trkpt>
      <trkpt lat="47.318" lon="-2.32534">
        <ele>-3.2000000476837</ele>
        <time>2022-05-12T09:29:39.000Z</time>
      </trkpt>
      <trkpt lat="47.31798" lon="-2.32521">
        <ele>-2.7999999523163</ele>
        <time>2022-05-12T09:29:41.000Z</time>
      </trkpt>
      <trkpt lat="47.31796" lon="-2.32514">
        <ele>-2.4000000953674</ele>
        <time>2022-05-12T09:29:42.000Z</time>
      </trkpt>
      <trkpt lat="47.31794" lon="-2.32508">
        <ele>-2</ele>
        <time>2022-05-12T09:29:43.000Z</time>
      </trkpt>
      <trkpt lat="47.31793" lon="-2.32502">
        <ele>-1.6000000238419</ele>
        <time>2022-05-12T09:29:44.000Z</time>
      </trkpt>
      <trkpt lat="47.31791" lon="-2.32497">
        <ele>-1.2000000476837</ele>
        <time>2022-05-12T09:29:45.000Z</time>
      </trkpt>
      <trkpt lat="47.31785" lon="-2.32472">
        <ele>-0.80000001192093</ele>
        <time>2022-05-12T09:29:50.000Z</time>
      </trkpt>
      <trkpt lat="47.31784" lon="-2.32467">
        <ele>-0.20000000298023</ele>
        <time>2022-05-12T09:29:51.000Z</time>
      </trkpt>
      <trkpt lat="47.31784" lon="-2.32462">
        <ele>0.20000000298023</ele>
        <time>2022-05-12T09:29:52.000Z</time>
      </trkpt>
      <trkpt lat="47.31783" lon="-2.32456">
        <ele>1.2000000476837</ele>
        <time>2022-05-12T09:29:53.000Z</time>
      </trkpt>
      <trkpt lat="47.31783" lon="-2.32442">
        <ele>1.2000000476837</ele>
        <time>2022-05-12T09:29:55.000Z</time>
      </trkpt>
      <trkpt lat="47.3178" lon="-2.32418">
        <ele>1.2000000476837</ele>
        <time>2022-05-12T09:30:00.000Z</time>
      </trkpt>
      <trkpt lat="47.31777" lon="-2.32402">
        <ele>1.6000000238419</ele>
        <time>2022-05-12T09:30:03.000Z</time>
      </trkpt>
      <trkpt lat="47.31776" lon="-2.32396">
        <ele>2</ele>
        <time>2022-05-12T09:30:04.000Z</time>
      </trkpt>
      <trkpt lat="47.31776" lon="-2.32389">
        <ele>2.5999999046326</ele>
        <time>2022-05-12T09:30:05.000Z</time>
      </trkpt>
      <trkpt lat="47.31775" lon="-2.32383">
        <ele>3</ele>
        <time>2022-05-12T09:30:06.000Z</time>
      </trkpt>
      <trkpt lat="47.31774" lon="-2.32376">
        <ele>3.4000000953674</ele>
        <time>2022-05-12T09:30:07.000Z</time>
      </trkpt>
      <trkpt lat="47.31767" lon="-2.32336">
        <ele>3.4000000953674</ele>
        <time>2022-05-12T09:30:13.000Z</time>
      </trkpt>
      <trkpt lat="47.31762" lon="-2.32308">
        <ele>3.7999999523163</ele>
        <time>2022-05-12T09:30:17.000Z</time>
      </trkpt>
      <trkpt lat="47.31761" lon="-2.32301">
        <ele>4.5999999046326</ele>
        <time>2022-05-12T09:30:18.000Z</time>
      </trkpt>
      <trkpt lat="47.3176" lon="-2.32294">
        <ele>5.1999998092651</ele>
        <time>2022-05-12T09:30:19.000Z</time>
      </trkpt>
      <trkpt lat="47.31759" lon="-2.32287">
        <ele>5.5999999046326</ele>
        <time>2022-05-12T09:30:20.000Z</time>
      </trkpt>
      <trkpt lat="47.31754" lon="-2.32264">
        <ele>5.5999999046326</ele>
        <time>2022-05-12T09:30:24.000Z</time>
      </trkpt>
      <trkpt lat="47.31751" lon="-2.32242">
        <ele>5.5999999046326</ele>
        <time>2022-05-12T09:30:29.000Z</time>
      </trkpt>
      <trkpt lat="47.31751" lon="-2.32239">
        <ele>5.5999999046326</ele>
        <time>2022-05-12T09:30:30.000Z</time>
      </trkpt>
      <trkpt lat="47.31756" lon="-2.32237">
        <ele>5.5999999046326</ele>
        <time>2022-05-12T09:30:33.000Z</time>
      </trkpt>
      <trkpt lat="47.31756" lon="-2.32236">
        <ele>5.5999999046326</ele>
        <time>2022-05-12T09:30:34.000Z</time>
      </trkpt>
      <trkpt lat="47.3176" lon="-2.32234">
        <ele>5.5999999046326</ele>
        <time>2022-05-12T09:30:50.000Z</time>
      </trkpt>
      <trkpt lat="47.31762" lon="-2.32233">
        <ele>5.5999999046326</ele>
        <time>2022-05-12T09:30:51.000Z</time>
      </trkpt>
      <trkpt lat="47.31781" lon="-2.32229">
        <ele>5.5999999046326</ele>
        <time>2022-05-12T09:30:56.000Z</time>
      </trkpt>
      <trkpt lat="47.31814" lon="-2.32224">
        <ele>5.5999999046326</ele>
        <time>2022-05-12T09:31:03.000Z</time>
      </trkpt>
      <trkpt lat="47.31838" lon="-2.32219">
        <ele>5</ele>
        <time>2022-05-12T09:31:07.000Z</time>
      </trkpt>
      <trkpt lat="47.31845" lon="-2.32217">
        <ele>4.5999999046326</ele>
        <time>2022-05-12T09:31:08.000Z</time>
      </trkpt>
      <trkpt lat="47.31851" lon="-2.32214">
        <ele>4.1999998092651</ele>
        <time>2022-05-12T09:31:09.000Z</time>
      </trkpt>
      <trkpt lat="47.31859" lon="-2.32212">
        <ele>3.7999999523163</ele>
        <time>2022-05-12T09:31:10.000Z</time>
      </trkpt>
      <trkpt lat="47.31866" lon="-2.32211">
        <ele>3.2000000476837</ele>
        <time>2022-05-12T09:31:11.000Z</time>
      </trkpt>
      <trkpt lat="47.31871" lon="-2.3221">
        <ele>2.7999999523163</ele>
        <time>2022-05-12T09:31:12.000Z</time>
      </trkpt>
      <trkpt lat="47.31875" lon="-2.32209">
        <ele>2.4000000953674</ele>
        <time>2022-05-12T09:31:13.000Z</time>
      </trkpt>
      <trkpt lat="47.31879" lon="-2.32209">
        <ele>2</ele>
        <time>2022-05-12T09:31:14.000Z</time>
      </trkpt>
      <trkpt lat="47.31882" lon="-2.32208">
        <ele>1.6000000238419</ele>
        <time>2022-05-12T09:31:15.000Z</time>
      </trkpt>
      <trkpt lat="47.31884" lon="-2.32205">
        <ele>1.2000000476837</ele>
        <time>2022-05-12T09:31:16.000Z</time>
      </trkpt>
      <trkpt lat="47.31885" lon="-2.32198">
        <ele>1.2000000476837</ele>
        <time>2022-05-12T09:31:19.000Z</time>
      </trkpt>
      <trkpt lat="47.31876" lon="-2.32197">
        <ele>1.2000000476837</ele>
        <time>2022-05-12T09:31:23.000Z</time>
      </trkpt>
      <trkpt lat="47.31874" lon="-2.32196">
        <ele>1.2000000476837</ele>
        <time>2022-05-12T09:31:24.000Z</time>
      </trkpt>
      <trkpt lat="47.31854" lon="-2.32194">
        <ele>1.2000000476837</ele>
        <time>2022-05-12T09:31:30.000Z</time>
      </trkpt>
      <trkpt lat="47.31842" lon="-2.32192">
        <ele>1.2000000476837</ele>
        <time>2022-05-12T09:31:33.000Z</time>
      </trkpt>
      <trkpt lat="47.31833" lon="-2.3219">
        <ele>1.6000000238419</ele>
        <time>2022-05-12T09:31:35.000Z</time>
      </trkpt>
      <trkpt lat="47.31829" lon="-2.32189">
        <ele>2</ele>
        <time>2022-05-12T09:31:36.000Z</time>
      </trkpt>
      <trkpt lat="47.31825" lon="-2.32188">
        <ele>2.5999999046326</ele>
        <time>2022-05-12T09:31:37.000Z</time>
      </trkpt>
      <trkpt lat="47.31821" lon="-2.32187">
        <ele>3</ele>
        <time>2022-05-12T09:31:38.000Z</time>
      </trkpt>
      <trkpt lat="47.31817" lon="-2.32186">
        <ele>3.4000000953674</ele>
        <time>2022-05-12T09:31:39.000Z</time>
      </trkpt>
      <trkpt lat="47.31803" lon="-2.32183">
        <ele>3.7999999523163</ele>
        <time>2022-05-12T09:31:42.000Z</time>
      </trkpt>
      <trkpt lat="47.31799" lon="-2.32182">
        <ele>4.1999998092651</ele>
        <time>2022-05-12T09:31:43.000Z</time>
      </trkpt>
      <trkpt lat="47.31794" lon="-2.32181">
        <ele>4.5999999046326</ele>
        <time>2022-05-12T09:31:44.000Z</time>
      </trkpt>
      <trkpt lat="47.3179" lon="-2.3218">
        <ele>5</ele>
        <time>2022-05-12T09:31:45.000Z</time>
      </trkpt>
      <trkpt lat="47.31785" lon="-2.32178">
        <ele>5.4000000953674</ele>
        <time>2022-05-12T09:31:46.000Z</time>
      </trkpt>
      <trkpt lat="47.31777" lon="-2.32176">
        <ele>5.4000000953674</ele>
        <time>2022-05-12T09:31:48.000Z</time>
      </trkpt>
      <trkpt lat="47.31744" lon="-2.32167">
        <ele>5.8000001907349</ele>
        <time>2022-05-12T09:31:55.000Z</time>
      </trkpt>
      <trkpt lat="47.31739" lon="-2.32167">
        <ele>6.5999999046326</ele>
        <time>2022-05-12T09:31:56.000Z</time>
      </trkpt>
      <trkpt lat="47.31735" lon="-2.32165">
        <ele>7</ele>
        <time>2022-05-12T09:31:57.000Z</time>
      </trkpt>
      <trkpt lat="47.3173" lon="-2.32164">
        <ele>7.4000000953674</ele>
        <time>2022-05-12T09:31:58.000Z</time>
      </trkpt>
      <trkpt lat="47.31718" lon="-2.32162">
        <ele>7.4000000953674</ele>
        <time>2022-05-12T09:32:01.000Z</time>
      </trkpt>
      <trkpt lat="47.3171" lon="-2.3216">
        <ele>7.4000000953674</ele>
        <time>2022-05-12T09:32:03.000Z</time>
      </trkpt>
      <trkpt lat="47.31696" lon="-2.32157">
        <ele>7.4000000953674</ele>
        <time>2022-05-12T09:32:06.000Z</time>
      </trkpt>
      <trkpt lat="47.31686" lon="-2.32154">
        <ele>7.4000000953674</ele>
        <time>2022-05-12T09:32:08.000Z</time>
      </trkpt>
      <trkpt lat="47.31676" lon="-2.3215">
        <ele>7.4000000953674</ele>
        <time>2022-05-12T09:32:10.000Z</time>
      </trkpt>
      <trkpt lat="47.31639" lon="-2.32139">
        <ele>7.4000000953674</ele>
        <time>2022-05-12T09:32:17.000Z</time>
      </trkpt>
      <trkpt lat="47.31596" lon="-2.32128">
        <ele>7.4000000953674</ele>
        <time>2022-05-12T09:32:25.000Z</time>
      </trkpt>
      <trkpt lat="47.31555" lon="-2.32118">
        <ele>7.4000000953674</ele>
        <time>2022-05-12T09:32:32.000Z</time>
      </trkpt>
      <trkpt lat="47.31511" lon="-2.32109">
        <ele>7.4000000953674</ele>
        <time>2022-05-12T09:32:40.000Z</time>
      </trkpt>
      <trkpt lat="47.31501" lon="-2.32104">
        <ele>7</ele>
        <time>2022-05-12T09:32:43.000Z</time>
      </trkpt>
      <trkpt lat="47.315" lon="-2.32105">
        <ele>6.5999999046326</ele>
        <time>2022-05-12T09:32:44.000Z</time>
      </trkpt>
      <trkpt lat="47.31497" lon="-2.32108">
        <ele>6.1999998092651</ele>
        <time>2022-05-12T09:32:45.000Z</time>
      </trkpt>
      <trkpt lat="47.31495" lon="-2.32111">
        <ele>5.4000000953674</ele>
        <time>2022-05-12T09:32:46.000Z</time>
      </trkpt>
      <trkpt lat="47.31493" lon="-2.32127">
        <ele>5.4000000953674</ele>
        <time>2022-05-12T09:32:49.000Z</time>
      </trkpt>
      <trkpt lat="47.31499" lon="-2.32145">
        <ele>5.4000000953674</ele>
        <time>2022-05-12T09:32:52.000Z</time>
      </trkpt>
      <trkpt lat="47.31513" lon="-2.32177">
        <ele>5.4000000953674</ele>
        <time>2022-05-12T09:32:58.000Z</time>
      </trkpt>
      <trkpt lat="47.31502" lon="-2.32183">
        <ele>5.4000000953674</ele>
        <time>2022-05-12T09:33:01.000Z</time>
      </trkpt>
      <trkpt lat="47.31494" lon="-2.32176">
        <ele>5.4000000953674</ele>
        <time>2022-05-12T09:33:03.000Z</time>
      </trkpt>
      <trkpt lat="47.3149" lon="-2.32173">
        <ele>5.4000000953674</ele>
        <time>2022-05-12T09:33:04.000Z</time>
      </trkpt>
      <trkpt lat="47.31476" lon="-2.3218">
        <ele>5.4000000953674</ele>
        <time>2022-05-12T09:33:07.000Z</time>
      </trkpt>
      <trkpt lat="47.31467" lon="-2.32202">
        <ele>5.4000000953674</ele>
        <time>2022-05-12T09:33:10.000Z</time>
      </trkpt>
      <trkpt lat="47.31465" lon="-2.3221">
        <ele>5.4000000953674</ele>
        <time>2022-05-12T09:33:11.000Z</time>
      </trkpt>
      <trkpt lat="47.31452" lon="-2.32249">
        <ele>5.4000000953674</ele>
        <time>2022-05-12T09:33:16.000Z</time>
      </trkpt>
      <trkpt lat="47.31443" lon="-2.32262">
        <ele>5.4000000953674</ele>
        <time>2022-05-12T09:33:18.000Z</time>
      </trkpt>
      <trkpt lat="47.31424" lon="-2.32271">
        <ele>5.4000000953674</ele>
        <time>2022-05-12T09:33:21.000Z</time>
      </trkpt>
      <trkpt lat="47.31418" lon="-2.32272">
        <ele>5</ele>
        <time>2022-05-12T09:33:22.000Z</time>
      </trkpt>
      <trkpt lat="47.31412" lon="-2.32273">
        <ele>4.5999999046326</ele>
        <time>2022-05-12T09:33:23.000Z</time>
      </trkpt>
      <trkpt lat="47.31406" lon="-2.32275">
        <ele>4.1999998092651</ele>
        <time>2022-05-12T09:33:24.000Z</time>
      </trkpt>
      <trkpt lat="47.31399" lon="-2.32276">
        <ele>3.7999999523163</ele>
        <time>2022-05-12T09:33:25.000Z</time>
      </trkpt>
      <trkpt lat="47.31394" lon="-2.32278">
        <ele>3.2000000476837</ele>
        <time>2022-05-12T09:33:26.000Z</time>
      </trkpt>
      <trkpt lat="47.31388" lon="-2.3228">
        <ele>3.2000000476837</ele>
        <time>2022-05-12T09:33:27.000Z</time>
      </trkpt>
      <trkpt lat="47.31354" lon="-2.32297">
        <ele>3.2000000476837</ele>
        <time>2022-05-12T09:33:33.000Z</time>
      </trkpt>
      <trkpt lat="47.31341" lon="-2.32306">
        <ele>3.2000000476837</ele>
        <time>2022-05-12T09:33:35.000Z</time>
      </trkpt>
      <trkpt lat="47.31323" lon="-2.32321">
        <ele>3.2000000476837</ele>
        <time>2022-05-12T09:33:38.000Z</time>
      </trkpt>
      <trkpt lat="47.31294" lon="-2.32356">
        <ele>3.2000000476837</ele>
        <time>2022-05-12T09:33:44.000Z</time>
      </trkpt>
      <trkpt lat="47.31259" lon="-2.3239">
        <ele>3.2000000476837</ele>
        <time>2022-05-12T09:33:51.000Z</time>
      </trkpt>
      <trkpt lat="47.31219" lon="-2.32418">
        <ele>3.2000000476837</ele>
        <time>2022-05-12T09:33:58.000Z</time>
      </trkpt>
      <trkpt lat="47.31185" lon="-2.32435">
        <ele>3.2000000476837</ele>
        <time>2022-05-12T09:34:04.000Z</time>
      </trkpt>
      <trkpt lat="47.31178" lon="-2.32435">
        <ele>3.2000000476837</ele>
        <time>2022-05-12T09:34:05.000Z</time>
      </trkpt>
      <trkpt lat="47.31155" lon="-2.32429">
        <ele>3.2000000476837</ele>
        <time>2022-05-12T09:34:09.000Z</time>
      </trkpt>
      <trkpt lat="47.31145" lon="-2.32415">
        <ele>3.2000000476837</ele>
        <time>2022-05-12T09:34:12.000Z</time>
      </trkpt>
      <trkpt lat="47.31145" lon="-2.32395">
        <ele>3.2000000476837</ele>
        <time>2022-05-12T09:34:15.000Z</time>
      </trkpt>
      <trkpt lat="47.31144" lon="-2.32388">
        <ele>3.2000000476837</ele>
        <time>2022-05-12T09:34:16.000Z</time>
      </trkpt>
      <trkpt lat="47.31142" lon="-2.32349">
        <ele>3.2000000476837</ele>
        <time>2022-05-12T09:34:21.000Z</time>
      </trkpt>
      <trkpt lat="47.31129" lon="-2.32302">
        <ele>2.7999999523163</ele>
        <time>2022-05-12T09:34:27.000Z</time>
      </trkpt>
      <trkpt lat="47.31126" lon="-2.32294">
        <ele>2.4000000953674</ele>
        <time>2022-05-12T09:34:28.000Z</time>
      </trkpt>
      <trkpt lat="47.31122" lon="-2.32286">
        <ele>2</ele>
        <time>2022-05-12T09:34:29.000Z</time>
      </trkpt>
      <trkpt lat="47.31119" lon="-2.32278">
        <ele>1.6000000238419</ele>
        <time>2022-05-12T09:34:30.000Z</time>
      </trkpt>
      <trkpt lat="47.31115" lon="-2.32271">
        <ele>1.2000000476837</ele>
        <time>2022-05-12T09:34:31.000Z</time>
      </trkpt>
      <trkpt lat="47.31108" lon="-2.32256">
        <ele>1.2000000476837</ele>
        <time>2022-05-12T09:34:33.000Z</time>
      </trkpt>
      <trkpt lat="47.311" lon="-2.32238">
        <ele>1.2000000476837</ele>
        <time>2022-05-12T09:34:35.000Z</time>
      </trkpt>
      <trkpt lat="47.31094" lon="-2.3222">
        <ele>0.80000001192093</ele>
        <time>2022-05-12T09:34:37.000Z</time>
      </trkpt>
      <trkpt lat="47.31091" lon="-2.32212">
        <ele>0.40000000596046</ele>
        <time>2022-05-12T09:34:38.000Z</time>
      </trkpt>
      <trkpt lat="47.31089" lon="-2.32205">
        <ele>20.7</ele>
        <time>2022-05-12T09:34:39.000Z</time>
      </trkpt>
      <trkpt lat="47.31086" lon="-2.32198">
        <ele>-0.40000000596046</ele>
        <time>2022-05-12T09:34:40.000Z</time>
      </trkpt>
      <trkpt lat="47.31083" lon="-2.32191">
        <ele>-0.80000001192093</ele>
        <time>2022-05-12T09:34:41.000Z</time>
      </trkpt>
      <trkpt lat="47.3108" lon="-2.32185">
        <ele>-1.2000000476837</ele>
        <time>2022-05-12T09:34:42.000Z</time>
      </trkpt>
      <trkpt lat="47.31077" lon="-2.3218">
        <ele>-1.6000000238419</ele>
        <time>2022-05-12T09:34:43.000Z</time>
      </trkpt>
      <trkpt lat="47.31074" lon="-2.32174">
        <ele>-2</ele>
        <time>2022-05-12T09:34:44.000Z</time>
      </trkpt>
      <trkpt lat="47.31071" lon="-2.32168">
        <ele>-2.4000000953674</ele>
        <time>2022-05-12T09:34:45.000Z</time>
      </trkpt>
      <trkpt lat="47.31068" lon="-2.32162">
        <ele>-2.7999999523163</ele>
        <time>2022-05-12T09:34:46.000Z</time>
      </trkpt>
      <trkpt lat="47.31054" lon="-2.32141">
        <ele>-2.7999999523163</ele>
        <time>2022-05-12T09:34:50.000Z</time>
      </trkpt>
      <trkpt lat="47.31038" lon="-2.32119">
        <ele>-3.2000000476837</ele>
        <time>2022-05-12T09:34:55.000Z</time>
      </trkpt>
      <trkpt lat="47.31034" lon="-2.32114">
        <ele>-3.5999999046326</ele>
        <time>2022-05-12T09:34:56.000Z</time>
      </trkpt>
      <trkpt lat="47.31031" lon="-2.32109">
        <ele>-4</ele>
        <time>2022-05-12T09:34:57.000Z</time>
      </trkpt>
      <trkpt lat="47.31027" lon="-2.32104">
        <ele>-4.5999999046326</ele>
        <time>2022-05-12T09:34:58.000Z</time>
      </trkpt>
      <trkpt lat="47.31024" lon="-2.321">
        <ele>-5</ele>
        <time>2022-05-12T09:34:59.000Z</time>
      </trkpt>
      <trkpt lat="47.31018" lon="-2.32091">
        <ele>-5</ele>
        <time>2022-05-12T09:35:01.000Z</time>
      </trkpt>
      <trkpt lat="47.31008" lon="-2.32076">
        <ele>-5</ele>
        <time>2022-05-12T09:35:04.000Z</time>
      </trkpt>
      <trkpt lat="47.30991" lon="-2.32043">
        <ele>-5</ele>
        <time>2022-05-12T09:35:10.000Z</time>
      </trkpt>
      <trkpt lat="47.30976" lon="-2.32007">
        <ele>-5</ele>
        <time>2022-05-12T09:35:15.000Z</time>
      </trkpt>
      <trkpt lat="47.30965" lon="-2.31971">
        <ele>-5.4000000953674</ele>
        <time>2022-05-12T09:35:20.000Z</time>
      </trkpt>
      <trkpt lat="47.30964" lon="-2.31964">
        <ele>-5.8000001907349</ele>
        <time>2022-05-12T09:35:21.000Z</time>
      </trkpt>
      <trkpt lat="47.30964" lon="-2.31958">
        <ele>-6.1999998092651</ele>
        <time>2022-05-12T09:35:22.000Z</time>
      </trkpt>
      <trkpt lat="47.30965" lon="-2.31951">
        <ele>-6.5999999046326</ele>
        <time>2022-05-12T09:35:23.000Z</time>
      </trkpt>
      <trkpt lat="47.30965" lon="-2.31945">
        <ele>-7</ele>
        <time>2022-05-12T09:35:24.000Z</time>
      </trkpt>
      <trkpt lat="47.30966" lon="-2.31939">
        <ele>-7</ele>
        <time>2022-05-12T09:35:25.000Z</time>
      </trkpt>
      <trkpt lat="47.30971" lon="-2.31914">
        <ele>-7</ele>
        <time>2022-05-12T09:35:29.000Z</time>
      </trkpt>
      <trkpt lat="47.30974" lon="-2.31892">
        <ele>-7</ele>
        <time>2022-05-12T09:35:32.000Z</time>
      </trkpt>
      <trkpt lat="47.30984" lon="-2.31832">
        <ele>-7</ele>
        <time>2022-05-12T09:35:40.000Z</time>
      </trkpt>
      <trkpt lat="47.30986" lon="-2.31819">
        <ele>-7</ele>
        <time>2022-05-12T09:35:42.000Z</time>
      </trkpt>
      <trkpt lat="47.30983" lon="-2.31813">
        <ele>-7</ele>
        <time>2022-05-12T09:35:43.000Z</time>
      </trkpt>
      <trkpt lat="47.3097" lon="-2.31795">
        <ele>-7</ele>
        <time>2022-05-12T09:35:46.000Z</time>
      </trkpt>
      <trkpt lat="47.30937" lon="-2.31756">
        <ele>-7</ele>
        <time>2022-05-12T09:35:52.000Z</time>
      </trkpt>
      <trkpt lat="47.30902" lon="-2.31715">
        <ele>-7</ele>
        <time>2022-05-12T09:35:59.000Z</time>
      </trkpt>
      <trkpt lat="47.30888" lon="-2.31696">
        <ele>-6.5999999046326</ele>
        <time>2022-05-12T09:36:02.000Z</time>
      </trkpt>
      <trkpt lat="47.30883" lon="-2.3169">
        <ele>-6.1999998092651</ele>
        <time>2022-05-12T09:36:03.000Z</time>
      </trkpt>
      <trkpt lat="47.30878" lon="-2.31684">
        <ele>-5.4000000953674</ele>
        <time>2022-05-12T09:36:04.000Z</time>
      </trkpt>
      <trkpt lat="47.30873" lon="-2.31678">
        <ele>-5</ele>
        <time>2022-05-12T09:36:05.000Z</time>
      </trkpt>
      <trkpt lat="47.30854" lon="-2.31654">
        <ele>-5</ele>
        <time>2022-05-12T09:36:09.000Z</time>
      </trkpt>
      <trkpt lat="47.30849" lon="-2.31649">
        <ele>-5</ele>
        <time>2022-05-12T09:36:10.000Z</time>
      </trkpt>
      <trkpt lat="47.30838" lon="-2.3165">
        <ele>-5</ele>
        <time>2022-05-12T09:36:12.000Z</time>
      </trkpt>
      <trkpt lat="47.30828" lon="-2.31661">
        <ele>-5</ele>
        <time>2022-05-12T09:36:14.000Z</time>
      </trkpt>
      <trkpt lat="47.30823" lon="-2.31667">
        <ele>-5</ele>
        <time>2022-05-12T09:36:15.000Z</time>
      </trkpt>
      <trkpt lat="47.308" lon="-2.31695">
        <ele>-5.4000000953674</ele>
        <time>2022-05-12T09:36:19.000Z</time>
      </trkpt>
      <trkpt lat="47.30795" lon="-2.31701">
        <ele>-5.8000001907349</ele>
        <time>2022-05-12T09:36:20.000Z</time>
      </trkpt>
      <trkpt lat="47.30789" lon="-2.31708">
        <ele>-6.1999998092651</ele>
        <time>2022-05-12T09:36:21.000Z</time>
      </trkpt>
      <trkpt lat="47.30784" lon="-2.31715">
        <ele>-6.5999999046326</ele>
        <time>2022-05-12T09:36:22.000Z</time>
      </trkpt>
      <trkpt lat="47.30778" lon="-2.31721">
        <ele>-7.1999998092651</ele>
        <time>2022-05-12T09:36:23.000Z</time>
      </trkpt>
      <trkpt lat="47.30753" lon="-2.31751">
        <ele>-7.5999999046326</ele>
        <time>2022-05-12T09:36:28.000Z</time>
      </trkpt>
      <trkpt lat="47.3075" lon="-2.31755">
        <ele>-8</ele>
        <time>2022-05-12T09:36:29.000Z</time>
      </trkpt>
      <trkpt lat="47.30748" lon="-2.31758">
        <ele>-8.3999996185303</ele>
        <time>2022-05-12T09:36:30.000Z</time>
      </trkpt>
      <trkpt lat="47.30746" lon="-2.31761">
        <ele>-9</ele>
        <time>2022-05-12T09:36:31.000Z</time>
      </trkpt>
      <trkpt lat="47.30745" lon="-2.31763">
        <ele>-9.3999996185303</ele>
        <time>2022-05-12T09:36:32.000Z</time>
      </trkpt>
      <trkpt lat="47.30743" lon="-2.31765">
        <ele>-9.3999996185303</ele>
        <time>2022-05-12T09:36:34.000Z</time>
      </trkpt>
      <trkpt lat="47.30743" lon="-2.31765">
        <ele>-9.3999996185303</ele>
        <time>2022-05-12T09:37:03.000Z</time>
      </trkpt>
      <trkpt lat="47.30737" lon="-2.3178">
        <ele>-9.3999996185303</ele>
        <time>2022-05-12T09:37:07.000Z</time>
      </trkpt>
      <trkpt lat="47.30735" lon="-2.31786">
        <ele>-9.3999996185303</ele>
        <time>2022-05-12T09:37:08.000Z</time>
      </trkpt>
      <trkpt lat="47.30734" lon="-2.31808">
        <ele>-9.3999996185303</ele>
        <time>2022-05-12T09:37:11.000Z</time>
      </trkpt>
      <trkpt lat="47.30735" lon="-2.31823">
        <ele>-9.3999996185303</ele>
        <time>2022-05-12T09:37:13.000Z</time>
      </trkpt>
      <trkpt lat="47.30735" lon="-2.31839">
        <ele>-9.8000001907349</ele>
        <time>2022-05-12T09:37:15.000Z</time>
      </trkpt>
      <trkpt lat="47.30736" lon="-2.31847">
        <ele>-10.199999809265</ele>
        <time>2022-05-12T09:37:16.000Z</time>
      </trkpt>
      <trkpt lat="47.30737" lon="-2.31855">
        <ele>-10.60000038147</ele>
        <time>2022-05-12T09:37:17.000Z</time>
      </trkpt>
      <trkpt lat="47.30738" lon="-2.31863">
        <ele>-11.60000038147</ele>
        <time>2022-05-12T09:37:18.000Z</time>
      </trkpt>
      <trkpt lat="47.30742" lon="-2.31903">
        <ele>-11.60000038147</ele>
        <time>2022-05-12T09:37:23.000Z</time>
      </trkpt>
      <trkpt lat="47.30744" lon="-2.31918">
        <ele>-11.60000038147</ele>
        <time>2022-05-12T09:37:25.000Z</time>
      </trkpt>
      <trkpt lat="47.30752" lon="-2.31951">
        <ele>-11.60000038147</ele>
        <time>2022-05-12T09:37:29.000Z</time>
      </trkpt>
      <trkpt lat="47.30768" lon="-2.31998">
        <ele>-11.60000038147</ele>
        <time>2022-05-12T09:37:35.000Z</time>
      </trkpt>
      <trkpt lat="47.30785" lon="-2.32047">
        <ele>-11.60000038147</ele>
        <time>2022-05-12T09:37:42.000Z</time>
      </trkpt>
      <trkpt lat="47.30795" lon="-2.32084">
        <ele>-11.60000038147</ele>
        <time>2022-05-12T09:37:47.000Z</time>
      </trkpt>
      <trkpt lat="47.30798" lon="-2.32092">
        <ele>-11.60000038147</ele>
        <time>2022-05-12T09:37:48.000Z</time>
      </trkpt>
      <trkpt lat="47.30808" lon="-2.32133">
        <ele>-11</ele>
        <time>2022-05-12T09:37:53.000Z</time>
      </trkpt>
      <trkpt lat="47.3081" lon="-2.32141">
        <ele>-10.60000038147</ele>
        <time>2022-05-12T09:37:54.000Z</time>
      </trkpt>
      <trkpt lat="47.30812" lon="-2.32149">
        <ele>-10.199999809265</ele>
        <time>2022-05-12T09:37:55.000Z</time>
      </trkpt>
      <trkpt lat="47.30814" lon="-2.32157">
        <ele>-9.8000001907349</ele>
        <time>2022-05-12T09:37:56.000Z</time>
      </trkpt>
      <trkpt lat="47.30817" lon="-2.32165">
        <ele>-9.1999998092651</ele>
        <time>2022-05-12T09:37:57.000Z</time>
      </trkpt>
      <trkpt lat="47.30831" lon="-2.32212">
        <ele>-8.8000001907349</ele>
        <time>2022-05-12T09:38:03.000Z</time>
      </trkpt>
      <trkpt lat="47.30833" lon="-2.32219">
        <ele>-8.3999996185303</ele>
        <time>2022-05-12T09:38:04.000Z</time>
      </trkpt>
      <trkpt lat="47.30836" lon="-2.32226">
        <ele>-8</ele>
        <time>2022-05-12T09:38:05.000Z</time>
      </trkpt>
      <trkpt lat="47.30839" lon="-2.32233">
        <ele>-7.5999999046326</ele>
        <time>2022-05-12T09:38:06.000Z</time>
      </trkpt>
      <trkpt lat="47.30841" lon="-2.3224">
        <ele>-7</ele>
        <time>2022-05-12T09:38:07.000Z</time>
      </trkpt>
      <trkpt lat="47.30851" lon="-2.32269">
        <ele>-7</ele>
        <time>2022-05-12T09:38:11.000Z</time>
      </trkpt>
      <trkpt lat="47.30853" lon="-2.32275">
        <ele>-6.5999999046326</ele>
        <time>2022-05-12T09:38:12.000Z</time>
      </trkpt>
      <trkpt lat="47.30855" lon="-2.32282">
        <ele>-6.1999998092651</ele>
        <time>2022-05-12T09:38:13.000Z</time>
      </trkpt>
      <trkpt lat="47.30858" lon="-2.32289">
        <ele>-5.8000001907349</ele>
        <time>2022-05-12T09:38:14.000Z</time>
      </trkpt>
      <trkpt lat="47.3086" lon="-2.32296">
        <ele>-5.4000000953674</ele>
        <time>2022-05-12T09:38:15.000Z</time>
      </trkpt>
      <trkpt lat="47.30862" lon="-2.32303">
        <ele>-5</ele>
        <time>2022-05-12T09:38:16.000Z</time>
      </trkpt>
      <trkpt lat="47.30867" lon="-2.32317">
        <ele>-5</ele>
        <time>2022-05-12T09:38:18.000Z</time>
      </trkpt>
      <trkpt lat="47.30885" lon="-2.32372">
        <ele>-5</ele>
        <time>2022-05-12T09:38:26.000Z</time>
      </trkpt>
      <trkpt lat="47.30893" lon="-2.324">
        <ele>-4.5999999046326</ele>
        <time>2022-05-12T09:38:30.000Z</time>
      </trkpt>
      <trkpt lat="47.30896" lon="-2.32406">
        <ele>-3.5999999046326</ele>
        <time>2022-05-12T09:38:31.000Z</time>
      </trkpt>
      <trkpt lat="47.30898" lon="-2.32413">
        <ele>-3.2000000476837</ele>
        <time>2022-05-12T09:38:32.000Z</time>
      </trkpt>
      <trkpt lat="47.309" lon="-2.3242">
        <ele>-2.7999999523163</ele>
        <time>2022-05-12T09:38:33.000Z</time>
      </trkpt>
      <trkpt lat="47.30908" lon="-2.32447">
        <ele>-2.7999999523163</ele>
        <time>2022-05-12T09:38:37.000Z</time>
      </trkpt>
      <trkpt lat="47.30913" lon="-2.3246">
        <ele>-2.4000000953674</ele>
        <time>2022-05-12T09:38:39.000Z</time>
      </trkpt>
      <trkpt lat="47.30916" lon="-2.32466">
        <ele>-2</ele>
        <time>2022-05-12T09:38:40.000Z</time>
      </trkpt>
      <trkpt lat="47.30918" lon="-2.32472">
        <ele>-1.6000000238419</ele>
        <time>2022-05-12T09:38:41.000Z</time>
      </trkpt>
      <trkpt lat="47.30921" lon="-2.32478">
        <ele>-1.2000000476837</ele>
        <time>2022-05-12T09:38:42.000Z</time>
      </trkpt>
      <trkpt lat="47.30924" lon="-2.32484">
        <ele>-0.80000001192093</ele>
        <time>2022-05-12T09:38:43.000Z</time>
      </trkpt>
      <trkpt lat="47.30934" lon="-2.32508">
        <ele>-0.80000001192093</ele>
        <time>2022-05-12T09:38:47.000Z</time>
      </trkpt>
      <trkpt lat="47.30946" lon="-2.32529">
        <ele>-0.40000000596046</ele>
        <time>2022-05-12T09:38:51.000Z</time>
      </trkpt>
      <trkpt lat="47.30949" lon="-2.32534">
        <ele>0.20000000298023</ele>
        <time>2022-05-12T09:38:52.000Z</time>
      </trkpt>
      <trkpt lat="47.30952" lon="-2.32536">
        <ele>0.60000002384186</ele>
        <time>2022-05-12T09:38:53.000Z</time>
      </trkpt>
      <trkpt lat="47.30957" lon="-2.32536">
        <ele>1</ele>
        <time>2022-05-12T09:38:54.000Z</time>
      </trkpt>
      <trkpt lat="47.30961" lon="-2.32535">
        <ele>1.6000000238419</ele>
        <time>2022-05-12T09:38:55.000Z</time>
      </trkpt>
      <trkpt lat="47.30965" lon="-2.32533">
        <ele>1.6000000238419</ele>
        <time>2022-05-12T09:38:56.000Z</time>
      </trkpt>
      <trkpt lat="47.30976" lon="-2.32524">
        <ele>1.6000000238419</ele>
        <time>2022-05-12T09:38:59.000Z</time>
      </trkpt>
      <trkpt lat="47.30983" lon="-2.32517">
        <ele>1.6000000238419</ele>
        <time>2022-05-12T09:39:01.000Z</time>
      </trkpt>
      <trkpt lat="47.31006" lon="-2.32495">
        <ele>2</ele>
        <time>2022-05-12T09:39:07.000Z</time>
      </trkpt>
      <trkpt lat="47.3101" lon="-2.32491">
        <ele>2.4000000953674</ele>
        <time>2022-05-12T09:39:08.000Z</time>
      </trkpt>
      <trkpt lat="47.31014" lon="-2.32487">
        <ele>2.7999999523163</ele>
        <time>2022-05-12T09:39:09.000Z</time>
      </trkpt>
      <trkpt lat="47.31019" lon="-2.32483">
        <ele>3.2000000476837</ele>
        <time>2022-05-12T09:39:10.000Z</time>
      </trkpt>
      <trkpt lat="47.31023" lon="-2.32479">
        <ele>3.5999999046326</ele>
        <time>2022-05-12T09:39:11.000Z</time>
      </trkpt>
      <trkpt lat="47.31031" lon="-2.32469">
        <ele>3.5999999046326</ele>
        <time>2022-05-12T09:39:13.000Z</time>
      </trkpt>
      <trkpt lat="47.31048" lon="-2.32442">
        <ele>3.5999999046326</ele>
        <time>2022-05-12T09:39:18.000Z</time>
      </trkpt>
      <trkpt lat="47.31052" lon="-2.32438">
        <ele>3.5999999046326</ele>
        <time>2022-05-12T09:39:19.000Z</time>
      </trkpt>
      <trkpt lat="47.31061" lon="-2.32429">
        <ele>3.5999999046326</ele>
        <time>2022-05-12T09:39:21.000Z</time>
      </trkpt>
      <trkpt lat="47.31073" lon="-2.32424">
        <ele>3.5999999046326</ele>
        <time>2022-05-12T09:39:23.000Z</time>
      </trkpt>
      <trkpt lat="47.31098" lon="-2.32423">
        <ele>3.5999999046326</ele>
        <time>2022-05-12T09:39:27.000Z</time>
      </trkpt>
      <trkpt lat="47.31105" lon="-2.32423">
        <ele>3.5999999046326</ele>
        <time>2022-05-12T09:39:28.000Z</time>
      </trkpt>
      <trkpt lat="47.31118" lon="-2.32423">
        <ele>3.5999999046326</ele>
        <time>2022-05-12T09:39:30.000Z</time>
      </trkpt>
      <trkpt lat="47.31136" lon="-2.32425">
        <ele>3.5999999046326</ele>
        <time>2022-05-12T09:39:33.000Z</time>
      </trkpt>
      <trkpt lat="47.31167" lon="-2.32433">
        <ele>3.5999999046326</ele>
        <time>2022-05-12T09:39:39.000Z</time>
      </trkpt>
      <trkpt lat="47.31176" lon="-2.32449">
        <ele>3.5999999046326</ele>
        <time>2022-05-12T09:39:42.000Z</time>
      </trkpt>
      <trkpt lat="47.31175" lon="-2.32472">
        <ele>3.5999999046326</ele>
        <time>2022-05-12T09:39:45.000Z</time>
      </trkpt>
      <trkpt lat="47.31175" lon="-2.32489">
        <ele>3.5999999046326</ele>
        <time>2022-05-12T09:39:47.000Z</time>
      </trkpt>
      <trkpt lat="47.31174" lon="-2.32534">
        <ele>3.5999999046326</ele>
        <time>2022-05-12T09:39:52.000Z</time>
      </trkpt>
      <trkpt lat="47.31177" lon="-2.32598">
        <ele>4</ele>
        <time>2022-05-12T09:39:59.000Z</time>
      </trkpt>
      <trkpt lat="47.31178" lon="-2.32607">
        <ele>4.4000000953674</ele>
        <time>2022-05-12T09:40:00.000Z</time>
      </trkpt>
      <trkpt lat="47.31178" lon="-2.32616">
        <ele>4.8000001907349</ele>
        <time>2022-05-12T09:40:01.000Z</time>
      </trkpt>
      <trkpt lat="47.31179" lon="-2.32626">
        <ele>5.1999998092651</ele>
        <time>2022-05-12T09:40:02.000Z</time>
      </trkpt>
      <trkpt lat="47.3118" lon="-2.32635">
        <ele>5.5999999046326</ele>
        <time>2022-05-12T09:40:03.000Z</time>
      </trkpt>
      <trkpt lat="47.31182" lon="-2.32643">
        <ele>5.5999999046326</ele>
        <time>2022-05-12T09:40:04.000Z</time>
      </trkpt>
      <trkpt lat="47.31184" lon="-2.32651">
        <ele>5.5999999046326</ele>
        <time>2022-05-12T09:40:05.000Z</time>
      </trkpt>
      <trkpt lat="47.31203" lon="-2.32706">
        <ele>5.5999999046326</ele>
        <time>2022-05-12T09:40:13.000Z</time>
      </trkpt>
      <trkpt lat="47.31211" lon="-2.32728">
        <ele>5.5999999046326</ele>
        <time>2022-05-12T09:40:16.000Z</time>
      </trkpt>
      <trkpt lat="47.31221" lon="-2.3274">
        <ele>5.5999999046326</ele>
        <time>2022-05-12T09:40:18.000Z</time>
      </trkpt>
      <trkpt lat="47.31232" lon="-2.32747">
        <ele>5.5999999046326</ele>
        <time>2022-05-12T09:40:20.000Z</time>
      </trkpt>
      <trkpt lat="47.3125" lon="-2.32759">
        <ele>5.5999999046326</ele>
        <time>2022-05-12T09:40:23.000Z</time>
      </trkpt>
      <trkpt lat="47.31277" lon="-2.32777">
        <ele>5.5999999046326</ele>
        <time>2022-05-12T09:40:27.000Z</time>
      </trkpt>
      <trkpt lat="47.31283" lon="-2.32783">
        <ele>5.5999999046326</ele>
        <time>2022-05-12T09:40:28.000Z</time>
      </trkpt>
      <trkpt lat="47.31296" lon="-2.32807">
        <ele>5.5999999046326</ele>
        <time>2022-05-12T09:40:31.000Z</time>
      </trkpt>
      <trkpt lat="47.31329" lon="-2.3286">
        <ele>5.5999999046326</ele>
        <time>2022-05-12T09:40:38.000Z</time>
      </trkpt>
      <trkpt lat="47.31344" lon="-2.32879">
        <ele>5.5999999046326</ele>
        <time>2022-05-12T09:40:41.000Z</time>
      </trkpt>
      <trkpt lat="47.31352" lon="-2.32892">
        <ele>5.5999999046326</ele>
        <time>2022-05-12T09:40:43.000Z</time>
      </trkpt>
      <trkpt lat="47.31356" lon="-2.32913">
        <ele>5.5999999046326</ele>
        <time>2022-05-12T09:40:46.000Z</time>
      </trkpt>
      <trkpt lat="47.31352" lon="-2.32932">
        <ele>5.5999999046326</ele>
        <time>2022-05-12T09:40:49.000Z</time>
      </trkpt>
      <trkpt lat="47.31336" lon="-2.32967">
        <ele>5.5999999046326</ele>
        <time>2022-05-12T09:40:53.000Z</time>
      </trkpt>
      <trkpt lat="47.31298" lon="-2.3303">
        <ele>5.5999999046326</ele>
        <time>2022-05-12T09:41:01.000Z</time>
      </trkpt>
      <trkpt lat="47.31263" lon="-2.33087">
        <ele>5.5999999046326</ele>
        <time>2022-05-12T09:41:09.000Z</time>
      </trkpt>
      <trkpt lat="47.31246" lon="-2.33121">
        <ele>5.5999999046326</ele>
        <time>2022-05-12T09:41:14.000Z</time>
      </trkpt>
      <trkpt lat="47.31237" lon="-2.33139">
        <ele>5.5999999046326</ele>
        <time>2022-05-12T09:41:17.000Z</time>
      </trkpt>
      <trkpt lat="47.31227" lon="-2.33149">
        <ele>5.5999999046326</ele>
        <time>2022-05-12T09:41:19.000Z</time>
      </trkpt>
      <trkpt lat="47.31221" lon="-2.33154">
        <ele>5.5999999046326</ele>
        <time>2022-05-12T09:41:20.000Z</time>
      </trkpt>
      <trkpt lat="47.31197" lon="-2.33167">
        <ele>5.5999999046326</ele>
        <time>2022-05-12T09:41:24.000Z</time>
      </trkpt>
      <trkpt lat="47.31158" lon="-2.33192">
        <ele>5.5999999046326</ele>
        <time>2022-05-12T09:41:31.000Z</time>
      </trkpt>
      <trkpt lat="47.31131" lon="-2.33206">
        <ele>5.5999999046326</ele>
        <time>2022-05-12T09:41:37.000Z</time>
      </trkpt>
      <trkpt lat="47.31113" lon="-2.33219">
        <ele>6</ele>
        <time>2022-05-12T09:41:41.000Z</time>
      </trkpt>
      <trkpt lat="47.3111" lon="-2.33225">
        <ele>6.4000000953674</ele>
        <time>2022-05-12T09:41:42.000Z</time>
      </trkpt>
      <trkpt lat="47.31108" lon="-2.33231">
        <ele>6.8000001907349</ele>
        <time>2022-05-12T09:41:43.000Z</time>
      </trkpt>
      <trkpt lat="47.31107" lon="-2.33238">
        <ele>7.1999998092651</ele>
        <time>2022-05-12T09:41:44.000Z</time>
      </trkpt>
      <trkpt lat="47.31105" lon="-2.33246">
        <ele>7.5999999046326</ele>
        <time>2022-05-12T09:41:45.000Z</time>
      </trkpt>
      <trkpt lat="47.31103" lon="-2.33268">
        <ele>7.5999999046326</ele>
        <time>2022-05-12T09:41:48.000Z</time>
      </trkpt>
      <trkpt lat="47.31099" lon="-2.3333">
        <ele>7.5999999046326</ele>
        <time>2022-05-12T09:41:55.000Z</time>
      </trkpt>
      <trkpt lat="47.31099" lon="-2.334">
        <ele>7.5999999046326</ele>
        <time>2022-05-12T09:42:03.000Z</time>
      </trkpt>
      <trkpt lat="47.31099" lon="-2.33442">
        <ele>8</ele>
        <time>2022-05-12T09:42:08.000Z</time>
      </trkpt>
      <trkpt lat="47.31099" lon="-2.3345">
        <ele>8.3999996185303</ele>
        <time>2022-05-12T09:42:09.000Z</time>
      </trkpt>
      <trkpt lat="47.31099" lon="-2.33458">
        <ele>8.8000001907349</ele>
        <time>2022-05-12T09:42:10.000Z</time>
      </trkpt>
      <trkpt lat="47.311" lon="-2.33466">
        <ele>9.1999998092651</ele>
        <time>2022-05-12T09:42:11.000Z</time>
      </trkpt>
      <trkpt lat="47.31101" lon="-2.33474">
        <ele>9.6000003814697</ele>
        <time>2022-05-12T09:42:12.000Z</time>
      </trkpt>
      <trkpt lat="47.31105" lon="-2.33504">
        <ele>9.6000003814697</ele>
        <time>2022-05-12T09:42:16.000Z</time>
      </trkpt>
      <trkpt lat="47.31108" lon="-2.33517">
        <ele>9.6000003814697</ele>
        <time>2022-05-12T09:42:18.000Z</time>
      </trkpt>
      <trkpt lat="47.31111" lon="-2.33533">
        <ele>10</ele>
        <time>2022-05-12T09:42:20.000Z</time>
      </trkpt>
      <trkpt lat="47.31113" lon="-2.33541">
        <ele>10.39999961853</ele>
        <time>2022-05-12T09:42:21.000Z</time>
      </trkpt>
      <trkpt lat="47.31113" lon="-2.3355">
        <ele>10.800000190735</ele>
        <time>2022-05-12T09:42:22.000Z</time>
      </trkpt>
      <trkpt lat="47.31115" lon="-2.33558">
        <ele>11.39999961853</ele>
        <time>2022-05-12T09:42:23.000Z</time>
      </trkpt>
      <trkpt lat="47.31116" lon="-2.33566">
        <ele>11.800000190735</ele>
        <time>2022-05-12T09:42:24.000Z</time>
      </trkpt>
      <trkpt lat="47.31115" lon="-2.33609">
        <ele>11.800000190735</ele>
        <time>2022-05-12T09:42:29.000Z</time>
      </trkpt>
      <trkpt lat="47.31107" lon="-2.33664">
        <ele>11.800000190735</ele>
        <time>2022-05-12T09:42:35.000Z</time>
      </trkpt>
      <trkpt lat="47.31095" lon="-2.33745">
        <ele>11.800000190735</ele>
        <time>2022-05-12T09:42:44.000Z</time>
      </trkpt>
      <trkpt lat="47.31085" lon="-2.33777">
        <ele>11.800000190735</ele>
        <time>2022-05-12T09:42:48.000Z</time>
      </trkpt>
      <trkpt lat="47.31079" lon="-2.33791">
        <ele>11.800000190735</ele>
        <time>2022-05-12T09:42:50.000Z</time>
      </trkpt>
      <trkpt lat="47.31073" lon="-2.33807">
        <ele>11.800000190735</ele>
        <time>2022-05-12T09:42:52.000Z</time>
      </trkpt>
      <trkpt lat="47.31068" lon="-2.33834">
        <ele>11.800000190735</ele>
        <time>2022-05-12T09:42:55.000Z</time>
      </trkpt>
      <trkpt lat="47.31067" lon="-2.33843">
        <ele>11.800000190735</ele>
        <time>2022-05-12T09:42:56.000Z</time>
      </trkpt>
      <trkpt lat="47.31065" lon="-2.33883">
        <ele>11.800000190735</ele>
        <time>2022-05-12T09:43:01.000Z</time>
      </trkpt>
      <trkpt lat="47.31065" lon="-2.3393">
        <ele>11.800000190735</ele>
        <time>2022-05-12T09:43:07.000Z</time>
      </trkpt>
      <trkpt lat="47.31064" lon="-2.33938">
        <ele>11.800000190735</ele>
        <time>2022-05-12T09:43:08.000Z</time>
      </trkpt>
      <trkpt lat="47.31056" lon="-2.3395">
        <ele>11.800000190735</ele>
        <time>2022-05-12T09:43:11.000Z</time>
      </trkpt>
      <trkpt lat="47.31039" lon="-2.33954">
        <ele>11.800000190735</ele>
        <time>2022-05-12T09:43:14.000Z</time>
      </trkpt>
      <trkpt lat="47.30982" lon="-2.3396">
        <ele>11.800000190735</ele>
        <time>2022-05-12T09:43:24.000Z</time>
      </trkpt>
      <trkpt lat="47.30954" lon="-2.33957">
        <ele>12.199999809265</ele>
        <time>2022-05-12T09:43:29.000Z</time>
      </trkpt>
      <trkpt lat="47.30948" lon="-2.33956">
        <ele>12.60000038147</ele>
        <time>2022-05-12T09:43:30.000Z</time>
      </trkpt>
      <trkpt lat="47.30942" lon="-2.33954">
        <ele>13</ele>
        <time>2022-05-12T09:43:31.000Z</time>
      </trkpt>
      <trkpt lat="47.30937" lon="-2.33953">
        <ele>13.39999961853</ele>
        <time>2022-05-12T09:43:32.000Z</time>
      </trkpt>
      <trkpt lat="47.30931" lon="-2.33952">
        <ele>13.800000190735</ele>
        <time>2022-05-12T09:43:33.000Z</time>
      </trkpt>
      <trkpt lat="47.30902" lon="-2.33949">
        <ele>13.800000190735</ele>
        <time>2022-05-12T09:43:38.000Z</time>
      </trkpt>
      <trkpt lat="47.30857" lon="-2.33955">
        <ele>13.800000190735</ele>
        <time>2022-05-12T09:43:46.000Z</time>
      </trkpt>
      <trkpt lat="47.30811" lon="-2.33965">
        <ele>13.800000190735</ele>
        <time>2022-05-12T09:43:54.000Z</time>
      </trkpt>
      <trkpt lat="47.30806" lon="-2.33967">
        <ele>13.800000190735</ele>
        <time>2022-05-12T09:43:55.000Z</time>
      </trkpt>
      <trkpt lat="47.30786" lon="-2.33972">
        <ele>13.800000190735</ele>
        <time>2022-05-12T09:43:59.000Z</time>
      </trkpt>
      <trkpt lat="47.3078" lon="-2.33988">
        <ele>13.800000190735</ele>
        <time>2022-05-12T09:44:02.000Z</time>
      </trkpt>
      <trkpt lat="47.30781" lon="-2.33999">
        <ele>13.800000190735</ele>
        <time>2022-05-12T09:44:04.000Z</time>
      </trkpt>
      <trkpt lat="47.30782" lon="-2.3401">
        <ele>13.800000190735</ele>
        <time>2022-05-12T09:44:06.000Z</time>
      </trkpt>
      <trkpt lat="47.30782" lon="-2.34024">
        <ele>13.800000190735</ele>
        <time>2022-05-12T09:44:08.000Z</time>
      </trkpt>
      <trkpt lat="47.30782" lon="-2.3404">
        <ele>13.800000190735</ele>
        <time>2022-05-12T09:44:10.000Z</time>
      </trkpt>
      <trkpt lat="47.30781" lon="-2.34093">
        <ele>13.800000190735</ele>
        <time>2022-05-12T09:44:17.000Z</time>
      </trkpt>
      <trkpt lat="47.30781" lon="-2.34109">
        <ele>13.800000190735</ele>
        <time>2022-05-12T09:44:19.000Z</time>
      </trkpt>
      <trkpt lat="47.30779" lon="-2.34141">
        <ele>13.800000190735</ele>
        <time>2022-05-12T09:44:23.000Z</time>
      </trkpt>
      <trkpt lat="47.30776" lon="-2.34188">
        <ele>13.800000190735</ele>
        <time>2022-05-12T09:44:29.000Z</time>
      </trkpt>
      <trkpt lat="47.30774" lon="-2.34202">
        <ele>13.800000190735</ele>
        <time>2022-05-12T09:44:31.000Z</time>
      </trkpt>
      <trkpt lat="47.30768" lon="-2.34214">
        <ele>13.800000190735</ele>
        <time>2022-05-12T09:44:33.000Z</time>
      </trkpt>
      <trkpt lat="47.30752" lon="-2.34218">
        <ele>13.800000190735</ele>
        <time>2022-05-12T09:44:36.000Z</time>
      </trkpt>
      <trkpt lat="47.30747" lon="-2.3422">
        <ele>13.800000190735</ele>
        <time>2022-05-12T09:44:37.000Z</time>
      </trkpt>
      <trkpt lat="47.30736" lon="-2.34222">
        <ele>13.800000190735</ele>
        <time>2022-05-12T09:44:39.000Z</time>
      </trkpt>
      <trkpt lat="47.30731" lon="-2.34232">
        <ele>13.800000190735</ele>
        <time>2022-05-12T09:44:41.000Z</time>
      </trkpt>
      <trkpt lat="47.3073" lon="-2.34249">
        <ele>13.800000190735</ele>
        <time>2022-05-12T09:44:43.000Z</time>
      </trkpt>
      <trkpt lat="47.30727" lon="-2.34265">
        <ele>13.800000190735</ele>
        <time>2022-05-12T09:44:45.000Z</time>
      </trkpt>
      <trkpt lat="47.30715" lon="-2.34295">
        <ele>13.800000190735</ele>
        <time>2022-05-12T09:44:49.000Z</time>
      </trkpt>
      <trkpt lat="47.30698" lon="-2.3433">
        <ele>14.199999809265</ele>
        <time>2022-05-12T09:44:54.000Z</time>
      </trkpt>
      <trkpt lat="47.30695" lon="-2.34336">
        <ele>14.60000038147</ele>
        <time>2022-05-12T09:44:55.000Z</time>
      </trkpt>
      <trkpt lat="47.30691" lon="-2.34343">
        <ele>15</ele>
        <time>2022-05-12T09:44:56.000Z</time>
      </trkpt>
      <trkpt lat="47.30688" lon="-2.34349">
        <ele>15.39999961853</ele>
        <time>2022-05-12T09:44:57.000Z</time>
      </trkpt>
      <trkpt lat="47.30684" lon="-2.34356">
        <ele>15.800000190735</ele>
        <time>2022-05-12T09:44:58.000Z</time>
      </trkpt>
      <trkpt lat="47.30665" lon="-2.34387">
        <ele>15.800000190735</ele>
        <time>2022-05-12T09:45:03.000Z</time>
      </trkpt>
      <trkpt lat="47.30635" lon="-2.34429">
        <ele>15.800000190735</ele>
        <time>2022-05-12T09:45:10.000Z</time>
      </trkpt>
      <trkpt lat="47.30607" lon="-2.34465">
        <ele>15.800000190735</ele>
        <time>2022-05-12T09:45:16.000Z</time>
      </trkpt>
      <trkpt lat="47.30578" lon="-2.34521">
        <ele>15.800000190735</ele>
        <time>2022-05-12T09:45:23.000Z</time>
      </trkpt>
      <trkpt lat="47.30552" lon="-2.34571">
        <ele>15.800000190735</ele>
        <time>2022-05-12T09:45:29.000Z</time>
      </trkpt>
      <trkpt lat="47.30525" lon="-2.34608">
        <ele>15.800000190735</ele>
        <time>2022-05-12T09:45:34.000Z</time>
      </trkpt>
      <trkpt lat="47.30507" lon="-2.34637">
        <ele>15.800000190735</ele>
        <time>2022-05-12T09:45:38.000Z</time>
      </trkpt>
      <trkpt lat="47.30502" lon="-2.34644">
        <ele>15.800000190735</ele>
        <time>2022-05-12T09:45:39.000Z</time>
      </trkpt>
      <trkpt lat="47.30485" lon="-2.34668">
        <ele>15.800000190735</ele>
        <time>2022-05-12T09:45:43.000Z</time>
      </trkpt>
      <trkpt lat="47.30479" lon="-2.34674">
        <ele>15.800000190735</ele>
        <time>2022-05-12T09:45:44.000Z</time>
      </trkpt>
      <trkpt lat="47.30443" lon="-2.34704">
        <ele>15.800000190735</ele>
        <time>2022-05-12T09:45:50.000Z</time>
      </trkpt>
      <trkpt lat="47.30438" lon="-2.3471">
        <ele>15.800000190735</ele>
        <time>2022-05-12T09:45:51.000Z</time>
      </trkpt>
      <trkpt lat="47.30422" lon="-2.34725">
        <ele>15.800000190735</ele>
        <time>2022-05-12T09:45:54.000Z</time>
      </trkpt>
      <trkpt lat="47.30417" lon="-2.34729">
        <ele>15.800000190735</ele>
        <time>2022-05-12T09:45:55.000Z</time>
      </trkpt>
      <trkpt lat="47.304" lon="-2.34739">
        <ele>15.800000190735</ele>
        <time>2022-05-12T09:45:58.000Z</time>
      </trkpt>
      <trkpt lat="47.30389" lon="-2.34745">
        <ele>15.800000190735</ele>
        <time>2022-05-12T09:46:00.000Z</time>
      </trkpt>
      <trkpt lat="47.30353" lon="-2.34768">
        <ele>15.800000190735</ele>
        <time>2022-05-12T09:46:06.000Z</time>
      </trkpt>
      <trkpt lat="47.30337" lon="-2.34785">
        <ele>15.800000190735</ele>
        <time>2022-05-12T09:46:09.000Z</time>
      </trkpt>
      <trkpt lat="47.30333" lon="-2.34793">
        <ele>15.800000190735</ele>
        <time>2022-05-12T09:46:10.000Z</time>
      </trkpt>
      <trkpt lat="47.30311" lon="-2.34832">
        <ele>15.800000190735</ele>
        <time>2022-05-12T09:46:15.000Z</time>
      </trkpt>
      <trkpt lat="47.30295" lon="-2.3485">
        <ele>15.800000190735</ele>
        <time>2022-05-12T09:46:18.000Z</time>
      </trkpt>
      <trkpt lat="47.30283" lon="-2.34858">
        <ele>15.800000190735</ele>
        <time>2022-05-12T09:46:20.000Z</time>
      </trkpt>
      <trkpt lat="47.30251" lon="-2.34877">
        <ele>15.800000190735</ele>
        <time>2022-05-12T09:46:25.000Z</time>
      </trkpt>
      <trkpt lat="47.30231" lon="-2.34889">
        <ele>15.800000190735</ele>
        <time>2022-05-12T09:46:28.000Z</time>
      </trkpt>
      <trkpt lat="47.30218" lon="-2.34899">
        <ele>15.800000190735</ele>
        <time>2022-05-12T09:46:30.000Z</time>
      </trkpt>
      <trkpt lat="47.30204" lon="-2.34923">
        <ele>15.800000190735</ele>
        <time>2022-05-12T09:46:33.000Z</time>
      </trkpt>
      <trkpt lat="47.30201" lon="-2.34953">
        <ele>15.800000190735</ele>
        <time>2022-05-12T09:46:36.000Z</time>
      </trkpt>
      <trkpt lat="47.30202" lon="-2.34964">
        <ele>15.800000190735</ele>
        <time>2022-05-12T09:46:37.000Z</time>
      </trkpt>
      <trkpt lat="47.30202" lon="-2.34987">
        <ele>15.39999961853</ele>
        <time>2022-05-12T09:46:39.000Z</time>
      </trkpt>
      <trkpt lat="47.30203" lon="-2.34999">
        <ele>15</ele>
        <time>2022-05-12T09:46:40.000Z</time>
      </trkpt>
      <trkpt lat="47.30204" lon="-2.3501">
        <ele>14.60000038147</ele>
        <time>2022-05-12T09:46:41.000Z</time>
      </trkpt>
      <trkpt lat="47.30205" lon="-2.35022">
        <ele>14.199999809265</ele>
        <time>2022-05-12T09:46:42.000Z</time>
      </trkpt>
      <trkpt lat="47.30205" lon="-2.35033">
        <ele>13.800000190735</ele>
        <time>2022-05-12T09:46:43.000Z</time>
      </trkpt>
      <trkpt lat="47.30206" lon="-2.35067">
        <ele>13.39999961853</ele>
        <time>2022-05-12T09:46:46.000Z</time>
      </trkpt>
      <trkpt lat="47.30206" lon="-2.35077">
        <ele>12.60000038147</ele>
        <time>2022-05-12T09:46:47.000Z</time>
      </trkpt>
      <trkpt lat="47.30207" lon="-2.35088">
        <ele>12.199999809265</ele>
        <time>2022-05-12T09:46:48.000Z</time>
      </trkpt>
      <trkpt lat="47.30207" lon="-2.35097">
        <ele>11.800000190735</ele>
        <time>2022-05-12T09:46:49.000Z</time>
      </trkpt>
      <trkpt lat="47.30206" lon="-2.35117">
        <ele>11.800000190735</ele>
        <time>2022-05-12T09:46:51.000Z</time>
      </trkpt>
      <trkpt lat="47.30205" lon="-2.35127">
        <ele>11.800000190735</ele>
        <time>2022-05-12T09:46:52.000Z</time>
      </trkpt>
      <trkpt lat="47.30206" lon="-2.35148">
        <ele>11.800000190735</ele>
        <time>2022-05-12T09:46:54.000Z</time>
      </trkpt>
      <trkpt lat="47.30204" lon="-2.35164">
        <ele>11.39999961853</ele>
        <time>2022-05-12T09:46:56.000Z</time>
      </trkpt>
      <trkpt lat="47.30201" lon="-2.35169">
        <ele>11</ele>
        <time>2022-05-12T09:46:57.000Z</time>
      </trkpt>
      <trkpt lat="47.30198" lon="-2.3517">
        <ele>10.60000038147</ele>
        <time>2022-05-12T09:46:58.000Z</time>
      </trkpt>
      <trkpt lat="47.30195" lon="-2.35171">
        <ele>10</ele>
        <time>2022-05-12T09:46:59.000Z</time>
      </trkpt>
      <trkpt lat="47.30192" lon="-2.35172">
        <ele>9.6000003814697</ele>
        <time>2022-05-12T09:47:00.000Z</time>
      </trkpt>
      <trkpt lat="47.30176" lon="-2.35177">
        <ele>9.6000003814697</ele>
        <time>2022-05-12T09:47:05.000Z</time>
      </trkpt>
      <trkpt lat="47.30167" lon="-2.35183">
        <ele>9.6000003814697</ele>
        <time>2022-05-12T09:47:09.000Z</time>
      </trkpt>
      <trkpt lat="47.3016" lon="-2.3519">
        <ele>9.6000003814697</ele>
        <time>2022-05-12T09:47:13.000Z</time>
      </trkpt>
      <trkpt lat="47.30159" lon="-2.35192">
        <ele>9.6000003814697</ele>
        <time>2022-05-12T09:47:14.000Z</time>
      </trkpt>
      <trkpt lat="47.30156" lon="-2.35194">
        <ele>9.6000003814697</ele>
        <time>2022-05-12T09:47:16.000Z</time>
      </trkpt>
      <trkpt lat="47.30152" lon="-2.35194">
        <ele>9.6000003814697</ele>
        <time>2022-05-12T09:47:18.000Z</time>
      </trkpt>
      <trkpt lat="47.30151" lon="-2.35194">
        <ele>9.6000003814697</ele>
        <time>2022-05-12T09:47:23.000Z</time>
      </trkpt>
      <trkpt lat="47.30147" lon="-2.35194">
        <ele>9.6000003814697</ele>
        <time>2022-05-12T09:47:29.000Z</time>
      </trkpt>
      <trkpt lat="47.30139" lon="-2.35194">
        <ele>9.6000003814697</ele>
        <time>2022-05-12T09:47:32.000Z</time>
      </trkpt>
      <trkpt lat="47.30121" lon="-2.352">
        <ele>9.6000003814697</ele>
        <time>2022-05-12T09:47:36.000Z</time>
      </trkpt>
      <trkpt lat="47.30116" lon="-2.35202">
        <ele>9.6000003814697</ele>
        <time>2022-05-12T09:47:37.000Z</time>
      </trkpt>
      <trkpt lat="47.30107" lon="-2.35207">
        <ele>9.6000003814697</ele>
        <time>2022-05-12T09:47:39.000Z</time>
      </trkpt>
      <trkpt lat="47.30098" lon="-2.35211">
        <ele>9.6000003814697</ele>
        <time>2022-05-12T09:47:41.000Z</time>
      </trkpt>
      <trkpt lat="47.30093" lon="-2.35213">
        <ele>9.6000003814697</ele>
        <time>2022-05-12T09:47:42.000Z</time>
      </trkpt>
      <trkpt lat="47.30088" lon="-2.35215">
        <ele>9.6000003814697</ele>
        <time>2022-05-12T09:47:43.000Z</time>
      </trkpt>
      <trkpt lat="47.30079" lon="-2.35218">
        <ele>9.6000003814697</ele>
        <time>2022-05-12T09:47:45.000Z</time>
      </trkpt>
      <trkpt lat="47.30075" lon="-2.35221">
        <ele>9.6000003814697</ele>
        <time>2022-05-12T09:47:46.000Z</time>
      </trkpt>
      <trkpt lat="47.30049" lon="-2.35237">
        <ele>9.6000003814697</ele>
        <time>2022-05-12T09:47:52.000Z</time>
      </trkpt>
      <trkpt lat="47.3003" lon="-2.35245">
        <ele>9.1999998092651</ele>
        <time>2022-05-12T09:47:57.000Z</time>
      </trkpt>
      <trkpt lat="47.30029" lon="-2.35246">
        <ele>8.8000001907349</ele>
        <time>2022-05-12T09:47:58.000Z</time>
      </trkpt>
      <trkpt lat="47.30027" lon="-2.35245">
        <ele>8.3999996185303</ele>
        <time>2022-05-12T09:47:59.000Z</time>
      </trkpt>
      <trkpt lat="47.30026" lon="-2.35246">
        <ele>8</ele>
        <time>2022-05-12T09:48:00.000Z</time>
      </trkpt>
      <trkpt lat="47.30023" lon="-2.35248">
        <ele>7.5999999046326</ele>
        <time>2022-05-12T09:48:01.000Z</time>
      </trkpt>
      <trkpt lat="47.30015" lon="-2.35254">
        <ele>7.5999999046326</ele>
        <time>2022-05-12T09:48:04.000Z</time>
      </trkpt>
      <trkpt lat="47.3001" lon="-2.35256">
        <ele>7.5999999046326</ele>
        <time>2022-05-12T09:48:07.000Z</time>
      </trkpt>
      <trkpt lat="47.29996" lon="-2.35263">
        <ele>7.5999999046326</ele>
        <time>2022-05-12T09:48:13.000Z</time>
      </trkpt>
      <trkpt lat="47.29995" lon="-2.35263">
        <ele>7.5999999046326</ele>
        <time>2022-05-12T09:48:15.000Z</time>
      </trkpt>
      <trkpt lat="47.29993" lon="-2.35266">
        <ele>7.5999999046326</ele>
        <time>2022-05-12T09:49:11.000Z</time>
      </trkpt>
      <trkpt lat="47.29983" lon="-2.35276">
        <ele>7.5999999046326</ele>
        <time>2022-05-12T09:49:15.000Z</time>
      </trkpt>
      <trkpt lat="47.29961" lon="-2.35302">
        <ele>7.5999999046326</ele>
        <time>2022-05-12T09:49:22.000Z</time>
      </trkpt>
      <trkpt lat="47.29935" lon="-2.35337">
        <ele>7.5999999046326</ele>
        <time>2022-05-12T09:49:30.000Z</time>
      </trkpt>
      <trkpt lat="47.29906" lon="-2.35372">
        <ele>7.5999999046326</ele>
        <time>2022-05-12T09:49:38.000Z</time>
      </trkpt>
      <trkpt lat="47.29881" lon="-2.354">
        <ele>7.5999999046326</ele>
        <time>2022-05-12T09:49:45.000Z</time>
      </trkpt>
      <trkpt lat="47.29862" lon="-2.35421">
        <ele>8.1999998092651</ele>
        <time>2022-05-12T09:49:50.000Z</time>
      </trkpt>
      <trkpt lat="47.29857" lon="-2.35425">
        <ele>8.6000003814697</ele>
        <time>2022-05-12T09:49:51.000Z</time>
      </trkpt>
      <trkpt lat="47.29853" lon="-2.35429">
        <ele>9</ele>
        <time>2022-05-12T09:49:52.000Z</time>
      </trkpt>
      <trkpt lat="47.29849" lon="-2.35433">
        <ele>9.3999996185303</ele>
        <time>2022-05-12T09:49:53.000Z</time>
      </trkpt>
      <trkpt lat="47.29846" lon="-2.35437">
        <ele>9.8000001907349</ele>
        <time>2022-05-12T09:49:54.000Z</time>
      </trkpt>
      <trkpt lat="47.29838" lon="-2.35445">
        <ele>9.8000001907349</ele>
        <time>2022-05-12T09:49:56.000Z</time>
      </trkpt>
      <trkpt lat="47.29828" lon="-2.3546">
        <ele>9.8000001907349</ele>
        <time>2022-05-12T09:49:59.000Z</time>
      </trkpt>
      <trkpt lat="47.29826" lon="-2.35467">
        <ele>9.8000001907349</ele>
        <time>2022-05-12T09:50:00.000Z</time>
      </trkpt>
      <trkpt lat="47.29825" lon="-2.3548">
        <ele>9.8000001907349</ele>
        <time>2022-05-12T09:50:02.000Z</time>
      </trkpt>
      <trkpt lat="47.2983" lon="-2.35503">
        <ele>9.8000001907349</ele>
        <time>2022-05-12T09:50:06.000Z</time>
      </trkpt>
      <trkpt lat="47.29832" lon="-2.35509">
        <ele>9.8000001907349</ele>
        <time>2022-05-12T09:50:07.000Z</time>
      </trkpt>
      <trkpt lat="47.29841" lon="-2.35537">
        <ele>10.199999809265</ele>
        <time>2022-05-12T09:50:12.000Z</time>
      </trkpt>
      <trkpt lat="47.29842" lon="-2.35543">
        <ele>10.60000038147</ele>
        <time>2022-05-12T09:50:13.000Z</time>
      </trkpt>
      <trkpt lat="47.29844" lon="-2.35548">
        <ele>11</ele>
        <time>2022-05-12T09:50:14.000Z</time>
      </trkpt>
      <trkpt lat="47.29845" lon="-2.35554">
        <ele>11.39999961853</ele>
        <time>2022-05-12T09:50:15.000Z</time>
      </trkpt>
      <trkpt lat="47.29847" lon="-2.3556">
        <ele>11.800000190735</ele>
        <time>2022-05-12T09:50:16.000Z</time>
      </trkpt>
      <trkpt lat="47.29856" lon="-2.3559">
        <ele>11.800000190735</ele>
        <time>2022-05-12T09:50:21.000Z</time>
      </trkpt>
      <trkpt lat="47.29868" lon="-2.35632">
        <ele>11.800000190735</ele>
        <time>2022-05-12T09:50:28.000Z</time>
      </trkpt>
      <trkpt lat="47.29871" lon="-2.35644">
        <ele>11.800000190735</ele>
        <time>2022-05-12T09:50:30.000Z</time>
      </trkpt>
      <trkpt lat="47.29872" lon="-2.35649">
        <ele>12.199999809265</ele>
        <time>2022-05-12T09:50:31.000Z</time>
      </trkpt>
      <trkpt lat="47.29873" lon="-2.35655">
        <ele>12.60000038147</ele>
        <time>2022-05-12T09:50:32.000Z</time>
      </trkpt>
      <trkpt lat="47.29874" lon="-2.35662">
        <ele>13</ele>
        <time>2022-05-12T09:50:33.000Z</time>
      </trkpt>
      <trkpt lat="47.29875" lon="-2.35668">
        <ele>13.39999961853</ele>
        <time>2022-05-12T09:50:34.000Z</time>
      </trkpt>
      <trkpt lat="47.29876" lon="-2.35675">
        <ele>13.800000190735</ele>
        <time>2022-05-12T09:50:35.000Z</time>
      </trkpt>
      <trkpt lat="47.29883" lon="-2.35707">
        <ele>13.800000190735</ele>
        <time>2022-05-12T09:50:40.000Z</time>
      </trkpt>
      <trkpt lat="47.29892" lon="-2.35751">
        <ele>13.800000190735</ele>
        <time>2022-05-12T09:50:48.000Z</time>
      </trkpt>
      <trkpt lat="47.29889" lon="-2.35757">
        <ele>13.800000190735</ele>
        <time>2022-05-12T09:50:50.000Z</time>
      </trkpt>
      <trkpt lat="47.29886" lon="-2.3576">
        <ele>13.800000190735</ele>
        <time>2022-05-12T09:50:51.000Z</time>
      </trkpt>
      <trkpt lat="47.29875" lon="-2.35772">
        <ele>13.800000190735</ele>
        <time>2022-05-12T09:50:54.000Z</time>
      </trkpt>
      <trkpt lat="47.2987" lon="-2.35774">
        <ele>13.800000190735</ele>
        <time>2022-05-12T09:50:55.000Z</time>
      </trkpt>
      <trkpt lat="47.29843" lon="-2.35784">
        <ele>13.800000190735</ele>
        <time>2022-05-12T09:51:00.000Z</time>
      </trkpt>
      <trkpt lat="47.29838" lon="-2.35787">
        <ele>13.800000190735</ele>
        <time>2022-05-12T09:51:01.000Z</time>
      </trkpt>
      <trkpt lat="47.29819" lon="-2.35793">
        <ele>13.800000190735</ele>
        <time>2022-05-12T09:51:05.000Z</time>
      </trkpt>
      <trkpt lat="47.29806" lon="-2.35797">
        <ele>14.199999809265</ele>
        <time>2022-05-12T09:51:08.000Z</time>
      </trkpt>
      <trkpt lat="47.29801" lon="-2.35798">
        <ele>14.60000038147</ele>
        <time>2022-05-12T09:51:09.000Z</time>
      </trkpt>
      <trkpt lat="47.29797" lon="-2.358">
        <ele>15</ele>
        <time>2022-05-12T09:51:10.000Z</time>
      </trkpt>
      <trkpt lat="47.29792" lon="-2.35801">
        <ele>15.39999961853</ele>
        <time>2022-05-12T09:51:11.000Z</time>
      </trkpt>
      <trkpt lat="47.29788" lon="-2.35803">
        <ele>15.800000190735</ele>
        <time>2022-05-12T09:51:12.000Z</time>
      </trkpt>
      <trkpt lat="47.29783" lon="-2.35804">
        <ele>15.800000190735</ele>
        <time>2022-05-12T09:51:13.000Z</time>
      </trkpt>
      <trkpt lat="47.29735" lon="-2.35823">
        <ele>15.800000190735</ele>
        <time>2022-05-12T09:51:22.000Z</time>
      </trkpt>
      <trkpt lat="47.29711" lon="-2.35837">
        <ele>15.39999961853</ele>
        <time>2022-05-12T09:51:26.000Z</time>
      </trkpt>
      <trkpt lat="47.29705" lon="-2.35839">
        <ele>15</ele>
        <time>2022-05-12T09:51:27.000Z</time>
      </trkpt>
      <trkpt lat="47.297" lon="-2.35842">
        <ele>14.60000038147</ele>
        <time>2022-05-12T09:51:28.000Z</time>
      </trkpt>
      <trkpt lat="47.29695" lon="-2.35845">
        <ele>14.199999809265</ele>
        <time>2022-05-12T09:51:29.000Z</time>
      </trkpt>
      <trkpt lat="47.2969" lon="-2.35847">
        <ele>13.800000190735</ele>
        <time>2022-05-12T09:51:30.000Z</time>
      </trkpt>
      <trkpt lat="47.29679" lon="-2.35849">
        <ele>13.800000190735</ele>
        <time>2022-05-12T09:51:32.000Z</time>
      </trkpt>
      <trkpt lat="47.29674" lon="-2.35851">
        <ele>13.800000190735</ele>
        <time>2022-05-12T09:51:33.000Z</time>
      </trkpt>
      <trkpt lat="47.29661" lon="-2.35864">
        <ele>13.800000190735</ele>
        <time>2022-05-12T09:51:36.000Z</time>
      </trkpt>
      <trkpt lat="47.29645" lon="-2.35874">
        <ele>13.800000190735</ele>
        <time>2022-05-12T09:51:39.000Z</time>
      </trkpt>
      <trkpt lat="47.29633" lon="-2.35879">
        <ele>13.800000190735</ele>
        <time>2022-05-12T09:51:41.000Z</time>
      </trkpt>
      <trkpt lat="47.29616" lon="-2.35889">
        <ele>13.800000190735</ele>
        <time>2022-05-12T09:51:44.000Z</time>
      </trkpt>
      <trkpt lat="47.29594" lon="-2.35903">
        <ele>13.800000190735</ele>
        <time>2022-05-12T09:51:48.000Z</time>
      </trkpt>
      <trkpt lat="47.29554" lon="-2.35926">
        <ele>13.800000190735</ele>
        <time>2022-05-12T09:51:55.000Z</time>
      </trkpt>
      <trkpt lat="47.29525" lon="-2.35942">
        <ele>13.800000190735</ele>
        <time>2022-05-12T09:52:01.000Z</time>
      </trkpt>
      <trkpt lat="47.29511" lon="-2.35941">
        <ele>13.800000190735</ele>
        <time>2022-05-12T09:52:05.000Z</time>
      </trkpt>
      <trkpt lat="47.29503" lon="-2.35917">
        <ele>13.800000190735</ele>
        <time>2022-05-12T09:52:09.000Z</time>
      </trkpt>
      <trkpt lat="47.29498" lon="-2.35905">
        <ele>13.800000190735</ele>
        <time>2022-05-12T09:52:11.000Z</time>
      </trkpt>
      <trkpt lat="47.29486" lon="-2.35896">
        <ele>13.800000190735</ele>
        <time>2022-05-12T09:52:14.000Z</time>
      </trkpt>
      <trkpt lat="47.29472" lon="-2.35898">
        <ele>13.800000190735</ele>
        <time>2022-05-12T09:52:17.000Z</time>
      </trkpt>
      <trkpt lat="47.29467" lon="-2.359">
        <ele>13.800000190735</ele>
        <time>2022-05-12T09:52:18.000Z</time>
      </trkpt>
      <trkpt lat="47.29457" lon="-2.35904">
        <ele>13.800000190735</ele>
        <time>2022-05-12T09:52:20.000Z</time>
      </trkpt>
      <trkpt lat="47.29439" lon="-2.35915">
        <ele>13.800000190735</ele>
        <time>2022-05-12T09:52:24.000Z</time>
      </trkpt>
      <trkpt lat="47.2943" lon="-2.35901">
        <ele>13.800000190735</ele>
        <time>2022-05-12T09:52:27.000Z</time>
      </trkpt>
      <trkpt lat="47.29418" lon="-2.35885">
        <ele>13.800000190735</ele>
        <time>2022-05-12T09:52:30.000Z</time>
      </trkpt>
      <trkpt lat="47.29414" lon="-2.35879">
        <ele>13.800000190735</ele>
        <time>2022-05-12T09:52:31.000Z</time>
      </trkpt>
      <trkpt lat="47.29389" lon="-2.35848">
        <ele>13.800000190735</ele>
        <time>2022-05-12T09:52:37.000Z</time>
      </trkpt>
      <trkpt lat="47.29355" lon="-2.35816">
        <ele>13.800000190735</ele>
        <time>2022-05-12T09:52:44.000Z</time>
      </trkpt>
      <trkpt lat="47.2932" lon="-2.35789">
        <ele>13.800000190735</ele>
        <time>2022-05-12T09:52:51.000Z</time>
      </trkpt>
      <trkpt lat="47.29281" lon="-2.35755">
        <ele>13.800000190735</ele>
        <time>2022-05-12T09:52:59.000Z</time>
      </trkpt>
      <trkpt lat="47.29255" lon="-2.35731">
        <ele>13.800000190735</ele>
        <time>2022-05-12T09:53:05.000Z</time>
      </trkpt>
      <trkpt lat="47.29248" lon="-2.35741">
        <ele>13.800000190735</ele>
        <time>2022-05-12T09:53:07.000Z</time>
      </trkpt>
      <trkpt lat="47.29237" lon="-2.35761">
        <ele>13.800000190735</ele>
        <time>2022-05-12T09:53:10.000Z</time>
      </trkpt>
      <trkpt lat="47.29233" lon="-2.35767">
        <ele>13.800000190735</ele>
        <time>2022-05-12T09:53:11.000Z</time>
      </trkpt>
      <trkpt lat="47.29218" lon="-2.35784">
        <ele>13.800000190735</ele>
        <time>2022-05-12T09:53:14.000Z</time>
      </trkpt>
      <trkpt lat="47.29202" lon="-2.35798">
        <ele>13.800000190735</ele>
        <time>2022-05-12T09:53:17.000Z</time>
      </trkpt>
      <trkpt lat="47.29162" lon="-2.35827">
        <ele>13.800000190735</ele>
        <time>2022-05-12T09:53:24.000Z</time>
      </trkpt>
      <trkpt lat="47.29123" lon="-2.35864">
        <ele>13.800000190735</ele>
        <time>2022-05-12T09:53:31.000Z</time>
      </trkpt>
      <trkpt lat="47.29081" lon="-2.35915">
        <ele>13.800000190735</ele>
        <time>2022-05-12T09:53:39.000Z</time>
      </trkpt>
      <trkpt lat="47.29076" lon="-2.35921">
        <ele>13.800000190735</ele>
        <time>2022-05-12T09:53:40.000Z</time>
      </trkpt>
      <trkpt lat="47.29035" lon="-2.35968">
        <ele>13.800000190735</ele>
        <time>2022-05-12T09:53:48.000Z</time>
      </trkpt>
      <trkpt lat="47.28987" lon="-2.36015">
        <ele>13.800000190735</ele>
        <time>2022-05-12T09:53:57.000Z</time>
      </trkpt>
      <trkpt lat="47.28953" lon="-2.36044">
        <ele>13.800000190735</ele>
        <time>2022-05-12T09:54:03.000Z</time>
      </trkpt>
      <trkpt lat="47.28914" lon="-2.3607">
        <ele>13.800000190735</ele>
        <time>2022-05-12T09:54:10.000Z</time>
      </trkpt>
      <trkpt lat="47.28904" lon="-2.36079">
        <ele>13.800000190735</ele>
        <time>2022-05-12T09:54:12.000Z</time>
      </trkpt>
      <trkpt lat="47.28891" lon="-2.36095">
        <ele>13.800000190735</ele>
        <time>2022-05-12T09:54:15.000Z</time>
      </trkpt>
      <trkpt lat="47.28855" lon="-2.3613">
        <ele>13.800000190735</ele>
        <time>2022-05-12T09:54:22.000Z</time>
      </trkpt>
      <trkpt lat="47.28824" lon="-2.36172">
        <ele>13.800000190735</ele>
        <time>2022-05-12T09:54:29.000Z</time>
      </trkpt>
      <trkpt lat="47.28819" lon="-2.36177">
        <ele>13.800000190735</ele>
        <time>2022-05-12T09:54:30.000Z</time>
      </trkpt>
      <trkpt lat="47.288" lon="-2.36194">
        <ele>13.800000190735</ele>
        <time>2022-05-12T09:54:34.000Z</time>
      </trkpt>
      <trkpt lat="47.28775" lon="-2.3621">
        <ele>13.800000190735</ele>
        <time>2022-05-12T09:54:40.000Z</time>
      </trkpt>
      <trkpt lat="47.28762" lon="-2.36221">
        <ele>13.800000190735</ele>
        <time>2022-05-12T09:54:45.000Z</time>
      </trkpt>
      <trkpt lat="47.28755" lon="-2.36223">
        <ele>13.800000190735</ele>
        <time>2022-05-12T09:54:50.000Z</time>
      </trkpt>
      <trkpt lat="47.28753" lon="-2.36222">
        <ele>13.800000190735</ele>
        <time>2022-05-12T09:54:53.000Z</time>
      </trkpt>
      <trkpt lat="47.28744" lon="-2.36229">
        <ele>13.800000190735</ele>
        <time>2022-05-12T09:55:45.000Z</time>
      </trkpt>
      <trkpt lat="47.2873" lon="-2.36241">
        <ele>13.800000190735</ele>
        <time>2022-05-12T09:55:50.000Z</time>
      </trkpt>
      <trkpt lat="47.28721" lon="-2.36252">
        <ele>13.800000190735</ele>
        <time>2022-05-12T09:55:55.000Z</time>
      </trkpt>
      <trkpt lat="47.28712" lon="-2.36264">
        <ele>13.800000190735</ele>
        <time>2022-05-12T09:56:01.000Z</time>
      </trkpt>
      <trkpt lat="47.28702" lon="-2.36272">
        <ele>14.199999809265</ele>
        <time>2022-05-12T09:56:05.000Z</time>
      </trkpt>
      <trkpt lat="47.287" lon="-2.36274">
        <ele>14.60000038147</ele>
        <time>2022-05-12T09:56:06.000Z</time>
      </trkpt>
      <trkpt lat="47.28697" lon="-2.36275">
        <ele>15</ele>
        <time>2022-05-12T09:56:07.000Z</time>
      </trkpt>
      <trkpt lat="47.28695" lon="-2.36276">
        <ele>15.60000038147</ele>
        <time>2022-05-12T09:56:08.000Z</time>
      </trkpt>
      <trkpt lat="47.28692" lon="-2.36277">
        <ele>16</ele>
        <time>2022-05-12T09:56:09.000Z</time>
      </trkpt>
      <trkpt lat="47.28681" lon="-2.36276">
        <ele>16</ele>
        <time>2022-05-12T09:56:12.000Z</time>
      </trkpt>
      <trkpt lat="47.2867" lon="-2.36268">
        <ele>16.39999961853</ele>
        <time>2022-05-12T09:56:16.000Z</time>
      </trkpt>
      <trkpt lat="47.28668" lon="-2.36265">
        <ele>16.799999237061</ele>
        <time>2022-05-12T09:56:17.000Z</time>
      </trkpt>
      <trkpt lat="47.28667" lon="-2.36262">
        <ele>17.200000762939</ele>
        <time>2022-05-12T09:56:18.000Z</time>
      </trkpt>
      <trkpt lat="47.28666" lon="-2.36259">
        <ele>17.60000038147</ele>
        <time>2022-05-12T09:56:19.000Z</time>
      </trkpt>
      <trkpt lat="47.28666" lon="-2.36255">
        <ele>18</ele>
        <time>2022-05-12T09:56:20.000Z</time>
      </trkpt>
      <trkpt lat="47.28666" lon="-2.36244">
        <ele>18</ele>
        <time>2022-05-12T09:56:22.000Z</time>
      </trkpt>
      <trkpt lat="47.28664" lon="-2.3621">
        <ele>18</ele>
        <time>2022-05-12T09:56:29.000Z</time>
      </trkpt>
      <trkpt lat="47.28663" lon="-2.36207">
        <ele>18.39999961853</ele>
        <time>2022-05-12T09:56:30.000Z</time>
      </trkpt>
      <trkpt lat="47.28662" lon="-2.36203">
        <ele>18.799999237061</ele>
        <time>2022-05-12T09:56:31.000Z</time>
      </trkpt>
      <trkpt lat="47.2866" lon="-2.36199">
        <ele>19.200000762939</ele>
        <time>2022-05-12T09:56:32.000Z</time>
      </trkpt>
      <trkpt lat="47.28657" lon="-2.36194">
        <ele>19.60000038147</ele>
        <time>2022-05-12T09:56:33.000Z</time>
      </trkpt>
      <trkpt lat="47.28656" lon="-2.36191">
        <ele>20</ele>
        <time>2022-05-12T09:56:34.000Z</time>
      </trkpt>
      <trkpt lat="47.28643" lon="-2.36178">
        <ele>20</ele>
        <time>2022-05-12T09:56:40.000Z</time>
      </trkpt>
      <trkpt lat="47.28639" lon="-2.36169">
        <ele>20.39999961853</ele>
        <time>2022-05-12T09:56:43.000Z</time>
      </trkpt>
      <trkpt lat="47.28637" lon="-2.36166">
        <ele>20.799999237061</ele>
        <time>2022-05-12T09:56:44.000Z</time>
      </trkpt>
      <trkpt lat="47.28636" lon="-2.36163">
        <ele>21.200000762939</ele>
        <time>2022-05-12T09:56:45.000Z</time>
      </trkpt>
      <trkpt lat="47.28633" lon="-2.3616">
        <ele>21.60000038147</ele>
        <time>2022-05-12T09:56:46.000Z</time>
      </trkpt>
      <trkpt lat="47.2863" lon="-2.36157">
        <ele>22.200000762939</ele>
        <time>2022-05-12T09:56:47.000Z</time>
      </trkpt>
      <trkpt lat="47.28627" lon="-2.36154">
        <ele>22.200000762939</ele>
        <time>2022-05-12T09:56:48.000Z</time>
      </trkpt>
      <trkpt lat="47.28622" lon="-2.36154">
        <ele>22.200000762939</ele>
        <time>2022-05-12T09:56:50.000Z</time>
      </trkpt>
      <trkpt lat="47.28604" lon="-2.36162">
        <ele>22.200000762939</ele>
        <time>2022-05-12T09:56:56.000Z</time>
      </trkpt>
      <trkpt lat="47.28585" lon="-2.36153">
        <ele>22.200000762939</ele>
        <time>2022-05-12T09:57:02.000Z</time>
      </trkpt>
      <trkpt lat="47.28567" lon="-2.36147">
        <ele>22.200000762939</ele>
        <time>2022-05-12T09:57:08.000Z</time>
      </trkpt>
      <trkpt lat="47.28551" lon="-2.3615">
        <ele>21.60000038147</ele>
        <time>2022-05-12T09:57:12.000Z</time>
      </trkpt>
      <trkpt lat="47.28547" lon="-2.36148">
        <ele>21.200000762939</ele>
        <time>2022-05-12T09:57:13.000Z</time>
      </trkpt>
      <trkpt lat="47.28543" lon="-2.36144">
        <ele>20.799999237061</ele>
        <time>2022-05-12T09:57:14.000Z</time>
      </trkpt>
      <trkpt lat="47.2854" lon="-2.36139">
        <ele>20.39999961853</ele>
        <time>2022-05-12T09:57:15.000Z</time>
      </trkpt>
      <trkpt lat="47.28537" lon="-2.36132">
        <ele>20</ele>
        <time>2022-05-12T09:57:16.000Z</time>
      </trkpt>
      <trkpt lat="47.28535" lon="-2.36125">
        <ele>20</ele>
        <time>2022-05-12T09:57:17.000Z</time>
      </trkpt>
      <trkpt lat="47.28532" lon="-2.36102">
        <ele>20</ele>
        <time>2022-05-12T09:57:20.000Z</time>
      </trkpt>
      <trkpt lat="47.28531" lon="-2.36096">
        <ele>20</ele>
        <time>2022-05-12T09:57:21.000Z</time>
      </trkpt>
      <trkpt lat="47.28522" lon="-2.36072">
        <ele>20</ele>
        <time>2022-05-12T09:57:26.000Z</time>
      </trkpt>
      <trkpt lat="47.28503" lon="-2.36045">
        <ele>20</ele>
        <time>2022-05-12T09:57:32.000Z</time>
      </trkpt>
      <trkpt lat="47.285" lon="-2.36043">
        <ele>20</ele>
        <time>2022-05-12T09:57:33.000Z</time>
      </trkpt>
      <trkpt lat="47.28492" lon="-2.36039">
        <ele>20</ele>
        <time>2022-05-12T09:57:35.000Z</time>
      </trkpt>
      <trkpt lat="47.28482" lon="-2.36035">
        <ele>20</ele>
        <time>2022-05-12T09:57:37.000Z</time>
      </trkpt>
      <trkpt lat="47.28474" lon="-2.36027">
        <ele>20</ele>
        <time>2022-05-12T09:57:39.000Z</time>
      </trkpt>
      <trkpt lat="47.28468" lon="-2.36016">
        <ele>20</ele>
        <time>2022-05-12T09:57:41.000Z</time>
      </trkpt>
      <trkpt lat="47.28458" lon="-2.35999">
        <ele>20</ele>
        <time>2022-05-12T09:57:44.000Z</time>
      </trkpt>
      <trkpt lat="47.28445" lon="-2.35996">
        <ele>20</ele>
        <time>2022-05-12T09:57:47.000Z</time>
      </trkpt>
      <trkpt lat="47.28441" lon="-2.35998">
        <ele>20</ele>
        <time>2022-05-12T09:57:48.000Z</time>
      </trkpt>
      <trkpt lat="47.28437" lon="-2.36001">
        <ele>20</ele>
        <time>2022-05-12T09:57:49.000Z</time>
      </trkpt>
      <trkpt lat="47.28423" lon="-2.36013">
        <ele>20</ele>
        <time>2022-05-12T09:57:52.000Z</time>
      </trkpt>
      <trkpt lat="47.28406" lon="-2.36026">
        <ele>20</ele>
        <time>2022-05-12T09:57:56.000Z</time>
      </trkpt>
      <trkpt lat="47.28401" lon="-2.36028">
        <ele>20</ele>
        <time>2022-05-12T09:57:57.000Z</time>
      </trkpt>
      <trkpt lat="47.28389" lon="-2.36028">
        <ele>19.39999961853</ele>
        <time>2022-05-12T09:57:59.000Z</time>
      </trkpt>
      <trkpt lat="47.28383" lon="-2.36028">
        <ele>19</ele>
        <time>2022-05-12T09:58:00.000Z</time>
      </trkpt>
      <trkpt lat="47.28376" lon="-2.36028">
        <ele>18.60000038147</ele>
        <time>2022-05-12T09:58:01.000Z</time>
      </trkpt>
      <trkpt lat="47.28367" lon="-2.36029">
        <ele>17.799999237061</ele>
        <time>2022-05-12T09:58:02.000Z</time>
      </trkpt>
      <trkpt lat="47.28359" lon="-2.36032">
        <ele>17.200000762939</ele>
        <time>2022-05-12T09:58:03.000Z</time>
      </trkpt>
      <trkpt lat="47.28351" lon="-2.36036">
        <ele>16.39999961853</ele>
        <time>2022-05-12T09:58:04.000Z</time>
      </trkpt>
      <trkpt lat="47.28343" lon="-2.36041">
        <ele>15.800000190735</ele>
        <time>2022-05-12T09:58:05.000Z</time>
      </trkpt>
      <trkpt lat="47.28336" lon="-2.36047">
        <ele>15</ele>
        <time>2022-05-12T09:58:06.000Z</time>
      </trkpt>
      <trkpt lat="47.28329" lon="-2.36052">
        <ele>14.199999809265</ele>
        <time>2022-05-12T09:58:07.000Z</time>
      </trkpt>
      <trkpt lat="47.28323" lon="-2.36055">
        <ele>13.60000038147</ele>
        <time>2022-05-12T09:58:08.000Z</time>
      </trkpt>
      <trkpt lat="47.28317" lon="-2.36055">
        <ele>12.800000190735</ele>
        <time>2022-05-12T09:58:09.000Z</time>
      </trkpt>
      <trkpt lat="47.28303" lon="-2.36053">
        <ele>12.800000190735</ele>
        <time>2022-05-12T09:58:11.000Z</time>
      </trkpt>
      <trkpt lat="47.28297" lon="-2.36051">
        <ele>12.39999961853</ele>
        <time>2022-05-12T09:58:12.000Z</time>
      </trkpt>
      <trkpt lat="47.28291" lon="-2.36047">
        <ele>12</ele>
        <time>2022-05-12T09:58:13.000Z</time>
      </trkpt>
      <trkpt lat="47.28286" lon="-2.36041">
        <ele>11.60000038147</ele>
        <time>2022-05-12T09:58:14.000Z</time>
      </trkpt>
      <trkpt lat="47.28282" lon="-2.36034">
        <ele>11</ele>
        <time>2022-05-12T09:58:15.000Z</time>
      </trkpt>
      <trkpt lat="47.28279" lon="-2.36027">
        <ele>10.39999961853</ele>
        <time>2022-05-12T09:58:16.000Z</time>
      </trkpt>
      <trkpt lat="47.28277" lon="-2.3602">
        <ele>9.3999996185303</ele>
        <time>2022-05-12T09:58:17.000Z</time>
      </trkpt>
      <trkpt lat="47.28275" lon="-2.36012">
        <ele>7.5999999046326</ele>
        <time>2022-05-12T09:58:18.000Z</time>
      </trkpt>
      <trkpt lat="47.28273" lon="-2.36005">
        <ele>6.5999999046326</ele>
        <time>2022-05-12T09:58:19.000Z</time>
      </trkpt>
      <trkpt lat="47.28273" lon="-2.35999">
        <ele>5.5999999046326</ele>
        <time>2022-05-12T09:58:20.000Z</time>
      </trkpt>
      <trkpt lat="47.28272" lon="-2.35993">
        <ele>4.5999999046326</ele>
        <time>2022-05-12T09:58:21.000Z</time>
      </trkpt>
      <trkpt lat="47.28272" lon="-2.35987">
        <ele>3.5999999046326</ele>
        <time>2022-05-12T09:58:22.000Z</time>
      </trkpt>
      <trkpt lat="47.28266" lon="-2.35966">
        <ele>3.5999999046326</ele>
        <time>2022-05-12T09:58:26.000Z</time>
      </trkpt>
      <trkpt lat="47.28254" lon="-2.35935">
        <ele>3.5999999046326</ele>
        <time>2022-05-12T09:58:32.000Z</time>
      </trkpt>
      <trkpt lat="47.28248" lon="-2.3592">
        <ele>3.5999999046326</ele>
        <time>2022-05-12T09:58:35.000Z</time>
      </trkpt>
      <trkpt lat="47.28244" lon="-2.35918">
        <ele>3.5999999046326</ele>
        <time>2022-05-12T09:58:36.000Z</time>
      </trkpt>
      <trkpt lat="47.28226" lon="-2.35912">
        <ele>3.5999999046326</ele>
        <time>2022-05-12T09:58:40.000Z</time>
      </trkpt>
      <trkpt lat="47.28222" lon="-2.3591">
        <ele>3.5999999046326</ele>
        <time>2022-05-12T09:58:41.000Z</time>
      </trkpt>
      <trkpt lat="47.28208" lon="-2.35895">
        <ele>3.5999999046326</ele>
        <time>2022-05-12T09:58:45.000Z</time>
      </trkpt>
      <trkpt lat="47.28197" lon="-2.35873">
        <ele>3.5999999046326</ele>
        <time>2022-05-12T09:58:51.000Z</time>
      </trkpt>
      <trkpt lat="47.28186" lon="-2.35844">
        <ele>3.5999999046326</ele>
        <time>2022-05-12T09:58:57.000Z</time>
      </trkpt>
      <trkpt lat="47.28178" lon="-2.35815">
        <ele>3.5999999046326</ele>
        <time>2022-05-12T09:59:03.000Z</time>
      </trkpt>
      <trkpt lat="47.2817" lon="-2.3579">
        <ele>3.5999999046326</ele>
        <time>2022-05-12T09:59:08.000Z</time>
      </trkpt>
      <trkpt lat="47.28161" lon="-2.35777">
        <ele>3.2000000476837</ele>
        <time>2022-05-12T09:59:11.000Z</time>
      </trkpt>
      <trkpt lat="47.28158" lon="-2.35774">
        <ele>2.7999999523163</ele>
        <time>2022-05-12T09:59:12.000Z</time>
      </trkpt>
      <trkpt lat="47.28156" lon="-2.35772">
        <ele>2.4000000953674</ele>
        <time>2022-05-12T09:59:13.000Z</time>
      </trkpt>
      <trkpt lat="47.28153" lon="-2.3577">
        <ele>2</ele>
        <time>2022-05-12T09:59:14.000Z</time>
      </trkpt>
      <trkpt lat="47.2815" lon="-2.3577">
        <ele>1.6000000238419</ele>
        <time>2022-05-12T09:59:15.000Z</time>
      </trkpt>
      <trkpt lat="47.28134" lon="-2.3577">
        <ele>1.6000000238419</ele>
        <time>2022-05-12T09:59:19.000Z</time>
      </trkpt>
      <trkpt lat="47.2812" lon="-2.35788">
        <ele>1.6000000238419</ele>
        <time>2022-05-12T09:59:23.000Z</time>
      </trkpt>
      <trkpt lat="47.28117" lon="-2.35794">
        <ele>1.6000000238419</ele>
        <time>2022-05-12T09:59:24.000Z</time>
      </trkpt>
      <trkpt lat="47.28115" lon="-2.35799">
        <ele>1</ele>
        <time>2022-05-12T09:59:25.000Z</time>
      </trkpt>
      <trkpt lat="47.28112" lon="-2.35804">
        <ele>0.60000002384186</ele>
        <time>2022-05-12T09:59:26.000Z</time>
      </trkpt>
      <trkpt lat="47.2811" lon="-2.35809">
        <ele>0.20000000298023</ele>
        <time>2022-05-12T09:59:27.000Z</time>
      </trkpt>
      <trkpt lat="47.28108" lon="-2.35814">
        <ele>-0.20000000298023</ele>
        <time>2022-05-12T09:59:28.000Z</time>
      </trkpt>
      <trkpt lat="47.28106" lon="-2.35817">
        <ele>-0.80000001192093</ele>
        <time>2022-05-12T09:59:29.000Z</time>
      </trkpt>
      <trkpt lat="47.28103" lon="-2.35818">
        <ele>-0.80000001192093</ele>
        <time>2022-05-12T09:59:30.000Z</time>
      </trkpt>
      <trkpt lat="47.28093" lon="-2.35815">
        <ele>-0.80000001192093</ele>
        <time>2022-05-12T09:59:33.000Z</time>
      </trkpt>
      <trkpt lat="47.28092" lon="-2.35813">
        <ele>-0.20000000298023</ele>
        <time>2022-05-12T09:59:34.000Z</time>
      </trkpt>
      <trkpt lat="47.28091" lon="-2.3581">
        <ele>0.20000000298023</ele>
        <time>2022-05-12T09:59:35.000Z</time>
      </trkpt>
      <trkpt lat="47.28091" lon="-2.35806">
        <ele>0.60000002384186</ele>
        <time>2022-05-12T09:59:36.000Z</time>
      </trkpt>
      <trkpt lat="47.28091" lon="-2.35801">
        <ele>1</ele>
        <time>2022-05-12T09:59:37.000Z</time>
      </trkpt>
      <trkpt lat="47.28091" lon="-2.35797">
        <ele>1.6000000238419</ele>
        <time>2022-05-12T09:59:38.000Z</time>
      </trkpt>
      <trkpt lat="47.28094" lon="-2.3577">
        <ele>2</ele>
        <time>2022-05-12T09:59:44.000Z</time>
      </trkpt>
      <trkpt lat="47.28094" lon="-2.35765">
        <ele>2.4000000953674</ele>
        <time>2022-05-12T09:59:45.000Z</time>
      </trkpt>
      <trkpt lat="47.28096" lon="-2.3576">
        <ele>2.7999999523163</ele>
        <time>2022-05-12T09:59:46.000Z</time>
      </trkpt>
      <trkpt lat="47.28096" lon="-2.35754">
        <ele>3.2000000476837</ele>
        <time>2022-05-12T09:59:47.000Z</time>
      </trkpt>
      <trkpt lat="47.28096" lon="-2.35749">
        <ele>3.5999999046326</ele>
        <time>2022-05-12T09:59:48.000Z</time>
      </trkpt>
      <trkpt lat="47.28097" lon="-2.35732">
        <ele>3.5999999046326</ele>
        <time>2022-05-12T09:59:51.000Z</time>
      </trkpt>
      <trkpt lat="47.28094" lon="-2.35706">
        <ele>3.5999999046326</ele>
        <time>2022-05-12T09:59:56.000Z</time>
      </trkpt>
      <trkpt lat="47.28086" lon="-2.3567">
        <ele>3.5999999046326</ele>
        <time>2022-05-12T10:00:00.000Z</time>
      </trkpt>
      <trkpt lat="47.2808" lon="-2.35649">
        <ele>3.2000000476837</ele>
        <time>2022-05-12T10:00:03.000Z</time>
      </trkpt>
      <trkpt lat="47.2808" lon="-2.35643">
        <ele>2.5999999046326</ele>
        <time>2022-05-12T10:00:04.000Z</time>
      </trkpt>
      <trkpt lat="47.2808" lon="-2.35638">
        <ele>2.2000000476837</ele>
        <time>2022-05-12T10:00:05.000Z</time>
      </trkpt>
      <trkpt lat="47.28081" lon="-2.35635">
        <ele>1.7999999523163</ele>
        <time>2022-05-12T10:00:06.000Z</time>
      </trkpt>
      <trkpt lat="47.28082" lon="-2.35633">
        <ele>1.2000000476837</ele>
        <time>2022-05-12T10:00:07.000Z</time>
      </trkpt>
      <trkpt lat="47.28084" lon="-2.35632">
        <ele>0.60000002384186</ele>
        <time>2022-05-12T10:00:08.000Z</time>
      </trkpt>
      <trkpt lat="47.28085" lon="-2.35632">
        <ele>23.5</ele>
        <time>2022-05-12T10:00:09.000Z</time>
      </trkpt>
      <trkpt lat="47.28086" lon="-2.35631">
        <ele>-0.60000002384186</ele>
        <time>2022-05-12T10:00:10.000Z</time>
      </trkpt>
      <trkpt lat="47.28086" lon="-2.35631">
        <ele>-1</ele>
        <time>2022-05-12T10:00:11.000Z</time>
      </trkpt>
      <trkpt lat="47.28083" lon="-2.3562">
        <ele>-3.2000000476837</ele>
        <time>2022-05-12T10:06:42.000Z</time>
      </trkpt>
      <trkpt lat="47.28077" lon="-2.35611">
        <ele>-3.2000000476837</ele>
        <time>2022-05-12T10:06:46.000Z</time>
      </trkpt>
      <trkpt lat="47.28076" lon="-2.35609">
        <ele>-3.2000000476837</ele>
        <time>2022-05-12T10:06:47.000Z</time>
      </trkpt>
      <trkpt lat="47.28072" lon="-2.35603">
        <ele>-3.5999999046326</ele>
        <time>2022-05-12T10:06:49.000Z</time>
      </trkpt>
      <trkpt lat="47.28071" lon="-2.356">
        <ele>-4</ele>
        <time>2022-05-12T10:06:50.000Z</time>
      </trkpt>
      <trkpt lat="47.28069" lon="-2.35597">
        <ele>-4.4000000953674</ele>
        <time>2022-05-12T10:06:51.000Z</time>
      </trkpt>
      <trkpt lat="47.28068" lon="-2.35594">
        <ele>-4.8000001907349</ele>
        <time>2022-05-12T10:06:52.000Z</time>
      </trkpt>
      <trkpt lat="47.28067" lon="-2.35592">
        <ele>-5.1999998092651</ele>
        <time>2022-05-12T10:06:53.000Z</time>
      </trkpt>
      <trkpt lat="47.28054" lon="-2.35585">
        <ele>-5.1999998092651</ele>
        <time>2022-05-12T10:06:57.000Z</time>
      </trkpt>
      <trkpt lat="47.28035" lon="-2.35581">
        <ele>-5.1999998092651</ele>
        <time>2022-05-12T10:07:02.000Z</time>
      </trkpt>
      <trkpt lat="47.28021" lon="-2.35583">
        <ele>-5.1999998092651</ele>
        <time>2022-05-12T10:07:06.000Z</time>
      </trkpt>
      <trkpt lat="47.28006" lon="-2.35583">
        <ele>-5.1999998092651</ele>
        <time>2022-05-12T10:07:11.000Z</time>
      </trkpt>
      <trkpt lat="47.2799" lon="-2.35592">
        <ele>-5.5999999046326</ele>
        <time>2022-05-12T10:07:17.000Z</time>
      </trkpt>
      <trkpt lat="47.27988" lon="-2.35592">
        <ele>-6</ele>
        <time>2022-05-12T10:07:18.000Z</time>
      </trkpt>
      <trkpt lat="47.27985" lon="-2.35593">
        <ele>-6.4000000953674</ele>
        <time>2022-05-12T10:07:19.000Z</time>
      </trkpt>
      <trkpt lat="47.27982" lon="-2.35593">
        <ele>-6.8000001907349</ele>
        <time>2022-05-12T10:07:20.000Z</time>
      </trkpt>
      <trkpt lat="47.27979" lon="-2.35593">
        <ele>-7.1999998092651</ele>
        <time>2022-05-12T10:07:21.000Z</time>
      </trkpt>
      <trkpt lat="47.27974" lon="-2.35592">
        <ele>-7.1999998092651</ele>
        <time>2022-05-12T10:07:23.000Z</time>
      </trkpt>
      <trkpt lat="47.27961" lon="-2.35585">
        <ele>-7.1999998092651</ele>
        <time>2022-05-12T10:07:28.000Z</time>
      </trkpt>
      <trkpt lat="47.27955" lon="-2.35586">
        <ele>-7.1999998092651</ele>
        <time>2022-05-12T10:07:33.000Z</time>
      </trkpt>
      <trkpt lat="47.27951" lon="-2.35586">
        <ele>-7.1999998092651</ele>
        <time>2022-05-12T10:07:52.000Z</time>
      </trkpt>
      <trkpt lat="47.27946" lon="-2.35587">
        <ele>-7.1999998092651</ele>
        <time>2022-05-12T10:07:55.000Z</time>
      </trkpt>
      <trkpt lat="47.27927" lon="-2.3559">
        <ele>-7.1999998092651</ele>
        <time>2022-05-12T10:08:01.000Z</time>
      </trkpt>
      <trkpt lat="47.279" lon="-2.35594">
        <ele>-7.1999998092651</ele>
        <time>2022-05-12T10:08:06.000Z</time>
      </trkpt>
      <trkpt lat="47.27863" lon="-2.35605">
        <ele>-7.1999998092651</ele>
        <time>2022-05-12T10:08:12.000Z</time>
      </trkpt>
      <trkpt lat="47.27857" lon="-2.35607">
        <ele>-8.1999998092651</ele>
        <time>2022-05-12T10:08:13.000Z</time>
      </trkpt>
      <trkpt lat="47.2785" lon="-2.35609">
        <ele>-8.6000003814697</ele>
        <time>2022-05-12T10:08:14.000Z</time>
      </trkpt>
      <trkpt lat="47.27844" lon="-2.3561">
        <ele>-9</ele>
        <time>2022-05-12T10:08:15.000Z</time>
      </trkpt>
      <trkpt lat="47.27837" lon="-2.35612">
        <ele>-9.3999996185303</ele>
        <time>2022-05-12T10:08:16.000Z</time>
      </trkpt>
      <trkpt lat="47.2781" lon="-2.3562">
        <ele>-9.3999996185303</ele>
        <time>2022-05-12T10:08:20.000Z</time>
      </trkpt>
      <trkpt lat="47.27783" lon="-2.35632">
        <ele>-9.8000001907349</ele>
        <time>2022-05-12T10:08:24.000Z</time>
      </trkpt>
      <trkpt lat="47.27776" lon="-2.35636">
        <ele>-10.199999809265</ele>
        <time>2022-05-12T10:08:25.000Z</time>
      </trkpt>
      <trkpt lat="47.2777" lon="-2.35642">
        <ele>-10.60000038147</ele>
        <time>2022-05-12T10:08:26.000Z</time>
      </trkpt>
      <trkpt lat="47.27764" lon="-2.35648">
        <ele>-11</ele>
        <time>2022-05-12T10:08:27.000Z</time>
      </trkpt>
      <trkpt lat="47.27759" lon="-2.35655">
        <ele>-11.39999961853</ele>
        <time>2022-05-12T10:08:28.000Z</time>
      </trkpt>
      <trkpt lat="47.27754" lon="-2.35662">
        <ele>-11.39999961853</ele>
        <time>2022-05-12T10:08:29.000Z</time>
      </trkpt>
      <trkpt lat="47.27749" lon="-2.35669">
        <ele>-11.39999961853</ele>
        <time>2022-05-12T10:08:30.000Z</time>
      </trkpt>
      <trkpt lat="47.27723" lon="-2.35705">
        <ele>-11.800000190735</ele>
        <time>2022-05-12T10:08:35.000Z</time>
      </trkpt>
      <trkpt lat="47.27717" lon="-2.35712">
        <ele>-12.199999809265</ele>
        <time>2022-05-12T10:08:36.000Z</time>
      </trkpt>
      <trkpt lat="47.27711" lon="-2.35719">
        <ele>-13</ele>
        <time>2022-05-12T10:08:37.000Z</time>
      </trkpt>
      <trkpt lat="47.27706" lon="-2.35725">
        <ele>-13.39999961853</ele>
        <time>2022-05-12T10:08:38.000Z</time>
      </trkpt>
      <trkpt lat="47.27699" lon="-2.3573">
        <ele>-13.39999961853</ele>
        <time>2022-05-12T10:08:39.000Z</time>
      </trkpt>
      <trkpt lat="47.27683" lon="-2.35746">
        <ele>-13.39999961853</ele>
        <time>2022-05-12T10:08:42.000Z</time>
      </trkpt>
      <trkpt lat="47.27678" lon="-2.35748">
        <ele>-13.39999961853</ele>
        <time>2022-05-12T10:08:43.000Z</time>
      </trkpt>
      <trkpt lat="47.27673" lon="-2.35747">
        <ele>-13.39999961853</ele>
        <time>2022-05-12T10:08:44.000Z</time>
      </trkpt>
      <trkpt lat="47.27668" lon="-2.35743">
        <ele>-13.800000190735</ele>
        <time>2022-05-12T10:08:45.000Z</time>
      </trkpt>
      <trkpt lat="47.27663" lon="-2.35737">
        <ele>-14.39999961853</ele>
        <time>2022-05-12T10:08:46.000Z</time>
      </trkpt>
      <trkpt lat="47.27659" lon="-2.35731">
        <ele>-14.800000190735</ele>
        <time>2022-05-12T10:08:47.000Z</time>
      </trkpt>
      <trkpt lat="47.27653" lon="-2.35727">
        <ele>-15.199999809265</ele>
        <time>2022-05-12T10:08:48.000Z</time>
      </trkpt>
      <trkpt lat="47.27647" lon="-2.35724">
        <ele>-15.60000038147</ele>
        <time>2022-05-12T10:08:49.000Z</time>
      </trkpt>
      <trkpt lat="47.2764" lon="-2.35721">
        <ele>-15.60000038147</ele>
        <time>2022-05-12T10:08:50.000Z</time>
      </trkpt>
      <trkpt lat="47.27591" lon="-2.35708">
        <ele>-15.60000038147</ele>
        <time>2022-05-12T10:08:57.000Z</time>
      </trkpt>
      <trkpt lat="47.27556" lon="-2.35699">
        <ele>-16</ele>
        <time>2022-05-12T10:09:02.000Z</time>
      </trkpt>
      <trkpt lat="47.27548" lon="-2.35698">
        <ele>-16.39999961853</ele>
        <time>2022-05-12T10:09:03.000Z</time>
      </trkpt>
      <trkpt lat="47.27541" lon="-2.35696">
        <ele>-16.799999237061</ele>
        <time>2022-05-12T10:09:04.000Z</time>
      </trkpt>
      <trkpt lat="47.27534" lon="-2.35694">
        <ele>-17.200000762939</ele>
        <time>2022-05-12T10:09:05.000Z</time>
      </trkpt>
      <trkpt lat="47.27527" lon="-2.35692">
        <ele>-17.60000038147</ele>
        <time>2022-05-12T10:09:06.000Z</time>
      </trkpt>
      <trkpt lat="47.27499" lon="-2.35685">
        <ele>-17.60000038147</ele>
        <time>2022-05-12T10:09:10.000Z</time>
      </trkpt>
      <trkpt lat="47.27471" lon="-2.35679">
        <ele>-18</ele>
        <time>2022-05-12T10:09:14.000Z</time>
      </trkpt>
      <trkpt lat="47.27465" lon="-2.35678">
        <ele>-18.39999961853</ele>
        <time>2022-05-12T10:09:15.000Z</time>
      </trkpt>
      <trkpt lat="47.27458" lon="-2.35676">
        <ele>-19</ele>
        <time>2022-05-12T10:09:16.000Z</time>
      </trkpt>
      <trkpt lat="47.27451" lon="-2.35675">
        <ele>-19.39999961853</ele>
        <time>2022-05-12T10:09:17.000Z</time>
      </trkpt>
      <trkpt lat="47.27444" lon="-2.35674">
        <ele>-19.799999237061</ele>
        <time>2022-05-12T10:09:18.000Z</time>
      </trkpt>
      <trkpt lat="47.27413" lon="-2.35667">
        <ele>-19.799999237061</ele>
        <time>2022-05-12T10:09:23.000Z</time>
      </trkpt>
      <trkpt lat="47.27389" lon="-2.35675">
        <ele>-19.799999237061</ele>
        <time>2022-05-12T10:09:27.000Z</time>
      </trkpt>
      <trkpt lat="47.27384" lon="-2.35679">
        <ele>-19.799999237061</ele>
        <time>2022-05-12T10:09:28.000Z</time>
      </trkpt>
      <trkpt lat="47.27343" lon="-2.35711">
        <ele>-19.799999237061</ele>
        <time>2022-05-12T10:09:35.000Z</time>
      </trkpt>
      <trkpt lat="47.27332" lon="-2.3572">
        <ele>-20.200000762939</ele>
        <time>2022-05-12T10:09:37.000Z</time>
      </trkpt>
      <trkpt lat="47.27328" lon="-2.35726">
        <ele>-20.60000038147</ele>
        <time>2022-05-12T10:09:38.000Z</time>
      </trkpt>
      <trkpt lat="47.27324" lon="-2.35732">
        <ele>-21</ele>
        <time>2022-05-12T10:09:39.000Z</time>
      </trkpt>
      <trkpt lat="47.27321" lon="-2.35737">
        <ele>-21.39999961853</ele>
        <time>2022-05-12T10:09:40.000Z</time>
      </trkpt>
      <trkpt lat="47.27318" lon="-2.35742">
        <ele>-21.799999237061</ele>
        <time>2022-05-12T10:09:41.000Z</time>
      </trkpt>
      <trkpt lat="47.27309" lon="-2.35741">
        <ele>-21.799999237061</ele>
        <time>2022-05-12T10:09:43.000Z</time>
      </trkpt>
      <trkpt lat="47.27305" lon="-2.35722">
        <ele>-21.799999237061</ele>
        <time>2022-05-12T10:09:46.000Z</time>
      </trkpt>
      <trkpt lat="47.273" lon="-2.35702">
        <ele>-21.799999237061</ele>
        <time>2022-05-12T10:09:49.000Z</time>
      </trkpt>
      <trkpt lat="47.27297" lon="-2.35696">
        <ele>-21.799999237061</ele>
        <time>2022-05-12T10:09:50.000Z</time>
      </trkpt>
      <trkpt lat="47.27291" lon="-2.35678">
        <ele>-21.39999961853</ele>
        <time>2022-05-12T10:09:53.000Z</time>
      </trkpt>
      <trkpt lat="47.27288" lon="-2.35672">
        <ele>-21</ele>
        <time>2022-05-12T10:09:54.000Z</time>
      </trkpt>
      <trkpt lat="47.27285" lon="-2.35666">
        <ele>-20.60000038147</ele>
        <time>2022-05-12T10:09:55.000Z</time>
      </trkpt>
      <trkpt lat="47.27283" lon="-2.3566">
        <ele>-20.200000762939</ele>
        <time>2022-05-12T10:09:56.000Z</time>
      </trkpt>
      <trkpt lat="47.2728" lon="-2.35654">
        <ele>-19.60000038147</ele>
        <time>2022-05-12T10:09:57.000Z</time>
      </trkpt>
      <trkpt lat="47.27257" lon="-2.35604">
        <ele>-19.60000038147</ele>
        <time>2022-05-12T10:10:05.000Z</time>
      </trkpt>
      <trkpt lat="47.27232" lon="-2.35547">
        <ele>-19.60000038147</ele>
        <time>2022-05-12T10:10:14.000Z</time>
      </trkpt>
      <trkpt lat="47.27218" lon="-2.35514">
        <ele>-19.60000038147</ele>
        <time>2022-05-12T10:10:20.000Z</time>
      </trkpt>
      <trkpt lat="47.27213" lon="-2.35505">
        <ele>-19.60000038147</ele>
        <time>2022-05-12T10:10:22.000Z</time>
      </trkpt>
      <trkpt lat="47.27203" lon="-2.35483">
        <ele>-19.60000038147</ele>
        <time>2022-05-12T10:10:27.000Z</time>
      </trkpt>
      <trkpt lat="47.27188" lon="-2.35454">
        <ele>-19.60000038147</ele>
        <time>2022-05-12T10:10:33.000Z</time>
      </trkpt>
      <trkpt lat="47.27168" lon="-2.35414">
        <ele>-19.60000038147</ele>
        <time>2022-05-12T10:10:39.000Z</time>
      </trkpt>
      <trkpt lat="47.27144" lon="-2.35373">
        <ele>-19.60000038147</ele>
        <time>2022-05-12T10:10:46.000Z</time>
      </trkpt>
      <trkpt lat="47.2712" lon="-2.35329">
        <ele>-19.60000038147</ele>
        <time>2022-05-12T10:10:54.000Z</time>
      </trkpt>
      <trkpt lat="47.27095" lon="-2.35291">
        <ele>-19.60000038147</ele>
        <time>2022-05-12T10:11:02.000Z</time>
      </trkpt>
      <trkpt lat="47.27067" lon="-2.35248">
        <ele>-19.60000038147</ele>
        <time>2022-05-12T10:11:10.000Z</time>
      </trkpt>
      <trkpt lat="47.27036" lon="-2.352">
        <ele>-19.60000038147</ele>
        <time>2022-05-12T10:11:19.000Z</time>
      </trkpt>
      <trkpt lat="47.27007" lon="-2.35157">
        <ele>-19.60000038147</ele>
        <time>2022-05-12T10:11:27.000Z</time>
      </trkpt>
      <trkpt lat="47.26974" lon="-2.35107">
        <ele>-19.60000038147</ele>
        <time>2022-05-12T10:11:36.000Z</time>
      </trkpt>
      <trkpt lat="47.26951" lon="-2.3507">
        <ele>-19.60000038147</ele>
        <time>2022-05-12T10:11:43.000Z</time>
      </trkpt>
      <trkpt lat="47.26928" lon="-2.3504">
        <ele>-19.60000038147</ele>
        <time>2022-05-12T10:11:49.000Z</time>
      </trkpt>
      <trkpt lat="47.26919" lon="-2.35031">
        <ele>-19.60000038147</ele>
        <time>2022-05-12T10:11:51.000Z</time>
      </trkpt>
      <trkpt lat="47.26911" lon="-2.35021">
        <ele>-19.60000038147</ele>
        <time>2022-05-12T10:11:53.000Z</time>
      </trkpt>
      <trkpt lat="47.26896" lon="-2.34998">
        <ele>-19.60000038147</ele>
        <time>2022-05-12T10:11:57.000Z</time>
      </trkpt>
      <trkpt lat="47.26864" lon="-2.34946">
        <ele>-19.60000038147</ele>
        <time>2022-05-12T10:12:06.000Z</time>
      </trkpt>
      <trkpt lat="47.26838" lon="-2.34909">
        <ele>-19.60000038147</ele>
        <time>2022-05-12T10:12:13.000Z</time>
      </trkpt>
      <trkpt lat="47.2683" lon="-2.349">
        <ele>-19.60000038147</ele>
        <time>2022-05-12T10:12:15.000Z</time>
      </trkpt>
      <trkpt lat="47.26806" lon="-2.34867">
        <ele>-19.60000038147</ele>
        <time>2022-05-12T10:12:22.000Z</time>
      </trkpt>
      <trkpt lat="47.26777" lon="-2.34822">
        <ele>-19.60000038147</ele>
        <time>2022-05-12T10:12:30.000Z</time>
      </trkpt>
      <trkpt lat="47.26749" lon="-2.34786">
        <ele>-19.60000038147</ele>
        <time>2022-05-12T10:12:37.000Z</time>
      </trkpt>
      <trkpt lat="47.26715" lon="-2.34746">
        <ele>-19.60000038147</ele>
        <time>2022-05-12T10:12:46.000Z</time>
      </trkpt>
      <trkpt lat="47.26679" lon="-2.34702">
        <ele>-19.60000038147</ele>
        <time>2022-05-12T10:12:55.000Z</time>
      </trkpt>
      <trkpt lat="47.26641" lon="-2.34655">
        <ele>-19.60000038147</ele>
        <time>2022-05-12T10:13:04.000Z</time>
      </trkpt>
      <trkpt lat="47.26599" lon="-2.34603">
        <ele>-19.60000038147</ele>
        <time>2022-05-12T10:13:14.000Z</time>
      </trkpt>
      <trkpt lat="47.26595" lon="-2.34598">
        <ele>-19.60000038147</ele>
        <time>2022-05-12T10:13:15.000Z</time>
      </trkpt>
      <trkpt lat="47.26557" lon="-2.34559">
        <ele>-19.60000038147</ele>
        <time>2022-05-12T10:13:24.000Z</time>
      </trkpt>
      <trkpt lat="47.26525" lon="-2.3453">
        <ele>-19.60000038147</ele>
        <time>2022-05-12T10:13:32.000Z</time>
      </trkpt>
      <trkpt lat="47.26486" lon="-2.34501">
        <ele>-19.60000038147</ele>
        <time>2022-05-12T10:13:40.000Z</time>
      </trkpt>
      <trkpt lat="47.26435" lon="-2.34465">
        <ele>-19.60000038147</ele>
        <time>2022-05-12T10:13:50.000Z</time>
      </trkpt>
      <trkpt lat="47.26429" lon="-2.34462">
        <ele>-19.60000038147</ele>
        <time>2022-05-12T10:13:51.000Z</time>
      </trkpt>
      <trkpt lat="47.26384" lon="-2.34426">
        <ele>-19.60000038147</ele>
        <time>2022-05-12T10:14:00.000Z</time>
      </trkpt>
      <trkpt lat="47.2635" lon="-2.34395">
        <ele>-19.60000038147</ele>
        <time>2022-05-12T10:14:08.000Z</time>
      </trkpt>
      <trkpt lat="47.26336" lon="-2.34384">
        <ele>-19.60000038147</ele>
        <time>2022-05-12T10:14:12.000Z</time>
      </trkpt>
      <trkpt lat="47.26331" lon="-2.34384">
        <ele>-19.60000038147</ele>
        <time>2022-05-12T10:14:13.000Z</time>
      </trkpt>
      <trkpt lat="47.26322" lon="-2.34381">
        <ele>-19.60000038147</ele>
        <time>2022-05-12T10:14:15.000Z</time>
      </trkpt>
      <trkpt lat="47.26315" lon="-2.3437">
        <ele>-19.60000038147</ele>
        <time>2022-05-12T10:14:17.000Z</time>
      </trkpt>
      <trkpt lat="47.263" lon="-2.34348">
        <ele>-19.60000038147</ele>
        <time>2022-05-12T10:14:21.000Z</time>
      </trkpt>
      <trkpt lat="47.26271" lon="-2.34316">
        <ele>-19.60000038147</ele>
        <time>2022-05-12T10:14:28.000Z</time>
      </trkpt>
      <trkpt lat="47.26247" lon="-2.34291">
        <ele>-19.60000038147</ele>
        <time>2022-05-12T10:14:34.000Z</time>
      </trkpt>
      <trkpt lat="47.26217" lon="-2.34259">
        <ele>-19.60000038147</ele>
        <time>2022-05-12T10:14:41.000Z</time>
      </trkpt>
      <trkpt lat="47.26186" lon="-2.34226">
        <ele>-19.60000038147</ele>
        <time>2022-05-12T10:14:48.000Z</time>
      </trkpt>
      <trkpt lat="47.26151" lon="-2.34192">
        <ele>-19.60000038147</ele>
        <time>2022-05-12T10:14:56.000Z</time>
      </trkpt>
      <trkpt lat="47.26142" lon="-2.34186">
        <ele>-19.60000038147</ele>
        <time>2022-05-12T10:14:58.000Z</time>
      </trkpt>
      <trkpt lat="47.26132" lon="-2.34183">
        <ele>-19.60000038147</ele>
        <time>2022-05-12T10:15:00.000Z</time>
      </trkpt>
      <trkpt lat="47.26119" lon="-2.34169">
        <ele>-19.60000038147</ele>
        <time>2022-05-12T10:15:03.000Z</time>
      </trkpt>
      <trkpt lat="47.26108" lon="-2.34161">
        <ele>-19.60000038147</ele>
        <time>2022-05-12T10:15:05.000Z</time>
      </trkpt>
      <trkpt lat="47.26092" lon="-2.34153">
        <ele>-19.60000038147</ele>
        <time>2022-05-12T10:15:08.000Z</time>
      </trkpt>
      <trkpt lat="47.26036" lon="-2.34127">
        <ele>-19.60000038147</ele>
        <time>2022-05-12T10:15:18.000Z</time>
      </trkpt>
      <trkpt lat="47.25999" lon="-2.34108">
        <ele>-19.60000038147</ele>
        <time>2022-05-12T10:15:25.000Z</time>
      </trkpt>
      <trkpt lat="47.25957" lon="-2.34088">
        <ele>-19.60000038147</ele>
        <time>2022-05-12T10:15:33.000Z</time>
      </trkpt>
      <trkpt lat="47.25929" lon="-2.34075">
        <ele>-19.60000038147</ele>
        <time>2022-05-12T10:15:38.000Z</time>
      </trkpt>
      <trkpt lat="47.25922" lon="-2.34075">
        <ele>-19.60000038147</ele>
        <time>2022-05-12T10:15:39.000Z</time>
      </trkpt>
      <trkpt lat="47.25908" lon="-2.34074">
        <ele>-19.60000038147</ele>
        <time>2022-05-12T10:15:41.000Z</time>
      </trkpt>
      <trkpt lat="47.25899" lon="-2.34062">
        <ele>-19.60000038147</ele>
        <time>2022-05-12T10:15:43.000Z</time>
      </trkpt>
      <trkpt lat="47.25897" lon="-2.34036">
        <ele>-19.60000038147</ele>
        <time>2022-05-12T10:15:46.000Z</time>
      </trkpt>
      <trkpt lat="47.25906" lon="-2.34004">
        <ele>-19.60000038147</ele>
        <time>2022-05-12T10:15:50.000Z</time>
      </trkpt>
      <trkpt lat="47.25908" lon="-2.33996">
        <ele>-19.60000038147</ele>
        <time>2022-05-12T10:15:51.000Z</time>
      </trkpt>
      <trkpt lat="47.25923" lon="-2.33953">
        <ele>-19.60000038147</ele>
        <time>2022-05-12T10:15:57.000Z</time>
      </trkpt>
      <trkpt lat="47.25943" lon="-2.33917">
        <ele>-20.60000038147</ele>
        <time>2022-05-12T10:16:03.000Z</time>
      </trkpt>
      <trkpt lat="47.25945" lon="-2.3391">
        <ele>-21</ele>
        <time>2022-05-12T10:16:04.000Z</time>
      </trkpt>
      <trkpt lat="47.25946" lon="-2.33903">
        <ele>-21.39999961853</ele>
        <time>2022-05-12T10:16:05.000Z</time>
      </trkpt>
      <trkpt lat="47.25949" lon="-2.33896">
        <ele>-21.799999237061</ele>
        <time>2022-05-12T10:16:06.000Z</time>
      </trkpt>
      <trkpt lat="47.25951" lon="-2.33889">
        <ele>-21.799999237061</ele>
        <time>2022-05-12T10:16:07.000Z</time>
      </trkpt>
      <trkpt lat="47.25965" lon="-2.33845">
        <ele>-21.799999237061</ele>
        <time>2022-05-12T10:16:13.000Z</time>
      </trkpt>
      <trkpt lat="47.25983" lon="-2.33793">
        <ele>-21.799999237061</ele>
        <time>2022-05-12T10:16:20.000Z</time>
      </trkpt>
      <trkpt lat="47.25998" lon="-2.33748">
        <ele>-21.799999237061</ele>
        <time>2022-05-12T10:16:26.000Z</time>
      </trkpt>
      <trkpt lat="47.26011" lon="-2.33707">
        <ele>-21.799999237061</ele>
        <time>2022-05-12T10:16:32.000Z</time>
      </trkpt>
      <trkpt lat="47.26017" lon="-2.33679">
        <ele>-21.799999237061</ele>
        <time>2022-05-12T10:16:36.000Z</time>
      </trkpt>
      <trkpt lat="47.26022" lon="-2.33669">
        <ele>-21.799999237061</ele>
        <time>2022-05-12T10:16:38.000Z</time>
      </trkpt>
      <trkpt lat="47.26034" lon="-2.33666">
        <ele>-21.799999237061</ele>
        <time>2022-05-12T10:16:41.000Z</time>
      </trkpt>
      <trkpt lat="47.26038" lon="-2.33667">
        <ele>-21.799999237061</ele>
        <time>2022-05-12T10:16:42.000Z</time>
      </trkpt>
      <trkpt lat="47.26051" lon="-2.33665">
        <ele>-21.799999237061</ele>
        <time>2022-05-12T10:16:45.000Z</time>
      </trkpt>
      <trkpt lat="47.26054" lon="-2.33659">
        <ele>-21.799999237061</ele>
        <time>2022-05-12T10:16:46.000Z</time>
      </trkpt>
      <trkpt lat="47.26069" lon="-2.33613">
        <ele>-21.799999237061</ele>
        <time>2022-05-12T10:16:53.000Z</time>
      </trkpt>
      <trkpt lat="47.26086" lon="-2.33562">
        <ele>-21.799999237061</ele>
        <time>2022-05-12T10:17:01.000Z</time>
      </trkpt>
      <trkpt lat="47.26099" lon="-2.33529">
        <ele>-21.799999237061</ele>
        <time>2022-05-12T10:17:07.000Z</time>
      </trkpt>
      <trkpt lat="47.26104" lon="-2.33518">
        <ele>-21.799999237061</ele>
        <time>2022-05-12T10:17:09.000Z</time>
      </trkpt>
      <trkpt lat="47.26109" lon="-2.33507">
        <ele>-21.799999237061</ele>
        <time>2022-05-12T10:17:11.000Z</time>
      </trkpt>
      <trkpt lat="47.26111" lon="-2.33501">
        <ele>-21.799999237061</ele>
        <time>2022-05-12T10:17:12.000Z</time>
      </trkpt>
      <trkpt lat="47.26123" lon="-2.33464">
        <ele>-21.799999237061</ele>
        <time>2022-05-12T10:17:19.000Z</time>
      </trkpt>
      <trkpt lat="47.26131" lon="-2.33447">
        <ele>-21.799999237061</ele>
        <time>2022-05-12T10:17:24.000Z</time>
      </trkpt>
      <trkpt lat="47.26129" lon="-2.33426">
        <ele>-21.799999237061</ele>
        <time>2022-05-12T10:17:29.000Z</time>
      </trkpt>
      <trkpt lat="47.26123" lon="-2.33418">
        <ele>-21.799999237061</ele>
        <time>2022-05-12T10:17:31.000Z</time>
      </trkpt>
      <trkpt lat="47.26117" lon="-2.33408">
        <ele>-21.799999237061</ele>
        <time>2022-05-12T10:17:33.000Z</time>
      </trkpt>
      <trkpt lat="47.26089" lon="-2.33375">
        <ele>-21.799999237061</ele>
        <time>2022-05-12T10:17:40.000Z</time>
      </trkpt>
      <trkpt lat="47.26075" lon="-2.33352">
        <ele>-21.799999237061</ele>
        <time>2022-05-12T10:17:44.000Z</time>
      </trkpt>
      <trkpt lat="47.2607" lon="-2.33338">
        <ele>-21.799999237061</ele>
        <time>2022-05-12T10:17:46.000Z</time>
      </trkpt>
      <trkpt lat="47.26051" lon="-2.33285">
        <ele>-21.799999237061</ele>
        <time>2022-05-12T10:17:54.000Z</time>
      </trkpt>
      <trkpt lat="47.26036" lon="-2.33243">
        <ele>-21.799999237061</ele>
        <time>2022-05-12T10:18:00.000Z</time>
      </trkpt>
      <trkpt lat="47.26013" lon="-2.33177">
        <ele>-21.799999237061</ele>
        <time>2022-05-12T10:18:09.000Z</time>
      </trkpt>
      <trkpt lat="47.25995" lon="-2.33127">
        <ele>-21.39999961853</ele>
        <time>2022-05-12T10:18:16.000Z</time>
      </trkpt>
      <trkpt lat="47.25993" lon="-2.3312">
        <ele>-21</ele>
        <time>2022-05-12T10:18:17.000Z</time>
      </trkpt>
      <trkpt lat="47.25991" lon="-2.33113">
        <ele>-20.60000038147</ele>
        <time>2022-05-12T10:18:18.000Z</time>
      </trkpt>
      <trkpt lat="47.2599" lon="-2.33107">
        <ele>-20.200000762939</ele>
        <time>2022-05-12T10:18:19.000Z</time>
      </trkpt>
      <trkpt lat="47.25989" lon="-2.33101">
        <ele>-19.799999237061</ele>
        <time>2022-05-12T10:18:20.000Z</time>
      </trkpt>
      <trkpt lat="47.25987" lon="-2.33091">
        <ele>-19.799999237061</ele>
        <time>2022-05-12T10:18:22.000Z</time>
      </trkpt>
      <trkpt lat="47.25979" lon="-2.33073">
        <ele>-19.799999237061</ele>
        <time>2022-05-12T10:18:27.000Z</time>
      </trkpt>
      <trkpt lat="47.25967" lon="-2.33042">
        <ele>-19.799999237061</ele>
        <time>2022-05-12T10:18:32.000Z</time>
      </trkpt>
      <trkpt lat="47.2595" lon="-2.32987">
        <ele>-19.799999237061</ele>
        <time>2022-05-12T10:18:39.000Z</time>
      </trkpt>
      <trkpt lat="47.25947" lon="-2.32978">
        <ele>-19.799999237061</ele>
        <time>2022-05-12T10:18:40.000Z</time>
      </trkpt>
      <trkpt lat="47.25936" lon="-2.32947">
        <ele>-19.799999237061</ele>
        <time>2022-05-12T10:18:44.000Z</time>
      </trkpt>
      <trkpt lat="47.25918" lon="-2.329">
        <ele>-19.799999237061</ele>
        <time>2022-05-12T10:18:50.000Z</time>
      </trkpt>
      <trkpt lat="47.25901" lon="-2.32855">
        <ele>-19.799999237061</ele>
        <time>2022-05-12T10:18:56.000Z</time>
      </trkpt>
      <trkpt lat="47.2588" lon="-2.32795">
        <ele>-19.799999237061</ele>
        <time>2022-05-12T10:19:04.000Z</time>
      </trkpt>
      <trkpt lat="47.25864" lon="-2.32739">
        <ele>-19.799999237061</ele>
        <time>2022-05-12T10:19:12.000Z</time>
      </trkpt>
      <trkpt lat="47.25863" lon="-2.32719">
        <ele>-19.799999237061</ele>
        <time>2022-05-12T10:19:15.000Z</time>
      </trkpt>
      <trkpt lat="47.25854" lon="-2.32703">
        <ele>-19.799999237061</ele>
        <time>2022-05-12T10:19:18.000Z</time>
      </trkpt>
      <trkpt lat="47.25847" lon="-2.32682">
        <ele>-19.799999237061</ele>
        <time>2022-05-12T10:19:21.000Z</time>
      </trkpt>
      <trkpt lat="47.25843" lon="-2.32667">
        <ele>-19.799999237061</ele>
        <time>2022-05-12T10:19:23.000Z</time>
      </trkpt>
      <trkpt lat="47.25834" lon="-2.32628">
        <ele>-19.799999237061</ele>
        <time>2022-05-12T10:19:28.000Z</time>
      </trkpt>
      <trkpt lat="47.2582" lon="-2.32577">
        <ele>-19.799999237061</ele>
        <time>2022-05-12T10:19:35.000Z</time>
      </trkpt>
      <trkpt lat="47.25807" lon="-2.32523">
        <ele>-19.799999237061</ele>
        <time>2022-05-12T10:19:42.000Z</time>
      </trkpt>
      <trkpt lat="47.25798" lon="-2.32489">
        <ele>-19.799999237061</ele>
        <time>2022-05-12T10:19:47.000Z</time>
      </trkpt>
      <trkpt lat="47.25797" lon="-2.32477">
        <ele>-19.799999237061</ele>
        <time>2022-05-12T10:19:49.000Z</time>
      </trkpt>
      <trkpt lat="47.25804" lon="-2.3246">
        <ele>-19.799999237061</ele>
        <time>2022-05-12T10:19:53.000Z</time>
      </trkpt>
      <trkpt lat="47.25807" lon="-2.32458">
        <ele>-19.799999237061</ele>
        <time>2022-05-12T10:19:54.000Z</time>
      </trkpt>
      <trkpt lat="47.25816" lon="-2.32462">
        <ele>-19.799999237061</ele>
        <time>2022-05-12T10:19:56.000Z</time>
      </trkpt>
      <trkpt lat="47.25846" lon="-2.32474">
        <ele>-19.799999237061</ele>
        <time>2022-05-12T10:20:02.000Z</time>
      </trkpt>
      <trkpt lat="47.25851" lon="-2.32474">
        <ele>-19.799999237061</ele>
        <time>2022-05-12T10:20:03.000Z</time>
      </trkpt>
      <trkpt lat="47.25872" lon="-2.32472">
        <ele>-19.799999237061</ele>
        <time>2022-05-12T10:20:07.000Z</time>
      </trkpt>
      <trkpt lat="47.25877" lon="-2.32472">
        <ele>-19.799999237061</ele>
        <time>2022-05-12T10:20:08.000Z</time>
      </trkpt>
      <trkpt lat="47.25888" lon="-2.32469">
        <ele>-19.799999237061</ele>
        <time>2022-05-12T10:20:10.000Z</time>
      </trkpt>
      <trkpt lat="47.25898" lon="-2.32462">
        <ele>-19.799999237061</ele>
        <time>2022-05-12T10:20:12.000Z</time>
      </trkpt>
      <trkpt lat="47.25902" lon="-2.32457">
        <ele>-19.799999237061</ele>
        <time>2022-05-12T10:20:13.000Z</time>
      </trkpt>
      <trkpt lat="47.25915" lon="-2.3244">
        <ele>-19.799999237061</ele>
        <time>2022-05-12T10:20:16.000Z</time>
      </trkpt>
      <trkpt lat="47.25942" lon="-2.32402">
        <ele>-19.799999237061</ele>
        <time>2022-05-12T10:20:23.000Z</time>
      </trkpt>
      <trkpt lat="47.25975" lon="-2.32357">
        <ele>-19.799999237061</ele>
        <time>2022-05-12T10:20:32.000Z</time>
      </trkpt>
      <trkpt lat="47.26008" lon="-2.32316">
        <ele>-19.799999237061</ele>
        <time>2022-05-12T10:20:40.000Z</time>
      </trkpt>
      <trkpt lat="47.26024" lon="-2.32297">
        <ele>-19.799999237061</ele>
        <time>2022-05-12T10:20:44.000Z</time>
      </trkpt>
      <trkpt lat="47.26032" lon="-2.32288">
        <ele>-19.799999237061</ele>
        <time>2022-05-12T10:20:46.000Z</time>
      </trkpt>
      <trkpt lat="47.26066" lon="-2.32251">
        <ele>-19.799999237061</ele>
        <time>2022-05-12T10:20:54.000Z</time>
      </trkpt>
      <trkpt lat="47.26083" lon="-2.32226">
        <ele>-19.799999237061</ele>
        <time>2022-05-12T10:20:59.000Z</time>
      </trkpt>
      <trkpt lat="47.26098" lon="-2.32202">
        <ele>-19.799999237061</ele>
        <time>2022-05-12T10:21:03.000Z</time>
      </trkpt>
      <trkpt lat="47.26105" lon="-2.3219">
        <ele>-19.799999237061</ele>
        <time>2022-05-12T10:21:05.000Z</time>
      </trkpt>
      <trkpt lat="47.26107" lon="-2.32182">
        <ele>-19.799999237061</ele>
        <time>2022-05-12T10:21:06.000Z</time>
      </trkpt>
      <trkpt lat="47.26117" lon="-2.32155">
        <ele>-19.799999237061</ele>
        <time>2022-05-12T10:21:10.000Z</time>
      </trkpt>
      <trkpt lat="47.26125" lon="-2.32136">
        <ele>-19.799999237061</ele>
        <time>2022-05-12T10:21:13.000Z</time>
      </trkpt>
      <trkpt lat="47.26129" lon="-2.32122">
        <ele>-19.799999237061</ele>
        <time>2022-05-12T10:21:15.000Z</time>
      </trkpt>
      <trkpt lat="47.26134" lon="-2.32101">
        <ele>-19.799999237061</ele>
        <time>2022-05-12T10:21:18.000Z</time>
      </trkpt>
      <trkpt lat="47.26142" lon="-2.32075">
        <ele>-19.799999237061</ele>
        <time>2022-05-12T10:21:22.000Z</time>
      </trkpt>
      <trkpt lat="47.26155" lon="-2.32036">
        <ele>-19.799999237061</ele>
        <time>2022-05-12T10:21:28.000Z</time>
      </trkpt>
      <trkpt lat="47.26169" lon="-2.32023">
        <ele>-19.799999237061</ele>
        <time>2022-05-12T10:21:32.000Z</time>
      </trkpt>
      <trkpt lat="47.26184" lon="-2.32025">
        <ele>-19.799999237061</ele>
        <time>2022-05-12T10:21:36.000Z</time>
      </trkpt>
      <trkpt lat="47.26193" lon="-2.32025">
        <ele>-19.799999237061</ele>
        <time>2022-05-12T10:21:41.000Z</time>
      </trkpt>
      <trkpt lat="47.26195" lon="-2.32013">
        <ele>-19.799999237061</ele>
        <time>2022-05-12T10:21:44.000Z</time>
      </trkpt>
      <trkpt lat="47.26199" lon="-2.32004">
        <ele>-19.799999237061</ele>
        <time>2022-05-12T10:21:48.000Z</time>
      </trkpt>
      <trkpt lat="47.26212" lon="-2.31986">
        <ele>-19.799999237061</ele>
        <time>2022-05-12T10:21:54.000Z</time>
      </trkpt>
      <trkpt lat="47.26226" lon="-2.31972">
        <ele>-19.799999237061</ele>
        <time>2022-05-12T10:21:58.000Z</time>
      </trkpt>
      <trkpt lat="47.26241" lon="-2.3195">
        <ele>-19.799999237061</ele>
        <time>2022-05-12T10:22:03.000Z</time>
      </trkpt>
      <trkpt lat="47.26255" lon="-2.31928">
        <ele>-19.799999237061</ele>
        <time>2022-05-12T10:22:09.000Z</time>
      </trkpt>
      <trkpt lat="47.26278" lon="-2.31903">
        <ele>-19.799999237061</ele>
        <time>2022-05-12T10:22:15.000Z</time>
      </trkpt>
      <trkpt lat="47.2629" lon="-2.31887">
        <ele>-19.799999237061</ele>
        <time>2022-05-12T10:22:20.000Z</time>
      </trkpt>
      <trkpt lat="47.26291" lon="-2.31882">
        <ele>-19.799999237061</ele>
        <time>2022-05-12T10:22:21.000Z</time>
      </trkpt>
      <trkpt lat="47.26295" lon="-2.31846">
        <ele>-19.799999237061</ele>
        <time>2022-05-12T10:22:27.000Z</time>
      </trkpt>
      <trkpt lat="47.26299" lon="-2.31806">
        <ele>-19.799999237061</ele>
        <time>2022-05-12T10:22:34.000Z</time>
      </trkpt>
      <trkpt lat="47.26295" lon="-2.31769">
        <ele>-19.799999237061</ele>
        <time>2022-05-12T10:22:40.000Z</time>
      </trkpt>
      <trkpt lat="47.26297" lon="-2.31742">
        <ele>-19.799999237061</ele>
        <time>2022-05-12T10:22:45.000Z</time>
      </trkpt>
      <trkpt lat="47.26309" lon="-2.31724">
        <ele>-19.799999237061</ele>
        <time>2022-05-12T10:22:49.000Z</time>
      </trkpt>
      <trkpt lat="47.26324" lon="-2.31715">
        <ele>-19.39999961853</ele>
        <time>2022-05-12T10:22:53.000Z</time>
      </trkpt>
      <trkpt lat="47.26326" lon="-2.31709">
        <ele>-18.799999237061</ele>
        <time>2022-05-12T10:22:54.000Z</time>
      </trkpt>
      <trkpt lat="47.26327" lon="-2.31703">
        <ele>-18.39999961853</ele>
        <time>2022-05-12T10:22:55.000Z</time>
      </trkpt>
      <trkpt lat="47.2633" lon="-2.31698">
        <ele>-18</ele>
        <time>2022-05-12T10:22:56.000Z</time>
      </trkpt>
      <trkpt lat="47.26333" lon="-2.31696">
        <ele>-17.60000038147</ele>
        <time>2022-05-12T10:22:57.000Z</time>
      </trkpt>
      <trkpt lat="47.26336" lon="-2.31695">
        <ele>-17.60000038147</ele>
        <time>2022-05-12T10:22:58.000Z</time>
      </trkpt>
      <trkpt lat="47.26339" lon="-2.31693">
        <ele>-17.60000038147</ele>
        <time>2022-05-12T10:22:59.000Z</time>
      </trkpt>
      <trkpt lat="47.26351" lon="-2.31686">
        <ele>-17.200000762939</ele>
        <time>2022-05-12T10:23:03.000Z</time>
      </trkpt>
      <trkpt lat="47.26355" lon="-2.31685">
        <ele>-16.39999961853</ele>
        <time>2022-05-12T10:23:04.000Z</time>
      </trkpt>
      <trkpt lat="47.26358" lon="-2.31684">
        <ele>-16</ele>
        <time>2022-05-12T10:23:05.000Z</time>
      </trkpt>
      <trkpt lat="47.26362" lon="-2.31682">
        <ele>-15.60000038147</ele>
        <time>2022-05-12T10:23:06.000Z</time>
      </trkpt>
      <trkpt lat="47.26375" lon="-2.31674">
        <ele>-15.60000038147</ele>
        <time>2022-05-12T10:23:10.000Z</time>
      </trkpt>
      <trkpt lat="47.26393" lon="-2.31664">
        <ele>-15.60000038147</ele>
        <time>2022-05-12T10:23:16.000Z</time>
      </trkpt>
      <trkpt lat="47.26407" lon="-2.31648">
        <ele>-15.60000038147</ele>
        <time>2022-05-12T10:23:22.000Z</time>
      </trkpt>
      <trkpt lat="47.26407" lon="-2.31636">
        <ele>-15.60000038147</ele>
        <time>2022-05-12T10:23:25.000Z</time>
      </trkpt>
      <trkpt lat="47.26409" lon="-2.31606">
        <ele>-15.60000038147</ele>
        <time>2022-05-12T10:23:31.000Z</time>
      </trkpt>
      <trkpt lat="47.26409" lon="-2.31601">
        <ele>-15.199999809265</ele>
        <time>2022-05-12T10:23:32.000Z</time>
      </trkpt>
      <trkpt lat="47.26409" lon="-2.31596">
        <ele>-14.800000190735</ele>
        <time>2022-05-12T10:23:33.000Z</time>
      </trkpt>
      <trkpt lat="47.26409" lon="-2.31591">
        <ele>-14.39999961853</ele>
        <time>2022-05-12T10:23:34.000Z</time>
      </trkpt>
      <trkpt lat="47.26409" lon="-2.31586">
        <ele>-14</ele>
        <time>2022-05-12T10:23:35.000Z</time>
      </trkpt>
      <trkpt lat="47.26409" lon="-2.31581">
        <ele>-13.60000038147</ele>
        <time>2022-05-12T10:23:36.000Z</time>
      </trkpt>
      <trkpt lat="47.2641" lon="-2.31576">
        <ele>-13.60000038147</ele>
        <time>2022-05-12T10:23:37.000Z</time>
      </trkpt>
      <trkpt lat="47.26412" lon="-2.31552">
        <ele>-13.60000038147</ele>
        <time>2022-05-12T10:23:43.000Z</time>
      </trkpt>
      <trkpt lat="47.26417" lon="-2.31554">
        <ele>-13.60000038147</ele>
        <time>2022-05-12T10:23:46.000Z</time>
      </trkpt>
      <trkpt lat="47.26416" lon="-2.31554">
        <ele>-13.60000038147</ele>
        <time>2022-05-12T10:23:47.000Z</time>
      </trkpt>
    </trkseg>
  </trk>
</gpx>